<?xml version="1.0" encoding="UTF-8" standalone="no" ?>
<gpx xmlns="http://www.topografix.com/GPX/1/1" xmlns:xsi="http://www.w3.org/2001/XMLSchema-instance" xsi:schemaLocation="http://www.topografix.com/GPX/1/1 http://www.topografix.com/GPX/1/1/gpx.xsd" version="1.1" creator="VisuGPX - https://www.visugpx.com">
  <metadata>
    <name>rando availles thouarsais</name>
    <desc><![CDATA[Randonnée au départ de l'église d'Availles Thouarsais vers le château de Pioget et le Deffent,]]></desc>
  </metadata>
  <trk>
    <name><![CDATA[Parcours du 2016-05-19 14:10]]></name>
    <desc><![CDATA[]]></desc>
    <trkseg>
      <trkpt lat="46.85744" lon="-0.14302">
        <ele>71.5</ele>
        <time>2016-05-19T12:10:03.509Z</time>
      </trkpt>
      <trkpt lat="46.85774" lon="-0.1427">
        <ele>115.6</ele>
        <time>2016-05-19T12:10:05.141Z</time>
      </trkpt>
      <trkpt lat="46.85776" lon="-0.14272">
        <ele>109.6</ele>
        <time>2016-05-19T12:10:06.148Z</time>
      </trkpt>
      <trkpt lat="46.85783" lon="-0.14277">
        <ele>101.6</ele>
        <time>2016-05-19T12:10:08.153Z</time>
      </trkpt>
      <trkpt lat="46.85785" lon="-0.14282">
        <ele>102.1</ele>
        <time>2016-05-19T12:10:10.140Z</time>
      </trkpt>
      <trkpt lat="46.85785" lon="-0.14283">
        <ele>101.6</ele>
        <time>2016-05-19T12:10:11.205Z</time>
      </trkpt>
      <trkpt lat="46.85789" lon="-0.14286">
        <ele>97.6</ele>
        <time>2016-05-19T12:10:13.159Z</time>
      </trkpt>
      <trkpt lat="46.85791" lon="-0.14289">
        <ele>94.2</ele>
        <time>2016-05-19T12:10:15.139Z</time>
      </trkpt>
      <trkpt lat="46.85793" lon="-0.14291">
        <ele>93</ele>
        <time>2016-05-19T12:10:16.156Z</time>
      </trkpt>
      <trkpt lat="46.85793" lon="-0.14292">
        <ele>92.3</ele>
        <time>2016-05-19T12:10:17.154Z</time>
      </trkpt>
      <trkpt lat="46.85793" lon="-0.14292">
        <ele>91.1</ele>
        <time>2016-05-19T12:10:19.152Z</time>
      </trkpt>
      <trkpt lat="46.85794" lon="-0.14294">
        <ele>88.4</ele>
        <time>2016-05-19T12:10:20.156Z</time>
      </trkpt>
      <trkpt lat="46.85796" lon="-0.14296">
        <ele>85.7</ele>
        <time>2016-05-19T12:10:22.142Z</time>
      </trkpt>
      <trkpt lat="46.85799" lon="-0.14298">
        <ele>84.1</ele>
        <time>2016-05-19T12:10:24.150Z</time>
      </trkpt>
      <trkpt lat="46.858" lon="-0.143">
        <ele>82.4</ele>
        <time>2016-05-19T12:10:26.155Z</time>
      </trkpt>
      <trkpt lat="46.858" lon="-0.14301">
        <ele>80.2</ele>
        <time>2016-05-19T12:10:28.152Z</time>
      </trkpt>
      <trkpt lat="46.85801" lon="-0.14303">
        <ele>79.1</ele>
        <time>2016-05-19T12:10:30.153Z</time>
      </trkpt>
      <trkpt lat="46.85802" lon="-0.14311">
        <ele>78.2</ele>
        <time>2016-05-19T12:10:32.153Z</time>
      </trkpt>
      <trkpt lat="46.85803" lon="-0.14314">
        <ele>76.3</ele>
        <time>2016-05-19T12:10:34.139Z</time>
      </trkpt>
      <trkpt lat="46.85804" lon="-0.14315">
        <ele>75.9</ele>
        <time>2016-05-19T12:10:35.145Z</time>
      </trkpt>
      <trkpt lat="46.85804" lon="-0.14316">
        <ele>75.1</ele>
        <time>2016-05-19T12:10:37.140Z</time>
      </trkpt>
      <trkpt lat="46.85804" lon="-0.14316">
        <ele>75.1</ele>
        <time>2016-05-19T12:10:38.145Z</time>
      </trkpt>
      <trkpt lat="46.85804" lon="-0.14316">
        <ele>75.1</ele>
        <time>2016-05-19T12:10:40.139Z</time>
      </trkpt>
      <trkpt lat="46.85804" lon="-0.14316">
        <ele>75.1</ele>
        <time>2016-05-19T12:10:41.139Z</time>
      </trkpt>
      <trkpt lat="46.85804" lon="-0.14316">
        <ele>75.1</ele>
        <time>2016-05-19T12:10:42.149Z</time>
      </trkpt>
      <trkpt lat="46.85804" lon="-0.14316">
        <ele>75.1</ele>
        <time>2016-05-19T12:10:43.156Z</time>
      </trkpt>
      <trkpt lat="46.85804" lon="-0.14316">
        <ele>75.1</ele>
        <time>2016-05-19T12:10:45.155Z</time>
      </trkpt>
      <trkpt lat="46.85804" lon="-0.14316">
        <ele>75.1</ele>
        <time>2016-05-19T12:10:46.156Z</time>
      </trkpt>
      <trkpt lat="46.85804" lon="-0.14316">
        <ele>75.1</ele>
        <time>2016-05-19T12:10:47.169Z</time>
      </trkpt>
      <trkpt lat="46.85804" lon="-0.14316">
        <ele>75.1</ele>
        <time>2016-05-19T12:10:49.155Z</time>
      </trkpt>
      <trkpt lat="46.85804" lon="-0.14316">
        <ele>75.1</ele>
        <time>2016-05-19T12:10:51.137Z</time>
      </trkpt>
      <trkpt lat="46.85804" lon="-0.14316">
        <ele>75.1</ele>
        <time>2016-05-19T12:10:52.139Z</time>
      </trkpt>
      <trkpt lat="46.85804" lon="-0.14316">
        <ele>75.1</ele>
        <time>2016-05-19T12:10:53.137Z</time>
      </trkpt>
      <trkpt lat="46.85804" lon="-0.14316">
        <ele>75.1</ele>
        <time>2016-05-19T12:10:54.138Z</time>
      </trkpt>
      <trkpt lat="46.85804" lon="-0.14316">
        <ele>75.1</ele>
        <time>2016-05-19T12:10:55.140Z</time>
      </trkpt>
      <trkpt lat="46.85804" lon="-0.14316">
        <ele>75.1</ele>
        <time>2016-05-19T12:10:57.136Z</time>
      </trkpt>
      <trkpt lat="46.85804" lon="-0.14316">
        <ele>75.1</ele>
        <time>2016-05-19T12:10:58.155Z</time>
      </trkpt>
      <trkpt lat="46.85804" lon="-0.14316">
        <ele>75.1</ele>
        <time>2016-05-19T12:11:00.138Z</time>
      </trkpt>
      <trkpt lat="46.85815" lon="-0.14328">
        <ele>55</ele>
        <time>2016-05-19T12:11:01.163Z</time>
      </trkpt>
      <trkpt lat="46.85815" lon="-0.14328">
        <ele>55.1</ele>
        <time>2016-05-19T12:11:03.142Z</time>
      </trkpt>
      <trkpt lat="46.85815" lon="-0.14328">
        <ele>57.3</ele>
        <time>2016-05-19T12:11:04.141Z</time>
      </trkpt>
      <trkpt lat="46.85815" lon="-0.14328">
        <ele>57.3</ele>
        <time>2016-05-19T12:11:05.147Z</time>
      </trkpt>
      <trkpt lat="46.85815" lon="-0.14328">
        <ele>57.3</ele>
        <time>2016-05-19T12:11:07.143Z</time>
      </trkpt>
      <trkpt lat="46.85815" lon="-0.14328">
        <ele>57.3</ele>
        <time>2016-05-19T12:11:09.141Z</time>
      </trkpt>
      <trkpt lat="46.85815" lon="-0.14328">
        <ele>57.3</ele>
        <time>2016-05-19T12:11:11.139Z</time>
      </trkpt>
      <trkpt lat="46.85815" lon="-0.14328">
        <ele>57.3</ele>
        <time>2016-05-19T12:11:12.156Z</time>
      </trkpt>
      <trkpt lat="46.85815" lon="-0.14328">
        <ele>57.3</ele>
        <time>2016-05-19T12:11:13.160Z</time>
      </trkpt>
      <trkpt lat="46.85815" lon="-0.14328">
        <ele>57.3</ele>
        <time>2016-05-19T12:11:14.169Z</time>
      </trkpt>
      <trkpt lat="46.85815" lon="-0.14328">
        <ele>57.3</ele>
        <time>2016-05-19T12:11:16.157Z</time>
      </trkpt>
      <trkpt lat="46.85815" lon="-0.14328">
        <ele>57.3</ele>
        <time>2016-05-19T12:11:17.162Z</time>
      </trkpt>
      <trkpt lat="46.85815" lon="-0.14328">
        <ele>57.3</ele>
        <time>2016-05-19T12:11:19.162Z</time>
      </trkpt>
      <trkpt lat="46.85815" lon="-0.14328">
        <ele>57.3</ele>
        <time>2016-05-19T12:11:20.228Z</time>
      </trkpt>
      <trkpt lat="46.85815" lon="-0.14328">
        <ele>57.3</ele>
        <time>2016-05-19T12:11:21.164Z</time>
      </trkpt>
      <trkpt lat="46.85815" lon="-0.14328">
        <ele>57.3</ele>
        <time>2016-05-19T12:11:23.159Z</time>
      </trkpt>
      <trkpt lat="46.85815" lon="-0.14328">
        <ele>57.3</ele>
        <time>2016-05-19T12:11:24.160Z</time>
      </trkpt>
      <trkpt lat="46.85815" lon="-0.14328">
        <ele>57.3</ele>
        <time>2016-05-19T12:11:25.162Z</time>
      </trkpt>
      <trkpt lat="46.85815" lon="-0.14328">
        <ele>57.3</ele>
        <time>2016-05-19T12:11:27.163Z</time>
      </trkpt>
      <trkpt lat="46.85815" lon="-0.14328">
        <ele>57.3</ele>
        <time>2016-05-19T12:11:29.140Z</time>
      </trkpt>
      <trkpt lat="46.85815" lon="-0.14328">
        <ele>57.3</ele>
        <time>2016-05-19T12:11:30.175Z</time>
      </trkpt>
      <trkpt lat="46.85815" lon="-0.14328">
        <ele>57.3</ele>
        <time>2016-05-19T12:11:32.159Z</time>
      </trkpt>
      <trkpt lat="46.85815" lon="-0.14328">
        <ele>57.3</ele>
        <time>2016-05-19T12:11:34.144Z</time>
      </trkpt>
      <trkpt lat="46.85815" lon="-0.14328">
        <ele>57.3</ele>
        <time>2016-05-19T12:11:35.154Z</time>
      </trkpt>
      <trkpt lat="46.85815" lon="-0.14328">
        <ele>57.3</ele>
        <time>2016-05-19T12:11:36.163Z</time>
      </trkpt>
      <trkpt lat="46.85815" lon="-0.14328">
        <ele>57.3</ele>
        <time>2016-05-19T12:11:37.163Z</time>
      </trkpt>
      <trkpt lat="46.85815" lon="-0.14328">
        <ele>57.3</ele>
        <time>2016-05-19T12:11:39.160Z</time>
      </trkpt>
      <trkpt lat="46.85815" lon="-0.14328">
        <ele>57.3</ele>
        <time>2016-05-19T12:11:40.166Z</time>
      </trkpt>
      <trkpt lat="46.85815" lon="-0.14328">
        <ele>57.3</ele>
        <time>2016-05-19T12:11:42.159Z</time>
      </trkpt>
      <trkpt lat="46.85815" lon="-0.14328">
        <ele>57.3</ele>
        <time>2016-05-19T12:11:43.167Z</time>
      </trkpt>
      <trkpt lat="46.8582" lon="-0.14326">
        <ele>65.9</ele>
        <time>2016-05-19T12:11:45.160Z</time>
      </trkpt>
      <trkpt lat="46.85822" lon="-0.14326">
        <ele>66.1</ele>
        <time>2016-05-19T12:11:47.159Z</time>
      </trkpt>
      <trkpt lat="46.85822" lon="-0.14326">
        <ele>66.2</ele>
        <time>2016-05-19T12:11:49.144Z</time>
      </trkpt>
      <trkpt lat="46.85823" lon="-0.14325">
        <ele>66.3</ele>
        <time>2016-05-19T12:11:51.156Z</time>
      </trkpt>
      <trkpt lat="46.85823" lon="-0.14325">
        <ele>66.3</ele>
        <time>2016-05-19T12:11:53.161Z</time>
      </trkpt>
      <trkpt lat="46.85823" lon="-0.14325">
        <ele>66.4</ele>
        <time>2016-05-19T12:11:55.160Z</time>
      </trkpt>
      <trkpt lat="46.85823" lon="-0.14325">
        <ele>66.4</ele>
        <time>2016-05-19T12:11:57.155Z</time>
      </trkpt>
      <trkpt lat="46.85825" lon="-0.14324">
        <ele>66.4</ele>
        <time>2016-05-19T12:11:58.155Z</time>
      </trkpt>
      <trkpt lat="46.85826" lon="-0.14324">
        <ele>66.5</ele>
        <time>2016-05-19T12:12:00.139Z</time>
      </trkpt>
      <trkpt lat="46.85827" lon="-0.14324">
        <ele>66.5</ele>
        <time>2016-05-19T12:12:01.152Z</time>
      </trkpt>
      <trkpt lat="46.85828" lon="-0.14324">
        <ele>66.5</ele>
        <time>2016-05-19T12:12:03.154Z</time>
      </trkpt>
      <trkpt lat="46.8583" lon="-0.14324">
        <ele>66.6</ele>
        <time>2016-05-19T12:12:05.154Z</time>
      </trkpt>
      <trkpt lat="46.8583" lon="-0.14324">
        <ele>66.6</ele>
        <time>2016-05-19T12:12:07.159Z</time>
      </trkpt>
      <trkpt lat="46.85831" lon="-0.14324">
        <ele>66.6</ele>
        <time>2016-05-19T12:12:09.140Z</time>
      </trkpt>
      <trkpt lat="46.85831" lon="-0.14324">
        <ele>66.6</ele>
        <time>2016-05-19T12:12:10.144Z</time>
      </trkpt>
      <trkpt lat="46.85832" lon="-0.14323">
        <ele>66.6</ele>
        <time>2016-05-19T12:12:12.153Z</time>
      </trkpt>
      <trkpt lat="46.85832" lon="-0.14323">
        <ele>66.6</ele>
        <time>2016-05-19T12:12:14.140Z</time>
      </trkpt>
      <trkpt lat="46.85833" lon="-0.14322">
        <ele>66.6</ele>
        <time>2016-05-19T12:12:15.143Z</time>
      </trkpt>
      <trkpt lat="46.85833" lon="-0.14322">
        <ele>66.6</ele>
        <time>2016-05-19T12:12:16.145Z</time>
      </trkpt>
      <trkpt lat="46.85835" lon="-0.14321">
        <ele>66.6</ele>
        <time>2016-05-19T12:12:18.155Z</time>
      </trkpt>
      <trkpt lat="46.85836" lon="-0.14321">
        <ele>66.7</ele>
        <time>2016-05-19T12:12:20.153Z</time>
      </trkpt>
      <trkpt lat="46.85836" lon="-0.14322">
        <ele>66.8</ele>
        <time>2016-05-19T12:12:22.161Z</time>
      </trkpt>
      <trkpt lat="46.85837" lon="-0.14325">
        <ele>66.9</ele>
        <time>2016-05-19T12:12:24.160Z</time>
      </trkpt>
      <trkpt lat="46.85838" lon="-0.14328">
        <ele>66.8</ele>
        <time>2016-05-19T12:12:26.155Z</time>
      </trkpt>
      <trkpt lat="46.8584" lon="-0.14331">
        <ele>66.8</ele>
        <time>2016-05-19T12:12:28.160Z</time>
      </trkpt>
      <trkpt lat="46.85841" lon="-0.14334">
        <ele>66.8</ele>
        <time>2016-05-19T12:12:30.252Z</time>
      </trkpt>
      <trkpt lat="46.85842" lon="-0.14337">
        <ele>66.8</ele>
        <time>2016-05-19T12:12:32.157Z</time>
      </trkpt>
      <trkpt lat="46.85843" lon="-0.1434">
        <ele>66.8</ele>
        <time>2016-05-19T12:12:34.155Z</time>
      </trkpt>
      <trkpt lat="46.85844" lon="-0.14343">
        <ele>66.9</ele>
        <time>2016-05-19T12:12:36.139Z</time>
      </trkpt>
      <trkpt lat="46.85845" lon="-0.14345">
        <ele>66.9</ele>
        <time>2016-05-19T12:12:37.141Z</time>
      </trkpt>
      <trkpt lat="46.85846" lon="-0.14346">
        <ele>66.9</ele>
        <time>2016-05-19T12:12:38.142Z</time>
      </trkpt>
      <trkpt lat="46.85846" lon="-0.14347">
        <ele>66.9</ele>
        <time>2016-05-19T12:12:39.144Z</time>
      </trkpt>
      <trkpt lat="46.85846" lon="-0.14348">
        <ele>67</ele>
        <time>2016-05-19T12:12:40.155Z</time>
      </trkpt>
      <trkpt lat="46.85848" lon="-0.1435">
        <ele>67.1</ele>
        <time>2016-05-19T12:12:42.153Z</time>
      </trkpt>
      <trkpt lat="46.85849" lon="-0.14351">
        <ele>67.2</ele>
        <time>2016-05-19T12:12:44.155Z</time>
      </trkpt>
      <trkpt lat="46.8585" lon="-0.14354">
        <ele>67.3</ele>
        <time>2016-05-19T12:12:46.158Z</time>
      </trkpt>
      <trkpt lat="46.85851" lon="-0.14358">
        <ele>67.3</ele>
        <time>2016-05-19T12:12:48.159Z</time>
      </trkpt>
      <trkpt lat="46.85851" lon="-0.14361">
        <ele>67.3</ele>
        <time>2016-05-19T12:12:50.156Z</time>
      </trkpt>
      <trkpt lat="46.85852" lon="-0.14364">
        <ele>67.4</ele>
        <time>2016-05-19T12:12:52.160Z</time>
      </trkpt>
      <trkpt lat="46.85852" lon="-0.14368">
        <ele>67.4</ele>
        <time>2016-05-19T12:12:54.138Z</time>
      </trkpt>
      <trkpt lat="46.85852" lon="-0.1437">
        <ele>67.4</ele>
        <time>2016-05-19T12:12:55.141Z</time>
      </trkpt>
      <trkpt lat="46.85852" lon="-0.14371">
        <ele>67.4</ele>
        <time>2016-05-19T12:12:56.142Z</time>
      </trkpt>
      <trkpt lat="46.85852" lon="-0.14371">
        <ele>67.3</ele>
        <time>2016-05-19T12:12:58.155Z</time>
      </trkpt>
      <trkpt lat="46.85852" lon="-0.14372">
        <ele>67.2</ele>
        <time>2016-05-19T12:13:00.143Z</time>
      </trkpt>
      <trkpt lat="46.85853" lon="-0.14375">
        <ele>67.1</ele>
        <time>2016-05-19T12:13:01.150Z</time>
      </trkpt>
      <trkpt lat="46.85852" lon="-0.14378">
        <ele>67</ele>
        <time>2016-05-19T12:13:03.159Z</time>
      </trkpt>
      <trkpt lat="46.85852" lon="-0.14382">
        <ele>67</ele>
        <time>2016-05-19T12:13:05.139Z</time>
      </trkpt>
      <trkpt lat="46.85853" lon="-0.14384">
        <ele>66.9</ele>
        <time>2016-05-19T12:13:06.143Z</time>
      </trkpt>
      <trkpt lat="46.85853" lon="-0.14385">
        <ele>66.9</ele>
        <time>2016-05-19T12:13:07.144Z</time>
      </trkpt>
      <trkpt lat="46.85853" lon="-0.14389">
        <ele>66.8</ele>
        <time>2016-05-19T12:13:09.161Z</time>
      </trkpt>
      <trkpt lat="46.85854" lon="-0.14392">
        <ele>66.7</ele>
        <time>2016-05-19T12:13:11.157Z</time>
      </trkpt>
      <trkpt lat="46.85854" lon="-0.14395">
        <ele>66.6</ele>
        <time>2016-05-19T12:13:13.159Z</time>
      </trkpt>
      <trkpt lat="46.85856" lon="-0.14398">
        <ele>66.4</ele>
        <time>2016-05-19T12:13:15.157Z</time>
      </trkpt>
      <trkpt lat="46.85856" lon="-0.14401">
        <ele>66.4</ele>
        <time>2016-05-19T12:13:17.154Z</time>
      </trkpt>
      <trkpt lat="46.85856" lon="-0.14404">
        <ele>66.3</ele>
        <time>2016-05-19T12:13:19.153Z</time>
      </trkpt>
      <trkpt lat="46.85856" lon="-0.14408">
        <ele>66.3</ele>
        <time>2016-05-19T12:13:21.155Z</time>
      </trkpt>
      <trkpt lat="46.85856" lon="-0.14412">
        <ele>66.2</ele>
        <time>2016-05-19T12:13:23.153Z</time>
      </trkpt>
      <trkpt lat="46.85857" lon="-0.14415">
        <ele>66.2</ele>
        <time>2016-05-19T12:13:25.156Z</time>
      </trkpt>
      <trkpt lat="46.85858" lon="-0.14419">
        <ele>66.1</ele>
        <time>2016-05-19T12:13:27.159Z</time>
      </trkpt>
      <trkpt lat="46.85858" lon="-0.14423">
        <ele>65.9</ele>
        <time>2016-05-19T12:13:29.152Z</time>
      </trkpt>
      <trkpt lat="46.85858" lon="-0.14426">
        <ele>65.9</ele>
        <time>2016-05-19T12:13:31.160Z</time>
      </trkpt>
      <trkpt lat="46.85857" lon="-0.1443">
        <ele>65.9</ele>
        <time>2016-05-19T12:13:33.164Z</time>
      </trkpt>
      <trkpt lat="46.85857" lon="-0.14433">
        <ele>65.8</ele>
        <time>2016-05-19T12:13:35.166Z</time>
      </trkpt>
      <trkpt lat="46.85858" lon="-0.14437">
        <ele>65.8</ele>
        <time>2016-05-19T12:13:37.165Z</time>
      </trkpt>
      <trkpt lat="46.85857" lon="-0.1444">
        <ele>65.9</ele>
        <time>2016-05-19T12:13:39.160Z</time>
      </trkpt>
      <trkpt lat="46.85857" lon="-0.14444">
        <ele>65.9</ele>
        <time>2016-05-19T12:13:41.155Z</time>
      </trkpt>
      <trkpt lat="46.85857" lon="-0.14447">
        <ele>65.8</ele>
        <time>2016-05-19T12:13:43.158Z</time>
      </trkpt>
      <trkpt lat="46.85857" lon="-0.1445">
        <ele>65.5</ele>
        <time>2016-05-19T12:13:45.157Z</time>
      </trkpt>
      <trkpt lat="46.85857" lon="-0.14454">
        <ele>65.2</ele>
        <time>2016-05-19T12:13:47.159Z</time>
      </trkpt>
      <trkpt lat="46.85857" lon="-0.14457">
        <ele>65.1</ele>
        <time>2016-05-19T12:13:49.160Z</time>
      </trkpt>
      <trkpt lat="46.85857" lon="-0.14461">
        <ele>65.1</ele>
        <time>2016-05-19T12:13:51.159Z</time>
      </trkpt>
      <trkpt lat="46.85858" lon="-0.14464">
        <ele>65.1</ele>
        <time>2016-05-19T12:13:53.159Z</time>
      </trkpt>
      <trkpt lat="46.85858" lon="-0.14467">
        <ele>64.9</ele>
        <time>2016-05-19T12:13:55.158Z</time>
      </trkpt>
      <trkpt lat="46.85859" lon="-0.1447">
        <ele>65</ele>
        <time>2016-05-19T12:13:57.165Z</time>
      </trkpt>
      <trkpt lat="46.8586" lon="-0.14473">
        <ele>64.7</ele>
        <time>2016-05-19T12:13:59.155Z</time>
      </trkpt>
      <trkpt lat="46.8586" lon="-0.14477">
        <ele>64.6</ele>
        <time>2016-05-19T12:14:01.139Z</time>
      </trkpt>
      <trkpt lat="46.8586" lon="-0.14479">
        <ele>64.4</ele>
        <time>2016-05-19T12:14:02.143Z</time>
      </trkpt>
      <trkpt lat="46.8586" lon="-0.14483">
        <ele>64.4</ele>
        <time>2016-05-19T12:14:04.154Z</time>
      </trkpt>
      <trkpt lat="46.85858" lon="-0.14488">
        <ele>64.7</ele>
        <time>2016-05-19T12:14:06.156Z</time>
      </trkpt>
      <trkpt lat="46.85857" lon="-0.14492">
        <ele>65.1</ele>
        <time>2016-05-19T12:14:08.156Z</time>
      </trkpt>
      <trkpt lat="46.85857" lon="-0.14495">
        <ele>65.3</ele>
        <time>2016-05-19T12:14:10.155Z</time>
      </trkpt>
      <trkpt lat="46.85857" lon="-0.14498">
        <ele>65.5</ele>
        <time>2016-05-19T12:14:12.154Z</time>
      </trkpt>
      <trkpt lat="46.85857" lon="-0.14502">
        <ele>65.6</ele>
        <time>2016-05-19T12:14:14.155Z</time>
      </trkpt>
      <trkpt lat="46.85859" lon="-0.14504">
        <ele>65.7</ele>
        <time>2016-05-19T12:14:16.162Z</time>
      </trkpt>
      <trkpt lat="46.85861" lon="-0.14505">
        <ele>65.8</ele>
        <time>2016-05-19T12:14:18.155Z</time>
      </trkpt>
      <trkpt lat="46.85863" lon="-0.14506">
        <ele>65.7</ele>
        <time>2016-05-19T12:14:20.162Z</time>
      </trkpt>
      <trkpt lat="46.85865" lon="-0.14507">
        <ele>65.7</ele>
        <time>2016-05-19T12:14:22.157Z</time>
      </trkpt>
      <trkpt lat="46.85867" lon="-0.14507">
        <ele>65.6</ele>
        <time>2016-05-19T12:14:24.159Z</time>
      </trkpt>
      <trkpt lat="46.85869" lon="-0.14508">
        <ele>65.6</ele>
        <time>2016-05-19T12:14:26.163Z</time>
      </trkpt>
      <trkpt lat="46.8587" lon="-0.14508">
        <ele>65.5</ele>
        <time>2016-05-19T12:14:28.155Z</time>
      </trkpt>
      <trkpt lat="46.85873" lon="-0.14509">
        <ele>65.4</ele>
        <time>2016-05-19T12:14:30.163Z</time>
      </trkpt>
      <trkpt lat="46.85875" lon="-0.14509">
        <ele>65.4</ele>
        <time>2016-05-19T12:14:32.159Z</time>
      </trkpt>
      <trkpt lat="46.85877" lon="-0.1451">
        <ele>65.4</ele>
        <time>2016-05-19T12:14:34.154Z</time>
      </trkpt>
      <trkpt lat="46.8588" lon="-0.1451">
        <ele>65.4</ele>
        <time>2016-05-19T12:14:36.158Z</time>
      </trkpt>
      <trkpt lat="46.85881" lon="-0.1451">
        <ele>65.3</ele>
        <time>2016-05-19T12:14:38.157Z</time>
      </trkpt>
      <trkpt lat="46.85883" lon="-0.14508">
        <ele>65.4</ele>
        <time>2016-05-19T12:14:40.139Z</time>
      </trkpt>
      <trkpt lat="46.85884" lon="-0.14508">
        <ele>65.4</ele>
        <time>2016-05-19T12:14:41.141Z</time>
      </trkpt>
      <trkpt lat="46.85885" lon="-0.14508">
        <ele>65.4</ele>
        <time>2016-05-19T12:14:42.142Z</time>
      </trkpt>
      <trkpt lat="46.85886" lon="-0.14507">
        <ele>65.4</ele>
        <time>2016-05-19T12:14:43.144Z</time>
      </trkpt>
      <trkpt lat="46.85887" lon="-0.14507">
        <ele>65.3</ele>
        <time>2016-05-19T12:14:45.156Z</time>
      </trkpt>
      <trkpt lat="46.85889" lon="-0.14507">
        <ele>65.3</ele>
        <time>2016-05-19T12:14:47.155Z</time>
      </trkpt>
      <trkpt lat="46.85891" lon="-0.14506">
        <ele>65.4</ele>
        <time>2016-05-19T12:14:49.172Z</time>
      </trkpt>
      <trkpt lat="46.85894" lon="-0.14506">
        <ele>65.2</ele>
        <time>2016-05-19T12:14:51.154Z</time>
      </trkpt>
      <trkpt lat="46.85896" lon="-0.14504">
        <ele>65.4</ele>
        <time>2016-05-19T12:14:53.153Z</time>
      </trkpt>
      <trkpt lat="46.85897" lon="-0.14504">
        <ele>65.5</ele>
        <time>2016-05-19T12:14:55.160Z</time>
      </trkpt>
      <trkpt lat="46.85899" lon="-0.14505">
        <ele>65.6</ele>
        <time>2016-05-19T12:14:57.163Z</time>
      </trkpt>
      <trkpt lat="46.85902" lon="-0.14505">
        <ele>65.7</ele>
        <time>2016-05-19T12:14:59.155Z</time>
      </trkpt>
      <trkpt lat="46.85905" lon="-0.14506">
        <ele>65.7</ele>
        <time>2016-05-19T12:15:01.194Z</time>
      </trkpt>
      <trkpt lat="46.85907" lon="-0.14506">
        <ele>65.7</ele>
        <time>2016-05-19T12:15:03.155Z</time>
      </trkpt>
      <trkpt lat="46.85909" lon="-0.14506">
        <ele>65.8</ele>
        <time>2016-05-19T12:15:05.157Z</time>
      </trkpt>
      <trkpt lat="46.85911" lon="-0.14505">
        <ele>66</ele>
        <time>2016-05-19T12:15:07.165Z</time>
      </trkpt>
      <trkpt lat="46.85914" lon="-0.14505">
        <ele>65.7</ele>
        <time>2016-05-19T12:15:09.163Z</time>
      </trkpt>
      <trkpt lat="46.85916" lon="-0.14505">
        <ele>65.6</ele>
        <time>2016-05-19T12:15:11.158Z</time>
      </trkpt>
      <trkpt lat="46.85918" lon="-0.14504">
        <ele>65.6</ele>
        <time>2016-05-19T12:15:13.156Z</time>
      </trkpt>
      <trkpt lat="46.8592" lon="-0.14504">
        <ele>65.3</ele>
        <time>2016-05-19T12:15:15.155Z</time>
      </trkpt>
      <trkpt lat="46.85923" lon="-0.14504">
        <ele>65.1</ele>
        <time>2016-05-19T12:15:17.155Z</time>
      </trkpt>
      <trkpt lat="46.85925" lon="-0.14504">
        <ele>65.4</ele>
        <time>2016-05-19T12:15:19.162Z</time>
      </trkpt>
      <trkpt lat="46.85927" lon="-0.14503">
        <ele>65.3</ele>
        <time>2016-05-19T12:15:21.149Z</time>
      </trkpt>
      <trkpt lat="46.85928" lon="-0.14503">
        <ele>65.4</ele>
        <time>2016-05-19T12:15:22.148Z</time>
      </trkpt>
      <trkpt lat="46.8593" lon="-0.14503">
        <ele>65.9</ele>
        <time>2016-05-19T12:15:24.156Z</time>
      </trkpt>
      <trkpt lat="46.85933" lon="-0.14503">
        <ele>65.8</ele>
        <time>2016-05-19T12:15:26.162Z</time>
      </trkpt>
      <trkpt lat="46.85934" lon="-0.14503">
        <ele>65.9</ele>
        <time>2016-05-19T12:15:27.154Z</time>
      </trkpt>
      <trkpt lat="46.85936" lon="-0.14503">
        <ele>65.4</ele>
        <time>2016-05-19T12:15:29.160Z</time>
      </trkpt>
      <trkpt lat="46.85939" lon="-0.14504">
        <ele>65.4</ele>
        <time>2016-05-19T12:15:31.157Z</time>
      </trkpt>
      <trkpt lat="46.85941" lon="-0.14505">
        <ele>66.1</ele>
        <time>2016-05-19T12:15:33.154Z</time>
      </trkpt>
      <trkpt lat="46.85943" lon="-0.14505">
        <ele>66.6</ele>
        <time>2016-05-19T12:15:35.155Z</time>
      </trkpt>
      <trkpt lat="46.85946" lon="-0.14505">
        <ele>66.8</ele>
        <time>2016-05-19T12:15:37.155Z</time>
      </trkpt>
      <trkpt lat="46.85948" lon="-0.14506">
        <ele>67.2</ele>
        <time>2016-05-19T12:15:39.160Z</time>
      </trkpt>
      <trkpt lat="46.85951" lon="-0.14507">
        <ele>67</ele>
        <time>2016-05-19T12:15:41.166Z</time>
      </trkpt>
      <trkpt lat="46.85953" lon="-0.14508">
        <ele>66.4</ele>
        <time>2016-05-19T12:15:43.160Z</time>
      </trkpt>
      <trkpt lat="46.85955" lon="-0.14509">
        <ele>65.2</ele>
        <time>2016-05-19T12:15:45.163Z</time>
      </trkpt>
      <trkpt lat="46.85957" lon="-0.1451">
        <ele>64.7</ele>
        <time>2016-05-19T12:15:47.139Z</time>
      </trkpt>
      <trkpt lat="46.85959" lon="-0.14511">
        <ele>64</ele>
        <time>2016-05-19T12:15:48.146Z</time>
      </trkpt>
      <trkpt lat="46.8596" lon="-0.14512">
        <ele>63.8</ele>
        <time>2016-05-19T12:15:49.148Z</time>
      </trkpt>
      <trkpt lat="46.85962" lon="-0.14514">
        <ele>62.4</ele>
        <time>2016-05-19T12:15:51.159Z</time>
      </trkpt>
      <trkpt lat="46.85965" lon="-0.14516">
        <ele>60.9</ele>
        <time>2016-05-19T12:15:53.141Z</time>
      </trkpt>
      <trkpt lat="46.85965" lon="-0.14516">
        <ele>60.3</ele>
        <time>2016-05-19T12:15:54.149Z</time>
      </trkpt>
      <trkpt lat="46.85968" lon="-0.14518">
        <ele>60</ele>
        <time>2016-05-19T12:15:56.155Z</time>
      </trkpt>
      <trkpt lat="46.8597" lon="-0.14519">
        <ele>59</ele>
        <time>2016-05-19T12:15:58.138Z</time>
      </trkpt>
      <trkpt lat="46.85971" lon="-0.14519">
        <ele>59</ele>
        <time>2016-05-19T12:15:59.142Z</time>
      </trkpt>
      <trkpt lat="46.85973" lon="-0.1452">
        <ele>59.2</ele>
        <time>2016-05-19T12:16:01.157Z</time>
      </trkpt>
      <trkpt lat="46.85976" lon="-0.14521">
        <ele>59</ele>
        <time>2016-05-19T12:16:03.155Z</time>
      </trkpt>
      <trkpt lat="46.85978" lon="-0.14522">
        <ele>58.7</ele>
        <time>2016-05-19T12:16:05.155Z</time>
      </trkpt>
      <trkpt lat="46.8598" lon="-0.14522">
        <ele>58.7</ele>
        <time>2016-05-19T12:16:07.145Z</time>
      </trkpt>
      <trkpt lat="46.85982" lon="-0.14523">
        <ele>59.3</ele>
        <time>2016-05-19T12:16:09.158Z</time>
      </trkpt>
      <trkpt lat="46.85984" lon="-0.14523">
        <ele>59.6</ele>
        <time>2016-05-19T12:16:11.156Z</time>
      </trkpt>
      <trkpt lat="46.85986" lon="-0.14523">
        <ele>60.4</ele>
        <time>2016-05-19T12:16:13.157Z</time>
      </trkpt>
      <trkpt lat="46.85989" lon="-0.14524">
        <ele>60.8</ele>
        <time>2016-05-19T12:16:15.155Z</time>
      </trkpt>
      <trkpt lat="46.85991" lon="-0.14524">
        <ele>61.6</ele>
        <time>2016-05-19T12:16:17.156Z</time>
      </trkpt>
      <trkpt lat="46.85993" lon="-0.14526">
        <ele>62</ele>
        <time>2016-05-19T12:16:19.164Z</time>
      </trkpt>
      <trkpt lat="46.85995" lon="-0.14526">
        <ele>62.6</ele>
        <time>2016-05-19T12:16:21.139Z</time>
      </trkpt>
      <trkpt lat="46.85996" lon="-0.14526">
        <ele>62.7</ele>
        <time>2016-05-19T12:16:22.142Z</time>
      </trkpt>
      <trkpt lat="46.85999" lon="-0.14527">
        <ele>62.9</ele>
        <time>2016-05-19T12:16:24.154Z</time>
      </trkpt>
      <trkpt lat="46.86001" lon="-0.14528">
        <ele>62.3</ele>
        <time>2016-05-19T12:16:26.160Z</time>
      </trkpt>
      <trkpt lat="46.86002" lon="-0.14527">
        <ele>62.7</ele>
        <time>2016-05-19T12:16:28.155Z</time>
      </trkpt>
      <trkpt lat="46.86004" lon="-0.14527">
        <ele>63</ele>
        <time>2016-05-19T12:16:30.165Z</time>
      </trkpt>
      <trkpt lat="46.86007" lon="-0.14528">
        <ele>61.9</ele>
        <time>2016-05-19T12:16:32.162Z</time>
      </trkpt>
      <trkpt lat="46.8601" lon="-0.14529">
        <ele>61.3</ele>
        <time>2016-05-19T12:16:34.154Z</time>
      </trkpt>
      <trkpt lat="46.86012" lon="-0.1453">
        <ele>60.7</ele>
        <time>2016-05-19T12:16:36.162Z</time>
      </trkpt>
      <trkpt lat="46.86015" lon="-0.14532">
        <ele>59.9</ele>
        <time>2016-05-19T12:16:38.162Z</time>
      </trkpt>
      <trkpt lat="46.86017" lon="-0.14533">
        <ele>59.2</ele>
        <time>2016-05-19T12:16:40.166Z</time>
      </trkpt>
      <trkpt lat="46.86019" lon="-0.14534">
        <ele>58.9</ele>
        <time>2016-05-19T12:16:42.190Z</time>
      </trkpt>
      <trkpt lat="46.86022" lon="-0.14535">
        <ele>57.9</ele>
        <time>2016-05-19T12:16:44.155Z</time>
      </trkpt>
      <trkpt lat="46.86025" lon="-0.14537">
        <ele>56.9</ele>
        <time>2016-05-19T12:16:46.158Z</time>
      </trkpt>
      <trkpt lat="46.86027" lon="-0.14538">
        <ele>56.1</ele>
        <time>2016-05-19T12:16:48.160Z</time>
      </trkpt>
      <trkpt lat="46.86029" lon="-0.1454">
        <ele>55.5</ele>
        <time>2016-05-19T12:16:50.158Z</time>
      </trkpt>
      <trkpt lat="46.86031" lon="-0.14541">
        <ele>54.9</ele>
        <time>2016-05-19T12:16:52.166Z</time>
      </trkpt>
      <trkpt lat="46.86034" lon="-0.14543">
        <ele>55.3</ele>
        <time>2016-05-19T12:16:54.158Z</time>
      </trkpt>
      <trkpt lat="46.86036" lon="-0.14544">
        <ele>55.6</ele>
        <time>2016-05-19T12:16:56.159Z</time>
      </trkpt>
      <trkpt lat="46.86038" lon="-0.14546">
        <ele>55.7</ele>
        <time>2016-05-19T12:16:58.141Z</time>
      </trkpt>
      <trkpt lat="46.86039" lon="-0.14547">
        <ele>55.5</ele>
        <time>2016-05-19T12:16:59.144Z</time>
      </trkpt>
      <trkpt lat="46.86041" lon="-0.14548">
        <ele>55.6</ele>
        <time>2016-05-19T12:17:01.164Z</time>
      </trkpt>
      <trkpt lat="46.86043" lon="-0.1455">
        <ele>55.9</ele>
        <time>2016-05-19T12:17:03.158Z</time>
      </trkpt>
      <trkpt lat="46.86045" lon="-0.14552">
        <ele>56.8</ele>
        <time>2016-05-19T12:17:05.155Z</time>
      </trkpt>
      <trkpt lat="46.86047" lon="-0.14553">
        <ele>56.8</ele>
        <time>2016-05-19T12:17:07.164Z</time>
      </trkpt>
      <trkpt lat="46.86049" lon="-0.14555">
        <ele>57</ele>
        <time>2016-05-19T12:17:09.157Z</time>
      </trkpt>
      <trkpt lat="46.86051" lon="-0.14558">
        <ele>57.2</ele>
        <time>2016-05-19T12:17:11.155Z</time>
      </trkpt>
      <trkpt lat="46.86052" lon="-0.1456">
        <ele>57.6</ele>
        <time>2016-05-19T12:17:13.155Z</time>
      </trkpt>
      <trkpt lat="46.86053" lon="-0.14564">
        <ele>58.1</ele>
        <time>2016-05-19T12:17:15.153Z</time>
      </trkpt>
      <trkpt lat="46.86054" lon="-0.14566">
        <ele>59.2</ele>
        <time>2016-05-19T12:17:17.148Z</time>
      </trkpt>
      <trkpt lat="46.86055" lon="-0.14569">
        <ele>59.1</ele>
        <time>2016-05-19T12:17:19.154Z</time>
      </trkpt>
      <trkpt lat="46.86055" lon="-0.14573">
        <ele>58.9</ele>
        <time>2016-05-19T12:17:21.156Z</time>
      </trkpt>
      <trkpt lat="46.86055" lon="-0.14577">
        <ele>58.9</ele>
        <time>2016-05-19T12:17:23.153Z</time>
      </trkpt>
      <trkpt lat="46.86055" lon="-0.14581">
        <ele>58.4</ele>
        <time>2016-05-19T12:17:25.155Z</time>
      </trkpt>
      <trkpt lat="46.86056" lon="-0.14585">
        <ele>59.3</ele>
        <time>2016-05-19T12:17:27.157Z</time>
      </trkpt>
      <trkpt lat="46.86056" lon="-0.14588">
        <ele>59.8</ele>
        <time>2016-05-19T12:17:29.154Z</time>
      </trkpt>
      <trkpt lat="46.86057" lon="-0.14592">
        <ele>59.8</ele>
        <time>2016-05-19T12:17:31.160Z</time>
      </trkpt>
      <trkpt lat="46.86057" lon="-0.14597">
        <ele>60.9</ele>
        <time>2016-05-19T12:17:33.158Z</time>
      </trkpt>
      <trkpt lat="46.86058" lon="-0.146">
        <ele>60.8</ele>
        <time>2016-05-19T12:17:35.159Z</time>
      </trkpt>
      <trkpt lat="46.86058" lon="-0.14604">
        <ele>61</ele>
        <time>2016-05-19T12:17:37.161Z</time>
      </trkpt>
      <trkpt lat="46.86059" lon="-0.14608">
        <ele>61</ele>
        <time>2016-05-19T12:17:39.165Z</time>
      </trkpt>
      <trkpt lat="46.86059" lon="-0.14613">
        <ele>60.6</ele>
        <time>2016-05-19T12:17:41.154Z</time>
      </trkpt>
      <trkpt lat="46.86059" lon="-0.14616">
        <ele>60.2</ele>
        <time>2016-05-19T12:17:43.158Z</time>
      </trkpt>
      <trkpt lat="46.8606" lon="-0.14619">
        <ele>60.2</ele>
        <time>2016-05-19T12:17:45.163Z</time>
      </trkpt>
      <trkpt lat="46.8606" lon="-0.14623">
        <ele>60.1</ele>
        <time>2016-05-19T12:17:47.161Z</time>
      </trkpt>
      <trkpt lat="46.8606" lon="-0.14626">
        <ele>59.8</ele>
        <time>2016-05-19T12:17:49.157Z</time>
      </trkpt>
      <trkpt lat="46.86061" lon="-0.1463">
        <ele>59.9</ele>
        <time>2016-05-19T12:17:51.155Z</time>
      </trkpt>
      <trkpt lat="46.86061" lon="-0.14634">
        <ele>60.2</ele>
        <time>2016-05-19T12:17:53.155Z</time>
      </trkpt>
      <trkpt lat="46.86062" lon="-0.14637">
        <ele>60.8</ele>
        <time>2016-05-19T12:17:55.160Z</time>
      </trkpt>
      <trkpt lat="46.86062" lon="-0.1464">
        <ele>61.1</ele>
        <time>2016-05-19T12:17:57.164Z</time>
      </trkpt>
      <trkpt lat="46.86062" lon="-0.14644">
        <ele>61</ele>
        <time>2016-05-19T12:17:59.162Z</time>
      </trkpt>
      <trkpt lat="46.86062" lon="-0.14647">
        <ele>60.9</ele>
        <time>2016-05-19T12:18:01.156Z</time>
      </trkpt>
      <trkpt lat="46.86063" lon="-0.14651">
        <ele>61.1</ele>
        <time>2016-05-19T12:18:03.153Z</time>
      </trkpt>
      <trkpt lat="46.86063" lon="-0.14653">
        <ele>61.1</ele>
        <time>2016-05-19T12:18:05.154Z</time>
      </trkpt>
      <trkpt lat="46.86063" lon="-0.14656">
        <ele>60.7</ele>
        <time>2016-05-19T12:18:07.163Z</time>
      </trkpt>
      <trkpt lat="46.86063" lon="-0.14659">
        <ele>60.9</ele>
        <time>2016-05-19T12:18:09.146Z</time>
      </trkpt>
      <trkpt lat="46.86064" lon="-0.14661">
        <ele>60.7</ele>
        <time>2016-05-19T12:18:11.158Z</time>
      </trkpt>
      <trkpt lat="46.86064" lon="-0.14664">
        <ele>60.7</ele>
        <time>2016-05-19T12:18:13.169Z</time>
      </trkpt>
      <trkpt lat="46.86064" lon="-0.14667">
        <ele>60.4</ele>
        <time>2016-05-19T12:18:15.158Z</time>
      </trkpt>
      <trkpt lat="46.86064" lon="-0.14671">
        <ele>60.3</ele>
        <time>2016-05-19T12:18:17.154Z</time>
      </trkpt>
      <trkpt lat="46.86063" lon="-0.14674">
        <ele>60.2</ele>
        <time>2016-05-19T12:18:19.157Z</time>
      </trkpt>
      <trkpt lat="46.86063" lon="-0.14678">
        <ele>60.4</ele>
        <time>2016-05-19T12:18:21.155Z</time>
      </trkpt>
      <trkpt lat="46.86063" lon="-0.14682">
        <ele>60.4</ele>
        <time>2016-05-19T12:18:23.159Z</time>
      </trkpt>
      <trkpt lat="46.86063" lon="-0.14685">
        <ele>59.8</ele>
        <time>2016-05-19T12:18:25.158Z</time>
      </trkpt>
      <trkpt lat="46.86063" lon="-0.14689">
        <ele>59.9</ele>
        <time>2016-05-19T12:18:27.159Z</time>
      </trkpt>
      <trkpt lat="46.86063" lon="-0.14694">
        <ele>59.2</ele>
        <time>2016-05-19T12:18:29.154Z</time>
      </trkpt>
      <trkpt lat="46.86063" lon="-0.14698">
        <ele>59.1</ele>
        <time>2016-05-19T12:18:31.158Z</time>
      </trkpt>
      <trkpt lat="46.86063" lon="-0.14701">
        <ele>59.2</ele>
        <time>2016-05-19T12:18:33.138Z</time>
      </trkpt>
      <trkpt lat="46.86063" lon="-0.14703">
        <ele>59.1</ele>
        <time>2016-05-19T12:18:34.142Z</time>
      </trkpt>
      <trkpt lat="46.86064" lon="-0.14706">
        <ele>58.5</ele>
        <time>2016-05-19T12:18:36.158Z</time>
      </trkpt>
      <trkpt lat="46.86064" lon="-0.1471">
        <ele>57.9</ele>
        <time>2016-05-19T12:18:38.153Z</time>
      </trkpt>
      <trkpt lat="46.86064" lon="-0.14714">
        <ele>58</ele>
        <time>2016-05-19T12:18:40.162Z</time>
      </trkpt>
      <trkpt lat="46.86065" lon="-0.14718">
        <ele>57.8</ele>
        <time>2016-05-19T12:18:42.158Z</time>
      </trkpt>
      <trkpt lat="46.86066" lon="-0.14722">
        <ele>57.3</ele>
        <time>2016-05-19T12:18:44.154Z</time>
      </trkpt>
      <trkpt lat="46.86066" lon="-0.14725">
        <ele>57.7</ele>
        <time>2016-05-19T12:18:46.166Z</time>
      </trkpt>
      <trkpt lat="46.86066" lon="-0.14728">
        <ele>58.1</ele>
        <time>2016-05-19T12:18:48.160Z</time>
      </trkpt>
      <trkpt lat="46.86067" lon="-0.14732">
        <ele>58.4</ele>
        <time>2016-05-19T12:18:50.154Z</time>
      </trkpt>
      <trkpt lat="46.86067" lon="-0.14736">
        <ele>57.9</ele>
        <time>2016-05-19T12:18:52.163Z</time>
      </trkpt>
      <trkpt lat="46.86067" lon="-0.1474">
        <ele>58.3</ele>
        <time>2016-05-19T12:18:54.155Z</time>
      </trkpt>
      <trkpt lat="46.86067" lon="-0.14745">
        <ele>58.6</ele>
        <time>2016-05-19T12:18:56.160Z</time>
      </trkpt>
      <trkpt lat="46.86067" lon="-0.14748">
        <ele>58.6</ele>
        <time>2016-05-19T12:18:58.166Z</time>
      </trkpt>
      <trkpt lat="46.86067" lon="-0.14749">
        <ele>58.9</ele>
        <time>2016-05-19T12:18:59.155Z</time>
      </trkpt>
      <trkpt lat="46.86068" lon="-0.14752">
        <ele>59</ele>
        <time>2016-05-19T12:19:01.159Z</time>
      </trkpt>
      <trkpt lat="46.86068" lon="-0.14755">
        <ele>58.8</ele>
        <time>2016-05-19T12:19:03.153Z</time>
      </trkpt>
      <trkpt lat="46.86068" lon="-0.14757">
        <ele>58.6</ele>
        <time>2016-05-19T12:19:05.140Z</time>
      </trkpt>
      <trkpt lat="46.86069" lon="-0.14759">
        <ele>58.4</ele>
        <time>2016-05-19T12:19:06.145Z</time>
      </trkpt>
      <trkpt lat="46.86069" lon="-0.14761">
        <ele>58.4</ele>
        <time>2016-05-19T12:19:07.143Z</time>
      </trkpt>
      <trkpt lat="46.8607" lon="-0.14764">
        <ele>58.3</ele>
        <time>2016-05-19T12:19:09.155Z</time>
      </trkpt>
      <trkpt lat="46.8607" lon="-0.14768">
        <ele>58.8</ele>
        <time>2016-05-19T12:19:11.163Z</time>
      </trkpt>
      <trkpt lat="46.8607" lon="-0.14771">
        <ele>58.5</ele>
        <time>2016-05-19T12:19:13.157Z</time>
      </trkpt>
      <trkpt lat="46.86071" lon="-0.14774">
        <ele>58.1</ele>
        <time>2016-05-19T12:19:15.160Z</time>
      </trkpt>
      <trkpt lat="46.86072" lon="-0.14778">
        <ele>57.7</ele>
        <time>2016-05-19T12:19:17.163Z</time>
      </trkpt>
      <trkpt lat="46.86073" lon="-0.14781">
        <ele>57.6</ele>
        <time>2016-05-19T12:19:19.157Z</time>
      </trkpt>
      <trkpt lat="46.86074" lon="-0.14785">
        <ele>57.6</ele>
        <time>2016-05-19T12:19:21.154Z</time>
      </trkpt>
      <trkpt lat="46.86074" lon="-0.14787">
        <ele>57.4</ele>
        <time>2016-05-19T12:19:23.155Z</time>
      </trkpt>
      <trkpt lat="46.86074" lon="-0.1479">
        <ele>57.4</ele>
        <time>2016-05-19T12:19:25.163Z</time>
      </trkpt>
      <trkpt lat="46.86074" lon="-0.14794">
        <ele>58.4</ele>
        <time>2016-05-19T12:19:27.140Z</time>
      </trkpt>
      <trkpt lat="46.86074" lon="-0.14795">
        <ele>58.4</ele>
        <time>2016-05-19T12:19:28.143Z</time>
      </trkpt>
      <trkpt lat="46.86074" lon="-0.14799">
        <ele>58.5</ele>
        <time>2016-05-19T12:19:30.156Z</time>
      </trkpt>
      <trkpt lat="46.86074" lon="-0.14803">
        <ele>58.4</ele>
        <time>2016-05-19T12:19:32.140Z</time>
      </trkpt>
      <trkpt lat="46.86074" lon="-0.14804">
        <ele>58.4</ele>
        <time>2016-05-19T12:19:33.140Z</time>
      </trkpt>
      <trkpt lat="46.86074" lon="-0.14806">
        <ele>58.3</ele>
        <time>2016-05-19T12:19:34.144Z</time>
      </trkpt>
      <trkpt lat="46.86075" lon="-0.14808">
        <ele>58.1</ele>
        <time>2016-05-19T12:19:36.155Z</time>
      </trkpt>
      <trkpt lat="46.86076" lon="-0.1481">
        <ele>57.8</ele>
        <time>2016-05-19T12:19:38.157Z</time>
      </trkpt>
      <trkpt lat="46.86076" lon="-0.14813">
        <ele>57.7</ele>
        <time>2016-05-19T12:19:40.154Z</time>
      </trkpt>
      <trkpt lat="46.86077" lon="-0.14815">
        <ele>57.4</ele>
        <time>2016-05-19T12:19:42.162Z</time>
      </trkpt>
      <trkpt lat="46.86077" lon="-0.14818">
        <ele>57.6</ele>
        <time>2016-05-19T12:19:44.161Z</time>
      </trkpt>
      <trkpt lat="46.86077" lon="-0.14822">
        <ele>57.8</ele>
        <time>2016-05-19T12:19:46.156Z</time>
      </trkpt>
      <trkpt lat="46.86077" lon="-0.14825">
        <ele>57.8</ele>
        <time>2016-05-19T12:19:48.156Z</time>
      </trkpt>
      <trkpt lat="46.86078" lon="-0.14829">
        <ele>58.2</ele>
        <time>2016-05-19T12:19:50.160Z</time>
      </trkpt>
      <trkpt lat="46.86079" lon="-0.14832">
        <ele>58.2</ele>
        <time>2016-05-19T12:19:52.158Z</time>
      </trkpt>
      <trkpt lat="46.86079" lon="-0.14835">
        <ele>59.2</ele>
        <time>2016-05-19T12:19:54.154Z</time>
      </trkpt>
      <trkpt lat="46.86079" lon="-0.14839">
        <ele>59.2</ele>
        <time>2016-05-19T12:19:56.159Z</time>
      </trkpt>
      <trkpt lat="46.8608" lon="-0.14842">
        <ele>58.7</ele>
        <time>2016-05-19T12:19:58.155Z</time>
      </trkpt>
      <trkpt lat="46.86081" lon="-0.14846">
        <ele>58.6</ele>
        <time>2016-05-19T12:20:00.203Z</time>
      </trkpt>
      <trkpt lat="46.86082" lon="-0.14848">
        <ele>58.4</ele>
        <time>2016-05-19T12:20:01.142Z</time>
      </trkpt>
      <trkpt lat="46.86082" lon="-0.14849">
        <ele>58.1</ele>
        <time>2016-05-19T12:20:02.146Z</time>
      </trkpt>
      <trkpt lat="46.86083" lon="-0.14853">
        <ele>57.5</ele>
        <time>2016-05-19T12:20:04.151Z</time>
      </trkpt>
      <trkpt lat="46.86084" lon="-0.14856">
        <ele>57.2</ele>
        <time>2016-05-19T12:20:06.157Z</time>
      </trkpt>
      <trkpt lat="46.86084" lon="-0.1486">
        <ele>56.6</ele>
        <time>2016-05-19T12:20:08.156Z</time>
      </trkpt>
      <trkpt lat="46.86085" lon="-0.14862">
        <ele>56.4</ele>
        <time>2016-05-19T12:20:10.154Z</time>
      </trkpt>
      <trkpt lat="46.86085" lon="-0.14866">
        <ele>56.8</ele>
        <time>2016-05-19T12:20:12.167Z</time>
      </trkpt>
      <trkpt lat="46.86087" lon="-0.14868">
        <ele>57.2</ele>
        <time>2016-05-19T12:20:14.159Z</time>
      </trkpt>
      <trkpt lat="46.86086" lon="-0.14872">
        <ele>58</ele>
        <time>2016-05-19T12:20:16.163Z</time>
      </trkpt>
      <trkpt lat="46.86087" lon="-0.14875">
        <ele>58.4</ele>
        <time>2016-05-19T12:20:18.155Z</time>
      </trkpt>
      <trkpt lat="46.86088" lon="-0.14877">
        <ele>59</ele>
        <time>2016-05-19T12:20:20.149Z</time>
      </trkpt>
      <trkpt lat="46.86089" lon="-0.14879">
        <ele>59</ele>
        <time>2016-05-19T12:20:22.144Z</time>
      </trkpt>
      <trkpt lat="46.8609" lon="-0.1488">
        <ele>58.9</ele>
        <time>2016-05-19T12:20:23.149Z</time>
      </trkpt>
      <trkpt lat="46.8609" lon="-0.14881">
        <ele>59</ele>
        <time>2016-05-19T12:20:24.141Z</time>
      </trkpt>
      <trkpt lat="46.86091" lon="-0.14883">
        <ele>58.8</ele>
        <time>2016-05-19T12:20:25.161Z</time>
      </trkpt>
      <trkpt lat="46.86092" lon="-0.14884">
        <ele>59.2</ele>
        <time>2016-05-19T12:20:27.155Z</time>
      </trkpt>
      <trkpt lat="46.86093" lon="-0.14885">
        <ele>59.2</ele>
        <time>2016-05-19T12:20:29.162Z</time>
      </trkpt>
      <trkpt lat="46.86094" lon="-0.14886">
        <ele>59.6</ele>
        <time>2016-05-19T12:20:31.159Z</time>
      </trkpt>
      <trkpt lat="46.86095" lon="-0.14886">
        <ele>59.9</ele>
        <time>2016-05-19T12:20:33.155Z</time>
      </trkpt>
      <trkpt lat="46.86097" lon="-0.14886">
        <ele>60.6</ele>
        <time>2016-05-19T12:20:35.157Z</time>
      </trkpt>
      <trkpt lat="46.86098" lon="-0.14887">
        <ele>61.2</ele>
        <time>2016-05-19T12:20:37.166Z</time>
      </trkpt>
      <trkpt lat="46.861" lon="-0.14887">
        <ele>61.6</ele>
        <time>2016-05-19T12:20:39.156Z</time>
      </trkpt>
      <trkpt lat="46.86102" lon="-0.14887">
        <ele>61.8</ele>
        <time>2016-05-19T12:20:41.158Z</time>
      </trkpt>
      <trkpt lat="46.86104" lon="-0.14887">
        <ele>61.8</ele>
        <time>2016-05-19T12:20:43.157Z</time>
      </trkpt>
      <trkpt lat="46.86107" lon="-0.14888">
        <ele>61.7</ele>
        <time>2016-05-19T12:20:45.177Z</time>
      </trkpt>
      <trkpt lat="46.86109" lon="-0.14889">
        <ele>61.6</ele>
        <time>2016-05-19T12:20:47.154Z</time>
      </trkpt>
      <trkpt lat="46.86111" lon="-0.14889">
        <ele>61.7</ele>
        <time>2016-05-19T12:20:49.160Z</time>
      </trkpt>
      <trkpt lat="46.86113" lon="-0.1489">
        <ele>61.6</ele>
        <time>2016-05-19T12:20:51.159Z</time>
      </trkpt>
      <trkpt lat="46.86115" lon="-0.14889">
        <ele>61.5</ele>
        <time>2016-05-19T12:20:53.162Z</time>
      </trkpt>
      <trkpt lat="46.86116" lon="-0.1489">
        <ele>62.3</ele>
        <time>2016-05-19T12:20:55.157Z</time>
      </trkpt>
      <trkpt lat="46.86116" lon="-0.14891">
        <ele>62.5</ele>
        <time>2016-05-19T12:20:57.164Z</time>
      </trkpt>
      <trkpt lat="46.86118" lon="-0.14892">
        <ele>62.8</ele>
        <time>2016-05-19T12:20:59.155Z</time>
      </trkpt>
      <trkpt lat="46.86121" lon="-0.14894">
        <ele>61.5</ele>
        <time>2016-05-19T12:21:01.164Z</time>
      </trkpt>
      <trkpt lat="46.86123" lon="-0.14895">
        <ele>60.6</ele>
        <time>2016-05-19T12:21:03.155Z</time>
      </trkpt>
      <trkpt lat="46.86125" lon="-0.14895">
        <ele>59.9</ele>
        <time>2016-05-19T12:21:05.168Z</time>
      </trkpt>
      <trkpt lat="46.86126" lon="-0.14895">
        <ele>59.1</ele>
        <time>2016-05-19T12:21:07.162Z</time>
      </trkpt>
      <trkpt lat="46.86128" lon="-0.14896">
        <ele>58.4</ele>
        <time>2016-05-19T12:21:09.159Z</time>
      </trkpt>
      <trkpt lat="46.86129" lon="-0.14897">
        <ele>58</ele>
        <time>2016-05-19T12:21:11.157Z</time>
      </trkpt>
      <trkpt lat="46.86129" lon="-0.14898">
        <ele>57.2</ele>
        <time>2016-05-19T12:21:13.168Z</time>
      </trkpt>
      <trkpt lat="46.86129" lon="-0.14898">
        <ele>56.5</ele>
        <time>2016-05-19T12:21:15.160Z</time>
      </trkpt>
      <trkpt lat="46.86129" lon="-0.14898">
        <ele>56.5</ele>
        <time>2016-05-19T12:21:17.162Z</time>
      </trkpt>
      <trkpt lat="46.86129" lon="-0.14898">
        <ele>56.5</ele>
        <time>2016-05-19T12:21:18.174Z</time>
      </trkpt>
      <trkpt lat="46.86129" lon="-0.14898">
        <ele>56.5</ele>
        <time>2016-05-19T12:21:20.159Z</time>
      </trkpt>
      <trkpt lat="46.86129" lon="-0.14898">
        <ele>56.5</ele>
        <time>2016-05-19T12:21:21.168Z</time>
      </trkpt>
      <trkpt lat="46.86129" lon="-0.14898">
        <ele>56.5</ele>
        <time>2016-05-19T12:21:23.159Z</time>
      </trkpt>
      <trkpt lat="46.86129" lon="-0.14898">
        <ele>56.5</ele>
        <time>2016-05-19T12:21:25.163Z</time>
      </trkpt>
      <trkpt lat="46.86133" lon="-0.14906">
        <ele>53.7</ele>
        <time>2016-05-19T12:21:27.173Z</time>
      </trkpt>
      <trkpt lat="46.86134" lon="-0.14907">
        <ele>54.3</ele>
        <time>2016-05-19T12:21:29.154Z</time>
      </trkpt>
      <trkpt lat="46.86136" lon="-0.14908">
        <ele>54.8</ele>
        <time>2016-05-19T12:21:31.162Z</time>
      </trkpt>
      <trkpt lat="46.86137" lon="-0.14909">
        <ele>54.7</ele>
        <time>2016-05-19T12:21:33.154Z</time>
      </trkpt>
      <trkpt lat="46.86138" lon="-0.1491">
        <ele>54.7</ele>
        <time>2016-05-19T12:21:35.159Z</time>
      </trkpt>
      <trkpt lat="46.86139" lon="-0.1491">
        <ele>54.9</ele>
        <time>2016-05-19T12:21:37.164Z</time>
      </trkpt>
      <trkpt lat="46.8614" lon="-0.1491">
        <ele>55.4</ele>
        <time>2016-05-19T12:21:39.155Z</time>
      </trkpt>
      <trkpt lat="46.8614" lon="-0.1491">
        <ele>55.6</ele>
        <time>2016-05-19T12:21:41.162Z</time>
      </trkpt>
      <trkpt lat="46.86141" lon="-0.14911">
        <ele>55.8</ele>
        <time>2016-05-19T12:21:43.164Z</time>
      </trkpt>
      <trkpt lat="46.86141" lon="-0.14911">
        <ele>55.8</ele>
        <time>2016-05-19T12:21:45.156Z</time>
      </trkpt>
      <trkpt lat="46.86141" lon="-0.14911">
        <ele>55.8</ele>
        <time>2016-05-19T12:21:46.169Z</time>
      </trkpt>
      <trkpt lat="46.86141" lon="-0.14911">
        <ele>55.8</ele>
        <time>2016-05-19T12:21:48.165Z</time>
      </trkpt>
      <trkpt lat="46.86141" lon="-0.14911">
        <ele>55.8</ele>
        <time>2016-05-19T12:21:50.155Z</time>
      </trkpt>
      <trkpt lat="46.86141" lon="-0.14911">
        <ele>55.8</ele>
        <time>2016-05-19T12:21:51.154Z</time>
      </trkpt>
      <trkpt lat="46.86141" lon="-0.14911">
        <ele>55.8</ele>
        <time>2016-05-19T12:21:52.155Z</time>
      </trkpt>
      <trkpt lat="46.86141" lon="-0.14911">
        <ele>55.8</ele>
        <time>2016-05-19T12:21:53.168Z</time>
      </trkpt>
      <trkpt lat="46.86141" lon="-0.14911">
        <ele>55.8</ele>
        <time>2016-05-19T12:21:55.145Z</time>
      </trkpt>
      <trkpt lat="46.86141" lon="-0.14911">
        <ele>55.8</ele>
        <time>2016-05-19T12:21:56.164Z</time>
      </trkpt>
      <trkpt lat="46.86141" lon="-0.14911">
        <ele>55.8</ele>
        <time>2016-05-19T12:21:58.161Z</time>
      </trkpt>
      <trkpt lat="46.8614" lon="-0.14909">
        <ele>61.7</ele>
        <time>2016-05-19T12:21:59.168Z</time>
      </trkpt>
      <trkpt lat="46.86139" lon="-0.14907">
        <ele>61.2</ele>
        <time>2016-05-19T12:22:01.154Z</time>
      </trkpt>
      <trkpt lat="46.86137" lon="-0.14905">
        <ele>61.6</ele>
        <time>2016-05-19T12:22:03.162Z</time>
      </trkpt>
      <trkpt lat="46.86136" lon="-0.14902">
        <ele>61</ele>
        <time>2016-05-19T12:22:05.156Z</time>
      </trkpt>
      <trkpt lat="46.86136" lon="-0.14901">
        <ele>61.3</ele>
        <time>2016-05-19T12:22:07.170Z</time>
      </trkpt>
      <trkpt lat="46.86135" lon="-0.149">
        <ele>62</ele>
        <time>2016-05-19T12:22:09.158Z</time>
      </trkpt>
      <trkpt lat="46.86134" lon="-0.149">
        <ele>61.8</ele>
        <time>2016-05-19T12:22:11.154Z</time>
      </trkpt>
      <trkpt lat="46.86133" lon="-0.14897">
        <ele>62.3</ele>
        <time>2016-05-19T12:22:13.162Z</time>
      </trkpt>
      <trkpt lat="46.86133" lon="-0.14895">
        <ele>60.9</ele>
        <time>2016-05-19T12:22:15.157Z</time>
      </trkpt>
      <trkpt lat="46.86132" lon="-0.14893">
        <ele>61.3</ele>
        <time>2016-05-19T12:22:17.163Z</time>
      </trkpt>
      <trkpt lat="46.86133" lon="-0.14891">
        <ele>61.3</ele>
        <time>2016-05-19T12:22:19.159Z</time>
      </trkpt>
      <trkpt lat="46.86134" lon="-0.14889">
        <ele>61.7</ele>
        <time>2016-05-19T12:22:21.162Z</time>
      </trkpt>
      <trkpt lat="46.86134" lon="-0.14888">
        <ele>62.6</ele>
        <time>2016-05-19T12:22:23.155Z</time>
      </trkpt>
      <trkpt lat="46.86134" lon="-0.14886">
        <ele>62.3</ele>
        <time>2016-05-19T12:22:25.162Z</time>
      </trkpt>
      <trkpt lat="46.86135" lon="-0.14885">
        <ele>62.1</ele>
        <time>2016-05-19T12:22:27.182Z</time>
      </trkpt>
      <trkpt lat="46.86138" lon="-0.14884">
        <ele>62.3</ele>
        <time>2016-05-19T12:22:29.155Z</time>
      </trkpt>
      <trkpt lat="46.8614" lon="-0.14881">
        <ele>62.8</ele>
        <time>2016-05-19T12:22:31.161Z</time>
      </trkpt>
      <trkpt lat="46.86142" lon="-0.1488">
        <ele>63.7</ele>
        <time>2016-05-19T12:22:33.167Z</time>
      </trkpt>
      <trkpt lat="46.86145" lon="-0.14878">
        <ele>63.7</ele>
        <time>2016-05-19T12:22:35.159Z</time>
      </trkpt>
      <trkpt lat="46.86147" lon="-0.14876">
        <ele>63.7</ele>
        <time>2016-05-19T12:22:37.164Z</time>
      </trkpt>
      <trkpt lat="46.8615" lon="-0.14874">
        <ele>63.7</ele>
        <time>2016-05-19T12:22:39.158Z</time>
      </trkpt>
      <trkpt lat="46.86152" lon="-0.14873">
        <ele>63.8</ele>
        <time>2016-05-19T12:22:41.140Z</time>
      </trkpt>
      <trkpt lat="46.86153" lon="-0.14873">
        <ele>63.9</ele>
        <time>2016-05-19T12:22:42.141Z</time>
      </trkpt>
      <trkpt lat="46.86153" lon="-0.14872">
        <ele>64.3</ele>
        <time>2016-05-19T12:22:43.144Z</time>
      </trkpt>
      <trkpt lat="46.86156" lon="-0.14871">
        <ele>64.6</ele>
        <time>2016-05-19T12:22:45.155Z</time>
      </trkpt>
      <trkpt lat="46.86159" lon="-0.14871">
        <ele>65.1</ele>
        <time>2016-05-19T12:22:47.155Z</time>
      </trkpt>
      <trkpt lat="46.86161" lon="-0.1487">
        <ele>65.2</ele>
        <time>2016-05-19T12:22:49.166Z</time>
      </trkpt>
      <trkpt lat="46.86163" lon="-0.14869">
        <ele>65.1</ele>
        <time>2016-05-19T12:22:51.156Z</time>
      </trkpt>
      <trkpt lat="46.86165" lon="-0.14868">
        <ele>65</ele>
        <time>2016-05-19T12:22:53.146Z</time>
      </trkpt>
      <trkpt lat="46.86167" lon="-0.14868">
        <ele>64.8</ele>
        <time>2016-05-19T12:22:55.182Z</time>
      </trkpt>
      <trkpt lat="46.86169" lon="-0.14868">
        <ele>65.2</ele>
        <time>2016-05-19T12:22:57.163Z</time>
      </trkpt>
      <trkpt lat="46.86171" lon="-0.14868">
        <ele>64.7</ele>
        <time>2016-05-19T12:22:59.265Z</time>
      </trkpt>
      <trkpt lat="46.86172" lon="-0.14868">
        <ele>64.7</ele>
        <time>2016-05-19T12:23:00.140Z</time>
      </trkpt>
      <trkpt lat="46.86173" lon="-0.14868">
        <ele>64.4</ele>
        <time>2016-05-19T12:23:01.145Z</time>
      </trkpt>
      <trkpt lat="46.86174" lon="-0.14869">
        <ele>64.1</ele>
        <time>2016-05-19T12:23:02.143Z</time>
      </trkpt>
      <trkpt lat="46.86176" lon="-0.14869">
        <ele>63.9</ele>
        <time>2016-05-19T12:23:03.145Z</time>
      </trkpt>
      <trkpt lat="46.86178" lon="-0.1487">
        <ele>63.3</ele>
        <time>2016-05-19T12:23:05.137Z</time>
      </trkpt>
      <trkpt lat="46.86178" lon="-0.14869">
        <ele>62.8</ele>
        <time>2016-05-19T12:23:06.144Z</time>
      </trkpt>
      <trkpt lat="46.86179" lon="-0.14869">
        <ele>62.6</ele>
        <time>2016-05-19T12:23:07.145Z</time>
      </trkpt>
      <trkpt lat="46.86178" lon="-0.14869">
        <ele>61.9</ele>
        <time>2016-05-19T12:23:09.163Z</time>
      </trkpt>
      <trkpt lat="46.86179" lon="-0.14869">
        <ele>61.7</ele>
        <time>2016-05-19T12:23:11.154Z</time>
      </trkpt>
      <trkpt lat="46.86179" lon="-0.14869">
        <ele>61.7</ele>
        <time>2016-05-19T12:23:13.161Z</time>
      </trkpt>
      <trkpt lat="46.8618" lon="-0.1487">
        <ele>61.7</ele>
        <time>2016-05-19T12:23:14.163Z</time>
      </trkpt>
      <trkpt lat="46.86182" lon="-0.1487">
        <ele>62.6</ele>
        <time>2016-05-19T12:23:16.158Z</time>
      </trkpt>
      <trkpt lat="46.86184" lon="-0.1487">
        <ele>63.5</ele>
        <time>2016-05-19T12:23:18.156Z</time>
      </trkpt>
      <trkpt lat="46.86186" lon="-0.14871">
        <ele>64.6</ele>
        <time>2016-05-19T12:23:20.159Z</time>
      </trkpt>
      <trkpt lat="46.86189" lon="-0.14871">
        <ele>65.5</ele>
        <time>2016-05-19T12:23:22.165Z</time>
      </trkpt>
      <trkpt lat="46.86191" lon="-0.14871">
        <ele>66.3</ele>
        <time>2016-05-19T12:23:24.142Z</time>
      </trkpt>
      <trkpt lat="46.86192" lon="-0.14871">
        <ele>66.8</ele>
        <time>2016-05-19T12:23:25.146Z</time>
      </trkpt>
      <trkpt lat="46.86194" lon="-0.14872">
        <ele>67.9</ele>
        <time>2016-05-19T12:23:27.158Z</time>
      </trkpt>
      <trkpt lat="46.86196" lon="-0.14873">
        <ele>68.2</ele>
        <time>2016-05-19T12:23:29.157Z</time>
      </trkpt>
      <trkpt lat="46.86198" lon="-0.14873">
        <ele>68.6</ele>
        <time>2016-05-19T12:23:31.141Z</time>
      </trkpt>
      <trkpt lat="46.86199" lon="-0.14873">
        <ele>68.6</ele>
        <time>2016-05-19T12:23:32.151Z</time>
      </trkpt>
      <trkpt lat="46.86202" lon="-0.14873">
        <ele>68.8</ele>
        <time>2016-05-19T12:23:34.256Z</time>
      </trkpt>
      <trkpt lat="46.86203" lon="-0.14874">
        <ele>69.1</ele>
        <time>2016-05-19T12:23:35.143Z</time>
      </trkpt>
      <trkpt lat="46.86204" lon="-0.14874">
        <ele>69.3</ele>
        <time>2016-05-19T12:23:36.144Z</time>
      </trkpt>
      <trkpt lat="46.86206" lon="-0.14874">
        <ele>69.4</ele>
        <time>2016-05-19T12:23:38.159Z</time>
      </trkpt>
      <trkpt lat="46.86208" lon="-0.14874">
        <ele>69.2</ele>
        <time>2016-05-19T12:23:40.154Z</time>
      </trkpt>
      <trkpt lat="46.8621" lon="-0.14874">
        <ele>69.1</ele>
        <time>2016-05-19T12:23:42.159Z</time>
      </trkpt>
      <trkpt lat="46.86212" lon="-0.14874">
        <ele>68.8</ele>
        <time>2016-05-19T12:23:44.154Z</time>
      </trkpt>
      <trkpt lat="46.86214" lon="-0.14875">
        <ele>67.8</ele>
        <time>2016-05-19T12:23:46.152Z</time>
      </trkpt>
      <trkpt lat="46.86216" lon="-0.14875">
        <ele>67.3</ele>
        <time>2016-05-19T12:23:48.150Z</time>
      </trkpt>
      <trkpt lat="46.86218" lon="-0.14875">
        <ele>67.2</ele>
        <time>2016-05-19T12:23:50.161Z</time>
      </trkpt>
      <trkpt lat="46.8622" lon="-0.14875">
        <ele>67.5</ele>
        <time>2016-05-19T12:23:52.155Z</time>
      </trkpt>
      <trkpt lat="46.86222" lon="-0.14874">
        <ele>67.5</ele>
        <time>2016-05-19T12:23:54.171Z</time>
      </trkpt>
      <trkpt lat="46.86223" lon="-0.14874">
        <ele>68.4</ele>
        <time>2016-05-19T12:23:56.157Z</time>
      </trkpt>
      <trkpt lat="46.86225" lon="-0.14873">
        <ele>69.1</ele>
        <time>2016-05-19T12:23:58.165Z</time>
      </trkpt>
      <trkpt lat="46.86227" lon="-0.14873">
        <ele>69.9</ele>
        <time>2016-05-19T12:24:00.139Z</time>
      </trkpt>
      <trkpt lat="46.86227" lon="-0.14873">
        <ele>70.1</ele>
        <time>2016-05-19T12:24:01.146Z</time>
      </trkpt>
      <trkpt lat="46.86229" lon="-0.14873">
        <ele>71</ele>
        <time>2016-05-19T12:24:03.156Z</time>
      </trkpt>
      <trkpt lat="46.86231" lon="-0.14872">
        <ele>71.5</ele>
        <time>2016-05-19T12:24:05.157Z</time>
      </trkpt>
      <trkpt lat="46.86232" lon="-0.14872">
        <ele>72.2</ele>
        <time>2016-05-19T12:24:07.157Z</time>
      </trkpt>
      <trkpt lat="46.86233" lon="-0.14872">
        <ele>72.7</ele>
        <time>2016-05-19T12:24:09.142Z</time>
      </trkpt>
      <trkpt lat="46.86234" lon="-0.14871">
        <ele>73</ele>
        <time>2016-05-19T12:24:10.142Z</time>
      </trkpt>
      <trkpt lat="46.86236" lon="-0.14871">
        <ele>73.7</ele>
        <time>2016-05-19T12:24:12.157Z</time>
      </trkpt>
      <trkpt lat="46.86238" lon="-0.14871">
        <ele>73.8</ele>
        <time>2016-05-19T12:24:14.163Z</time>
      </trkpt>
      <trkpt lat="46.8624" lon="-0.14871">
        <ele>73.8</ele>
        <time>2016-05-19T12:24:16.155Z</time>
      </trkpt>
      <trkpt lat="46.86243" lon="-0.14871">
        <ele>74.3</ele>
        <time>2016-05-19T12:24:18.157Z</time>
      </trkpt>
      <trkpt lat="46.86245" lon="-0.14872">
        <ele>74.3</ele>
        <time>2016-05-19T12:24:20.164Z</time>
      </trkpt>
      <trkpt lat="46.86247" lon="-0.14872">
        <ele>74.4</ele>
        <time>2016-05-19T12:24:22.157Z</time>
      </trkpt>
      <trkpt lat="46.86249" lon="-0.14871">
        <ele>74.5</ele>
        <time>2016-05-19T12:24:24.162Z</time>
      </trkpt>
      <trkpt lat="46.86252" lon="-0.14871">
        <ele>74.4</ele>
        <time>2016-05-19T12:24:26.155Z</time>
      </trkpt>
      <trkpt lat="46.86255" lon="-0.14871">
        <ele>73.7</ele>
        <time>2016-05-19T12:24:28.164Z</time>
      </trkpt>
      <trkpt lat="46.86257" lon="-0.1487">
        <ele>72.8</ele>
        <time>2016-05-19T12:24:30.155Z</time>
      </trkpt>
      <trkpt lat="46.8626" lon="-0.1487">
        <ele>72</ele>
        <time>2016-05-19T12:24:32.153Z</time>
      </trkpt>
      <trkpt lat="46.86263" lon="-0.14869">
        <ele>72.1</ele>
        <time>2016-05-19T12:24:34.155Z</time>
      </trkpt>
      <trkpt lat="46.86265" lon="-0.14869">
        <ele>72</ele>
        <time>2016-05-19T12:24:36.141Z</time>
      </trkpt>
      <trkpt lat="46.86266" lon="-0.14868">
        <ele>72.1</ele>
        <time>2016-05-19T12:24:37.148Z</time>
      </trkpt>
      <trkpt lat="46.86268" lon="-0.14867">
        <ele>72.1</ele>
        <time>2016-05-19T12:24:39.154Z</time>
      </trkpt>
      <trkpt lat="46.86271" lon="-0.14868">
        <ele>71.8</ele>
        <time>2016-05-19T12:24:41.163Z</time>
      </trkpt>
      <trkpt lat="46.86273" lon="-0.14868">
        <ele>71.2</ele>
        <time>2016-05-19T12:24:43.159Z</time>
      </trkpt>
      <trkpt lat="46.86275" lon="-0.14867">
        <ele>71.7</ele>
        <time>2016-05-19T12:24:45.153Z</time>
      </trkpt>
      <trkpt lat="46.86277" lon="-0.14866">
        <ele>72.1</ele>
        <time>2016-05-19T12:24:47.156Z</time>
      </trkpt>
      <trkpt lat="46.86278" lon="-0.14865">
        <ele>72.5</ele>
        <time>2016-05-19T12:24:49.169Z</time>
      </trkpt>
      <trkpt lat="46.8628" lon="-0.14865">
        <ele>72.2</ele>
        <time>2016-05-19T12:24:51.157Z</time>
      </trkpt>
      <trkpt lat="46.86282" lon="-0.14863">
        <ele>72.4</ele>
        <time>2016-05-19T12:24:53.155Z</time>
      </trkpt>
      <trkpt lat="46.86283" lon="-0.14863">
        <ele>72.7</ele>
        <time>2016-05-19T12:24:54.159Z</time>
      </trkpt>
      <trkpt lat="46.86284" lon="-0.14862">
        <ele>73.8</ele>
        <time>2016-05-19T12:24:56.158Z</time>
      </trkpt>
      <trkpt lat="46.86285" lon="-0.14861">
        <ele>74.4</ele>
        <time>2016-05-19T12:24:58.155Z</time>
      </trkpt>
      <trkpt lat="46.86287" lon="-0.14861">
        <ele>75.1</ele>
        <time>2016-05-19T12:25:00.141Z</time>
      </trkpt>
      <trkpt lat="46.86288" lon="-0.14861">
        <ele>75.5</ele>
        <time>2016-05-19T12:25:01.149Z</time>
      </trkpt>
      <trkpt lat="46.8629" lon="-0.14861">
        <ele>75.3</ele>
        <time>2016-05-19T12:25:03.159Z</time>
      </trkpt>
      <trkpt lat="46.86293" lon="-0.1486">
        <ele>76.4</ele>
        <time>2016-05-19T12:25:05.162Z</time>
      </trkpt>
      <trkpt lat="46.86295" lon="-0.1486">
        <ele>77.3</ele>
        <time>2016-05-19T12:25:07.159Z</time>
      </trkpt>
      <trkpt lat="46.86297" lon="-0.14859">
        <ele>78.4</ele>
        <time>2016-05-19T12:25:09.171Z</time>
      </trkpt>
      <trkpt lat="46.86299" lon="-0.14858">
        <ele>80</ele>
        <time>2016-05-19T12:25:11.155Z</time>
      </trkpt>
      <trkpt lat="46.86301" lon="-0.14857">
        <ele>81.2</ele>
        <time>2016-05-19T12:25:13.162Z</time>
      </trkpt>
      <trkpt lat="46.86304" lon="-0.14856">
        <ele>81.5</ele>
        <time>2016-05-19T12:25:15.164Z</time>
      </trkpt>
      <trkpt lat="46.86306" lon="-0.14855">
        <ele>81.6</ele>
        <time>2016-05-19T12:25:17.158Z</time>
      </trkpt>
      <trkpt lat="46.86309" lon="-0.14854">
        <ele>81.5</ele>
        <time>2016-05-19T12:25:19.160Z</time>
      </trkpt>
      <trkpt lat="46.86313" lon="-0.14854">
        <ele>80.6</ele>
        <time>2016-05-19T12:25:21.166Z</time>
      </trkpt>
      <trkpt lat="46.86315" lon="-0.14854">
        <ele>80.1</ele>
        <time>2016-05-19T12:25:23.154Z</time>
      </trkpt>
      <trkpt lat="46.86318" lon="-0.14855">
        <ele>79.3</ele>
        <time>2016-05-19T12:25:25.158Z</time>
      </trkpt>
      <trkpt lat="46.86321" lon="-0.14856">
        <ele>77.8</ele>
        <time>2016-05-19T12:25:27.156Z</time>
      </trkpt>
      <trkpt lat="46.86323" lon="-0.14857">
        <ele>77.5</ele>
        <time>2016-05-19T12:25:29.157Z</time>
      </trkpt>
      <trkpt lat="46.86324" lon="-0.14858">
        <ele>77.2</ele>
        <time>2016-05-19T12:25:31.159Z</time>
      </trkpt>
      <trkpt lat="46.86327" lon="-0.1486">
        <ele>76.5</ele>
        <time>2016-05-19T12:25:33.154Z</time>
      </trkpt>
      <trkpt lat="46.86329" lon="-0.14862">
        <ele>76.6</ele>
        <time>2016-05-19T12:25:35.165Z</time>
      </trkpt>
      <trkpt lat="46.86331" lon="-0.14864">
        <ele>76.9</ele>
        <time>2016-05-19T12:25:37.157Z</time>
      </trkpt>
      <trkpt lat="46.86333" lon="-0.14867">
        <ele>76.8</ele>
        <time>2016-05-19T12:25:39.154Z</time>
      </trkpt>
      <trkpt lat="46.86335" lon="-0.1487">
        <ele>77.5</ele>
        <time>2016-05-19T12:25:41.159Z</time>
      </trkpt>
      <trkpt lat="46.86336" lon="-0.14872">
        <ele>77.6</ele>
        <time>2016-05-19T12:25:43.167Z</time>
      </trkpt>
      <trkpt lat="46.86337" lon="-0.14874">
        <ele>78.2</ele>
        <time>2016-05-19T12:25:45.158Z</time>
      </trkpt>
      <trkpt lat="46.86338" lon="-0.14877">
        <ele>78.7</ele>
        <time>2016-05-19T12:25:47.153Z</time>
      </trkpt>
      <trkpt lat="46.86339" lon="-0.1488">
        <ele>79.3</ele>
        <time>2016-05-19T12:25:49.155Z</time>
      </trkpt>
      <trkpt lat="46.8634" lon="-0.14883">
        <ele>80.5</ele>
        <time>2016-05-19T12:25:51.163Z</time>
      </trkpt>
      <trkpt lat="46.8634" lon="-0.14887">
        <ele>81.5</ele>
        <time>2016-05-19T12:25:53.152Z</time>
      </trkpt>
      <trkpt lat="46.8634" lon="-0.1489">
        <ele>82.7</ele>
        <time>2016-05-19T12:25:55.159Z</time>
      </trkpt>
      <trkpt lat="46.86341" lon="-0.14893">
        <ele>83.8</ele>
        <time>2016-05-19T12:25:57.157Z</time>
      </trkpt>
      <trkpt lat="46.86341" lon="-0.14897">
        <ele>84</ele>
        <time>2016-05-19T12:25:59.158Z</time>
      </trkpt>
      <trkpt lat="46.86341" lon="-0.149">
        <ele>84.4</ele>
        <time>2016-05-19T12:26:01.159Z</time>
      </trkpt>
      <trkpt lat="46.86342" lon="-0.14902">
        <ele>85.3</ele>
        <time>2016-05-19T12:26:03.154Z</time>
      </trkpt>
      <trkpt lat="46.86341" lon="-0.14905">
        <ele>86.1</ele>
        <time>2016-05-19T12:26:05.165Z</time>
      </trkpt>
      <trkpt lat="46.86341" lon="-0.14908">
        <ele>86.4</ele>
        <time>2016-05-19T12:26:07.156Z</time>
      </trkpt>
      <trkpt lat="46.8634" lon="-0.1491">
        <ele>86.7</ele>
        <time>2016-05-19T12:26:09.162Z</time>
      </trkpt>
      <trkpt lat="46.86339" lon="-0.14912">
        <ele>87.5</ele>
        <time>2016-05-19T12:26:11.157Z</time>
      </trkpt>
      <trkpt lat="46.86338" lon="-0.14914">
        <ele>88.5</ele>
        <time>2016-05-19T12:26:13.163Z</time>
      </trkpt>
      <trkpt lat="46.86337" lon="-0.14916">
        <ele>89</ele>
        <time>2016-05-19T12:26:15.156Z</time>
      </trkpt>
      <trkpt lat="46.86335" lon="-0.14918">
        <ele>89.4</ele>
        <time>2016-05-19T12:26:17.136Z</time>
      </trkpt>
      <trkpt lat="46.86335" lon="-0.14919">
        <ele>89.6</ele>
        <time>2016-05-19T12:26:18.141Z</time>
      </trkpt>
      <trkpt lat="46.86335" lon="-0.1492">
        <ele>89.8</ele>
        <time>2016-05-19T12:26:19.143Z</time>
      </trkpt>
      <trkpt lat="46.86332" lon="-0.14922">
        <ele>89.7</ele>
        <time>2016-05-19T12:26:21.154Z</time>
      </trkpt>
      <trkpt lat="46.86331" lon="-0.14924">
        <ele>89.7</ele>
        <time>2016-05-19T12:26:23.154Z</time>
      </trkpt>
      <trkpt lat="46.86329" lon="-0.14926">
        <ele>90.1</ele>
        <time>2016-05-19T12:26:25.160Z</time>
      </trkpt>
      <trkpt lat="46.86327" lon="-0.14928">
        <ele>90.2</ele>
        <time>2016-05-19T12:26:27.138Z</time>
      </trkpt>
      <trkpt lat="46.86327" lon="-0.14928">
        <ele>90.4</ele>
        <time>2016-05-19T12:26:28.144Z</time>
      </trkpt>
      <trkpt lat="46.86326" lon="-0.14929">
        <ele>91</ele>
        <time>2016-05-19T12:26:30.155Z</time>
      </trkpt>
      <trkpt lat="46.86323" lon="-0.1493">
        <ele>91.1</ele>
        <time>2016-05-19T12:26:32.155Z</time>
      </trkpt>
      <trkpt lat="46.86321" lon="-0.14932">
        <ele>91.1</ele>
        <time>2016-05-19T12:26:34.163Z</time>
      </trkpt>
      <trkpt lat="46.86318" lon="-0.14934">
        <ele>90.6</ele>
        <time>2016-05-19T12:26:36.156Z</time>
      </trkpt>
      <trkpt lat="46.86316" lon="-0.14935">
        <ele>90.1</ele>
        <time>2016-05-19T12:26:38.154Z</time>
      </trkpt>
      <trkpt lat="46.86313" lon="-0.14937">
        <ele>89.8</ele>
        <time>2016-05-19T12:26:40.172Z</time>
      </trkpt>
      <trkpt lat="46.8631" lon="-0.14938">
        <ele>89.4</ele>
        <time>2016-05-19T12:26:42.139Z</time>
      </trkpt>
      <trkpt lat="46.86308" lon="-0.14939">
        <ele>88.4</ele>
        <time>2016-05-19T12:26:43.145Z</time>
      </trkpt>
      <trkpt lat="46.86305" lon="-0.14941">
        <ele>88.1</ele>
        <time>2016-05-19T12:26:45.161Z</time>
      </trkpt>
      <trkpt lat="46.86302" lon="-0.14943">
        <ele>88.8</ele>
        <time>2016-05-19T12:26:47.157Z</time>
      </trkpt>
      <trkpt lat="46.863" lon="-0.14945">
        <ele>88.7</ele>
        <time>2016-05-19T12:26:49.161Z</time>
      </trkpt>
      <trkpt lat="46.86297" lon="-0.14946">
        <ele>88.7</ele>
        <time>2016-05-19T12:26:51.157Z</time>
      </trkpt>
      <trkpt lat="46.86295" lon="-0.14947">
        <ele>88.8</ele>
        <time>2016-05-19T12:26:53.156Z</time>
      </trkpt>
      <trkpt lat="46.86292" lon="-0.1495">
        <ele>89.6</ele>
        <time>2016-05-19T12:26:55.157Z</time>
      </trkpt>
      <trkpt lat="46.86289" lon="-0.14953">
        <ele>89.8</ele>
        <time>2016-05-19T12:26:57.161Z</time>
      </trkpt>
      <trkpt lat="46.86286" lon="-0.14956">
        <ele>90</ele>
        <time>2016-05-19T12:26:59.143Z</time>
      </trkpt>
      <trkpt lat="46.86283" lon="-0.14958">
        <ele>90.3</ele>
        <time>2016-05-19T12:27:01.158Z</time>
      </trkpt>
      <trkpt lat="46.8628" lon="-0.14959">
        <ele>90.6</ele>
        <time>2016-05-19T12:27:03.158Z</time>
      </trkpt>
      <trkpt lat="46.86279" lon="-0.14961">
        <ele>90.6</ele>
        <time>2016-05-19T12:27:05.156Z</time>
      </trkpt>
      <trkpt lat="46.86277" lon="-0.14963">
        <ele>90.5</ele>
        <time>2016-05-19T12:27:07.164Z</time>
      </trkpt>
      <trkpt lat="46.86275" lon="-0.14966">
        <ele>90.7</ele>
        <time>2016-05-19T12:27:09.155Z</time>
      </trkpt>
      <trkpt lat="46.86273" lon="-0.14968">
        <ele>91.1</ele>
        <time>2016-05-19T12:27:11.154Z</time>
      </trkpt>
      <trkpt lat="46.86272" lon="-0.1497">
        <ele>91.8</ele>
        <time>2016-05-19T12:27:13.160Z</time>
      </trkpt>
      <trkpt lat="46.86271" lon="-0.14973">
        <ele>91.8</ele>
        <time>2016-05-19T12:27:15.155Z</time>
      </trkpt>
      <trkpt lat="46.8627" lon="-0.14976">
        <ele>91.6</ele>
        <time>2016-05-19T12:27:17.156Z</time>
      </trkpt>
      <trkpt lat="46.86268" lon="-0.14978">
        <ele>92</ele>
        <time>2016-05-19T12:27:19.159Z</time>
      </trkpt>
      <trkpt lat="46.86267" lon="-0.14981">
        <ele>92</ele>
        <time>2016-05-19T12:27:21.155Z</time>
      </trkpt>
      <trkpt lat="46.86265" lon="-0.14984">
        <ele>92.1</ele>
        <time>2016-05-19T12:27:23.139Z</time>
      </trkpt>
      <trkpt lat="46.86265" lon="-0.14985">
        <ele>92</ele>
        <time>2016-05-19T12:27:24.141Z</time>
      </trkpt>
      <trkpt lat="46.86265" lon="-0.14986">
        <ele>92.5</ele>
        <time>2016-05-19T12:27:25.141Z</time>
      </trkpt>
      <trkpt lat="46.86266" lon="-0.14987">
        <ele>92.8</ele>
        <time>2016-05-19T12:27:26.143Z</time>
      </trkpt>
      <trkpt lat="46.86266" lon="-0.14989">
        <ele>92.8</ele>
        <time>2016-05-19T12:27:28.152Z</time>
      </trkpt>
      <trkpt lat="46.86265" lon="-0.1499">
        <ele>92.9</ele>
        <time>2016-05-19T12:27:30.154Z</time>
      </trkpt>
      <trkpt lat="46.86264" lon="-0.14993">
        <ele>92.2</ele>
        <time>2016-05-19T12:27:32.159Z</time>
      </trkpt>
      <trkpt lat="46.86263" lon="-0.14995">
        <ele>91.9</ele>
        <time>2016-05-19T12:27:34.155Z</time>
      </trkpt>
      <trkpt lat="46.86261" lon="-0.14998">
        <ele>92</ele>
        <time>2016-05-19T12:27:36.154Z</time>
      </trkpt>
      <trkpt lat="46.8626" lon="-0.15">
        <ele>91.7</ele>
        <time>2016-05-19T12:27:38.154Z</time>
      </trkpt>
      <trkpt lat="46.86258" lon="-0.15002">
        <ele>91.2</ele>
        <time>2016-05-19T12:27:40.155Z</time>
      </trkpt>
      <trkpt lat="46.86256" lon="-0.15005">
        <ele>91.4</ele>
        <time>2016-05-19T12:27:42.157Z</time>
      </trkpt>
      <trkpt lat="46.86254" lon="-0.15007">
        <ele>91.1</ele>
        <time>2016-05-19T12:27:44.156Z</time>
      </trkpt>
      <trkpt lat="46.86252" lon="-0.1501">
        <ele>91.2</ele>
        <time>2016-05-19T12:27:46.163Z</time>
      </trkpt>
      <trkpt lat="46.86251" lon="-0.15013">
        <ele>91.4</ele>
        <time>2016-05-19T12:27:48.162Z</time>
      </trkpt>
      <trkpt lat="46.8625" lon="-0.15015">
        <ele>91.6</ele>
        <time>2016-05-19T12:27:50.157Z</time>
      </trkpt>
      <trkpt lat="46.86249" lon="-0.15018">
        <ele>91.4</ele>
        <time>2016-05-19T12:27:52.142Z</time>
      </trkpt>
      <trkpt lat="46.86248" lon="-0.1502">
        <ele>91</ele>
        <time>2016-05-19T12:27:53.142Z</time>
      </trkpt>
      <trkpt lat="46.86248" lon="-0.15021">
        <ele>91</ele>
        <time>2016-05-19T12:27:54.141Z</time>
      </trkpt>
      <trkpt lat="46.86247" lon="-0.15023">
        <ele>90.9</ele>
        <time>2016-05-19T12:27:55.144Z</time>
      </trkpt>
      <trkpt lat="46.86246" lon="-0.15026">
        <ele>91</ele>
        <time>2016-05-19T12:27:57.155Z</time>
      </trkpt>
      <trkpt lat="46.86245" lon="-0.15029">
        <ele>90.7</ele>
        <time>2016-05-19T12:27:59.155Z</time>
      </trkpt>
      <trkpt lat="46.86244" lon="-0.15032">
        <ele>90.8</ele>
        <time>2016-05-19T12:28:01.156Z</time>
      </trkpt>
      <trkpt lat="46.86243" lon="-0.15035">
        <ele>90.8</ele>
        <time>2016-05-19T12:28:03.155Z</time>
      </trkpt>
      <trkpt lat="46.86243" lon="-0.15038">
        <ele>91.4</ele>
        <time>2016-05-19T12:28:05.154Z</time>
      </trkpt>
      <trkpt lat="46.86242" lon="-0.1504">
        <ele>91.6</ele>
        <time>2016-05-19T12:28:07.165Z</time>
      </trkpt>
      <trkpt lat="46.8624" lon="-0.15043">
        <ele>91.3</ele>
        <time>2016-05-19T12:28:09.160Z</time>
      </trkpt>
      <trkpt lat="46.8624" lon="-0.15045">
        <ele>91.4</ele>
        <time>2016-05-19T12:28:11.153Z</time>
      </trkpt>
      <trkpt lat="46.86239" lon="-0.15047">
        <ele>91.3</ele>
        <time>2016-05-19T12:28:13.160Z</time>
      </trkpt>
      <trkpt lat="46.86239" lon="-0.1505">
        <ele>92</ele>
        <time>2016-05-19T12:28:15.155Z</time>
      </trkpt>
      <trkpt lat="46.86238" lon="-0.15054">
        <ele>92.6</ele>
        <time>2016-05-19T12:28:17.159Z</time>
      </trkpt>
      <trkpt lat="46.86237" lon="-0.15058">
        <ele>93.3</ele>
        <time>2016-05-19T12:28:19.160Z</time>
      </trkpt>
      <trkpt lat="46.86237" lon="-0.15061">
        <ele>93.5</ele>
        <time>2016-05-19T12:28:21.154Z</time>
      </trkpt>
      <trkpt lat="46.86236" lon="-0.15064">
        <ele>93.4</ele>
        <time>2016-05-19T12:28:23.156Z</time>
      </trkpt>
      <trkpt lat="46.86235" lon="-0.15067">
        <ele>93.5</ele>
        <time>2016-05-19T12:28:25.155Z</time>
      </trkpt>
      <trkpt lat="46.86235" lon="-0.1507">
        <ele>93.4</ele>
        <time>2016-05-19T12:28:27.154Z</time>
      </trkpt>
      <trkpt lat="46.86234" lon="-0.15072">
        <ele>93.7</ele>
        <time>2016-05-19T12:28:29.155Z</time>
      </trkpt>
      <trkpt lat="46.86234" lon="-0.15075">
        <ele>94.5</ele>
        <time>2016-05-19T12:28:31.161Z</time>
      </trkpt>
      <trkpt lat="46.86233" lon="-0.15079">
        <ele>94.9</ele>
        <time>2016-05-19T12:28:33.156Z</time>
      </trkpt>
      <trkpt lat="46.86232" lon="-0.15082">
        <ele>95.6</ele>
        <time>2016-05-19T12:28:35.159Z</time>
      </trkpt>
      <trkpt lat="46.86231" lon="-0.15085">
        <ele>96.7</ele>
        <time>2016-05-19T12:28:37.162Z</time>
      </trkpt>
      <trkpt lat="46.86231" lon="-0.15089">
        <ele>96.8</ele>
        <time>2016-05-19T12:28:39.160Z</time>
      </trkpt>
      <trkpt lat="46.8623" lon="-0.15092">
        <ele>97.2</ele>
        <time>2016-05-19T12:28:41.153Z</time>
      </trkpt>
      <trkpt lat="46.8623" lon="-0.15095">
        <ele>98</ele>
        <time>2016-05-19T12:28:43.159Z</time>
      </trkpt>
      <trkpt lat="46.8623" lon="-0.15099">
        <ele>98.2</ele>
        <time>2016-05-19T12:28:45.163Z</time>
      </trkpt>
      <trkpt lat="46.86229" lon="-0.15102">
        <ele>98.3</ele>
        <time>2016-05-19T12:28:47.152Z</time>
      </trkpt>
      <trkpt lat="46.86229" lon="-0.15105">
        <ele>98.2</ele>
        <time>2016-05-19T12:28:49.160Z</time>
      </trkpt>
      <trkpt lat="46.86228" lon="-0.15108">
        <ele>97.5</ele>
        <time>2016-05-19T12:28:51.159Z</time>
      </trkpt>
      <trkpt lat="46.86227" lon="-0.15111">
        <ele>97.4</ele>
        <time>2016-05-19T12:28:53.158Z</time>
      </trkpt>
      <trkpt lat="46.86227" lon="-0.15114">
        <ele>96.6</ele>
        <time>2016-05-19T12:28:55.159Z</time>
      </trkpt>
      <trkpt lat="46.86226" lon="-0.15117">
        <ele>95.9</ele>
        <time>2016-05-19T12:28:57.139Z</time>
      </trkpt>
      <trkpt lat="46.86226" lon="-0.15118">
        <ele>95.9</ele>
        <time>2016-05-19T12:28:58.144Z</time>
      </trkpt>
      <trkpt lat="46.86226" lon="-0.15119">
        <ele>95.7</ele>
        <time>2016-05-19T12:28:59.145Z</time>
      </trkpt>
      <trkpt lat="46.86226" lon="-0.15123">
        <ele>95.3</ele>
        <time>2016-05-19T12:29:01.155Z</time>
      </trkpt>
      <trkpt lat="46.86226" lon="-0.15125">
        <ele>94.2</ele>
        <time>2016-05-19T12:29:03.162Z</time>
      </trkpt>
      <trkpt lat="46.86226" lon="-0.15127">
        <ele>93.8</ele>
        <time>2016-05-19T12:29:05.153Z</time>
      </trkpt>
      <trkpt lat="46.86226" lon="-0.15131">
        <ele>93.1</ele>
        <time>2016-05-19T12:29:07.166Z</time>
      </trkpt>
      <trkpt lat="46.86226" lon="-0.15134">
        <ele>93.9</ele>
        <time>2016-05-19T12:29:09.164Z</time>
      </trkpt>
      <trkpt lat="46.86226" lon="-0.15137">
        <ele>94.5</ele>
        <time>2016-05-19T12:29:11.155Z</time>
      </trkpt>
      <trkpt lat="46.86227" lon="-0.15141">
        <ele>94.1</ele>
        <time>2016-05-19T12:29:13.169Z</time>
      </trkpt>
      <trkpt lat="46.86227" lon="-0.15145">
        <ele>93.5</ele>
        <time>2016-05-19T12:29:15.157Z</time>
      </trkpt>
      <trkpt lat="46.86228" lon="-0.15148">
        <ele>93.1</ele>
        <time>2016-05-19T12:29:17.155Z</time>
      </trkpt>
      <trkpt lat="46.86229" lon="-0.15151">
        <ele>92.1</ele>
        <time>2016-05-19T12:29:19.166Z</time>
      </trkpt>
      <trkpt lat="46.86231" lon="-0.15155">
        <ele>91.6</ele>
        <time>2016-05-19T12:29:21.156Z</time>
      </trkpt>
      <trkpt lat="46.86232" lon="-0.15158">
        <ele>91.8</ele>
        <time>2016-05-19T12:29:23.142Z</time>
      </trkpt>
      <trkpt lat="46.86232" lon="-0.15159">
        <ele>92.3</ele>
        <time>2016-05-19T12:29:24.146Z</time>
      </trkpt>
      <trkpt lat="46.86233" lon="-0.15162">
        <ele>92.4</ele>
        <time>2016-05-19T12:29:26.151Z</time>
      </trkpt>
      <trkpt lat="46.86234" lon="-0.15165">
        <ele>92.7</ele>
        <time>2016-05-19T12:29:28.154Z</time>
      </trkpt>
      <trkpt lat="46.86234" lon="-0.15168">
        <ele>92.8</ele>
        <time>2016-05-19T12:29:30.160Z</time>
      </trkpt>
      <trkpt lat="46.86235" lon="-0.15171">
        <ele>92.2</ele>
        <time>2016-05-19T12:29:32.160Z</time>
      </trkpt>
      <trkpt lat="46.86236" lon="-0.15174">
        <ele>91.9</ele>
        <time>2016-05-19T12:29:34.162Z</time>
      </trkpt>
      <trkpt lat="46.86237" lon="-0.15176">
        <ele>91.1</ele>
        <time>2016-05-19T12:29:36.153Z</time>
      </trkpt>
      <trkpt lat="46.86238" lon="-0.15179">
        <ele>90.4</ele>
        <time>2016-05-19T12:29:38.164Z</time>
      </trkpt>
      <trkpt lat="46.86239" lon="-0.15181">
        <ele>90.1</ele>
        <time>2016-05-19T12:29:40.155Z</time>
      </trkpt>
      <trkpt lat="46.8624" lon="-0.15183">
        <ele>90.7</ele>
        <time>2016-05-19T12:29:42.141Z</time>
      </trkpt>
      <trkpt lat="46.86241" lon="-0.15185">
        <ele>90.7</ele>
        <time>2016-05-19T12:29:43.140Z</time>
      </trkpt>
      <trkpt lat="46.86242" lon="-0.15186">
        <ele>91.2</ele>
        <time>2016-05-19T12:29:44.144Z</time>
      </trkpt>
      <trkpt lat="46.86243" lon="-0.15189">
        <ele>90.1</ele>
        <time>2016-05-19T12:29:46.154Z</time>
      </trkpt>
      <trkpt lat="46.86244" lon="-0.15194">
        <ele>90.3</ele>
        <time>2016-05-19T12:29:48.161Z</time>
      </trkpt>
      <trkpt lat="46.86244" lon="-0.15197">
        <ele>90</ele>
        <time>2016-05-19T12:29:50.156Z</time>
      </trkpt>
      <trkpt lat="46.86245" lon="-0.15201">
        <ele>90</ele>
        <time>2016-05-19T12:29:52.169Z</time>
      </trkpt>
      <trkpt lat="46.86246" lon="-0.15204">
        <ele>90</ele>
        <time>2016-05-19T12:29:54.156Z</time>
      </trkpt>
      <trkpt lat="46.86246" lon="-0.15207">
        <ele>89.8</ele>
        <time>2016-05-19T12:29:56.169Z</time>
      </trkpt>
      <trkpt lat="46.86246" lon="-0.1521">
        <ele>90.6</ele>
        <time>2016-05-19T12:29:58.162Z</time>
      </trkpt>
      <trkpt lat="46.86246" lon="-0.15213">
        <ele>91.8</ele>
        <time>2016-05-19T12:30:00.183Z</time>
      </trkpt>
      <trkpt lat="46.86247" lon="-0.15217">
        <ele>92.1</ele>
        <time>2016-05-19T12:30:02.156Z</time>
      </trkpt>
      <trkpt lat="46.86248" lon="-0.1522">
        <ele>92.5</ele>
        <time>2016-05-19T12:30:04.163Z</time>
      </trkpt>
      <trkpt lat="46.86248" lon="-0.15224">
        <ele>92.8</ele>
        <time>2016-05-19T12:30:06.158Z</time>
      </trkpt>
      <trkpt lat="46.86248" lon="-0.15227">
        <ele>94.3</ele>
        <time>2016-05-19T12:30:08.168Z</time>
      </trkpt>
      <trkpt lat="46.86247" lon="-0.15231">
        <ele>95.2</ele>
        <time>2016-05-19T12:30:10.155Z</time>
      </trkpt>
      <trkpt lat="46.86248" lon="-0.15234">
        <ele>95.4</ele>
        <time>2016-05-19T12:30:12.163Z</time>
      </trkpt>
      <trkpt lat="46.86248" lon="-0.15238">
        <ele>95.8</ele>
        <time>2016-05-19T12:30:14.158Z</time>
      </trkpt>
      <trkpt lat="46.86248" lon="-0.15241">
        <ele>95.8</ele>
        <time>2016-05-19T12:30:16.163Z</time>
      </trkpt>
      <trkpt lat="46.86248" lon="-0.15245">
        <ele>95.4</ele>
        <time>2016-05-19T12:30:18.156Z</time>
      </trkpt>
      <trkpt lat="46.86248" lon="-0.15248">
        <ele>95.5</ele>
        <time>2016-05-19T12:30:20.157Z</time>
      </trkpt>
      <trkpt lat="46.86248" lon="-0.15253">
        <ele>94</ele>
        <time>2016-05-19T12:30:22.163Z</time>
      </trkpt>
      <trkpt lat="46.86248" lon="-0.15256">
        <ele>93.3</ele>
        <time>2016-05-19T12:30:24.155Z</time>
      </trkpt>
      <trkpt lat="46.86247" lon="-0.1526">
        <ele>92.7</ele>
        <time>2016-05-19T12:30:26.153Z</time>
      </trkpt>
      <trkpt lat="46.86247" lon="-0.15263">
        <ele>92.2</ele>
        <time>2016-05-19T12:30:28.155Z</time>
      </trkpt>
      <trkpt lat="46.86248" lon="-0.15267">
        <ele>92.5</ele>
        <time>2016-05-19T12:30:30.138Z</time>
      </trkpt>
      <trkpt lat="46.86248" lon="-0.15269">
        <ele>92.5</ele>
        <time>2016-05-19T12:30:31.145Z</time>
      </trkpt>
      <trkpt lat="46.86248" lon="-0.15272">
        <ele>92.5</ele>
        <time>2016-05-19T12:30:33.137Z</time>
      </trkpt>
      <trkpt lat="46.86248" lon="-0.15274">
        <ele>92.5</ele>
        <time>2016-05-19T12:30:34.141Z</time>
      </trkpt>
      <trkpt lat="46.86248" lon="-0.15275">
        <ele>92.6</ele>
        <time>2016-05-19T12:30:35.140Z</time>
      </trkpt>
      <trkpt lat="46.86248" lon="-0.15277">
        <ele>92.5</ele>
        <time>2016-05-19T12:30:36.143Z</time>
      </trkpt>
      <trkpt lat="46.86247" lon="-0.15278">
        <ele>92.5</ele>
        <time>2016-05-19T12:30:37.142Z</time>
      </trkpt>
      <trkpt lat="46.86247" lon="-0.15281">
        <ele>92.4</ele>
        <time>2016-05-19T12:30:39.154Z</time>
      </trkpt>
      <trkpt lat="46.86246" lon="-0.15285">
        <ele>92.5</ele>
        <time>2016-05-19T12:30:41.139Z</time>
      </trkpt>
      <trkpt lat="46.86245" lon="-0.15286">
        <ele>92.5</ele>
        <time>2016-05-19T12:30:42.139Z</time>
      </trkpt>
      <trkpt lat="46.86245" lon="-0.15288">
        <ele>92.5</ele>
        <time>2016-05-19T12:30:43.143Z</time>
      </trkpt>
      <trkpt lat="46.86245" lon="-0.1529">
        <ele>92.3</ele>
        <time>2016-05-19T12:30:45.157Z</time>
      </trkpt>
      <trkpt lat="46.86245" lon="-0.15294">
        <ele>92.8</ele>
        <time>2016-05-19T12:30:47.155Z</time>
      </trkpt>
      <trkpt lat="46.86245" lon="-0.15295">
        <ele>93</ele>
        <time>2016-05-19T12:30:49.163Z</time>
      </trkpt>
      <trkpt lat="46.86245" lon="-0.15296">
        <ele>92.6</ele>
        <time>2016-05-19T12:30:51.160Z</time>
      </trkpt>
      <trkpt lat="46.86245" lon="-0.15296">
        <ele>92.3</ele>
        <time>2016-05-19T12:30:53.160Z</time>
      </trkpt>
      <trkpt lat="46.86245" lon="-0.15296">
        <ele>92.3</ele>
        <time>2016-05-19T12:30:55.156Z</time>
      </trkpt>
      <trkpt lat="46.86243" lon="-0.15296">
        <ele>92.1</ele>
        <time>2016-05-19T12:30:57.158Z</time>
      </trkpt>
      <trkpt lat="46.86243" lon="-0.15295">
        <ele>92.3</ele>
        <time>2016-05-19T12:30:59.141Z</time>
      </trkpt>
      <trkpt lat="46.86243" lon="-0.15295">
        <ele>92.3</ele>
        <time>2016-05-19T12:31:00.141Z</time>
      </trkpt>
      <trkpt lat="46.86243" lon="-0.15295">
        <ele>92.3</ele>
        <time>2016-05-19T12:31:01.155Z</time>
      </trkpt>
      <trkpt lat="46.86243" lon="-0.15295">
        <ele>92.3</ele>
        <time>2016-05-19T12:31:03.158Z</time>
      </trkpt>
      <trkpt lat="46.86243" lon="-0.15295">
        <ele>92.3</ele>
        <time>2016-05-19T12:31:04.172Z</time>
      </trkpt>
      <trkpt lat="46.86243" lon="-0.15295">
        <ele>92.3</ele>
        <time>2016-05-19T12:31:06.161Z</time>
      </trkpt>
      <trkpt lat="46.86243" lon="-0.15295">
        <ele>92.3</ele>
        <time>2016-05-19T12:31:08.155Z</time>
      </trkpt>
      <trkpt lat="46.86241" lon="-0.15297">
        <ele>93.2</ele>
        <time>2016-05-19T12:31:09.166Z</time>
      </trkpt>
      <trkpt lat="46.86239" lon="-0.15298">
        <ele>94</ele>
        <time>2016-05-19T12:31:11.154Z</time>
      </trkpt>
      <trkpt lat="46.86237" lon="-0.15299">
        <ele>94.4</ele>
        <time>2016-05-19T12:31:13.155Z</time>
      </trkpt>
      <trkpt lat="46.86235" lon="-0.153">
        <ele>95.6</ele>
        <time>2016-05-19T12:31:15.156Z</time>
      </trkpt>
      <trkpt lat="46.86233" lon="-0.15301">
        <ele>95.6</ele>
        <time>2016-05-19T12:31:17.171Z</time>
      </trkpt>
      <trkpt lat="46.8623" lon="-0.15302">
        <ele>94.9</ele>
        <time>2016-05-19T12:31:19.167Z</time>
      </trkpt>
      <trkpt lat="46.86227" lon="-0.15303">
        <ele>94.6</ele>
        <time>2016-05-19T12:31:21.155Z</time>
      </trkpt>
      <trkpt lat="46.86225" lon="-0.15304">
        <ele>94.5</ele>
        <time>2016-05-19T12:31:23.158Z</time>
      </trkpt>
      <trkpt lat="46.86224" lon="-0.15304">
        <ele>94.7</ele>
        <time>2016-05-19T12:31:24.139Z</time>
      </trkpt>
      <trkpt lat="46.86223" lon="-0.15305">
        <ele>94.6</ele>
        <time>2016-05-19T12:31:25.143Z</time>
      </trkpt>
      <trkpt lat="46.86221" lon="-0.15306">
        <ele>94.7</ele>
        <time>2016-05-19T12:31:27.154Z</time>
      </trkpt>
      <trkpt lat="46.86219" lon="-0.15307">
        <ele>95</ele>
        <time>2016-05-19T12:31:29.155Z</time>
      </trkpt>
      <trkpt lat="46.86216" lon="-0.15307">
        <ele>95.1</ele>
        <time>2016-05-19T12:31:31.160Z</time>
      </trkpt>
      <trkpt lat="46.86213" lon="-0.15307">
        <ele>95.3</ele>
        <time>2016-05-19T12:31:33.152Z</time>
      </trkpt>
      <trkpt lat="46.86212" lon="-0.15308">
        <ele>95.5</ele>
        <time>2016-05-19T12:31:34.141Z</time>
      </trkpt>
      <trkpt lat="46.8621" lon="-0.15308">
        <ele>95.8</ele>
        <time>2016-05-19T12:31:36.153Z</time>
      </trkpt>
      <trkpt lat="46.86207" lon="-0.15307">
        <ele>95.7</ele>
        <time>2016-05-19T12:31:38.166Z</time>
      </trkpt>
      <trkpt lat="46.86205" lon="-0.15307">
        <ele>95.5</ele>
        <time>2016-05-19T12:31:40.151Z</time>
      </trkpt>
      <trkpt lat="46.86203" lon="-0.15308">
        <ele>95.7</ele>
        <time>2016-05-19T12:31:42.156Z</time>
      </trkpt>
      <trkpt lat="46.862" lon="-0.15309">
        <ele>95.7</ele>
        <time>2016-05-19T12:31:44.155Z</time>
      </trkpt>
      <trkpt lat="46.86198" lon="-0.1531">
        <ele>95.3</ele>
        <time>2016-05-19T12:31:46.153Z</time>
      </trkpt>
      <trkpt lat="46.86196" lon="-0.1531">
        <ele>95.5</ele>
        <time>2016-05-19T12:31:48.145Z</time>
      </trkpt>
      <trkpt lat="46.86193" lon="-0.15311">
        <ele>95.2</ele>
        <time>2016-05-19T12:31:50.165Z</time>
      </trkpt>
      <trkpt lat="46.8619" lon="-0.15312">
        <ele>95.2</ele>
        <time>2016-05-19T12:31:52.154Z</time>
      </trkpt>
      <trkpt lat="46.86188" lon="-0.15312">
        <ele>95.2</ele>
        <time>2016-05-19T12:31:54.155Z</time>
      </trkpt>
      <trkpt lat="46.86186" lon="-0.15312">
        <ele>94.8</ele>
        <time>2016-05-19T12:31:56.153Z</time>
      </trkpt>
      <trkpt lat="46.86184" lon="-0.15313">
        <ele>93.9</ele>
        <time>2016-05-19T12:31:58.158Z</time>
      </trkpt>
      <trkpt lat="46.86181" lon="-0.15313">
        <ele>93.6</ele>
        <time>2016-05-19T12:32:00.138Z</time>
      </trkpt>
      <trkpt lat="46.8618" lon="-0.15313">
        <ele>93.6</ele>
        <time>2016-05-19T12:32:01.149Z</time>
      </trkpt>
      <trkpt lat="46.86178" lon="-0.15313">
        <ele>93.9</ele>
        <time>2016-05-19T12:32:03.156Z</time>
      </trkpt>
      <trkpt lat="46.86176" lon="-0.15313">
        <ele>93.8</ele>
        <time>2016-05-19T12:32:05.155Z</time>
      </trkpt>
      <trkpt lat="46.86174" lon="-0.15313">
        <ele>93.8</ele>
        <time>2016-05-19T12:32:07.162Z</time>
      </trkpt>
      <trkpt lat="46.86173" lon="-0.15313">
        <ele>93.8</ele>
        <time>2016-05-19T12:32:08.157Z</time>
      </trkpt>
      <trkpt lat="46.8617" lon="-0.15313">
        <ele>93.1</ele>
        <time>2016-05-19T12:32:10.148Z</time>
      </trkpt>
      <trkpt lat="46.86168" lon="-0.15313">
        <ele>92.8</ele>
        <time>2016-05-19T12:32:12.155Z</time>
      </trkpt>
      <trkpt lat="46.86166" lon="-0.15313">
        <ele>92.2</ele>
        <time>2016-05-19T12:32:14.156Z</time>
      </trkpt>
      <trkpt lat="46.86163" lon="-0.15313">
        <ele>92.6</ele>
        <time>2016-05-19T12:32:16.158Z</time>
      </trkpt>
      <trkpt lat="46.86161" lon="-0.15312">
        <ele>92.9</ele>
        <time>2016-05-19T12:32:18.155Z</time>
      </trkpt>
      <trkpt lat="46.8616" lon="-0.15311">
        <ele>92.9</ele>
        <time>2016-05-19T12:32:20.154Z</time>
      </trkpt>
      <trkpt lat="46.86157" lon="-0.15312">
        <ele>92.7</ele>
        <time>2016-05-19T12:32:22.155Z</time>
      </trkpt>
      <trkpt lat="46.86155" lon="-0.15312">
        <ele>92.7</ele>
        <time>2016-05-19T12:32:24.161Z</time>
      </trkpt>
      <trkpt lat="46.86153" lon="-0.15311">
        <ele>92.6</ele>
        <time>2016-05-19T12:32:26.155Z</time>
      </trkpt>
      <trkpt lat="46.86151" lon="-0.15311">
        <ele>92.3</ele>
        <time>2016-05-19T12:32:28.153Z</time>
      </trkpt>
      <trkpt lat="46.86149" lon="-0.15311">
        <ele>92</ele>
        <time>2016-05-19T12:32:30.154Z</time>
      </trkpt>
      <trkpt lat="46.86146" lon="-0.15311">
        <ele>91.5</ele>
        <time>2016-05-19T12:32:32.159Z</time>
      </trkpt>
      <trkpt lat="46.86144" lon="-0.1531">
        <ele>91</ele>
        <time>2016-05-19T12:32:34.156Z</time>
      </trkpt>
      <trkpt lat="46.86141" lon="-0.15311">
        <ele>91.1</ele>
        <time>2016-05-19T12:32:36.155Z</time>
      </trkpt>
      <trkpt lat="46.86139" lon="-0.1531">
        <ele>90.9</ele>
        <time>2016-05-19T12:32:38.159Z</time>
      </trkpt>
      <trkpt lat="46.86137" lon="-0.15311">
        <ele>90.4</ele>
        <time>2016-05-19T12:32:40.160Z</time>
      </trkpt>
      <trkpt lat="46.86134" lon="-0.15311">
        <ele>89.9</ele>
        <time>2016-05-19T12:32:42.156Z</time>
      </trkpt>
      <trkpt lat="46.86132" lon="-0.15311">
        <ele>89.8</ele>
        <time>2016-05-19T12:32:44.162Z</time>
      </trkpt>
      <trkpt lat="46.86132" lon="-0.15311">
        <ele>89.8</ele>
        <time>2016-05-19T12:32:46.158Z</time>
      </trkpt>
      <trkpt lat="46.86131" lon="-0.15311">
        <ele>90.3</ele>
        <time>2016-05-19T12:32:48.153Z</time>
      </trkpt>
      <trkpt lat="46.86129" lon="-0.15312">
        <ele>91</ele>
        <time>2016-05-19T12:32:50.160Z</time>
      </trkpt>
      <trkpt lat="46.86128" lon="-0.15313">
        <ele>91.2</ele>
        <time>2016-05-19T12:32:52.139Z</time>
      </trkpt>
      <trkpt lat="46.86128" lon="-0.15314">
        <ele>91.6</ele>
        <time>2016-05-19T12:32:53.142Z</time>
      </trkpt>
      <trkpt lat="46.86126" lon="-0.15316">
        <ele>91.5</ele>
        <time>2016-05-19T12:32:55.155Z</time>
      </trkpt>
      <trkpt lat="46.86126" lon="-0.15317">
        <ele>91.9</ele>
        <time>2016-05-19T12:32:57.155Z</time>
      </trkpt>
      <trkpt lat="46.86124" lon="-0.15319">
        <ele>91.8</ele>
        <time>2016-05-19T12:32:59.154Z</time>
      </trkpt>
      <trkpt lat="46.86124" lon="-0.15322">
        <ele>92</ele>
        <time>2016-05-19T12:33:01.142Z</time>
      </trkpt>
      <trkpt lat="46.86123" lon="-0.15324">
        <ele>91.6</ele>
        <time>2016-05-19T12:33:02.142Z</time>
      </trkpt>
      <trkpt lat="46.86122" lon="-0.15325">
        <ele>91.6</ele>
        <time>2016-05-19T12:33:03.144Z</time>
      </trkpt>
      <trkpt lat="46.86121" lon="-0.15327">
        <ele>90.9</ele>
        <time>2016-05-19T12:33:05.139Z</time>
      </trkpt>
      <trkpt lat="46.86121" lon="-0.15328">
        <ele>91.1</ele>
        <time>2016-05-19T12:33:06.161Z</time>
      </trkpt>
      <trkpt lat="46.86119" lon="-0.1533">
        <ele>91.3</ele>
        <time>2016-05-19T12:33:08.153Z</time>
      </trkpt>
      <trkpt lat="46.86118" lon="-0.15334">
        <ele>91.4</ele>
        <time>2016-05-19T12:33:10.155Z</time>
      </trkpt>
      <trkpt lat="46.86117" lon="-0.15336">
        <ele>91.3</ele>
        <time>2016-05-19T12:33:12.149Z</time>
      </trkpt>
      <trkpt lat="46.86115" lon="-0.15339">
        <ele>91.4</ele>
        <time>2016-05-19T12:33:14.155Z</time>
      </trkpt>
      <trkpt lat="46.86114" lon="-0.15342">
        <ele>92.3</ele>
        <time>2016-05-19T12:33:16.155Z</time>
      </trkpt>
      <trkpt lat="46.86113" lon="-0.15344">
        <ele>93.2</ele>
        <time>2016-05-19T12:33:18.155Z</time>
      </trkpt>
      <trkpt lat="46.86112" lon="-0.15348">
        <ele>93.7</ele>
        <time>2016-05-19T12:33:20.164Z</time>
      </trkpt>
      <trkpt lat="46.86112" lon="-0.15351">
        <ele>94.2</ele>
        <time>2016-05-19T12:33:22.151Z</time>
      </trkpt>
      <trkpt lat="46.8611" lon="-0.15354">
        <ele>94.5</ele>
        <time>2016-05-19T12:33:24.153Z</time>
      </trkpt>
      <trkpt lat="46.8611" lon="-0.15357">
        <ele>94.5</ele>
        <time>2016-05-19T12:33:26.159Z</time>
      </trkpt>
      <trkpt lat="46.86108" lon="-0.15361">
        <ele>94.5</ele>
        <time>2016-05-19T12:33:28.162Z</time>
      </trkpt>
      <trkpt lat="46.86108" lon="-0.15364">
        <ele>94.7</ele>
        <time>2016-05-19T12:33:30.153Z</time>
      </trkpt>
      <trkpt lat="46.86107" lon="-0.15368">
        <ele>94.7</ele>
        <time>2016-05-19T12:33:32.155Z</time>
      </trkpt>
      <trkpt lat="46.86106" lon="-0.15371">
        <ele>94.3</ele>
        <time>2016-05-19T12:33:34.157Z</time>
      </trkpt>
      <trkpt lat="46.86105" lon="-0.15375">
        <ele>94.1</ele>
        <time>2016-05-19T12:33:36.153Z</time>
      </trkpt>
      <trkpt lat="46.86105" lon="-0.15378">
        <ele>94.1</ele>
        <time>2016-05-19T12:33:38.161Z</time>
      </trkpt>
      <trkpt lat="46.86104" lon="-0.15381">
        <ele>94.1</ele>
        <time>2016-05-19T12:33:40.162Z</time>
      </trkpt>
      <trkpt lat="46.86103" lon="-0.15384">
        <ele>93.9</ele>
        <time>2016-05-19T12:33:42.154Z</time>
      </trkpt>
      <trkpt lat="46.86103" lon="-0.15387">
        <ele>94.2</ele>
        <time>2016-05-19T12:33:44.155Z</time>
      </trkpt>
      <trkpt lat="46.86103" lon="-0.1539">
        <ele>94.1</ele>
        <time>2016-05-19T12:33:46.160Z</time>
      </trkpt>
      <trkpt lat="46.86103" lon="-0.15393">
        <ele>93.9</ele>
        <time>2016-05-19T12:33:48.159Z</time>
      </trkpt>
      <trkpt lat="46.86103" lon="-0.15397">
        <ele>93.7</ele>
        <time>2016-05-19T12:33:50.155Z</time>
      </trkpt>
      <trkpt lat="46.86103" lon="-0.15399">
        <ele>93.2</ele>
        <time>2016-05-19T12:33:52.164Z</time>
      </trkpt>
      <trkpt lat="46.86102" lon="-0.15402">
        <ele>92.7</ele>
        <time>2016-05-19T12:33:54.158Z</time>
      </trkpt>
      <trkpt lat="46.86102" lon="-0.15405">
        <ele>93.2</ele>
        <time>2016-05-19T12:33:56.156Z</time>
      </trkpt>
      <trkpt lat="46.86101" lon="-0.15408">
        <ele>93.2</ele>
        <time>2016-05-19T12:33:58.156Z</time>
      </trkpt>
      <trkpt lat="46.861" lon="-0.15411">
        <ele>93.6</ele>
        <time>2016-05-19T12:34:00.141Z</time>
      </trkpt>
      <trkpt lat="46.861" lon="-0.15412">
        <ele>93.5</ele>
        <time>2016-05-19T12:34:01.141Z</time>
      </trkpt>
      <trkpt lat="46.86099" lon="-0.15414">
        <ele>93.5</ele>
        <time>2016-05-19T12:34:02.144Z</time>
      </trkpt>
      <trkpt lat="46.86098" lon="-0.15416">
        <ele>93.5</ele>
        <time>2016-05-19T12:34:04.157Z</time>
      </trkpt>
      <trkpt lat="46.86097" lon="-0.15419">
        <ele>93.8</ele>
        <time>2016-05-19T12:34:06.154Z</time>
      </trkpt>
      <trkpt lat="46.86095" lon="-0.15421">
        <ele>93.6</ele>
        <time>2016-05-19T12:34:08.157Z</time>
      </trkpt>
      <trkpt lat="46.86095" lon="-0.15423">
        <ele>93.9</ele>
        <time>2016-05-19T12:34:10.161Z</time>
      </trkpt>
      <trkpt lat="46.86094" lon="-0.15424">
        <ele>94.2</ele>
        <time>2016-05-19T12:34:12.162Z</time>
      </trkpt>
      <trkpt lat="46.86092" lon="-0.15426">
        <ele>94.7</ele>
        <time>2016-05-19T12:34:14.152Z</time>
      </trkpt>
      <trkpt lat="46.86091" lon="-0.15428">
        <ele>94.7</ele>
        <time>2016-05-19T12:34:16.155Z</time>
      </trkpt>
      <trkpt lat="46.86089" lon="-0.1543">
        <ele>94.8</ele>
        <time>2016-05-19T12:34:18.155Z</time>
      </trkpt>
      <trkpt lat="46.86087" lon="-0.15432">
        <ele>94.6</ele>
        <time>2016-05-19T12:34:20.152Z</time>
      </trkpt>
      <trkpt lat="46.86086" lon="-0.15434">
        <ele>94.6</ele>
        <time>2016-05-19T12:34:22.154Z</time>
      </trkpt>
      <trkpt lat="46.86085" lon="-0.15435">
        <ele>94.1</ele>
        <time>2016-05-19T12:34:24.163Z</time>
      </trkpt>
      <trkpt lat="46.86083" lon="-0.15437">
        <ele>93.9</ele>
        <time>2016-05-19T12:34:26.154Z</time>
      </trkpt>
      <trkpt lat="46.86082" lon="-0.1544">
        <ele>94.3</ele>
        <time>2016-05-19T12:34:28.157Z</time>
      </trkpt>
      <trkpt lat="46.8608" lon="-0.15442">
        <ele>93.9</ele>
        <time>2016-05-19T12:34:30.169Z</time>
      </trkpt>
      <trkpt lat="46.86079" lon="-0.15444">
        <ele>94.3</ele>
        <time>2016-05-19T12:34:32.149Z</time>
      </trkpt>
      <trkpt lat="46.86079" lon="-0.15447">
        <ele>94.6</ele>
        <time>2016-05-19T12:34:34.159Z</time>
      </trkpt>
      <trkpt lat="46.86078" lon="-0.1545">
        <ele>95</ele>
        <time>2016-05-19T12:34:36.157Z</time>
      </trkpt>
      <trkpt lat="46.86077" lon="-0.15453">
        <ele>95.2</ele>
        <time>2016-05-19T12:34:38.152Z</time>
      </trkpt>
      <trkpt lat="46.86076" lon="-0.15456">
        <ele>95.3</ele>
        <time>2016-05-19T12:34:40.152Z</time>
      </trkpt>
      <trkpt lat="46.86075" lon="-0.15458">
        <ele>95.8</ele>
        <time>2016-05-19T12:34:42.139Z</time>
      </trkpt>
      <trkpt lat="46.86074" lon="-0.1546">
        <ele>95.9</ele>
        <time>2016-05-19T12:34:43.164Z</time>
      </trkpt>
      <trkpt lat="46.86073" lon="-0.15462">
        <ele>96.4</ele>
        <time>2016-05-19T12:34:45.156Z</time>
      </trkpt>
      <trkpt lat="46.86071" lon="-0.15463">
        <ele>96.5</ele>
        <time>2016-05-19T12:34:47.156Z</time>
      </trkpt>
      <trkpt lat="46.8607" lon="-0.15465">
        <ele>96.9</ele>
        <time>2016-05-19T12:34:49.160Z</time>
      </trkpt>
      <trkpt lat="46.86069" lon="-0.15468">
        <ele>96.9</ele>
        <time>2016-05-19T12:34:51.162Z</time>
      </trkpt>
      <trkpt lat="46.86068" lon="-0.15471">
        <ele>96.6</ele>
        <time>2016-05-19T12:34:53.157Z</time>
      </trkpt>
      <trkpt lat="46.86067" lon="-0.15472">
        <ele>96.5</ele>
        <time>2016-05-19T12:34:55.162Z</time>
      </trkpt>
      <trkpt lat="46.86066" lon="-0.15475">
        <ele>96.6</ele>
        <time>2016-05-19T12:34:57.154Z</time>
      </trkpt>
      <trkpt lat="46.86065" lon="-0.15478">
        <ele>96.5</ele>
        <time>2016-05-19T12:34:59.156Z</time>
      </trkpt>
      <trkpt lat="46.86065" lon="-0.1548">
        <ele>95.6</ele>
        <time>2016-05-19T12:35:01.167Z</time>
      </trkpt>
      <trkpt lat="46.86064" lon="-0.15483">
        <ele>95.3</ele>
        <time>2016-05-19T12:35:03.158Z</time>
      </trkpt>
      <trkpt lat="46.86063" lon="-0.15487">
        <ele>94.9</ele>
        <time>2016-05-19T12:35:05.153Z</time>
      </trkpt>
      <trkpt lat="46.86062" lon="-0.1549">
        <ele>94.6</ele>
        <time>2016-05-19T12:35:07.174Z</time>
      </trkpt>
      <trkpt lat="46.8606" lon="-0.15492">
        <ele>94.3</ele>
        <time>2016-05-19T12:35:09.156Z</time>
      </trkpt>
      <trkpt lat="46.8606" lon="-0.15495">
        <ele>94.1</ele>
        <time>2016-05-19T12:35:11.154Z</time>
      </trkpt>
      <trkpt lat="46.86059" lon="-0.15497">
        <ele>94.3</ele>
        <time>2016-05-19T12:35:12.157Z</time>
      </trkpt>
      <trkpt lat="46.86058" lon="-0.155">
        <ele>94</ele>
        <time>2016-05-19T12:35:14.153Z</time>
      </trkpt>
      <trkpt lat="46.86058" lon="-0.15503">
        <ele>94.5</ele>
        <time>2016-05-19T12:35:16.155Z</time>
      </trkpt>
      <trkpt lat="46.86057" lon="-0.15506">
        <ele>95</ele>
        <time>2016-05-19T12:35:18.156Z</time>
      </trkpt>
      <trkpt lat="46.86055" lon="-0.15509">
        <ele>95.4</ele>
        <time>2016-05-19T12:35:20.153Z</time>
      </trkpt>
      <trkpt lat="46.86054" lon="-0.15513">
        <ele>95.7</ele>
        <time>2016-05-19T12:35:22.155Z</time>
      </trkpt>
      <trkpt lat="46.86054" lon="-0.15516">
        <ele>96.7</ele>
        <time>2016-05-19T12:35:24.151Z</time>
      </trkpt>
      <trkpt lat="46.86052" lon="-0.15519">
        <ele>97.8</ele>
        <time>2016-05-19T12:35:26.151Z</time>
      </trkpt>
      <trkpt lat="46.86052" lon="-0.15521">
        <ele>98.8</ele>
        <time>2016-05-19T12:35:28.155Z</time>
      </trkpt>
      <trkpt lat="46.86052" lon="-0.15523">
        <ele>100.1</ele>
        <time>2016-05-19T12:35:30.160Z</time>
      </trkpt>
      <trkpt lat="46.86051" lon="-0.15524">
        <ele>100</ele>
        <time>2016-05-19T12:35:32.164Z</time>
      </trkpt>
      <trkpt lat="46.86049" lon="-0.15525">
        <ele>99.3</ele>
        <time>2016-05-19T12:35:34.156Z</time>
      </trkpt>
      <trkpt lat="46.86047" lon="-0.15525">
        <ele>97.8</ele>
        <time>2016-05-19T12:35:36.156Z</time>
      </trkpt>
      <trkpt lat="46.86046" lon="-0.15526">
        <ele>97.1</ele>
        <time>2016-05-19T12:35:38.158Z</time>
      </trkpt>
      <trkpt lat="46.86045" lon="-0.15527">
        <ele>96.3</ele>
        <time>2016-05-19T12:35:40.164Z</time>
      </trkpt>
      <trkpt lat="46.86043" lon="-0.15528">
        <ele>95.2</ele>
        <time>2016-05-19T12:35:42.190Z</time>
      </trkpt>
      <trkpt lat="46.86041" lon="-0.15529">
        <ele>94.6</ele>
        <time>2016-05-19T12:35:44.154Z</time>
      </trkpt>
      <trkpt lat="46.8604" lon="-0.15531">
        <ele>94.5</ele>
        <time>2016-05-19T12:35:46.154Z</time>
      </trkpt>
      <trkpt lat="46.86038" lon="-0.15533">
        <ele>95.2</ele>
        <time>2016-05-19T12:35:48.153Z</time>
      </trkpt>
      <trkpt lat="46.86036" lon="-0.15534">
        <ele>95.9</ele>
        <time>2016-05-19T12:35:49.166Z</time>
      </trkpt>
      <trkpt lat="46.86034" lon="-0.15535">
        <ele>95.5</ele>
        <time>2016-05-19T12:35:51.155Z</time>
      </trkpt>
      <trkpt lat="46.86032" lon="-0.15536">
        <ele>94.6</ele>
        <time>2016-05-19T12:35:53.154Z</time>
      </trkpt>
      <trkpt lat="46.8603" lon="-0.15537">
        <ele>93.8</ele>
        <time>2016-05-19T12:35:55.163Z</time>
      </trkpt>
      <trkpt lat="46.86028" lon="-0.15538">
        <ele>92.5</ele>
        <time>2016-05-19T12:35:57.156Z</time>
      </trkpt>
      <trkpt lat="46.86026" lon="-0.1554">
        <ele>91.3</ele>
        <time>2016-05-19T12:35:59.152Z</time>
      </trkpt>
      <trkpt lat="46.86025" lon="-0.15541">
        <ele>90.4</ele>
        <time>2016-05-19T12:36:01.155Z</time>
      </trkpt>
      <trkpt lat="46.86023" lon="-0.15543">
        <ele>90.8</ele>
        <time>2016-05-19T12:36:03.163Z</time>
      </trkpt>
      <trkpt lat="46.86021" lon="-0.15545">
        <ele>90.7</ele>
        <time>2016-05-19T12:36:05.153Z</time>
      </trkpt>
      <trkpt lat="46.8602" lon="-0.15547">
        <ele>90.5</ele>
        <time>2016-05-19T12:36:07.155Z</time>
      </trkpt>
      <trkpt lat="46.86018" lon="-0.15549">
        <ele>90.3</ele>
        <time>2016-05-19T12:36:09.161Z</time>
      </trkpt>
      <trkpt lat="46.86017" lon="-0.1555">
        <ele>90.5</ele>
        <time>2016-05-19T12:36:11.153Z</time>
      </trkpt>
      <trkpt lat="46.86015" lon="-0.15551">
        <ele>90.9</ele>
        <time>2016-05-19T12:36:13.157Z</time>
      </trkpt>
      <trkpt lat="46.86013" lon="-0.15552">
        <ele>90.2</ele>
        <time>2016-05-19T12:36:15.158Z</time>
      </trkpt>
      <trkpt lat="46.86011" lon="-0.15551">
        <ele>89.2</ele>
        <time>2016-05-19T12:36:17.160Z</time>
      </trkpt>
      <trkpt lat="46.8601" lon="-0.15551">
        <ele>88.7</ele>
        <time>2016-05-19T12:36:19.155Z</time>
      </trkpt>
      <trkpt lat="46.86009" lon="-0.15551">
        <ele>88.3</ele>
        <time>2016-05-19T12:36:21.157Z</time>
      </trkpt>
      <trkpt lat="46.86009" lon="-0.15551">
        <ele>88.3</ele>
        <time>2016-05-19T12:36:23.141Z</time>
      </trkpt>
      <trkpt lat="46.86009" lon="-0.15551">
        <ele>88.3</ele>
        <time>2016-05-19T12:36:24.152Z</time>
      </trkpt>
      <trkpt lat="46.86009" lon="-0.15551">
        <ele>88.3</ele>
        <time>2016-05-19T12:36:25.158Z</time>
      </trkpt>
      <trkpt lat="46.86009" lon="-0.15548">
        <ele>86.4</ele>
        <time>2016-05-19T12:36:26.164Z</time>
      </trkpt>
      <trkpt lat="46.86008" lon="-0.15547">
        <ele>85.5</ele>
        <time>2016-05-19T12:36:28.155Z</time>
      </trkpt>
      <trkpt lat="46.86008" lon="-0.15545">
        <ele>84.6</ele>
        <time>2016-05-19T12:36:30.155Z</time>
      </trkpt>
      <trkpt lat="46.86009" lon="-0.15542">
        <ele>84.4</ele>
        <time>2016-05-19T12:36:32.158Z</time>
      </trkpt>
      <trkpt lat="46.86008" lon="-0.15539">
        <ele>83.9</ele>
        <time>2016-05-19T12:36:34.155Z</time>
      </trkpt>
      <trkpt lat="46.86009" lon="-0.15537">
        <ele>83.9</ele>
        <time>2016-05-19T12:36:36.156Z</time>
      </trkpt>
      <trkpt lat="46.86009" lon="-0.15535">
        <ele>83.9</ele>
        <time>2016-05-19T12:36:38.155Z</time>
      </trkpt>
      <trkpt lat="46.86009" lon="-0.15534">
        <ele>83.6</ele>
        <time>2016-05-19T12:36:40.155Z</time>
      </trkpt>
      <trkpt lat="46.86008" lon="-0.15531">
        <ele>83.7</ele>
        <time>2016-05-19T12:36:42.143Z</time>
      </trkpt>
      <trkpt lat="46.86008" lon="-0.1553">
        <ele>83.6</ele>
        <time>2016-05-19T12:36:43.147Z</time>
      </trkpt>
      <trkpt lat="46.86008" lon="-0.15528">
        <ele>83.3</ele>
        <time>2016-05-19T12:36:44.156Z</time>
      </trkpt>
      <trkpt lat="46.86007" lon="-0.15526">
        <ele>83.8</ele>
        <time>2016-05-19T12:36:46.140Z</time>
      </trkpt>
      <trkpt lat="46.86006" lon="-0.15524">
        <ele>83.7</ele>
        <time>2016-05-19T12:36:47.141Z</time>
      </trkpt>
      <trkpt lat="46.86006" lon="-0.15523">
        <ele>83.9</ele>
        <time>2016-05-19T12:36:48.143Z</time>
      </trkpt>
      <trkpt lat="46.86006" lon="-0.15521">
        <ele>84.1</ele>
        <time>2016-05-19T12:36:49.148Z</time>
      </trkpt>
      <trkpt lat="46.86006" lon="-0.15518">
        <ele>84.8</ele>
        <time>2016-05-19T12:36:51.157Z</time>
      </trkpt>
      <trkpt lat="46.86005" lon="-0.15514">
        <ele>84.6</ele>
        <time>2016-05-19T12:36:53.137Z</time>
      </trkpt>
      <trkpt lat="46.86005" lon="-0.15513">
        <ele>84.6</ele>
        <time>2016-05-19T12:36:54.144Z</time>
      </trkpt>
      <trkpt lat="46.86005" lon="-0.15511">
        <ele>84.4</ele>
        <time>2016-05-19T12:36:55.148Z</time>
      </trkpt>
      <trkpt lat="46.86004" lon="-0.15508">
        <ele>84.7</ele>
        <time>2016-05-19T12:36:57.151Z</time>
      </trkpt>
      <trkpt lat="46.86002" lon="-0.15507">
        <ele>84.7</ele>
        <time>2016-05-19T12:36:59.163Z</time>
      </trkpt>
      <trkpt lat="46.86002" lon="-0.15506">
        <ele>86</ele>
        <time>2016-05-19T12:37:01.163Z</time>
      </trkpt>
      <trkpt lat="46.86001" lon="-0.15506">
        <ele>86.7</ele>
        <time>2016-05-19T12:37:03.156Z</time>
      </trkpt>
      <trkpt lat="46.86" lon="-0.15506">
        <ele>88.1</ele>
        <time>2016-05-19T12:37:05.159Z</time>
      </trkpt>
      <trkpt lat="46.86" lon="-0.15506">
        <ele>89.2</ele>
        <time>2016-05-19T12:37:07.155Z</time>
      </trkpt>
      <trkpt lat="46.86" lon="-0.15507">
        <ele>89.6</ele>
        <time>2016-05-19T12:37:09.173Z</time>
      </trkpt>
      <trkpt lat="46.86" lon="-0.15507">
        <ele>90.2</ele>
        <time>2016-05-19T12:37:11.157Z</time>
      </trkpt>
      <trkpt lat="46.86" lon="-0.15508">
        <ele>90.4</ele>
        <time>2016-05-19T12:37:13.159Z</time>
      </trkpt>
      <trkpt lat="46.85999" lon="-0.15509">
        <ele>90.5</ele>
        <time>2016-05-19T12:37:15.141Z</time>
      </trkpt>
      <trkpt lat="46.85999" lon="-0.1551">
        <ele>90.6</ele>
        <time>2016-05-19T12:37:16.142Z</time>
      </trkpt>
      <trkpt lat="46.85999" lon="-0.15511">
        <ele>90.6</ele>
        <time>2016-05-19T12:37:17.141Z</time>
      </trkpt>
      <trkpt lat="46.85999" lon="-0.15512">
        <ele>90.8</ele>
        <time>2016-05-19T12:37:18.142Z</time>
      </trkpt>
      <trkpt lat="46.85998" lon="-0.15513">
        <ele>91</ele>
        <time>2016-05-19T12:37:19.155Z</time>
      </trkpt>
      <trkpt lat="46.85998" lon="-0.15515">
        <ele>91.5</ele>
        <time>2016-05-19T12:37:21.159Z</time>
      </trkpt>
      <trkpt lat="46.85997" lon="-0.15516">
        <ele>92.4</ele>
        <time>2016-05-19T12:37:23.153Z</time>
      </trkpt>
      <trkpt lat="46.85997" lon="-0.15518">
        <ele>92.9</ele>
        <time>2016-05-19T12:37:25.166Z</time>
      </trkpt>
      <trkpt lat="46.85997" lon="-0.1552">
        <ele>93.1</ele>
        <time>2016-05-19T12:37:27.160Z</time>
      </trkpt>
      <trkpt lat="46.85996" lon="-0.15523">
        <ele>93.1</ele>
        <time>2016-05-19T12:37:29.155Z</time>
      </trkpt>
      <trkpt lat="46.85996" lon="-0.15525">
        <ele>93.1</ele>
        <time>2016-05-19T12:37:31.160Z</time>
      </trkpt>
      <trkpt lat="46.85995" lon="-0.15528">
        <ele>92.7</ele>
        <time>2016-05-19T12:37:33.155Z</time>
      </trkpt>
      <trkpt lat="46.85995" lon="-0.15531">
        <ele>92.5</ele>
        <time>2016-05-19T12:37:35.157Z</time>
      </trkpt>
      <trkpt lat="46.85995" lon="-0.15534">
        <ele>92.3</ele>
        <time>2016-05-19T12:37:37.157Z</time>
      </trkpt>
      <trkpt lat="46.85994" lon="-0.15536">
        <ele>92.8</ele>
        <time>2016-05-19T12:37:39.159Z</time>
      </trkpt>
      <trkpt lat="46.85993" lon="-0.15539">
        <ele>92.7</ele>
        <time>2016-05-19T12:37:41.157Z</time>
      </trkpt>
      <trkpt lat="46.85993" lon="-0.1554">
        <ele>92.6</ele>
        <time>2016-05-19T12:37:42.307Z</time>
      </trkpt>
      <trkpt lat="46.85992" lon="-0.15543">
        <ele>92.3</ele>
        <time>2016-05-19T12:37:44.154Z</time>
      </trkpt>
      <trkpt lat="46.85992" lon="-0.15545">
        <ele>91.8</ele>
        <time>2016-05-19T12:37:46.178Z</time>
      </trkpt>
      <trkpt lat="46.85992" lon="-0.15548">
        <ele>91.5</ele>
        <time>2016-05-19T12:37:48.160Z</time>
      </trkpt>
      <trkpt lat="46.85992" lon="-0.1555">
        <ele>91.2</ele>
        <time>2016-05-19T12:37:50.154Z</time>
      </trkpt>
      <trkpt lat="46.85992" lon="-0.15554">
        <ele>91.1</ele>
        <time>2016-05-19T12:37:52.160Z</time>
      </trkpt>
      <trkpt lat="46.85992" lon="-0.15557">
        <ele>90.5</ele>
        <time>2016-05-19T12:37:54.140Z</time>
      </trkpt>
      <trkpt lat="46.85992" lon="-0.15558">
        <ele>90.2</ele>
        <time>2016-05-19T12:37:55.150Z</time>
      </trkpt>
      <trkpt lat="46.85992" lon="-0.15559">
        <ele>90</ele>
        <time>2016-05-19T12:37:56.150Z</time>
      </trkpt>
      <trkpt lat="46.85992" lon="-0.15561">
        <ele>89.7</ele>
        <time>2016-05-19T12:37:58.160Z</time>
      </trkpt>
      <trkpt lat="46.85992" lon="-0.15564">
        <ele>90</ele>
        <time>2016-05-19T12:38:00.292Z</time>
      </trkpt>
      <trkpt lat="46.85992" lon="-0.15565">
        <ele>90</ele>
        <time>2016-05-19T12:38:01.147Z</time>
      </trkpt>
      <trkpt lat="46.85992" lon="-0.15566">
        <ele>89.9</ele>
        <time>2016-05-19T12:38:02.143Z</time>
      </trkpt>
      <trkpt lat="46.85991" lon="-0.15567">
        <ele>89.9</ele>
        <time>2016-05-19T12:38:03.145Z</time>
      </trkpt>
      <trkpt lat="46.8599" lon="-0.15569">
        <ele>90.2</ele>
        <time>2016-05-19T12:38:05.138Z</time>
      </trkpt>
      <trkpt lat="46.8599" lon="-0.15571">
        <ele>90</ele>
        <time>2016-05-19T12:38:06.141Z</time>
      </trkpt>
      <trkpt lat="46.8599" lon="-0.15572">
        <ele>89.7</ele>
        <time>2016-05-19T12:38:07.147Z</time>
      </trkpt>
      <trkpt lat="46.85989" lon="-0.15576">
        <ele>88.4</ele>
        <time>2016-05-19T12:38:09.155Z</time>
      </trkpt>
      <trkpt lat="46.85988" lon="-0.15578">
        <ele>86.9</ele>
        <time>2016-05-19T12:38:11.155Z</time>
      </trkpt>
      <trkpt lat="46.85986" lon="-0.15579">
        <ele>86.4</ele>
        <time>2016-05-19T12:38:13.160Z</time>
      </trkpt>
      <trkpt lat="46.85984" lon="-0.15581">
        <ele>86.7</ele>
        <time>2016-05-19T12:38:15.158Z</time>
      </trkpt>
      <trkpt lat="46.85983" lon="-0.15584">
        <ele>87</ele>
        <time>2016-05-19T12:38:17.159Z</time>
      </trkpt>
      <trkpt lat="46.85981" lon="-0.15586">
        <ele>86.2</ele>
        <time>2016-05-19T12:38:19.163Z</time>
      </trkpt>
      <trkpt lat="46.8598" lon="-0.15588">
        <ele>85.3</ele>
        <time>2016-05-19T12:38:21.160Z</time>
      </trkpt>
      <trkpt lat="46.85978" lon="-0.1559">
        <ele>84.7</ele>
        <time>2016-05-19T12:38:23.159Z</time>
      </trkpt>
      <trkpt lat="46.85978" lon="-0.15592">
        <ele>84.3</ele>
        <time>2016-05-19T12:38:25.155Z</time>
      </trkpt>
      <trkpt lat="46.85977" lon="-0.15593">
        <ele>83.9</ele>
        <time>2016-05-19T12:38:27.156Z</time>
      </trkpt>
      <trkpt lat="46.85976" lon="-0.15594">
        <ele>83.7</ele>
        <time>2016-05-19T12:38:29.158Z</time>
      </trkpt>
      <trkpt lat="46.85975" lon="-0.15595">
        <ele>84.5</ele>
        <time>2016-05-19T12:38:31.160Z</time>
      </trkpt>
      <trkpt lat="46.85975" lon="-0.15595">
        <ele>84.5</ele>
        <time>2016-05-19T12:38:33.160Z</time>
      </trkpt>
      <trkpt lat="46.85974" lon="-0.15598">
        <ele>84.1</ele>
        <time>2016-05-19T12:38:34.158Z</time>
      </trkpt>
      <trkpt lat="46.85973" lon="-0.156">
        <ele>83.5</ele>
        <time>2016-05-19T12:38:36.157Z</time>
      </trkpt>
      <trkpt lat="46.85972" lon="-0.15602">
        <ele>83.3</ele>
        <time>2016-05-19T12:38:38.154Z</time>
      </trkpt>
      <trkpt lat="46.85972" lon="-0.15604">
        <ele>83.4</ele>
        <time>2016-05-19T12:38:40.169Z</time>
      </trkpt>
      <trkpt lat="46.85971" lon="-0.15606">
        <ele>83.7</ele>
        <time>2016-05-19T12:38:42.136Z</time>
      </trkpt>
      <trkpt lat="46.8597" lon="-0.15607">
        <ele>83.8</ele>
        <time>2016-05-19T12:38:43.160Z</time>
      </trkpt>
      <trkpt lat="46.85968" lon="-0.15609">
        <ele>83.7</ele>
        <time>2016-05-19T12:38:44.821Z</time>
      </trkpt>
      <trkpt lat="46.85967" lon="-0.1561">
        <ele>83.7</ele>
        <time>2016-05-19T12:38:46.823Z</time>
      </trkpt>
      <trkpt lat="46.85967" lon="-0.15611">
        <ele>83.4</ele>
        <time>2016-05-19T12:38:48.826Z</time>
      </trkpt>
      <trkpt lat="46.85965" lon="-0.15616">
        <ele>82.1</ele>
        <time>2016-05-19T12:38:50.824Z</time>
      </trkpt>
      <trkpt lat="46.85963" lon="-0.15618">
        <ele>82.1</ele>
        <time>2016-05-19T12:38:52.822Z</time>
      </trkpt>
      <trkpt lat="46.85962" lon="-0.1562">
        <ele>81.7</ele>
        <time>2016-05-19T12:38:54.824Z</time>
      </trkpt>
      <trkpt lat="46.85962" lon="-0.15621">
        <ele>81.2</ele>
        <time>2016-05-19T12:38:56.825Z</time>
      </trkpt>
      <trkpt lat="46.85961" lon="-0.15623">
        <ele>81.7</ele>
        <time>2016-05-19T12:38:58.826Z</time>
      </trkpt>
      <trkpt lat="46.8596" lon="-0.15624">
        <ele>81.5</ele>
        <time>2016-05-19T12:39:00.830Z</time>
      </trkpt>
      <trkpt lat="46.8596" lon="-0.15625">
        <ele>81.1</ele>
        <time>2016-05-19T12:39:02.821Z</time>
      </trkpt>
      <trkpt lat="46.85958" lon="-0.15626">
        <ele>80.6</ele>
        <time>2016-05-19T12:39:04.818Z</time>
      </trkpt>
      <trkpt lat="46.85958" lon="-0.15626">
        <ele>80.6</ele>
        <time>2016-05-19T12:39:06.823Z</time>
      </trkpt>
      <trkpt lat="46.85957" lon="-0.15629">
        <ele>80.6</ele>
        <time>2016-05-19T12:39:07.827Z</time>
      </trkpt>
      <trkpt lat="46.85956" lon="-0.1563">
        <ele>81.4</ele>
        <time>2016-05-19T12:39:09.813Z</time>
      </trkpt>
      <trkpt lat="46.85953" lon="-0.15632">
        <ele>81.9</ele>
        <time>2016-05-19T12:39:11.843Z</time>
      </trkpt>
      <trkpt lat="46.85952" lon="-0.15634">
        <ele>81.9</ele>
        <time>2016-05-19T12:39:13.829Z</time>
      </trkpt>
      <trkpt lat="46.85951" lon="-0.15636">
        <ele>82.9</ele>
        <time>2016-05-19T12:39:15.822Z</time>
      </trkpt>
      <trkpt lat="46.85949" lon="-0.15638">
        <ele>82.7</ele>
        <time>2016-05-19T12:39:17.828Z</time>
      </trkpt>
      <trkpt lat="46.85949" lon="-0.15639">
        <ele>82.5</ele>
        <time>2016-05-19T12:39:19.829Z</time>
      </trkpt>
      <trkpt lat="46.85948" lon="-0.1564">
        <ele>81.9</ele>
        <time>2016-05-19T12:39:21.825Z</time>
      </trkpt>
      <trkpt lat="46.85948" lon="-0.1564">
        <ele>81.9</ele>
        <time>2016-05-19T12:39:23.822Z</time>
      </trkpt>
      <trkpt lat="46.85946" lon="-0.15642">
        <ele>81.2</ele>
        <time>2016-05-19T12:39:24.827Z</time>
      </trkpt>
      <trkpt lat="46.85943" lon="-0.15644">
        <ele>80.8</ele>
        <time>2016-05-19T12:39:26.832Z</time>
      </trkpt>
      <trkpt lat="46.85942" lon="-0.15645">
        <ele>80.4</ele>
        <time>2016-05-19T12:39:28.830Z</time>
      </trkpt>
      <trkpt lat="46.8594" lon="-0.15648">
        <ele>79.8</ele>
        <time>2016-05-19T12:39:30.827Z</time>
      </trkpt>
      <trkpt lat="46.85937" lon="-0.15649">
        <ele>80.6</ele>
        <time>2016-05-19T12:39:32.825Z</time>
      </trkpt>
      <trkpt lat="46.85935" lon="-0.15651">
        <ele>80.1</ele>
        <time>2016-05-19T12:39:34.807Z</time>
      </trkpt>
      <trkpt lat="46.85934" lon="-0.15652">
        <ele>80.3</ele>
        <time>2016-05-19T12:39:35.812Z</time>
      </trkpt>
      <trkpt lat="46.85933" lon="-0.15654">
        <ele>80</ele>
        <time>2016-05-19T12:39:37.821Z</time>
      </trkpt>
      <trkpt lat="46.85931" lon="-0.15656">
        <ele>79.4</ele>
        <time>2016-05-19T12:39:39.831Z</time>
      </trkpt>
      <trkpt lat="46.85929" lon="-0.1566">
        <ele>78.6</ele>
        <time>2016-05-19T12:39:41.806Z</time>
      </trkpt>
      <trkpt lat="46.85928" lon="-0.15661">
        <ele>78.3</ele>
        <time>2016-05-19T12:39:42.810Z</time>
      </trkpt>
      <trkpt lat="46.85926" lon="-0.15662">
        <ele>78</ele>
        <time>2016-05-19T12:39:43.817Z</time>
      </trkpt>
      <trkpt lat="46.85925" lon="-0.15663">
        <ele>77.5</ele>
        <time>2016-05-19T12:39:44.815Z</time>
      </trkpt>
      <trkpt lat="46.85924" lon="-0.15665">
        <ele>76.6</ele>
        <time>2016-05-19T12:39:46.827Z</time>
      </trkpt>
      <trkpt lat="46.85922" lon="-0.15666">
        <ele>76.6</ele>
        <time>2016-05-19T12:39:48.833Z</time>
      </trkpt>
      <trkpt lat="46.8592" lon="-0.15668">
        <ele>76.2</ele>
        <time>2016-05-19T12:39:50.831Z</time>
      </trkpt>
      <trkpt lat="46.85918" lon="-0.15669">
        <ele>76.5</ele>
        <time>2016-05-19T12:39:52.833Z</time>
      </trkpt>
      <trkpt lat="46.85917" lon="-0.1567">
        <ele>76</ele>
        <time>2016-05-19T12:39:54.882Z</time>
      </trkpt>
      <trkpt lat="46.85915" lon="-0.15672">
        <ele>75.9</ele>
        <time>2016-05-19T12:39:56.823Z</time>
      </trkpt>
      <trkpt lat="46.85913" lon="-0.15674">
        <ele>75.6</ele>
        <time>2016-05-19T12:39:58.831Z</time>
      </trkpt>
      <trkpt lat="46.85911" lon="-0.15676">
        <ele>75.2</ele>
        <time>2016-05-19T12:40:00.825Z</time>
      </trkpt>
      <trkpt lat="46.8591" lon="-0.15678">
        <ele>74.8</ele>
        <time>2016-05-19T12:40:02.826Z</time>
      </trkpt>
      <trkpt lat="46.85908" lon="-0.15679">
        <ele>73.9</ele>
        <time>2016-05-19T12:40:04.822Z</time>
      </trkpt>
      <trkpt lat="46.85907" lon="-0.15681">
        <ele>72.9</ele>
        <time>2016-05-19T12:40:06.825Z</time>
      </trkpt>
      <trkpt lat="46.85905" lon="-0.15684">
        <ele>72</ele>
        <time>2016-05-19T12:40:08.825Z</time>
      </trkpt>
      <trkpt lat="46.85904" lon="-0.15686">
        <ele>71.5</ele>
        <time>2016-05-19T12:40:10.828Z</time>
      </trkpt>
      <trkpt lat="46.85901" lon="-0.15688">
        <ele>72.4</ele>
        <time>2016-05-19T12:40:12.825Z</time>
      </trkpt>
      <trkpt lat="46.85898" lon="-0.1569">
        <ele>73.2</ele>
        <time>2016-05-19T12:40:14.827Z</time>
      </trkpt>
      <trkpt lat="46.85896" lon="-0.15692">
        <ele>72.7</ele>
        <time>2016-05-19T12:40:16.824Z</time>
      </trkpt>
      <trkpt lat="46.85894" lon="-0.15692">
        <ele>72.5</ele>
        <time>2016-05-19T12:40:18.837Z</time>
      </trkpt>
      <trkpt lat="46.85891" lon="-0.15692">
        <ele>72.6</ele>
        <time>2016-05-19T12:40:20.829Z</time>
      </trkpt>
      <trkpt lat="46.85889" lon="-0.15693">
        <ele>73.1</ele>
        <time>2016-05-19T12:40:22.823Z</time>
      </trkpt>
      <trkpt lat="46.85887" lon="-0.15693">
        <ele>74</ele>
        <time>2016-05-19T12:40:24.833Z</time>
      </trkpt>
      <trkpt lat="46.85884" lon="-0.15694">
        <ele>74.2</ele>
        <time>2016-05-19T12:40:26.822Z</time>
      </trkpt>
      <trkpt lat="46.85882" lon="-0.15693">
        <ele>74.4</ele>
        <time>2016-05-19T12:40:28.815Z</time>
      </trkpt>
      <trkpt lat="46.8588" lon="-0.15692">
        <ele>74</ele>
        <time>2016-05-19T12:40:30.820Z</time>
      </trkpt>
      <trkpt lat="46.85879" lon="-0.15691">
        <ele>73.8</ele>
        <time>2016-05-19T12:40:31.856Z</time>
      </trkpt>
      <trkpt lat="46.85876" lon="-0.1569">
        <ele>73.1</ele>
        <time>2016-05-19T12:40:33.825Z</time>
      </trkpt>
      <trkpt lat="46.85873" lon="-0.1569">
        <ele>72.7</ele>
        <time>2016-05-19T12:40:35.807Z</time>
      </trkpt>
      <trkpt lat="46.85872" lon="-0.15689">
        <ele>72.6</ele>
        <time>2016-05-19T12:40:36.812Z</time>
      </trkpt>
      <trkpt lat="46.85869" lon="-0.15689">
        <ele>71.7</ele>
        <time>2016-05-19T12:40:38.828Z</time>
      </trkpt>
      <trkpt lat="46.85866" lon="-0.15689">
        <ele>69.8</ele>
        <time>2016-05-19T12:40:40.805Z</time>
      </trkpt>
      <trkpt lat="46.85865" lon="-0.15689">
        <ele>68.9</ele>
        <time>2016-05-19T12:40:41.808Z</time>
      </trkpt>
      <trkpt lat="46.85864" lon="-0.1569">
        <ele>68.3</ele>
        <time>2016-05-19T12:40:42.818Z</time>
      </trkpt>
      <trkpt lat="46.85862" lon="-0.1569">
        <ele>66.6</ele>
        <time>2016-05-19T12:40:44.821Z</time>
      </trkpt>
      <trkpt lat="46.8586" lon="-0.1569">
        <ele>65</ele>
        <time>2016-05-19T12:40:46.827Z</time>
      </trkpt>
      <trkpt lat="46.85858" lon="-0.1569">
        <ele>64.1</ele>
        <time>2016-05-19T12:40:48.827Z</time>
      </trkpt>
      <trkpt lat="46.85857" lon="-0.1569">
        <ele>63.2</ele>
        <time>2016-05-19T12:40:50.836Z</time>
      </trkpt>
      <trkpt lat="46.85854" lon="-0.15692">
        <ele>61.7</ele>
        <time>2016-05-19T12:40:52.823Z</time>
      </trkpt>
      <trkpt lat="46.85852" lon="-0.15692">
        <ele>61.1</ele>
        <time>2016-05-19T12:40:54.828Z</time>
      </trkpt>
      <trkpt lat="46.8585" lon="-0.15693">
        <ele>60.2</ele>
        <time>2016-05-19T12:40:56.829Z</time>
      </trkpt>
      <trkpt lat="46.85848" lon="-0.15693">
        <ele>60.4</ele>
        <time>2016-05-19T12:40:58.823Z</time>
      </trkpt>
      <trkpt lat="46.85846" lon="-0.15693">
        <ele>60.8</ele>
        <time>2016-05-19T12:41:00.826Z</time>
      </trkpt>
      <trkpt lat="46.85844" lon="-0.15692">
        <ele>61.1</ele>
        <time>2016-05-19T12:41:02.834Z</time>
      </trkpt>
      <trkpt lat="46.85842" lon="-0.15691">
        <ele>61.2</ele>
        <time>2016-05-19T12:41:04.821Z</time>
      </trkpt>
      <trkpt lat="46.85841" lon="-0.15692">
        <ele>60.7</ele>
        <time>2016-05-19T12:41:06.823Z</time>
      </trkpt>
      <trkpt lat="46.85841" lon="-0.15692">
        <ele>60.1</ele>
        <time>2016-05-19T12:41:07.825Z</time>
      </trkpt>
      <trkpt lat="46.8584" lon="-0.15692">
        <ele>60</ele>
        <time>2016-05-19T12:41:09.822Z</time>
      </trkpt>
      <trkpt lat="46.8584" lon="-0.15692">
        <ele>59.7</ele>
        <time>2016-05-19T12:41:11.826Z</time>
      </trkpt>
      <trkpt lat="46.85839" lon="-0.15691">
        <ele>59.8</ele>
        <time>2016-05-19T12:41:13.823Z</time>
      </trkpt>
      <trkpt lat="46.85838" lon="-0.15689">
        <ele>60.9</ele>
        <time>2016-05-19T12:41:15.809Z</time>
      </trkpt>
      <trkpt lat="46.85838" lon="-0.15688">
        <ele>61.1</ele>
        <time>2016-05-19T12:41:16.815Z</time>
      </trkpt>
      <trkpt lat="46.85837" lon="-0.15687">
        <ele>61.2</ele>
        <time>2016-05-19T12:41:17.814Z</time>
      </trkpt>
      <trkpt lat="46.85836" lon="-0.15687">
        <ele>61.5</ele>
        <time>2016-05-19T12:41:18.812Z</time>
      </trkpt>
      <trkpt lat="46.85835" lon="-0.15686">
        <ele>61.7</ele>
        <time>2016-05-19T12:41:20.822Z</time>
      </trkpt>
      <trkpt lat="46.85832" lon="-0.15685">
        <ele>61.2</ele>
        <time>2016-05-19T12:41:22.822Z</time>
      </trkpt>
      <trkpt lat="46.8583" lon="-0.15685">
        <ele>60.8</ele>
        <time>2016-05-19T12:41:24.823Z</time>
      </trkpt>
      <trkpt lat="46.85828" lon="-0.15685">
        <ele>59.9</ele>
        <time>2016-05-19T12:41:26.864Z</time>
      </trkpt>
      <trkpt lat="46.85827" lon="-0.15684">
        <ele>60.6</ele>
        <time>2016-05-19T12:41:28.823Z</time>
      </trkpt>
      <trkpt lat="46.85826" lon="-0.15684">
        <ele>60.7</ele>
        <time>2016-05-19T12:41:30.824Z</time>
      </trkpt>
      <trkpt lat="46.85826" lon="-0.15684">
        <ele>60.7</ele>
        <time>2016-05-19T12:41:32.823Z</time>
      </trkpt>
      <trkpt lat="46.85826" lon="-0.15684">
        <ele>60.7</ele>
        <time>2016-05-19T12:41:34.823Z</time>
      </trkpt>
      <trkpt lat="46.85826" lon="-0.15684">
        <ele>60.7</ele>
        <time>2016-05-19T12:41:35.828Z</time>
      </trkpt>
      <trkpt lat="46.85826" lon="-0.15684">
        <ele>60.7</ele>
        <time>2016-05-19T12:41:37.807Z</time>
      </trkpt>
      <trkpt lat="46.85826" lon="-0.15684">
        <ele>60.7</ele>
        <time>2016-05-19T12:41:38.808Z</time>
      </trkpt>
      <trkpt lat="46.85826" lon="-0.15684">
        <ele>60.7</ele>
        <time>2016-05-19T12:41:39.828Z</time>
      </trkpt>
      <trkpt lat="46.85826" lon="-0.15684">
        <ele>60.7</ele>
        <time>2016-05-19T12:41:41.834Z</time>
      </trkpt>
      <trkpt lat="46.85826" lon="-0.15684">
        <ele>60.7</ele>
        <time>2016-05-19T12:41:42.841Z</time>
      </trkpt>
      <trkpt lat="46.85826" lon="-0.15684">
        <ele>60.7</ele>
        <time>2016-05-19T12:41:44.823Z</time>
      </trkpt>
      <trkpt lat="46.85826" lon="-0.15684">
        <ele>60.7</ele>
        <time>2016-05-19T12:41:45.821Z</time>
      </trkpt>
      <trkpt lat="46.85826" lon="-0.15684">
        <ele>60.7</ele>
        <time>2016-05-19T12:41:47.824Z</time>
      </trkpt>
      <trkpt lat="46.85826" lon="-0.15684">
        <ele>60.7</ele>
        <time>2016-05-19T12:41:48.827Z</time>
      </trkpt>
      <trkpt lat="46.85826" lon="-0.15684">
        <ele>60.7</ele>
        <time>2016-05-19T12:41:49.832Z</time>
      </trkpt>
      <trkpt lat="46.85826" lon="-0.15684">
        <ele>60.7</ele>
        <time>2016-05-19T12:41:51.827Z</time>
      </trkpt>
      <trkpt lat="46.85826" lon="-0.15684">
        <ele>60.7</ele>
        <time>2016-05-19T12:41:53.824Z</time>
      </trkpt>
      <trkpt lat="46.85826" lon="-0.15684">
        <ele>60.7</ele>
        <time>2016-05-19T12:41:54.828Z</time>
      </trkpt>
      <trkpt lat="46.85825" lon="-0.15682">
        <ele>62.5</ele>
        <time>2016-05-19T12:41:55.831Z</time>
      </trkpt>
      <trkpt lat="46.85826" lon="-0.15682">
        <ele>62.3</ele>
        <time>2016-05-19T12:41:57.829Z</time>
      </trkpt>
      <trkpt lat="46.85826" lon="-0.15681">
        <ele>61.8</ele>
        <time>2016-05-19T12:41:59.820Z</time>
      </trkpt>
      <trkpt lat="46.85826" lon="-0.15681">
        <ele>61.3</ele>
        <time>2016-05-19T12:42:01.828Z</time>
      </trkpt>
      <trkpt lat="46.85826" lon="-0.15681">
        <ele>61.3</ele>
        <time>2016-05-19T12:42:03.821Z</time>
      </trkpt>
      <trkpt lat="46.85826" lon="-0.15681">
        <ele>61.3</ele>
        <time>2016-05-19T12:42:04.822Z</time>
      </trkpt>
      <trkpt lat="46.85826" lon="-0.15681">
        <ele>61.3</ele>
        <time>2016-05-19T12:42:06.825Z</time>
      </trkpt>
      <trkpt lat="46.85826" lon="-0.15681">
        <ele>61.3</ele>
        <time>2016-05-19T12:42:07.833Z</time>
      </trkpt>
      <trkpt lat="46.85826" lon="-0.15681">
        <ele>61.3</ele>
        <time>2016-05-19T12:42:09.842Z</time>
      </trkpt>
      <trkpt lat="46.85826" lon="-0.15681">
        <ele>61.3</ele>
        <time>2016-05-19T12:42:11.829Z</time>
      </trkpt>
      <trkpt lat="46.85826" lon="-0.15681">
        <ele>61.3</ele>
        <time>2016-05-19T12:42:12.837Z</time>
      </trkpt>
      <trkpt lat="46.85826" lon="-0.15681">
        <ele>61.3</ele>
        <time>2016-05-19T12:42:14.841Z</time>
      </trkpt>
      <trkpt lat="46.85826" lon="-0.15681">
        <ele>61.3</ele>
        <time>2016-05-19T12:42:16.827Z</time>
      </trkpt>
      <trkpt lat="46.85826" lon="-0.15681">
        <ele>61.3</ele>
        <time>2016-05-19T12:42:17.832Z</time>
      </trkpt>
      <trkpt lat="46.85826" lon="-0.15681">
        <ele>61.3</ele>
        <time>2016-05-19T12:42:19.831Z</time>
      </trkpt>
      <trkpt lat="46.85826" lon="-0.15681">
        <ele>61.3</ele>
        <time>2016-05-19T12:42:20.834Z</time>
      </trkpt>
      <trkpt lat="46.85826" lon="-0.15681">
        <ele>61.3</ele>
        <time>2016-05-19T12:42:22.829Z</time>
      </trkpt>
      <trkpt lat="46.85826" lon="-0.15681">
        <ele>61.3</ele>
        <time>2016-05-19T12:42:23.910Z</time>
      </trkpt>
      <trkpt lat="46.85826" lon="-0.15681">
        <ele>61.3</ele>
        <time>2016-05-19T12:42:24.846Z</time>
      </trkpt>
      <trkpt lat="46.85826" lon="-0.15681">
        <ele>61.3</ele>
        <time>2016-05-19T12:42:26.823Z</time>
      </trkpt>
      <trkpt lat="46.85826" lon="-0.15681">
        <ele>61.3</ele>
        <time>2016-05-19T12:42:27.833Z</time>
      </trkpt>
      <trkpt lat="46.85826" lon="-0.15681">
        <ele>61.3</ele>
        <time>2016-05-19T12:42:29.810Z</time>
      </trkpt>
      <trkpt lat="46.85826" lon="-0.15681">
        <ele>61.3</ele>
        <time>2016-05-19T12:42:30.807Z</time>
      </trkpt>
      <trkpt lat="46.85826" lon="-0.15681">
        <ele>61.3</ele>
        <time>2016-05-19T12:42:31.823Z</time>
      </trkpt>
      <trkpt lat="46.85826" lon="-0.15681">
        <ele>61.3</ele>
        <time>2016-05-19T12:42:33.817Z</time>
      </trkpt>
      <trkpt lat="46.85826" lon="-0.15681">
        <ele>61.3</ele>
        <time>2016-05-19T12:42:34.828Z</time>
      </trkpt>
      <trkpt lat="46.85826" lon="-0.15681">
        <ele>61.3</ele>
        <time>2016-05-19T12:42:36.824Z</time>
      </trkpt>
      <trkpt lat="46.85826" lon="-0.15681">
        <ele>61.3</ele>
        <time>2016-05-19T12:42:37.832Z</time>
      </trkpt>
      <trkpt lat="46.85826" lon="-0.15681">
        <ele>61.3</ele>
        <time>2016-05-19T12:42:39.824Z</time>
      </trkpt>
      <trkpt lat="46.85826" lon="-0.15681">
        <ele>61.3</ele>
        <time>2016-05-19T12:42:40.822Z</time>
      </trkpt>
      <trkpt lat="46.85826" lon="-0.15681">
        <ele>61.3</ele>
        <time>2016-05-19T12:42:41.822Z</time>
      </trkpt>
      <trkpt lat="46.85826" lon="-0.15681">
        <ele>61.3</ele>
        <time>2016-05-19T12:42:42.823Z</time>
      </trkpt>
      <trkpt lat="46.85826" lon="-0.15681">
        <ele>61.3</ele>
        <time>2016-05-19T12:42:44.806Z</time>
      </trkpt>
      <trkpt lat="46.85826" lon="-0.15681">
        <ele>61.3</ele>
        <time>2016-05-19T12:42:45.823Z</time>
      </trkpt>
      <trkpt lat="46.85826" lon="-0.15681">
        <ele>61.3</ele>
        <time>2016-05-19T12:42:46.832Z</time>
      </trkpt>
      <trkpt lat="46.85822" lon="-0.15681">
        <ele>61.5</ele>
        <time>2016-05-19T12:42:48.821Z</time>
      </trkpt>
      <trkpt lat="46.85821" lon="-0.15682">
        <ele>61.6</ele>
        <time>2016-05-19T12:42:50.823Z</time>
      </trkpt>
      <trkpt lat="46.85819" lon="-0.15683">
        <ele>61.7</ele>
        <time>2016-05-19T12:42:52.807Z</time>
      </trkpt>
      <trkpt lat="46.85819" lon="-0.15684">
        <ele>61.5</ele>
        <time>2016-05-19T12:42:53.816Z</time>
      </trkpt>
      <trkpt lat="46.85817" lon="-0.15683">
        <ele>62</ele>
        <time>2016-05-19T12:42:55.827Z</time>
      </trkpt>
      <trkpt lat="46.85815" lon="-0.15683">
        <ele>62.3</ele>
        <time>2016-05-19T12:42:57.816Z</time>
      </trkpt>
      <trkpt lat="46.85814" lon="-0.15683">
        <ele>63.4</ele>
        <time>2016-05-19T12:42:59.823Z</time>
      </trkpt>
      <trkpt lat="46.85812" lon="-0.15683">
        <ele>64.7</ele>
        <time>2016-05-19T12:43:01.820Z</time>
      </trkpt>
      <trkpt lat="46.85811" lon="-0.15683">
        <ele>65.6</ele>
        <time>2016-05-19T12:43:03.822Z</time>
      </trkpt>
      <trkpt lat="46.85809" lon="-0.15683">
        <ele>66.3</ele>
        <time>2016-05-19T12:43:05.826Z</time>
      </trkpt>
      <trkpt lat="46.85807" lon="-0.15683">
        <ele>67.5</ele>
        <time>2016-05-19T12:43:07.823Z</time>
      </trkpt>
      <trkpt lat="46.85804" lon="-0.15685">
        <ele>66.8</ele>
        <time>2016-05-19T12:43:09.823Z</time>
      </trkpt>
      <trkpt lat="46.85802" lon="-0.15685">
        <ele>67.2</ele>
        <time>2016-05-19T12:43:11.831Z</time>
      </trkpt>
      <trkpt lat="46.85799" lon="-0.15685">
        <ele>67.1</ele>
        <time>2016-05-19T12:43:13.816Z</time>
      </trkpt>
      <trkpt lat="46.85797" lon="-0.15686">
        <ele>67.9</ele>
        <time>2016-05-19T12:43:15.825Z</time>
      </trkpt>
      <trkpt lat="46.85794" lon="-0.15686">
        <ele>68.1</ele>
        <time>2016-05-19T12:43:17.823Z</time>
      </trkpt>
      <trkpt lat="46.85792" lon="-0.15687">
        <ele>67.8</ele>
        <time>2016-05-19T12:43:19.831Z</time>
      </trkpt>
      <trkpt lat="46.8579" lon="-0.15688">
        <ele>67.5</ele>
        <time>2016-05-19T12:43:21.827Z</time>
      </trkpt>
      <trkpt lat="46.85787" lon="-0.15689">
        <ele>67.7</ele>
        <time>2016-05-19T12:43:23.844Z</time>
      </trkpt>
      <trkpt lat="46.85786" lon="-0.1569">
        <ele>67.1</ele>
        <time>2016-05-19T12:43:25.823Z</time>
      </trkpt>
      <trkpt lat="46.85784" lon="-0.15692">
        <ele>68.1</ele>
        <time>2016-05-19T12:43:27.832Z</time>
      </trkpt>
      <trkpt lat="46.85783" lon="-0.15693">
        <ele>68.9</ele>
        <time>2016-05-19T12:43:29.832Z</time>
      </trkpt>
      <trkpt lat="46.85783" lon="-0.15693">
        <ele>70.5</ele>
        <time>2016-05-19T12:43:31.832Z</time>
      </trkpt>
      <trkpt lat="46.85782" lon="-0.15694">
        <ele>71.8</ele>
        <time>2016-05-19T12:43:33.810Z</time>
      </trkpt>
      <trkpt lat="46.85782" lon="-0.15694">
        <ele>72.3</ele>
        <time>2016-05-19T12:43:34.812Z</time>
      </trkpt>
      <trkpt lat="46.85782" lon="-0.15694">
        <ele>72.5</ele>
        <time>2016-05-19T12:43:35.812Z</time>
      </trkpt>
      <trkpt lat="46.85782" lon="-0.15695">
        <ele>72.7</ele>
        <time>2016-05-19T12:43:36.813Z</time>
      </trkpt>
      <trkpt lat="46.85782" lon="-0.15696">
        <ele>73.2</ele>
        <time>2016-05-19T12:43:38.826Z</time>
      </trkpt>
      <trkpt lat="46.85781" lon="-0.15696">
        <ele>73.3</ele>
        <time>2016-05-19T12:43:40.822Z</time>
      </trkpt>
      <trkpt lat="46.8578" lon="-0.15698">
        <ele>74.5</ele>
        <time>2016-05-19T12:43:42.822Z</time>
      </trkpt>
      <trkpt lat="46.85779" lon="-0.157">
        <ele>75.3</ele>
        <time>2016-05-19T12:43:44.824Z</time>
      </trkpt>
      <trkpt lat="46.85778" lon="-0.15702">
        <ele>76.6</ele>
        <time>2016-05-19T12:43:46.824Z</time>
      </trkpt>
      <trkpt lat="46.85777" lon="-0.15703">
        <ele>76.8</ele>
        <time>2016-05-19T12:43:48.872Z</time>
      </trkpt>
      <trkpt lat="46.85777" lon="-0.15704">
        <ele>77</ele>
        <time>2016-05-19T12:43:50.823Z</time>
      </trkpt>
      <trkpt lat="46.85775" lon="-0.15707">
        <ele>77.3</ele>
        <time>2016-05-19T12:43:52.825Z</time>
      </trkpt>
      <trkpt lat="46.85775" lon="-0.15709">
        <ele>77.3</ele>
        <time>2016-05-19T12:43:54.827Z</time>
      </trkpt>
      <trkpt lat="46.85774" lon="-0.15711">
        <ele>77.5</ele>
        <time>2016-05-19T12:43:56.825Z</time>
      </trkpt>
      <trkpt lat="46.85774" lon="-0.15714">
        <ele>77.7</ele>
        <time>2016-05-19T12:43:58.816Z</time>
      </trkpt>
      <trkpt lat="46.85773" lon="-0.15716">
        <ele>77.6</ele>
        <time>2016-05-19T12:44:00.833Z</time>
      </trkpt>
      <trkpt lat="46.85773" lon="-0.15718">
        <ele>77.8</ele>
        <time>2016-05-19T12:44:02.825Z</time>
      </trkpt>
      <trkpt lat="46.85773" lon="-0.1572">
        <ele>77.5</ele>
        <time>2016-05-19T12:44:04.834Z</time>
      </trkpt>
      <trkpt lat="46.85773" lon="-0.15722">
        <ele>77.3</ele>
        <time>2016-05-19T12:44:06.824Z</time>
      </trkpt>
      <trkpt lat="46.85772" lon="-0.15724">
        <ele>77.3</ele>
        <time>2016-05-19T12:44:08.833Z</time>
      </trkpt>
      <trkpt lat="46.85771" lon="-0.15726">
        <ele>77.2</ele>
        <time>2016-05-19T12:44:10.821Z</time>
      </trkpt>
      <trkpt lat="46.8577" lon="-0.15729">
        <ele>77.3</ele>
        <time>2016-05-19T12:44:12.829Z</time>
      </trkpt>
      <trkpt lat="46.8577" lon="-0.15731">
        <ele>77.6</ele>
        <time>2016-05-19T12:44:14.822Z</time>
      </trkpt>
      <trkpt lat="46.85769" lon="-0.15734">
        <ele>77.6</ele>
        <time>2016-05-19T12:44:16.828Z</time>
      </trkpt>
      <trkpt lat="46.85768" lon="-0.15737">
        <ele>77.8</ele>
        <time>2016-05-19T12:44:18.824Z</time>
      </trkpt>
      <trkpt lat="46.85767" lon="-0.15739">
        <ele>78</ele>
        <time>2016-05-19T12:44:20.871Z</time>
      </trkpt>
      <trkpt lat="46.85767" lon="-0.15743">
        <ele>78.1</ele>
        <time>2016-05-19T12:44:22.824Z</time>
      </trkpt>
      <trkpt lat="46.85766" lon="-0.15746">
        <ele>77.6</ele>
        <time>2016-05-19T12:44:24.821Z</time>
      </trkpt>
      <trkpt lat="46.85766" lon="-0.15749">
        <ele>77.5</ele>
        <time>2016-05-19T12:44:26.823Z</time>
      </trkpt>
      <trkpt lat="46.85765" lon="-0.15751">
        <ele>77.5</ele>
        <time>2016-05-19T12:44:28.824Z</time>
      </trkpt>
      <trkpt lat="46.85764" lon="-0.15754">
        <ele>77.9</ele>
        <time>2016-05-19T12:44:30.824Z</time>
      </trkpt>
      <trkpt lat="46.85763" lon="-0.15757">
        <ele>78.1</ele>
        <time>2016-05-19T12:44:32.823Z</time>
      </trkpt>
      <trkpt lat="46.85762" lon="-0.15759">
        <ele>78.8</ele>
        <time>2016-05-19T12:44:34.824Z</time>
      </trkpt>
      <trkpt lat="46.85761" lon="-0.15762">
        <ele>78</ele>
        <time>2016-05-19T12:44:36.827Z</time>
      </trkpt>
      <trkpt lat="46.8576" lon="-0.15765">
        <ele>78.2</ele>
        <time>2016-05-19T12:44:38.833Z</time>
      </trkpt>
      <trkpt lat="46.85759" lon="-0.15767">
        <ele>78.8</ele>
        <time>2016-05-19T12:44:40.826Z</time>
      </trkpt>
      <trkpt lat="46.85757" lon="-0.1577">
        <ele>79.1</ele>
        <time>2016-05-19T12:44:42.827Z</time>
      </trkpt>
      <trkpt lat="46.85757" lon="-0.15774">
        <ele>77.9</ele>
        <time>2016-05-19T12:44:44.823Z</time>
      </trkpt>
      <trkpt lat="46.85756" lon="-0.15778">
        <ele>77.9</ele>
        <time>2016-05-19T12:44:46.831Z</time>
      </trkpt>
      <trkpt lat="46.85754" lon="-0.15781">
        <ele>77.8</ele>
        <time>2016-05-19T12:44:48.831Z</time>
      </trkpt>
      <trkpt lat="46.85754" lon="-0.15785">
        <ele>77.3</ele>
        <time>2016-05-19T12:44:50.809Z</time>
      </trkpt>
      <trkpt lat="46.85754" lon="-0.15786">
        <ele>77</ele>
        <time>2016-05-19T12:44:51.813Z</time>
      </trkpt>
      <trkpt lat="46.85753" lon="-0.15789">
        <ele>76.8</ele>
        <time>2016-05-19T12:44:53.821Z</time>
      </trkpt>
      <trkpt lat="46.85753" lon="-0.15792">
        <ele>76.1</ele>
        <time>2016-05-19T12:44:55.824Z</time>
      </trkpt>
      <trkpt lat="46.85752" lon="-0.15795">
        <ele>75.7</ele>
        <time>2016-05-19T12:44:57.824Z</time>
      </trkpt>
      <trkpt lat="46.85751" lon="-0.15798">
        <ele>75.8</ele>
        <time>2016-05-19T12:44:59.822Z</time>
      </trkpt>
      <trkpt lat="46.8575" lon="-0.15801">
        <ele>75.5</ele>
        <time>2016-05-19T12:45:01.831Z</time>
      </trkpt>
      <trkpt lat="46.85749" lon="-0.15804">
        <ele>75.8</ele>
        <time>2016-05-19T12:45:03.829Z</time>
      </trkpt>
      <trkpt lat="46.85748" lon="-0.15807">
        <ele>76</ele>
        <time>2016-05-19T12:45:05.821Z</time>
      </trkpt>
      <trkpt lat="46.85748" lon="-0.15811">
        <ele>75.6</ele>
        <time>2016-05-19T12:45:07.824Z</time>
      </trkpt>
      <trkpt lat="46.85746" lon="-0.15814">
        <ele>75.6</ele>
        <time>2016-05-19T12:45:09.835Z</time>
      </trkpt>
      <trkpt lat="46.85745" lon="-0.15818">
        <ele>76.4</ele>
        <time>2016-05-19T12:45:11.831Z</time>
      </trkpt>
      <trkpt lat="46.85743" lon="-0.15821">
        <ele>77.2</ele>
        <time>2016-05-19T12:45:13.822Z</time>
      </trkpt>
      <trkpt lat="46.85742" lon="-0.15824">
        <ele>77.5</ele>
        <time>2016-05-19T12:45:15.831Z</time>
      </trkpt>
      <trkpt lat="46.85741" lon="-0.15827">
        <ele>77.5</ele>
        <time>2016-05-19T12:45:17.834Z</time>
      </trkpt>
      <trkpt lat="46.8574" lon="-0.1583">
        <ele>77.9</ele>
        <time>2016-05-19T12:45:19.821Z</time>
      </trkpt>
      <trkpt lat="46.8574" lon="-0.15833">
        <ele>78</ele>
        <time>2016-05-19T12:45:21.829Z</time>
      </trkpt>
      <trkpt lat="46.85739" lon="-0.15835">
        <ele>77.9</ele>
        <time>2016-05-19T12:45:23.833Z</time>
      </trkpt>
      <trkpt lat="46.85738" lon="-0.15839">
        <ele>77.9</ele>
        <time>2016-05-19T12:45:25.823Z</time>
      </trkpt>
      <trkpt lat="46.85737" lon="-0.15843">
        <ele>77.2</ele>
        <time>2016-05-19T12:45:27.831Z</time>
      </trkpt>
      <trkpt lat="46.85736" lon="-0.15846">
        <ele>76.8</ele>
        <time>2016-05-19T12:45:29.826Z</time>
      </trkpt>
      <trkpt lat="46.85735" lon="-0.1585">
        <ele>76.4</ele>
        <time>2016-05-19T12:45:31.828Z</time>
      </trkpt>
      <trkpt lat="46.85734" lon="-0.15853">
        <ele>76.3</ele>
        <time>2016-05-19T12:45:33.821Z</time>
      </trkpt>
      <trkpt lat="46.85734" lon="-0.15855">
        <ele>76.2</ele>
        <time>2016-05-19T12:45:34.829Z</time>
      </trkpt>
      <trkpt lat="46.85732" lon="-0.15858">
        <ele>76.2</ele>
        <time>2016-05-19T12:45:36.837Z</time>
      </trkpt>
      <trkpt lat="46.85731" lon="-0.15862">
        <ele>76</ele>
        <time>2016-05-19T12:45:38.821Z</time>
      </trkpt>
      <trkpt lat="46.8573" lon="-0.15865">
        <ele>75.6</ele>
        <time>2016-05-19T12:45:40.824Z</time>
      </trkpt>
      <trkpt lat="46.85729" lon="-0.15868">
        <ele>75.7</ele>
        <time>2016-05-19T12:45:42.828Z</time>
      </trkpt>
      <trkpt lat="46.85729" lon="-0.15872">
        <ele>75.6</ele>
        <time>2016-05-19T12:45:44.829Z</time>
      </trkpt>
      <trkpt lat="46.85727" lon="-0.15875">
        <ele>75.6</ele>
        <time>2016-05-19T12:45:46.827Z</time>
      </trkpt>
      <trkpt lat="46.85727" lon="-0.15878">
        <ele>75.6</ele>
        <time>2016-05-19T12:45:48.835Z</time>
      </trkpt>
      <trkpt lat="46.85725" lon="-0.15881">
        <ele>76.3</ele>
        <time>2016-05-19T12:45:50.819Z</time>
      </trkpt>
      <trkpt lat="46.85723" lon="-0.15884">
        <ele>76.2</ele>
        <time>2016-05-19T12:45:52.824Z</time>
      </trkpt>
      <trkpt lat="46.85721" lon="-0.15888">
        <ele>76.2</ele>
        <time>2016-05-19T12:45:54.833Z</time>
      </trkpt>
      <trkpt lat="46.8572" lon="-0.15891">
        <ele>76.1</ele>
        <time>2016-05-19T12:45:56.824Z</time>
      </trkpt>
      <trkpt lat="46.8572" lon="-0.15894">
        <ele>76.3</ele>
        <time>2016-05-19T12:45:58.806Z</time>
      </trkpt>
      <trkpt lat="46.8572" lon="-0.15895">
        <ele>76.3</ele>
        <time>2016-05-19T12:45:59.808Z</time>
      </trkpt>
      <trkpt lat="46.85719" lon="-0.15897">
        <ele>76.3</ele>
        <time>2016-05-19T12:46:00.813Z</time>
      </trkpt>
      <trkpt lat="46.85719" lon="-0.15898">
        <ele>76.3</ele>
        <time>2016-05-19T12:46:01.811Z</time>
      </trkpt>
      <trkpt lat="46.85717" lon="-0.159">
        <ele>76.7</ele>
        <time>2016-05-19T12:46:03.824Z</time>
      </trkpt>
      <trkpt lat="46.85716" lon="-0.15903">
        <ele>77.7</ele>
        <time>2016-05-19T12:46:05.823Z</time>
      </trkpt>
      <trkpt lat="46.85714" lon="-0.15905">
        <ele>78.9</ele>
        <time>2016-05-19T12:46:07.818Z</time>
      </trkpt>
      <trkpt lat="46.85713" lon="-0.15908">
        <ele>80.2</ele>
        <time>2016-05-19T12:46:09.823Z</time>
      </trkpt>
      <trkpt lat="46.85713" lon="-0.1591">
        <ele>81</ele>
        <time>2016-05-19T12:46:11.825Z</time>
      </trkpt>
      <trkpt lat="46.85713" lon="-0.15913">
        <ele>82.1</ele>
        <time>2016-05-19T12:46:13.824Z</time>
      </trkpt>
      <trkpt lat="46.85713" lon="-0.15916">
        <ele>82.1</ele>
        <time>2016-05-19T12:46:15.826Z</time>
      </trkpt>
      <trkpt lat="46.85713" lon="-0.15919">
        <ele>81.7</ele>
        <time>2016-05-19T12:46:17.823Z</time>
      </trkpt>
      <trkpt lat="46.85713" lon="-0.15923">
        <ele>81.7</ele>
        <time>2016-05-19T12:46:19.829Z</time>
      </trkpt>
      <trkpt lat="46.85713" lon="-0.15926">
        <ele>81.4</ele>
        <time>2016-05-19T12:46:21.831Z</time>
      </trkpt>
      <trkpt lat="46.85712" lon="-0.15928">
        <ele>81.4</ele>
        <time>2016-05-19T12:46:23.822Z</time>
      </trkpt>
      <trkpt lat="46.85712" lon="-0.15931">
        <ele>80.9</ele>
        <time>2016-05-19T12:46:25.822Z</time>
      </trkpt>
      <trkpt lat="46.85711" lon="-0.15935">
        <ele>81.7</ele>
        <time>2016-05-19T12:46:27.822Z</time>
      </trkpt>
      <trkpt lat="46.85711" lon="-0.15938">
        <ele>82.2</ele>
        <time>2016-05-19T12:46:29.822Z</time>
      </trkpt>
      <trkpt lat="46.85711" lon="-0.15941">
        <ele>83</ele>
        <time>2016-05-19T12:46:31.827Z</time>
      </trkpt>
      <trkpt lat="46.85712" lon="-0.15945">
        <ele>82.9</ele>
        <time>2016-05-19T12:46:33.831Z</time>
      </trkpt>
      <trkpt lat="46.85712" lon="-0.15948">
        <ele>83</ele>
        <time>2016-05-19T12:46:35.826Z</time>
      </trkpt>
      <trkpt lat="46.85711" lon="-0.1595">
        <ele>83.5</ele>
        <time>2016-05-19T12:46:37.809Z</time>
      </trkpt>
      <trkpt lat="46.85711" lon="-0.15951">
        <ele>83.8</ele>
        <time>2016-05-19T12:46:38.813Z</time>
      </trkpt>
      <trkpt lat="46.85711" lon="-0.15953">
        <ele>84.1</ele>
        <time>2016-05-19T12:46:39.818Z</time>
      </trkpt>
      <trkpt lat="46.8571" lon="-0.15955">
        <ele>84.3</ele>
        <time>2016-05-19T12:46:41.827Z</time>
      </trkpt>
      <trkpt lat="46.85709" lon="-0.15958">
        <ele>85.3</ele>
        <time>2016-05-19T12:46:43.808Z</time>
      </trkpt>
      <trkpt lat="46.85708" lon="-0.15959">
        <ele>85.7</ele>
        <time>2016-05-19T12:46:44.808Z</time>
      </trkpt>
      <trkpt lat="46.85708" lon="-0.1596">
        <ele>86.3</ele>
        <time>2016-05-19T12:46:45.812Z</time>
      </trkpt>
      <trkpt lat="46.85707" lon="-0.15961">
        <ele>86.5</ele>
        <time>2016-05-19T12:46:46.816Z</time>
      </trkpt>
      <trkpt lat="46.85706" lon="-0.15962">
        <ele>86.6</ele>
        <time>2016-05-19T12:46:47.809Z</time>
      </trkpt>
      <trkpt lat="46.85706" lon="-0.15963">
        <ele>86.8</ele>
        <time>2016-05-19T12:46:48.810Z</time>
      </trkpt>
      <trkpt lat="46.85705" lon="-0.15965">
        <ele>87.4</ele>
        <time>2016-05-19T12:46:49.811Z</time>
      </trkpt>
      <trkpt lat="46.85705" lon="-0.15966">
        <ele>88.1</ele>
        <time>2016-05-19T12:46:50.823Z</time>
      </trkpt>
      <trkpt lat="46.85705" lon="-0.15966">
        <ele>87.8</ele>
        <time>2016-05-19T12:46:51.819Z</time>
      </trkpt>
      <trkpt lat="46.85704" lon="-0.15969">
        <ele>88.3</ele>
        <time>2016-05-19T12:46:53.827Z</time>
      </trkpt>
      <trkpt lat="46.85703" lon="-0.1597">
        <ele>88.4</ele>
        <time>2016-05-19T12:46:55.832Z</time>
      </trkpt>
      <trkpt lat="46.85703" lon="-0.1597">
        <ele>88.6</ele>
        <time>2016-05-19T12:46:57.833Z</time>
      </trkpt>
      <trkpt lat="46.85703" lon="-0.1597">
        <ele>88.6</ele>
        <time>2016-05-19T12:46:59.821Z</time>
      </trkpt>
      <trkpt lat="46.85703" lon="-0.1597">
        <ele>88.6</ele>
        <time>2016-05-19T12:47:00.824Z</time>
      </trkpt>
      <trkpt lat="46.857" lon="-0.15972">
        <ele>88.2</ele>
        <time>2016-05-19T12:47:01.828Z</time>
      </trkpt>
      <trkpt lat="46.857" lon="-0.15972">
        <ele>88.3</ele>
        <time>2016-05-19T12:47:03.822Z</time>
      </trkpt>
      <trkpt lat="46.85698" lon="-0.15972">
        <ele>88.2</ele>
        <time>2016-05-19T12:47:05.831Z</time>
      </trkpt>
      <trkpt lat="46.85698" lon="-0.15972">
        <ele>88.2</ele>
        <time>2016-05-19T12:47:07.836Z</time>
      </trkpt>
      <trkpt lat="46.85698" lon="-0.15972">
        <ele>88.2</ele>
        <time>2016-05-19T12:47:09.829Z</time>
      </trkpt>
      <trkpt lat="46.85698" lon="-0.15972">
        <ele>88.2</ele>
        <time>2016-05-19T12:47:11.828Z</time>
      </trkpt>
      <trkpt lat="46.85698" lon="-0.15972">
        <ele>88.2</ele>
        <time>2016-05-19T12:47:12.827Z</time>
      </trkpt>
      <trkpt lat="46.85698" lon="-0.15972">
        <ele>88.2</ele>
        <time>2016-05-19T12:47:14.830Z</time>
      </trkpt>
      <trkpt lat="46.85698" lon="-0.15972">
        <ele>88.2</ele>
        <time>2016-05-19T12:47:15.837Z</time>
      </trkpt>
      <trkpt lat="46.85698" lon="-0.15972">
        <ele>88.2</ele>
        <time>2016-05-19T12:47:17.827Z</time>
      </trkpt>
      <trkpt lat="46.85698" lon="-0.15972">
        <ele>88.2</ele>
        <time>2016-05-19T12:47:18.824Z</time>
      </trkpt>
      <trkpt lat="46.85694" lon="-0.15978">
        <ele>86.9</ele>
        <time>2016-05-19T12:47:20.832Z</time>
      </trkpt>
      <trkpt lat="46.85693" lon="-0.1598">
        <ele>86.2</ele>
        <time>2016-05-19T12:47:22.831Z</time>
      </trkpt>
      <trkpt lat="46.85691" lon="-0.15981">
        <ele>85.9</ele>
        <time>2016-05-19T12:47:24.825Z</time>
      </trkpt>
      <trkpt lat="46.8569" lon="-0.15982">
        <ele>86</ele>
        <time>2016-05-19T12:47:26.824Z</time>
      </trkpt>
      <trkpt lat="46.85689" lon="-0.15983">
        <ele>85.9</ele>
        <time>2016-05-19T12:47:28.824Z</time>
      </trkpt>
      <trkpt lat="46.85688" lon="-0.15985">
        <ele>85.4</ele>
        <time>2016-05-19T12:47:30.832Z</time>
      </trkpt>
      <trkpt lat="46.85687" lon="-0.15987">
        <ele>85.5</ele>
        <time>2016-05-19T12:47:32.824Z</time>
      </trkpt>
      <trkpt lat="46.85686" lon="-0.15988">
        <ele>85.7</ele>
        <time>2016-05-19T12:47:34.824Z</time>
      </trkpt>
      <trkpt lat="46.85685" lon="-0.1599">
        <ele>85.5</ele>
        <time>2016-05-19T12:47:36.824Z</time>
      </trkpt>
      <trkpt lat="46.85685" lon="-0.15991">
        <ele>85.4</ele>
        <time>2016-05-19T12:47:37.827Z</time>
      </trkpt>
      <trkpt lat="46.85684" lon="-0.15993">
        <ele>85.9</ele>
        <time>2016-05-19T12:47:39.821Z</time>
      </trkpt>
      <trkpt lat="46.85684" lon="-0.15994">
        <ele>86.2</ele>
        <time>2016-05-19T12:47:41.825Z</time>
      </trkpt>
      <trkpt lat="46.85682" lon="-0.15996">
        <ele>85.6</ele>
        <time>2016-05-19T12:47:43.822Z</time>
      </trkpt>
      <trkpt lat="46.8568" lon="-0.15998">
        <ele>86</ele>
        <time>2016-05-19T12:47:45.829Z</time>
      </trkpt>
      <trkpt lat="46.85679" lon="-0.16">
        <ele>86.4</ele>
        <time>2016-05-19T12:47:47.827Z</time>
      </trkpt>
      <trkpt lat="46.85678" lon="-0.16002">
        <ele>86.4</ele>
        <time>2016-05-19T12:47:49.806Z</time>
      </trkpt>
      <trkpt lat="46.85677" lon="-0.16004">
        <ele>86.2</ele>
        <time>2016-05-19T12:47:50.814Z</time>
      </trkpt>
      <trkpt lat="46.85675" lon="-0.16006">
        <ele>85.7</ele>
        <time>2016-05-19T12:47:52.824Z</time>
      </trkpt>
      <trkpt lat="46.85674" lon="-0.16008">
        <ele>85.6</ele>
        <time>2016-05-19T12:47:54.831Z</time>
      </trkpt>
      <trkpt lat="46.85672" lon="-0.1601">
        <ele>85.8</ele>
        <time>2016-05-19T12:47:56.831Z</time>
      </trkpt>
      <trkpt lat="46.85671" lon="-0.16011">
        <ele>85.4</ele>
        <time>2016-05-19T12:47:58.827Z</time>
      </trkpt>
      <trkpt lat="46.85669" lon="-0.16013">
        <ele>85.7</ele>
        <time>2016-05-19T12:48:00.829Z</time>
      </trkpt>
      <trkpt lat="46.85668" lon="-0.16016">
        <ele>86</ele>
        <time>2016-05-19T12:48:02.824Z</time>
      </trkpt>
      <trkpt lat="46.85667" lon="-0.16017">
        <ele>85.6</ele>
        <time>2016-05-19T12:48:04.826Z</time>
      </trkpt>
      <trkpt lat="46.85666" lon="-0.16019">
        <ele>85.5</ele>
        <time>2016-05-19T12:48:06.831Z</time>
      </trkpt>
      <trkpt lat="46.85665" lon="-0.16022">
        <ele>85.8</ele>
        <time>2016-05-19T12:48:08.824Z</time>
      </trkpt>
      <trkpt lat="46.85664" lon="-0.16024">
        <ele>86.5</ele>
        <time>2016-05-19T12:48:10.822Z</time>
      </trkpt>
      <trkpt lat="46.85662" lon="-0.16026">
        <ele>86</ele>
        <time>2016-05-19T12:48:12.828Z</time>
      </trkpt>
      <trkpt lat="46.85661" lon="-0.16028">
        <ele>85.8</ele>
        <time>2016-05-19T12:48:14.823Z</time>
      </trkpt>
      <trkpt lat="46.8566" lon="-0.1603">
        <ele>86.2</ele>
        <time>2016-05-19T12:48:16.825Z</time>
      </trkpt>
      <trkpt lat="46.85659" lon="-0.16032">
        <ele>86.8</ele>
        <time>2016-05-19T12:48:18.824Z</time>
      </trkpt>
      <trkpt lat="46.85658" lon="-0.16034">
        <ele>87.5</ele>
        <time>2016-05-19T12:48:20.825Z</time>
      </trkpt>
      <trkpt lat="46.85656" lon="-0.16035">
        <ele>88.2</ele>
        <time>2016-05-19T12:48:22.828Z</time>
      </trkpt>
      <trkpt lat="46.85655" lon="-0.16037">
        <ele>89.3</ele>
        <time>2016-05-19T12:48:24.831Z</time>
      </trkpt>
      <trkpt lat="46.85654" lon="-0.16039">
        <ele>89.3</ele>
        <time>2016-05-19T12:48:26.825Z</time>
      </trkpt>
      <trkpt lat="46.85652" lon="-0.16041">
        <ele>90.4</ele>
        <time>2016-05-19T12:48:28.825Z</time>
      </trkpt>
      <trkpt lat="46.8565" lon="-0.16043">
        <ele>92.6</ele>
        <time>2016-05-19T12:48:30.826Z</time>
      </trkpt>
      <trkpt lat="46.85648" lon="-0.16045">
        <ele>93.3</ele>
        <time>2016-05-19T12:48:32.823Z</time>
      </trkpt>
      <trkpt lat="46.85647" lon="-0.16047">
        <ele>93.4</ele>
        <time>2016-05-19T12:48:34.831Z</time>
      </trkpt>
      <trkpt lat="46.85646" lon="-0.16049">
        <ele>93</ele>
        <time>2016-05-19T12:48:36.824Z</time>
      </trkpt>
      <trkpt lat="46.85645" lon="-0.16051">
        <ele>92.7</ele>
        <time>2016-05-19T12:48:38.833Z</time>
      </trkpt>
      <trkpt lat="46.85643" lon="-0.16053">
        <ele>92.7</ele>
        <time>2016-05-19T12:48:40.822Z</time>
      </trkpt>
      <trkpt lat="46.85643" lon="-0.16055">
        <ele>92.7</ele>
        <time>2016-05-19T12:48:42.825Z</time>
      </trkpt>
      <trkpt lat="46.85642" lon="-0.16057">
        <ele>92.7</ele>
        <time>2016-05-19T12:48:44.823Z</time>
      </trkpt>
      <trkpt lat="46.85641" lon="-0.16061">
        <ele>92.4</ele>
        <time>2016-05-19T12:48:46.827Z</time>
      </trkpt>
      <trkpt lat="46.8564" lon="-0.16063">
        <ele>91.8</ele>
        <time>2016-05-19T12:48:48.826Z</time>
      </trkpt>
      <trkpt lat="46.85639" lon="-0.16067">
        <ele>91.3</ele>
        <time>2016-05-19T12:48:50.822Z</time>
      </trkpt>
      <trkpt lat="46.85638" lon="-0.16069">
        <ele>90.8</ele>
        <time>2016-05-19T12:48:52.821Z</time>
      </trkpt>
      <trkpt lat="46.85638" lon="-0.1607">
        <ele>90.9</ele>
        <time>2016-05-19T12:48:54.830Z</time>
      </trkpt>
      <trkpt lat="46.85637" lon="-0.16072">
        <ele>90.6</ele>
        <time>2016-05-19T12:48:56.822Z</time>
      </trkpt>
      <trkpt lat="46.85636" lon="-0.16075">
        <ele>90.2</ele>
        <time>2016-05-19T12:48:58.833Z</time>
      </trkpt>
      <trkpt lat="46.85635" lon="-0.16079">
        <ele>89.9</ele>
        <time>2016-05-19T12:49:00.829Z</time>
      </trkpt>
      <trkpt lat="46.85634" lon="-0.16082">
        <ele>89.8</ele>
        <time>2016-05-19T12:49:02.823Z</time>
      </trkpt>
      <trkpt lat="46.85633" lon="-0.16085">
        <ele>90.5</ele>
        <time>2016-05-19T12:49:04.822Z</time>
      </trkpt>
      <trkpt lat="46.8563" lon="-0.16088">
        <ele>91.8</ele>
        <time>2016-05-19T12:49:06.830Z</time>
      </trkpt>
      <trkpt lat="46.85628" lon="-0.16091">
        <ele>93.1</ele>
        <time>2016-05-19T12:49:08.823Z</time>
      </trkpt>
      <trkpt lat="46.85626" lon="-0.16094">
        <ele>94.4</ele>
        <time>2016-05-19T12:49:10.830Z</time>
      </trkpt>
      <trkpt lat="46.85625" lon="-0.16097">
        <ele>95.5</ele>
        <time>2016-05-19T12:49:12.825Z</time>
      </trkpt>
      <trkpt lat="46.85623" lon="-0.161">
        <ele>96.3</ele>
        <time>2016-05-19T12:49:14.825Z</time>
      </trkpt>
      <trkpt lat="46.85622" lon="-0.16103">
        <ele>97.3</ele>
        <time>2016-05-19T12:49:16.823Z</time>
      </trkpt>
      <trkpt lat="46.85621" lon="-0.16105">
        <ele>98.5</ele>
        <time>2016-05-19T12:49:18.829Z</time>
      </trkpt>
      <trkpt lat="46.85619" lon="-0.16107">
        <ele>99.9</ele>
        <time>2016-05-19T12:49:20.822Z</time>
      </trkpt>
      <trkpt lat="46.85617" lon="-0.1611">
        <ele>101.1</ele>
        <time>2016-05-19T12:49:22.826Z</time>
      </trkpt>
      <trkpt lat="46.85616" lon="-0.16113">
        <ele>101.9</ele>
        <time>2016-05-19T12:49:24.831Z</time>
      </trkpt>
      <trkpt lat="46.85615" lon="-0.16115">
        <ele>102.3</ele>
        <time>2016-05-19T12:49:26.824Z</time>
      </trkpt>
      <trkpt lat="46.85613" lon="-0.16118">
        <ele>103</ele>
        <time>2016-05-19T12:49:28.833Z</time>
      </trkpt>
      <trkpt lat="46.85613" lon="-0.16121">
        <ele>103.4</ele>
        <time>2016-05-19T12:49:30.832Z</time>
      </trkpt>
      <trkpt lat="46.85611" lon="-0.16124">
        <ele>103.2</ele>
        <time>2016-05-19T12:49:32.822Z</time>
      </trkpt>
      <trkpt lat="46.85609" lon="-0.16127">
        <ele>103.2</ele>
        <time>2016-05-19T12:49:34.830Z</time>
      </trkpt>
      <trkpt lat="46.85608" lon="-0.1613">
        <ele>103.6</ele>
        <time>2016-05-19T12:49:36.827Z</time>
      </trkpt>
      <trkpt lat="46.85607" lon="-0.16132">
        <ele>104</ele>
        <time>2016-05-19T12:49:38.821Z</time>
      </trkpt>
      <trkpt lat="46.85607" lon="-0.16135">
        <ele>104.1</ele>
        <time>2016-05-19T12:49:40.811Z</time>
      </trkpt>
      <trkpt lat="46.85606" lon="-0.16136">
        <ele>104.4</ele>
        <time>2016-05-19T12:49:41.824Z</time>
      </trkpt>
      <trkpt lat="46.85605" lon="-0.16138">
        <ele>104.1</ele>
        <time>2016-05-19T12:49:43.826Z</time>
      </trkpt>
      <trkpt lat="46.85604" lon="-0.1614">
        <ele>103.7</ele>
        <time>2016-05-19T12:49:45.822Z</time>
      </trkpt>
      <trkpt lat="46.85602" lon="-0.16142">
        <ele>104</ele>
        <time>2016-05-19T12:49:47.827Z</time>
      </trkpt>
      <trkpt lat="46.85601" lon="-0.16145">
        <ele>104.4</ele>
        <time>2016-05-19T12:49:49.829Z</time>
      </trkpt>
      <trkpt lat="46.856" lon="-0.16147">
        <ele>104.2</ele>
        <time>2016-05-19T12:49:51.825Z</time>
      </trkpt>
      <trkpt lat="46.85599" lon="-0.16149">
        <ele>105</ele>
        <time>2016-05-19T12:49:53.827Z</time>
      </trkpt>
      <trkpt lat="46.85598" lon="-0.1615">
        <ele>105.6</ele>
        <time>2016-05-19T12:49:55.824Z</time>
      </trkpt>
      <trkpt lat="46.85597" lon="-0.16152">
        <ele>106.5</ele>
        <time>2016-05-19T12:49:57.866Z</time>
      </trkpt>
      <trkpt lat="46.85596" lon="-0.16154">
        <ele>107.1</ele>
        <time>2016-05-19T12:49:59.824Z</time>
      </trkpt>
      <trkpt lat="46.85595" lon="-0.16156">
        <ele>107.7</ele>
        <time>2016-05-19T12:50:01.826Z</time>
      </trkpt>
      <trkpt lat="46.85595" lon="-0.16158">
        <ele>108.2</ele>
        <time>2016-05-19T12:50:03.823Z</time>
      </trkpt>
      <trkpt lat="46.85594" lon="-0.1616">
        <ele>108.6</ele>
        <time>2016-05-19T12:50:05.828Z</time>
      </trkpt>
      <trkpt lat="46.85594" lon="-0.16162">
        <ele>108.8</ele>
        <time>2016-05-19T12:50:07.831Z</time>
      </trkpt>
      <trkpt lat="46.85593" lon="-0.16163">
        <ele>108.7</ele>
        <time>2016-05-19T12:50:09.829Z</time>
      </trkpt>
      <trkpt lat="46.85593" lon="-0.16164">
        <ele>108.7</ele>
        <time>2016-05-19T12:50:11.824Z</time>
      </trkpt>
      <trkpt lat="46.85593" lon="-0.16164">
        <ele>108.7</ele>
        <time>2016-05-19T12:50:13.824Z</time>
      </trkpt>
      <trkpt lat="46.85593" lon="-0.16164">
        <ele>108.7</ele>
        <time>2016-05-19T12:50:14.824Z</time>
      </trkpt>
      <trkpt lat="46.85593" lon="-0.16164">
        <ele>108.7</ele>
        <time>2016-05-19T12:50:16.819Z</time>
      </trkpt>
      <trkpt lat="46.85593" lon="-0.16164">
        <ele>108.7</ele>
        <time>2016-05-19T12:50:17.824Z</time>
      </trkpt>
      <trkpt lat="46.85593" lon="-0.16164">
        <ele>108.7</ele>
        <time>2016-05-19T12:50:18.837Z</time>
      </trkpt>
      <trkpt lat="46.85593" lon="-0.16164">
        <ele>108.7</ele>
        <time>2016-05-19T12:50:20.823Z</time>
      </trkpt>
      <trkpt lat="46.85593" lon="-0.16164">
        <ele>108.7</ele>
        <time>2016-05-19T12:50:22.823Z</time>
      </trkpt>
      <trkpt lat="46.85593" lon="-0.16164">
        <ele>108.7</ele>
        <time>2016-05-19T12:50:23.823Z</time>
      </trkpt>
      <trkpt lat="46.85593" lon="-0.16164">
        <ele>108.7</ele>
        <time>2016-05-19T12:50:24.824Z</time>
      </trkpt>
      <trkpt lat="46.85593" lon="-0.16164">
        <ele>108.7</ele>
        <time>2016-05-19T12:50:26.824Z</time>
      </trkpt>
      <trkpt lat="46.85593" lon="-0.16164">
        <ele>108.7</ele>
        <time>2016-05-19T12:50:28.823Z</time>
      </trkpt>
      <trkpt lat="46.85593" lon="-0.16164">
        <ele>108.7</ele>
        <time>2016-05-19T12:50:29.834Z</time>
      </trkpt>
      <trkpt lat="46.85593" lon="-0.16164">
        <ele>108.7</ele>
        <time>2016-05-19T12:50:31.823Z</time>
      </trkpt>
      <trkpt lat="46.85593" lon="-0.16164">
        <ele>108.7</ele>
        <time>2016-05-19T12:50:32.832Z</time>
      </trkpt>
      <trkpt lat="46.85584" lon="-0.16172">
        <ele>109</ele>
        <time>2016-05-19T12:50:34.827Z</time>
      </trkpt>
      <trkpt lat="46.85583" lon="-0.16175">
        <ele>108.8</ele>
        <time>2016-05-19T12:50:36.827Z</time>
      </trkpt>
      <trkpt lat="46.85582" lon="-0.16178">
        <ele>107.8</ele>
        <time>2016-05-19T12:50:38.829Z</time>
      </trkpt>
      <trkpt lat="46.8558" lon="-0.16182">
        <ele>105.5</ele>
        <time>2016-05-19T12:50:40.832Z</time>
      </trkpt>
      <trkpt lat="46.85579" lon="-0.16185">
        <ele>104.4</ele>
        <time>2016-05-19T12:50:42.809Z</time>
      </trkpt>
      <trkpt lat="46.85579" lon="-0.16187">
        <ele>103.8</ele>
        <time>2016-05-19T12:50:43.809Z</time>
      </trkpt>
      <trkpt lat="46.85579" lon="-0.16188">
        <ele>103.6</ele>
        <time>2016-05-19T12:50:44.809Z</time>
      </trkpt>
      <trkpt lat="46.85578" lon="-0.1619">
        <ele>103.3</ele>
        <time>2016-05-19T12:50:45.810Z</time>
      </trkpt>
      <trkpt lat="46.85577" lon="-0.16191">
        <ele>103.3</ele>
        <time>2016-05-19T12:50:46.811Z</time>
      </trkpt>
      <trkpt lat="46.85576" lon="-0.16193">
        <ele>103.1</ele>
        <time>2016-05-19T12:50:47.813Z</time>
      </trkpt>
      <trkpt lat="46.85575" lon="-0.16197">
        <ele>102.6</ele>
        <time>2016-05-19T12:50:49.822Z</time>
      </trkpt>
      <trkpt lat="46.85574" lon="-0.162">
        <ele>102.2</ele>
        <time>2016-05-19T12:50:51.862Z</time>
      </trkpt>
      <trkpt lat="46.85575" lon="-0.16202">
        <ele>102.7</ele>
        <time>2016-05-19T12:50:53.824Z</time>
      </trkpt>
      <trkpt lat="46.85575" lon="-0.16204">
        <ele>102.4</ele>
        <time>2016-05-19T12:50:55.824Z</time>
      </trkpt>
      <trkpt lat="46.85574" lon="-0.16206">
        <ele>102.3</ele>
        <time>2016-05-19T12:50:57.804Z</time>
      </trkpt>
      <trkpt lat="46.85574" lon="-0.16207">
        <ele>102.1</ele>
        <time>2016-05-19T12:50:58.838Z</time>
      </trkpt>
      <trkpt lat="46.85575" lon="-0.1621">
        <ele>101.4</ele>
        <time>2016-05-19T12:51:00.824Z</time>
      </trkpt>
      <trkpt lat="46.85576" lon="-0.16212">
        <ele>100.6</ele>
        <time>2016-05-19T12:51:02.820Z</time>
      </trkpt>
      <trkpt lat="46.85576" lon="-0.16215">
        <ele>99.6</ele>
        <time>2016-05-19T12:51:04.834Z</time>
      </trkpt>
      <trkpt lat="46.85576" lon="-0.16218">
        <ele>98.7</ele>
        <time>2016-05-19T12:51:06.831Z</time>
      </trkpt>
      <trkpt lat="46.85575" lon="-0.16222">
        <ele>98</ele>
        <time>2016-05-19T12:51:08.832Z</time>
      </trkpt>
      <trkpt lat="46.85574" lon="-0.16225">
        <ele>97</ele>
        <time>2016-05-19T12:51:10.822Z</time>
      </trkpt>
      <trkpt lat="46.85574" lon="-0.16229">
        <ele>97.1</ele>
        <time>2016-05-19T12:51:12.824Z</time>
      </trkpt>
      <trkpt lat="46.85574" lon="-0.16232">
        <ele>96.5</ele>
        <time>2016-05-19T12:51:14.825Z</time>
      </trkpt>
      <trkpt lat="46.85572" lon="-0.16236">
        <ele>96.7</ele>
        <time>2016-05-19T12:51:16.823Z</time>
      </trkpt>
      <trkpt lat="46.8557" lon="-0.16239">
        <ele>97</ele>
        <time>2016-05-19T12:51:18.821Z</time>
      </trkpt>
      <trkpt lat="46.85569" lon="-0.16243">
        <ele>96.6</ele>
        <time>2016-05-19T12:51:20.816Z</time>
      </trkpt>
      <trkpt lat="46.85566" lon="-0.16246">
        <ele>96.9</ele>
        <time>2016-05-19T12:51:22.835Z</time>
      </trkpt>
      <trkpt lat="46.85565" lon="-0.1625">
        <ele>97.4</ele>
        <time>2016-05-19T12:51:24.825Z</time>
      </trkpt>
      <trkpt lat="46.85564" lon="-0.16254">
        <ele>97.8</ele>
        <time>2016-05-19T12:51:26.828Z</time>
      </trkpt>
      <trkpt lat="46.85563" lon="-0.16256">
        <ele>97.6</ele>
        <time>2016-05-19T12:51:28.822Z</time>
      </trkpt>
      <trkpt lat="46.85563" lon="-0.16259">
        <ele>98</ele>
        <time>2016-05-19T12:51:30.842Z</time>
      </trkpt>
      <trkpt lat="46.85562" lon="-0.16263">
        <ele>98.4</ele>
        <time>2016-05-19T12:51:32.823Z</time>
      </trkpt>
      <trkpt lat="46.85561" lon="-0.16266">
        <ele>98.8</ele>
        <time>2016-05-19T12:51:34.832Z</time>
      </trkpt>
      <trkpt lat="46.8556" lon="-0.1627">
        <ele>99.6</ele>
        <time>2016-05-19T12:51:36.828Z</time>
      </trkpt>
      <trkpt lat="46.8556" lon="-0.16273">
        <ele>100.8</ele>
        <time>2016-05-19T12:51:38.824Z</time>
      </trkpt>
      <trkpt lat="46.8556" lon="-0.16276">
        <ele>101.6</ele>
        <time>2016-05-19T12:51:40.808Z</time>
      </trkpt>
      <trkpt lat="46.85559" lon="-0.16278">
        <ele>101.9</ele>
        <time>2016-05-19T12:51:41.810Z</time>
      </trkpt>
      <trkpt lat="46.85559" lon="-0.16279">
        <ele>102.1</ele>
        <time>2016-05-19T12:51:42.817Z</time>
      </trkpt>
      <trkpt lat="46.85558" lon="-0.1628">
        <ele>102.5</ele>
        <time>2016-05-19T12:51:44.823Z</time>
      </trkpt>
      <trkpt lat="46.85557" lon="-0.16281">
        <ele>102.8</ele>
        <time>2016-05-19T12:51:46.823Z</time>
      </trkpt>
      <trkpt lat="46.85556" lon="-0.16284">
        <ele>102.5</ele>
        <time>2016-05-19T12:51:48.828Z</time>
      </trkpt>
      <trkpt lat="46.85555" lon="-0.16287">
        <ele>102.8</ele>
        <time>2016-05-19T12:51:50.823Z</time>
      </trkpt>
      <trkpt lat="46.85554" lon="-0.16289">
        <ele>103.1</ele>
        <time>2016-05-19T12:51:52.823Z</time>
      </trkpt>
      <trkpt lat="46.85553" lon="-0.16291">
        <ele>103.1</ele>
        <time>2016-05-19T12:51:54.812Z</time>
      </trkpt>
      <trkpt lat="46.85552" lon="-0.16292">
        <ele>103</ele>
        <time>2016-05-19T12:51:55.810Z</time>
      </trkpt>
      <trkpt lat="46.85551" lon="-0.16293">
        <ele>103</ele>
        <time>2016-05-19T12:51:56.809Z</time>
      </trkpt>
      <trkpt lat="46.8555" lon="-0.16295">
        <ele>103.1</ele>
        <time>2016-05-19T12:51:57.811Z</time>
      </trkpt>
      <trkpt lat="46.85549" lon="-0.16297">
        <ele>102.4</ele>
        <time>2016-05-19T12:51:59.824Z</time>
      </trkpt>
      <trkpt lat="46.85548" lon="-0.163">
        <ele>102</ele>
        <time>2016-05-19T12:52:01.822Z</time>
      </trkpt>
      <trkpt lat="46.85547" lon="-0.16302">
        <ele>102</ele>
        <time>2016-05-19T12:52:03.823Z</time>
      </trkpt>
      <trkpt lat="46.85545" lon="-0.16304">
        <ele>102.1</ele>
        <time>2016-05-19T12:52:05.822Z</time>
      </trkpt>
      <trkpt lat="46.85544" lon="-0.16306">
        <ele>101.6</ele>
        <time>2016-05-19T12:52:07.823Z</time>
      </trkpt>
      <trkpt lat="46.85542" lon="-0.16308">
        <ele>101.1</ele>
        <time>2016-05-19T12:52:09.823Z</time>
      </trkpt>
      <trkpt lat="46.8554" lon="-0.16311">
        <ele>100.8</ele>
        <time>2016-05-19T12:52:11.824Z</time>
      </trkpt>
      <trkpt lat="46.85539" lon="-0.16313">
        <ele>100.6</ele>
        <time>2016-05-19T12:52:13.822Z</time>
      </trkpt>
      <trkpt lat="46.85537" lon="-0.16315">
        <ele>100.5</ele>
        <time>2016-05-19T12:52:15.825Z</time>
      </trkpt>
      <trkpt lat="46.85535" lon="-0.16318">
        <ele>100.5</ele>
        <time>2016-05-19T12:52:17.831Z</time>
      </trkpt>
      <trkpt lat="46.85534" lon="-0.1632">
        <ele>100.1</ele>
        <time>2016-05-19T12:52:19.834Z</time>
      </trkpt>
      <trkpt lat="46.85532" lon="-0.16322">
        <ele>99.7</ele>
        <time>2016-05-19T12:52:21.828Z</time>
      </trkpt>
      <trkpt lat="46.85531" lon="-0.16324">
        <ele>99.6</ele>
        <time>2016-05-19T12:52:23.824Z</time>
      </trkpt>
      <trkpt lat="46.85528" lon="-0.16326">
        <ele>99.7</ele>
        <time>2016-05-19T12:52:25.824Z</time>
      </trkpt>
      <trkpt lat="46.85527" lon="-0.16328">
        <ele>100.2</ele>
        <time>2016-05-19T12:52:27.822Z</time>
      </trkpt>
      <trkpt lat="46.85525" lon="-0.1633">
        <ele>99.8</ele>
        <time>2016-05-19T12:52:29.821Z</time>
      </trkpt>
      <trkpt lat="46.85523" lon="-0.16332">
        <ele>99.6</ele>
        <time>2016-05-19T12:52:31.823Z</time>
      </trkpt>
      <trkpt lat="46.85521" lon="-0.16334">
        <ele>99.6</ele>
        <time>2016-05-19T12:52:33.818Z</time>
      </trkpt>
      <trkpt lat="46.8552" lon="-0.16335">
        <ele>99.3</ele>
        <time>2016-05-19T12:52:35.821Z</time>
      </trkpt>
      <trkpt lat="46.85518" lon="-0.16337">
        <ele>99.3</ele>
        <time>2016-05-19T12:52:37.856Z</time>
      </trkpt>
      <trkpt lat="46.85518" lon="-0.16338">
        <ele>99.2</ele>
        <time>2016-05-19T12:52:39.824Z</time>
      </trkpt>
      <trkpt lat="46.85518" lon="-0.16338">
        <ele>99.3</ele>
        <time>2016-05-19T12:52:41.958Z</time>
      </trkpt>
      <trkpt lat="46.85518" lon="-0.16338">
        <ele>99.3</ele>
        <time>2016-05-19T12:52:42.827Z</time>
      </trkpt>
      <trkpt lat="46.85518" lon="-0.16338">
        <ele>99.3</ele>
        <time>2016-05-19T12:52:44.824Z</time>
      </trkpt>
      <trkpt lat="46.85518" lon="-0.16338">
        <ele>99.3</ele>
        <time>2016-05-19T12:52:46.823Z</time>
      </trkpt>
      <trkpt lat="46.85518" lon="-0.16338">
        <ele>99.3</ele>
        <time>2016-05-19T12:52:48.818Z</time>
      </trkpt>
      <trkpt lat="46.85518" lon="-0.16338">
        <ele>99.3</ele>
        <time>2016-05-19T12:52:49.832Z</time>
      </trkpt>
      <trkpt lat="46.85518" lon="-0.16338">
        <ele>99.3</ele>
        <time>2016-05-19T12:52:51.829Z</time>
      </trkpt>
      <trkpt lat="46.85518" lon="-0.16338">
        <ele>99.3</ele>
        <time>2016-05-19T12:52:52.824Z</time>
      </trkpt>
      <trkpt lat="46.85518" lon="-0.16338">
        <ele>99.3</ele>
        <time>2016-05-19T12:52:54.824Z</time>
      </trkpt>
      <trkpt lat="46.85513" lon="-0.16342">
        <ele>100</ele>
        <time>2016-05-19T12:52:56.832Z</time>
      </trkpt>
      <trkpt lat="46.85511" lon="-0.16343">
        <ele>100.4</ele>
        <time>2016-05-19T12:52:58.831Z</time>
      </trkpt>
      <trkpt lat="46.85509" lon="-0.16346">
        <ele>100.5</ele>
        <time>2016-05-19T12:53:00.828Z</time>
      </trkpt>
      <trkpt lat="46.85507" lon="-0.16348">
        <ele>101.3</ele>
        <time>2016-05-19T12:53:02.819Z</time>
      </trkpt>
      <trkpt lat="46.85506" lon="-0.16349">
        <ele>101.5</ele>
        <time>2016-05-19T12:53:03.813Z</time>
      </trkpt>
      <trkpt lat="46.85505" lon="-0.1635">
        <ele>101.6</ele>
        <time>2016-05-19T12:53:04.814Z</time>
      </trkpt>
      <trkpt lat="46.85503" lon="-0.16352">
        <ele>101.9</ele>
        <time>2016-05-19T12:53:06.829Z</time>
      </trkpt>
      <trkpt lat="46.855" lon="-0.16354">
        <ele>102.4</ele>
        <time>2016-05-19T12:53:08.821Z</time>
      </trkpt>
      <trkpt lat="46.85498" lon="-0.16356">
        <ele>103</ele>
        <time>2016-05-19T12:53:10.834Z</time>
      </trkpt>
      <trkpt lat="46.85497" lon="-0.16358">
        <ele>103.7</ele>
        <time>2016-05-19T12:53:12.810Z</time>
      </trkpt>
      <trkpt lat="46.85497" lon="-0.16359">
        <ele>104</ele>
        <time>2016-05-19T12:53:13.809Z</time>
      </trkpt>
      <trkpt lat="46.85496" lon="-0.1636">
        <ele>104.2</ele>
        <time>2016-05-19T12:53:14.811Z</time>
      </trkpt>
      <trkpt lat="46.85493" lon="-0.16361">
        <ele>104.3</ele>
        <time>2016-05-19T12:53:16.808Z</time>
      </trkpt>
      <trkpt lat="46.85492" lon="-0.16362">
        <ele>104</ele>
        <time>2016-05-19T12:53:17.815Z</time>
      </trkpt>
      <trkpt lat="46.8549" lon="-0.16365">
        <ele>104.1</ele>
        <time>2016-05-19T12:53:19.931Z</time>
      </trkpt>
      <trkpt lat="46.85488" lon="-0.16367">
        <ele>103.7</ele>
        <time>2016-05-19T12:53:21.823Z</time>
      </trkpt>
      <trkpt lat="46.85487" lon="-0.16369">
        <ele>104.4</ele>
        <time>2016-05-19T12:53:23.820Z</time>
      </trkpt>
      <trkpt lat="46.85484" lon="-0.16371">
        <ele>103.8</ele>
        <time>2016-05-19T12:53:25.822Z</time>
      </trkpt>
      <trkpt lat="46.85482" lon="-0.16374">
        <ele>103.7</ele>
        <time>2016-05-19T12:53:27.831Z</time>
      </trkpt>
      <trkpt lat="46.85481" lon="-0.16376">
        <ele>104.7</ele>
        <time>2016-05-19T12:53:29.822Z</time>
      </trkpt>
      <trkpt lat="46.85479" lon="-0.16379">
        <ele>104.4</ele>
        <time>2016-05-19T12:53:31.822Z</time>
      </trkpt>
      <trkpt lat="46.85479" lon="-0.16381">
        <ele>105</ele>
        <time>2016-05-19T12:53:33.823Z</time>
      </trkpt>
      <trkpt lat="46.85477" lon="-0.16384">
        <ele>105.3</ele>
        <time>2016-05-19T12:53:35.823Z</time>
      </trkpt>
      <trkpt lat="46.85475" lon="-0.16387">
        <ele>104.6</ele>
        <time>2016-05-19T12:53:37.823Z</time>
      </trkpt>
      <trkpt lat="46.85472" lon="-0.16389">
        <ele>104.9</ele>
        <time>2016-05-19T12:53:39.823Z</time>
      </trkpt>
      <trkpt lat="46.85469" lon="-0.16391">
        <ele>104.2</ele>
        <time>2016-05-19T12:53:41.822Z</time>
      </trkpt>
      <trkpt lat="46.85467" lon="-0.16393">
        <ele>103.9</ele>
        <time>2016-05-19T12:53:43.826Z</time>
      </trkpt>
      <trkpt lat="46.85466" lon="-0.16394">
        <ele>103.2</ele>
        <time>2016-05-19T12:53:45.399Z</time>
      </trkpt>
      <trkpt lat="46.85463" lon="-0.16397">
        <ele>103.9</ele>
        <time>2016-05-19T12:53:46.806Z</time>
      </trkpt>
      <trkpt lat="46.85462" lon="-0.16398">
        <ele>103.7</ele>
        <time>2016-05-19T12:53:47.820Z</time>
      </trkpt>
      <trkpt lat="46.85461" lon="-0.16398">
        <ele>103.5</ele>
        <time>2016-05-19T12:53:48.810Z</time>
      </trkpt>
      <trkpt lat="46.8546" lon="-0.16399">
        <ele>103.4</ele>
        <time>2016-05-19T12:53:49.836Z</time>
      </trkpt>
      <trkpt lat="46.85458" lon="-0.16402">
        <ele>102.7</ele>
        <time>2016-05-19T12:53:51.822Z</time>
      </trkpt>
      <trkpt lat="46.85455" lon="-0.16404">
        <ele>102.5</ele>
        <time>2016-05-19T12:53:53.827Z</time>
      </trkpt>
      <trkpt lat="46.85452" lon="-0.16407">
        <ele>102.3</ele>
        <time>2016-05-19T12:53:55.830Z</time>
      </trkpt>
      <trkpt lat="46.85449" lon="-0.16409">
        <ele>101.9</ele>
        <time>2016-05-19T12:53:57.815Z</time>
      </trkpt>
      <trkpt lat="46.85447" lon="-0.16411">
        <ele>101.6</ele>
        <time>2016-05-19T12:53:59.829Z</time>
      </trkpt>
      <trkpt lat="46.85444" lon="-0.16413">
        <ele>101</ele>
        <time>2016-05-19T12:54:01.890Z</time>
      </trkpt>
      <trkpt lat="46.85442" lon="-0.16415">
        <ele>100.8</ele>
        <time>2016-05-19T12:54:03.822Z</time>
      </trkpt>
      <trkpt lat="46.85439" lon="-0.16416">
        <ele>100.4</ele>
        <time>2016-05-19T12:54:05.827Z</time>
      </trkpt>
      <trkpt lat="46.85437" lon="-0.16418">
        <ele>100</ele>
        <time>2016-05-19T12:54:07.824Z</time>
      </trkpt>
      <trkpt lat="46.85434" lon="-0.1642">
        <ele>100.1</ele>
        <time>2016-05-19T12:54:09.823Z</time>
      </trkpt>
      <trkpt lat="46.85432" lon="-0.16422">
        <ele>100.1</ele>
        <time>2016-05-19T12:54:11.822Z</time>
      </trkpt>
      <trkpt lat="46.85429" lon="-0.16424">
        <ele>99.6</ele>
        <time>2016-05-19T12:54:13.828Z</time>
      </trkpt>
      <trkpt lat="46.85427" lon="-0.16425">
        <ele>99.1</ele>
        <time>2016-05-19T12:54:15.825Z</time>
      </trkpt>
      <trkpt lat="46.85424" lon="-0.16427">
        <ele>98.9</ele>
        <time>2016-05-19T12:54:17.829Z</time>
      </trkpt>
      <trkpt lat="46.85421" lon="-0.16429">
        <ele>98.4</ele>
        <time>2016-05-19T12:54:19.825Z</time>
      </trkpt>
      <trkpt lat="46.8542" lon="-0.1643">
        <ele>98.8</ele>
        <time>2016-05-19T12:54:21.822Z</time>
      </trkpt>
      <trkpt lat="46.85418" lon="-0.16432">
        <ele>98.1</ele>
        <time>2016-05-19T12:54:23.808Z</time>
      </trkpt>
      <trkpt lat="46.85416" lon="-0.16433">
        <ele>98.2</ele>
        <time>2016-05-19T12:54:24.807Z</time>
      </trkpt>
      <trkpt lat="46.85416" lon="-0.16434">
        <ele>98.2</ele>
        <time>2016-05-19T12:54:25.813Z</time>
      </trkpt>
      <trkpt lat="46.85413" lon="-0.16435">
        <ele>97.9</ele>
        <time>2016-05-19T12:54:27.820Z</time>
      </trkpt>
      <trkpt lat="46.85411" lon="-0.16436">
        <ele>97.4</ele>
        <time>2016-05-19T12:54:29.828Z</time>
      </trkpt>
      <trkpt lat="46.85409" lon="-0.16438">
        <ele>97.1</ele>
        <time>2016-05-19T12:54:31.827Z</time>
      </trkpt>
      <trkpt lat="46.85407" lon="-0.16438">
        <ele>97.2</ele>
        <time>2016-05-19T12:54:33.806Z</time>
      </trkpt>
      <trkpt lat="46.85406" lon="-0.16439">
        <ele>97.1</ele>
        <time>2016-05-19T12:54:34.814Z</time>
      </trkpt>
      <trkpt lat="46.85405" lon="-0.1644">
        <ele>97.2</ele>
        <time>2016-05-19T12:54:35.808Z</time>
      </trkpt>
      <trkpt lat="46.85404" lon="-0.16441">
        <ele>97</ele>
        <time>2016-05-19T12:54:36.825Z</time>
      </trkpt>
      <trkpt lat="46.85402" lon="-0.16443">
        <ele>96.1</ele>
        <time>2016-05-19T12:54:38.833Z</time>
      </trkpt>
      <trkpt lat="46.854" lon="-0.16445">
        <ele>96.2</ele>
        <time>2016-05-19T12:54:40.830Z</time>
      </trkpt>
      <trkpt lat="46.85397" lon="-0.16446">
        <ele>96.4</ele>
        <time>2016-05-19T12:54:42.809Z</time>
      </trkpt>
      <trkpt lat="46.85396" lon="-0.16448">
        <ele>97.2</ele>
        <time>2016-05-19T12:54:44.823Z</time>
      </trkpt>
      <trkpt lat="46.85394" lon="-0.1645">
        <ele>97.5</ele>
        <time>2016-05-19T12:54:46.823Z</time>
      </trkpt>
      <trkpt lat="46.85391" lon="-0.16452">
        <ele>98</ele>
        <time>2016-05-19T12:54:48.829Z</time>
      </trkpt>
      <trkpt lat="46.85388" lon="-0.16453">
        <ele>98.6</ele>
        <time>2016-05-19T12:54:50.829Z</time>
      </trkpt>
      <trkpt lat="46.85386" lon="-0.16455">
        <ele>98.8</ele>
        <time>2016-05-19T12:54:52.828Z</time>
      </trkpt>
      <trkpt lat="46.85384" lon="-0.16457">
        <ele>99.1</ele>
        <time>2016-05-19T12:54:54.825Z</time>
      </trkpt>
      <trkpt lat="46.85382" lon="-0.16458">
        <ele>99.2</ele>
        <time>2016-05-19T12:54:56.823Z</time>
      </trkpt>
      <trkpt lat="46.85381" lon="-0.16459">
        <ele>98.9</ele>
        <time>2016-05-19T12:54:58.837Z</time>
      </trkpt>
      <trkpt lat="46.85379" lon="-0.16461">
        <ele>98.8</ele>
        <time>2016-05-19T12:55:00.821Z</time>
      </trkpt>
      <trkpt lat="46.85377" lon="-0.16462">
        <ele>97.9</ele>
        <time>2016-05-19T12:55:02.822Z</time>
      </trkpt>
      <trkpt lat="46.85375" lon="-0.16463">
        <ele>97.6</ele>
        <time>2016-05-19T12:55:04.824Z</time>
      </trkpt>
      <trkpt lat="46.85373" lon="-0.16465">
        <ele>97.3</ele>
        <time>2016-05-19T12:55:06.824Z</time>
      </trkpt>
      <trkpt lat="46.8537" lon="-0.16466">
        <ele>97.6</ele>
        <time>2016-05-19T12:55:08.824Z</time>
      </trkpt>
      <trkpt lat="46.85368" lon="-0.16467">
        <ele>97.8</ele>
        <time>2016-05-19T12:55:10.822Z</time>
      </trkpt>
      <trkpt lat="46.85366" lon="-0.16468">
        <ele>98.1</ele>
        <time>2016-05-19T12:55:12.825Z</time>
      </trkpt>
      <trkpt lat="46.85365" lon="-0.1647">
        <ele>98.7</ele>
        <time>2016-05-19T12:55:14.824Z</time>
      </trkpt>
      <trkpt lat="46.85363" lon="-0.16471">
        <ele>98.7</ele>
        <time>2016-05-19T12:55:16.824Z</time>
      </trkpt>
      <trkpt lat="46.85362" lon="-0.16472">
        <ele>98.3</ele>
        <time>2016-05-19T12:55:18.826Z</time>
      </trkpt>
      <trkpt lat="46.8536" lon="-0.16473">
        <ele>98.8</ele>
        <time>2016-05-19T12:55:20.823Z</time>
      </trkpt>
      <trkpt lat="46.85358" lon="-0.16474">
        <ele>99</ele>
        <time>2016-05-19T12:55:22.823Z</time>
      </trkpt>
      <trkpt lat="46.85356" lon="-0.16475">
        <ele>98.9</ele>
        <time>2016-05-19T12:55:24.809Z</time>
      </trkpt>
      <trkpt lat="46.85355" lon="-0.16476">
        <ele>99</ele>
        <time>2016-05-19T12:55:25.813Z</time>
      </trkpt>
      <trkpt lat="46.85352" lon="-0.16478">
        <ele>98.7</ele>
        <time>2016-05-19T12:55:27.832Z</time>
      </trkpt>
      <trkpt lat="46.8535" lon="-0.16479">
        <ele>98.9</ele>
        <time>2016-05-19T12:55:29.806Z</time>
      </trkpt>
      <trkpt lat="46.85349" lon="-0.1648">
        <ele>98.9</ele>
        <time>2016-05-19T12:55:30.814Z</time>
      </trkpt>
      <trkpt lat="46.85346" lon="-0.16482">
        <ele>98.9</ele>
        <time>2016-05-19T12:55:32.821Z</time>
      </trkpt>
      <trkpt lat="46.85345" lon="-0.16483">
        <ele>100</ele>
        <time>2016-05-19T12:55:34.819Z</time>
      </trkpt>
      <trkpt lat="46.85344" lon="-0.16484">
        <ele>100.4</ele>
        <time>2016-05-19T12:55:35.808Z</time>
      </trkpt>
      <trkpt lat="46.85342" lon="-0.16485">
        <ele>101</ele>
        <time>2016-05-19T12:55:36.812Z</time>
      </trkpt>
      <trkpt lat="46.85341" lon="-0.16486">
        <ele>101.3</ele>
        <time>2016-05-19T12:55:38.826Z</time>
      </trkpt>
      <trkpt lat="46.85339" lon="-0.16487">
        <ele>101.8</ele>
        <time>2016-05-19T12:55:40.807Z</time>
      </trkpt>
      <trkpt lat="46.85338" lon="-0.16488">
        <ele>102.2</ele>
        <time>2016-05-19T12:55:41.810Z</time>
      </trkpt>
      <trkpt lat="46.85336" lon="-0.16489">
        <ele>102</ele>
        <time>2016-05-19T12:55:43.829Z</time>
      </trkpt>
      <trkpt lat="46.85333" lon="-0.16491">
        <ele>101.5</ele>
        <time>2016-05-19T12:55:45.819Z</time>
      </trkpt>
      <trkpt lat="46.85332" lon="-0.16492">
        <ele>101.3</ele>
        <time>2016-05-19T12:55:46.831Z</time>
      </trkpt>
      <trkpt lat="46.85329" lon="-0.16493">
        <ele>101.6</ele>
        <time>2016-05-19T12:55:48.823Z</time>
      </trkpt>
      <trkpt lat="46.85326" lon="-0.16495">
        <ele>102.2</ele>
        <time>2016-05-19T12:55:50.824Z</time>
      </trkpt>
      <trkpt lat="46.85325" lon="-0.16496">
        <ele>102.2</ele>
        <time>2016-05-19T12:55:52.821Z</time>
      </trkpt>
      <trkpt lat="46.85322" lon="-0.16497">
        <ele>102.1</ele>
        <time>2016-05-19T12:55:54.827Z</time>
      </trkpt>
      <trkpt lat="46.8532" lon="-0.16498">
        <ele>101.7</ele>
        <time>2016-05-19T12:55:56.808Z</time>
      </trkpt>
      <trkpt lat="46.85318" lon="-0.16498">
        <ele>101.7</ele>
        <time>2016-05-19T12:55:57.808Z</time>
      </trkpt>
      <trkpt lat="46.85317" lon="-0.16498">
        <ele>101.9</ele>
        <time>2016-05-19T12:55:58.808Z</time>
      </trkpt>
      <trkpt lat="46.85316" lon="-0.16499">
        <ele>101.8</ele>
        <time>2016-05-19T12:55:59.812Z</time>
      </trkpt>
      <trkpt lat="46.85314" lon="-0.16499">
        <ele>101.7</ele>
        <time>2016-05-19T12:56:00.813Z</time>
      </trkpt>
      <trkpt lat="46.85312" lon="-0.165">
        <ele>101.5</ele>
        <time>2016-05-19T12:56:02.824Z</time>
      </trkpt>
      <trkpt lat="46.85309" lon="-0.16501">
        <ele>101.6</ele>
        <time>2016-05-19T12:56:04.808Z</time>
      </trkpt>
      <trkpt lat="46.85307" lon="-0.16501">
        <ele>101.4</ele>
        <time>2016-05-19T12:56:05.808Z</time>
      </trkpt>
      <trkpt lat="46.85307" lon="-0.16502">
        <ele>101.3</ele>
        <time>2016-05-19T12:56:06.810Z</time>
      </trkpt>
      <trkpt lat="46.85305" lon="-0.16503">
        <ele>100.7</ele>
        <time>2016-05-19T12:56:07.813Z</time>
      </trkpt>
      <trkpt lat="46.85303" lon="-0.16504">
        <ele>100.4</ele>
        <time>2016-05-19T12:56:09.834Z</time>
      </trkpt>
      <trkpt lat="46.853" lon="-0.16504">
        <ele>100.9</ele>
        <time>2016-05-19T12:56:11.821Z</time>
      </trkpt>
      <trkpt lat="46.85298" lon="-0.16505">
        <ele>101.2</ele>
        <time>2016-05-19T12:56:13.824Z</time>
      </trkpt>
      <trkpt lat="46.85297" lon="-0.16505">
        <ele>101.2</ele>
        <time>2016-05-19T12:56:15.824Z</time>
      </trkpt>
      <trkpt lat="46.85297" lon="-0.16505">
        <ele>100.4</ele>
        <time>2016-05-19T12:56:17.840Z</time>
      </trkpt>
      <trkpt lat="46.85294" lon="-0.16507">
        <ele>99.3</ele>
        <time>2016-05-19T12:56:19.823Z</time>
      </trkpt>
      <trkpt lat="46.85292" lon="-0.16508">
        <ele>98.4</ele>
        <time>2016-05-19T12:56:21.829Z</time>
      </trkpt>
      <trkpt lat="46.8529" lon="-0.16509">
        <ele>98.3</ele>
        <time>2016-05-19T12:56:23.833Z</time>
      </trkpt>
      <trkpt lat="46.85289" lon="-0.16509">
        <ele>98.4</ele>
        <time>2016-05-19T12:56:24.831Z</time>
      </trkpt>
      <trkpt lat="46.85287" lon="-0.1651">
        <ele>98.3</ele>
        <time>2016-05-19T12:56:26.822Z</time>
      </trkpt>
      <trkpt lat="46.85285" lon="-0.1651">
        <ele>98.3</ele>
        <time>2016-05-19T12:56:28.834Z</time>
      </trkpt>
      <trkpt lat="46.85283" lon="-0.16511">
        <ele>97.7</ele>
        <time>2016-05-19T12:56:30.829Z</time>
      </trkpt>
      <trkpt lat="46.8528" lon="-0.1651">
        <ele>97.3</ele>
        <time>2016-05-19T12:56:32.824Z</time>
      </trkpt>
      <trkpt lat="46.85277" lon="-0.1651">
        <ele>97.6</ele>
        <time>2016-05-19T12:56:34.831Z</time>
      </trkpt>
      <trkpt lat="46.85275" lon="-0.16509">
        <ele>98.1</ele>
        <time>2016-05-19T12:56:36.826Z</time>
      </trkpt>
      <trkpt lat="46.85272" lon="-0.16508">
        <ele>98.9</ele>
        <time>2016-05-19T12:56:38.823Z</time>
      </trkpt>
      <trkpt lat="46.8527" lon="-0.16508">
        <ele>99.4</ele>
        <time>2016-05-19T12:56:40.823Z</time>
      </trkpt>
      <trkpt lat="46.85269" lon="-0.16508">
        <ele>100.2</ele>
        <time>2016-05-19T12:56:42.810Z</time>
      </trkpt>
      <trkpt lat="46.85267" lon="-0.16507">
        <ele>99.8</ele>
        <time>2016-05-19T12:56:44.824Z</time>
      </trkpt>
      <trkpt lat="46.85265" lon="-0.16508">
        <ele>99.8</ele>
        <time>2016-05-19T12:56:46.824Z</time>
      </trkpt>
      <trkpt lat="46.85263" lon="-0.16508">
        <ele>100.2</ele>
        <time>2016-05-19T12:56:48.827Z</time>
      </trkpt>
      <trkpt lat="46.85261" lon="-0.16508">
        <ele>100.5</ele>
        <time>2016-05-19T12:56:50.828Z</time>
      </trkpt>
      <trkpt lat="46.85258" lon="-0.16507">
        <ele>99.4</ele>
        <time>2016-05-19T12:56:52.820Z</time>
      </trkpt>
      <trkpt lat="46.85255" lon="-0.16506">
        <ele>98.5</ele>
        <time>2016-05-19T12:56:54.832Z</time>
      </trkpt>
      <trkpt lat="46.85253" lon="-0.16506">
        <ele>98.7</ele>
        <time>2016-05-19T12:56:56.827Z</time>
      </trkpt>
      <trkpt lat="46.85251" lon="-0.16506">
        <ele>98.4</ele>
        <time>2016-05-19T12:56:58.820Z</time>
      </trkpt>
      <trkpt lat="46.85249" lon="-0.16505">
        <ele>96.7</ele>
        <time>2016-05-19T12:57:00.823Z</time>
      </trkpt>
      <trkpt lat="46.85246" lon="-0.16504">
        <ele>97.5</ele>
        <time>2016-05-19T12:57:02.822Z</time>
      </trkpt>
      <trkpt lat="46.85244" lon="-0.16504">
        <ele>97.5</ele>
        <time>2016-05-19T12:57:04.823Z</time>
      </trkpt>
      <trkpt lat="46.85242" lon="-0.16503">
        <ele>97.5</ele>
        <time>2016-05-19T12:57:06.826Z</time>
      </trkpt>
      <trkpt lat="46.85239" lon="-0.16503">
        <ele>97.8</ele>
        <time>2016-05-19T12:57:08.829Z</time>
      </trkpt>
      <trkpt lat="46.85237" lon="-0.16503">
        <ele>97.9</ele>
        <time>2016-05-19T12:57:10.826Z</time>
      </trkpt>
      <trkpt lat="46.85235" lon="-0.16503">
        <ele>97.7</ele>
        <time>2016-05-19T12:57:12.823Z</time>
      </trkpt>
      <trkpt lat="46.85233" lon="-0.16502">
        <ele>97.5</ele>
        <time>2016-05-19T12:57:14.832Z</time>
      </trkpt>
      <trkpt lat="46.85231" lon="-0.16502">
        <ele>97</ele>
        <time>2016-05-19T12:57:16.831Z</time>
      </trkpt>
      <trkpt lat="46.8523" lon="-0.16501">
        <ele>96.7</ele>
        <time>2016-05-19T12:57:18.828Z</time>
      </trkpt>
      <trkpt lat="46.85228" lon="-0.16501">
        <ele>96.6</ele>
        <time>2016-05-19T12:57:20.822Z</time>
      </trkpt>
      <trkpt lat="46.85226" lon="-0.165">
        <ele>96.3</ele>
        <time>2016-05-19T12:57:22.826Z</time>
      </trkpt>
      <trkpt lat="46.85224" lon="-0.16499">
        <ele>95.6</ele>
        <time>2016-05-19T12:57:24.828Z</time>
      </trkpt>
      <trkpt lat="46.85222" lon="-0.16499">
        <ele>95.7</ele>
        <time>2016-05-19T12:57:26.822Z</time>
      </trkpt>
      <trkpt lat="46.8522" lon="-0.16498">
        <ele>95.6</ele>
        <time>2016-05-19T12:57:28.836Z</time>
      </trkpt>
      <trkpt lat="46.85218" lon="-0.16497">
        <ele>95.6</ele>
        <time>2016-05-19T12:57:30.824Z</time>
      </trkpt>
      <trkpt lat="46.85215" lon="-0.16497">
        <ele>95.2</ele>
        <time>2016-05-19T12:57:32.809Z</time>
      </trkpt>
      <trkpt lat="46.85215" lon="-0.16497">
        <ele>95.3</ele>
        <time>2016-05-19T12:57:33.810Z</time>
      </trkpt>
      <trkpt lat="46.85212" lon="-0.16497">
        <ele>95.5</ele>
        <time>2016-05-19T12:57:35.834Z</time>
      </trkpt>
      <trkpt lat="46.85211" lon="-0.16496">
        <ele>95.4</ele>
        <time>2016-05-19T12:57:37.822Z</time>
      </trkpt>
      <trkpt lat="46.85209" lon="-0.16496">
        <ele>94.8</ele>
        <time>2016-05-19T12:57:39.821Z</time>
      </trkpt>
      <trkpt lat="46.85207" lon="-0.16496">
        <ele>94.2</ele>
        <time>2016-05-19T12:57:41.823Z</time>
      </trkpt>
      <trkpt lat="46.85205" lon="-0.16495">
        <ele>94.7</ele>
        <time>2016-05-19T12:57:43.824Z</time>
      </trkpt>
      <trkpt lat="46.85203" lon="-0.16495">
        <ele>94.3</ele>
        <time>2016-05-19T12:57:45.808Z</time>
      </trkpt>
      <trkpt lat="46.85202" lon="-0.16495">
        <ele>94.3</ele>
        <time>2016-05-19T12:57:46.810Z</time>
      </trkpt>
      <trkpt lat="46.85201" lon="-0.16494">
        <ele>93.7</ele>
        <time>2016-05-19T12:57:47.812Z</time>
      </trkpt>
      <trkpt lat="46.85199" lon="-0.16494">
        <ele>93.6</ele>
        <time>2016-05-19T12:57:48.810Z</time>
      </trkpt>
      <trkpt lat="46.85196" lon="-0.16493">
        <ele>94.2</ele>
        <time>2016-05-19T12:57:50.822Z</time>
      </trkpt>
      <trkpt lat="46.85195" lon="-0.16492">
        <ele>94.3</ele>
        <time>2016-05-19T12:57:51.822Z</time>
      </trkpt>
      <trkpt lat="46.85193" lon="-0.16491">
        <ele>95.4</ele>
        <time>2016-05-19T12:57:53.818Z</time>
      </trkpt>
      <trkpt lat="46.85191" lon="-0.16491">
        <ele>95.7</ele>
        <time>2016-05-19T12:57:55.806Z</time>
      </trkpt>
      <trkpt lat="46.8519" lon="-0.16491">
        <ele>95.9</ele>
        <time>2016-05-19T12:57:56.810Z</time>
      </trkpt>
      <trkpt lat="46.85189" lon="-0.1649">
        <ele>95.8</ele>
        <time>2016-05-19T12:57:57.813Z</time>
      </trkpt>
      <trkpt lat="46.85187" lon="-0.16489">
        <ele>96.9</ele>
        <time>2016-05-19T12:57:59.821Z</time>
      </trkpt>
      <trkpt lat="46.85185" lon="-0.16488">
        <ele>97</ele>
        <time>2016-05-19T12:58:01.823Z</time>
      </trkpt>
      <trkpt lat="46.85183" lon="-0.16487">
        <ele>97.8</ele>
        <time>2016-05-19T12:58:03.831Z</time>
      </trkpt>
      <trkpt lat="46.85181" lon="-0.16487">
        <ele>98.2</ele>
        <time>2016-05-19T12:58:05.808Z</time>
      </trkpt>
      <trkpt lat="46.8518" lon="-0.16487">
        <ele>98.3</ele>
        <time>2016-05-19T12:58:06.811Z</time>
      </trkpt>
      <trkpt lat="46.85177" lon="-0.16486">
        <ele>97.7</ele>
        <time>2016-05-19T12:58:08.826Z</time>
      </trkpt>
      <trkpt lat="46.85175" lon="-0.16487">
        <ele>97.8</ele>
        <time>2016-05-19T12:58:10.826Z</time>
      </trkpt>
      <trkpt lat="46.85173" lon="-0.16487">
        <ele>97.9</ele>
        <time>2016-05-19T12:58:12.823Z</time>
      </trkpt>
      <trkpt lat="46.85172" lon="-0.16486">
        <ele>98.4</ele>
        <time>2016-05-19T12:58:14.834Z</time>
      </trkpt>
      <trkpt lat="46.85169" lon="-0.16485">
        <ele>98.4</ele>
        <time>2016-05-19T12:58:16.827Z</time>
      </trkpt>
      <trkpt lat="46.85167" lon="-0.16485">
        <ele>98.4</ele>
        <time>2016-05-19T12:58:18.825Z</time>
      </trkpt>
      <trkpt lat="46.85164" lon="-0.16485">
        <ele>98.6</ele>
        <time>2016-05-19T12:58:20.832Z</time>
      </trkpt>
      <trkpt lat="46.85162" lon="-0.16485">
        <ele>98.5</ele>
        <time>2016-05-19T12:58:22.826Z</time>
      </trkpt>
      <trkpt lat="46.8516" lon="-0.16485">
        <ele>98.7</ele>
        <time>2016-05-19T12:58:24.826Z</time>
      </trkpt>
      <trkpt lat="46.85158" lon="-0.16485">
        <ele>98.6</ele>
        <time>2016-05-19T12:58:26.823Z</time>
      </trkpt>
      <trkpt lat="46.85156" lon="-0.16485">
        <ele>99</ele>
        <time>2016-05-19T12:58:28.822Z</time>
      </trkpt>
      <trkpt lat="46.85154" lon="-0.16485">
        <ele>99.6</ele>
        <time>2016-05-19T12:58:30.823Z</time>
      </trkpt>
      <trkpt lat="46.85152" lon="-0.16487">
        <ele>100</ele>
        <time>2016-05-19T12:58:32.828Z</time>
      </trkpt>
      <trkpt lat="46.8515" lon="-0.16488">
        <ele>99.8</ele>
        <time>2016-05-19T12:58:34.823Z</time>
      </trkpt>
      <trkpt lat="46.85148" lon="-0.16489">
        <ele>100</ele>
        <time>2016-05-19T12:58:36.812Z</time>
      </trkpt>
      <trkpt lat="46.85146" lon="-0.16489">
        <ele>100.4</ele>
        <time>2016-05-19T12:58:38.831Z</time>
      </trkpt>
      <trkpt lat="46.85145" lon="-0.1649">
        <ele>100.8</ele>
        <time>2016-05-19T12:58:40.829Z</time>
      </trkpt>
      <trkpt lat="46.85143" lon="-0.1649">
        <ele>100.5</ele>
        <time>2016-05-19T12:58:42.809Z</time>
      </trkpt>
      <trkpt lat="46.85143" lon="-0.16491">
        <ele>100.5</ele>
        <time>2016-05-19T12:58:43.810Z</time>
      </trkpt>
      <trkpt lat="46.85142" lon="-0.16491">
        <ele>100.7</ele>
        <time>2016-05-19T12:58:44.812Z</time>
      </trkpt>
      <trkpt lat="46.85141" lon="-0.16492">
        <ele>101</ele>
        <time>2016-05-19T12:58:45.812Z</time>
      </trkpt>
      <trkpt lat="46.85141" lon="-0.16492">
        <ele>102.2</ele>
        <time>2016-05-19T12:58:47.856Z</time>
      </trkpt>
      <trkpt lat="46.8514" lon="-0.16493">
        <ele>101.5</ele>
        <time>2016-05-19T12:58:49.823Z</time>
      </trkpt>
      <trkpt lat="46.85138" lon="-0.16493">
        <ele>101.3</ele>
        <time>2016-05-19T12:58:51.831Z</time>
      </trkpt>
      <trkpt lat="46.85138" lon="-0.16494">
        <ele>101.7</ele>
        <time>2016-05-19T12:58:53.821Z</time>
      </trkpt>
      <trkpt lat="46.85136" lon="-0.16495">
        <ele>102.1</ele>
        <time>2016-05-19T12:58:55.821Z</time>
      </trkpt>
      <trkpt lat="46.85134" lon="-0.16496">
        <ele>102.3</ele>
        <time>2016-05-19T12:58:57.822Z</time>
      </trkpt>
      <trkpt lat="46.85132" lon="-0.16496">
        <ele>102.5</ele>
        <time>2016-05-19T12:58:59.820Z</time>
      </trkpt>
      <trkpt lat="46.8513" lon="-0.16497">
        <ele>102.4</ele>
        <time>2016-05-19T12:59:01.823Z</time>
      </trkpt>
      <trkpt lat="46.85128" lon="-0.16498">
        <ele>102.4</ele>
        <time>2016-05-19T12:59:03.808Z</time>
      </trkpt>
      <trkpt lat="46.85126" lon="-0.16498">
        <ele>102.6</ele>
        <time>2016-05-19T12:59:04.811Z</time>
      </trkpt>
      <trkpt lat="46.85125" lon="-0.16499">
        <ele>102.8</ele>
        <time>2016-05-19T12:59:05.813Z</time>
      </trkpt>
      <trkpt lat="46.85123" lon="-0.165">
        <ele>102.9</ele>
        <time>2016-05-19T12:59:07.821Z</time>
      </trkpt>
      <trkpt lat="46.85121" lon="-0.165">
        <ele>103.3</ele>
        <time>2016-05-19T12:59:09.823Z</time>
      </trkpt>
      <trkpt lat="46.85119" lon="-0.165">
        <ele>103.1</ele>
        <time>2016-05-19T12:59:11.823Z</time>
      </trkpt>
      <trkpt lat="46.85116" lon="-0.16501">
        <ele>103.5</ele>
        <time>2016-05-19T12:59:13.825Z</time>
      </trkpt>
      <trkpt lat="46.85114" lon="-0.16502">
        <ele>103.1</ele>
        <time>2016-05-19T12:59:15.821Z</time>
      </trkpt>
      <trkpt lat="46.85113" lon="-0.16503">
        <ele>102.2</ele>
        <time>2016-05-19T12:59:17.806Z</time>
      </trkpt>
      <trkpt lat="46.85112" lon="-0.16503">
        <ele>102.1</ele>
        <time>2016-05-19T12:59:18.818Z</time>
      </trkpt>
      <trkpt lat="46.8511" lon="-0.16504">
        <ele>101.8</ele>
        <time>2016-05-19T12:59:20.826Z</time>
      </trkpt>
      <trkpt lat="46.85108" lon="-0.16504">
        <ele>101</ele>
        <time>2016-05-19T12:59:22.808Z</time>
      </trkpt>
      <trkpt lat="46.85108" lon="-0.16504">
        <ele>100.7</ele>
        <time>2016-05-19T12:59:23.812Z</time>
      </trkpt>
      <trkpt lat="46.85106" lon="-0.16503">
        <ele>100.2</ele>
        <time>2016-05-19T12:59:24.815Z</time>
      </trkpt>
      <trkpt lat="46.85105" lon="-0.16502">
        <ele>100</ele>
        <time>2016-05-19T12:59:26.821Z</time>
      </trkpt>
      <trkpt lat="46.85104" lon="-0.16499">
        <ele>99.6</ele>
        <time>2016-05-19T12:59:28.823Z</time>
      </trkpt>
      <trkpt lat="46.85103" lon="-0.16497">
        <ele>99.4</ele>
        <time>2016-05-19T12:59:30.826Z</time>
      </trkpt>
      <trkpt lat="46.85101" lon="-0.16495">
        <ele>99.6</ele>
        <time>2016-05-19T12:59:32.833Z</time>
      </trkpt>
      <trkpt lat="46.851" lon="-0.16493">
        <ele>99.9</ele>
        <time>2016-05-19T12:59:34.822Z</time>
      </trkpt>
      <trkpt lat="46.85099" lon="-0.16491">
        <ele>99.9</ele>
        <time>2016-05-19T12:59:36.808Z</time>
      </trkpt>
      <trkpt lat="46.85099" lon="-0.1649">
        <ele>99.8</ele>
        <time>2016-05-19T12:59:37.816Z</time>
      </trkpt>
      <trkpt lat="46.85098" lon="-0.16489">
        <ele>99.8</ele>
        <time>2016-05-19T12:59:38.810Z</time>
      </trkpt>
      <trkpt lat="46.85098" lon="-0.16487">
        <ele>99.9</ele>
        <time>2016-05-19T12:59:39.812Z</time>
      </trkpt>
      <trkpt lat="46.85097" lon="-0.16486">
        <ele>99.9</ele>
        <time>2016-05-19T12:59:40.839Z</time>
      </trkpt>
      <trkpt lat="46.85096" lon="-0.16483">
        <ele>99.2</ele>
        <time>2016-05-19T12:59:42.823Z</time>
      </trkpt>
      <trkpt lat="46.85095" lon="-0.1648">
        <ele>98.6</ele>
        <time>2016-05-19T12:59:44.824Z</time>
      </trkpt>
      <trkpt lat="46.85093" lon="-0.16478">
        <ele>98.2</ele>
        <time>2016-05-19T12:59:46.860Z</time>
      </trkpt>
      <trkpt lat="46.85092" lon="-0.16475">
        <ele>97.3</ele>
        <time>2016-05-19T12:59:48.830Z</time>
      </trkpt>
      <trkpt lat="46.85091" lon="-0.16472">
        <ele>97.2</ele>
        <time>2016-05-19T12:59:50.832Z</time>
      </trkpt>
      <trkpt lat="46.8509" lon="-0.16469">
        <ele>97.3</ele>
        <time>2016-05-19T12:59:52.822Z</time>
      </trkpt>
      <trkpt lat="46.8509" lon="-0.16468">
        <ele>97.3</ele>
        <time>2016-05-19T12:59:53.823Z</time>
      </trkpt>
      <trkpt lat="46.85088" lon="-0.16465">
        <ele>97</ele>
        <time>2016-05-19T12:59:55.827Z</time>
      </trkpt>
      <trkpt lat="46.85087" lon="-0.16463">
        <ele>97.1</ele>
        <time>2016-05-19T12:59:57.823Z</time>
      </trkpt>
      <trkpt lat="46.85086" lon="-0.1646">
        <ele>97.4</ele>
        <time>2016-05-19T12:59:59.821Z</time>
      </trkpt>
      <trkpt lat="46.85085" lon="-0.16457">
        <ele>97.7</ele>
        <time>2016-05-19T13:00:01.828Z</time>
      </trkpt>
      <trkpt lat="46.85083" lon="-0.16454">
        <ele>97.5</ele>
        <time>2016-05-19T13:00:03.823Z</time>
      </trkpt>
      <trkpt lat="46.85082" lon="-0.16451">
        <ele>97.7</ele>
        <time>2016-05-19T13:00:05.821Z</time>
      </trkpt>
      <trkpt lat="46.85081" lon="-0.16449">
        <ele>97.9</ele>
        <time>2016-05-19T13:00:07.821Z</time>
      </trkpt>
      <trkpt lat="46.8508" lon="-0.16446">
        <ele>98</ele>
        <time>2016-05-19T13:00:09.824Z</time>
      </trkpt>
      <trkpt lat="46.85079" lon="-0.16442">
        <ele>97.7</ele>
        <time>2016-05-19T13:00:11.824Z</time>
      </trkpt>
      <trkpt lat="46.85078" lon="-0.16439">
        <ele>97.1</ele>
        <time>2016-05-19T13:00:13.825Z</time>
      </trkpt>
      <trkpt lat="46.85077" lon="-0.16437">
        <ele>97.2</ele>
        <time>2016-05-19T13:00:15.831Z</time>
      </trkpt>
      <trkpt lat="46.85076" lon="-0.16434">
        <ele>97.5</ele>
        <time>2016-05-19T13:00:17.823Z</time>
      </trkpt>
      <trkpt lat="46.85075" lon="-0.16432">
        <ele>97.4</ele>
        <time>2016-05-19T13:00:19.828Z</time>
      </trkpt>
      <trkpt lat="46.85074" lon="-0.16429">
        <ele>97.2</ele>
        <time>2016-05-19T13:00:21.836Z</time>
      </trkpt>
      <trkpt lat="46.85072" lon="-0.16426">
        <ele>96.9</ele>
        <time>2016-05-19T13:00:23.827Z</time>
      </trkpt>
      <trkpt lat="46.85071" lon="-0.16424">
        <ele>96.4</ele>
        <time>2016-05-19T13:00:25.822Z</time>
      </trkpt>
      <trkpt lat="46.8507" lon="-0.1642">
        <ele>95.9</ele>
        <time>2016-05-19T13:00:27.826Z</time>
      </trkpt>
      <trkpt lat="46.85069" lon="-0.16418">
        <ele>95.7</ele>
        <time>2016-05-19T13:00:29.823Z</time>
      </trkpt>
      <trkpt lat="46.85068" lon="-0.16415">
        <ele>95.7</ele>
        <time>2016-05-19T13:00:31.829Z</time>
      </trkpt>
      <trkpt lat="46.85067" lon="-0.16411">
        <ele>96</ele>
        <time>2016-05-19T13:00:33.822Z</time>
      </trkpt>
      <trkpt lat="46.85066" lon="-0.16408">
        <ele>96.1</ele>
        <time>2016-05-19T13:00:35.821Z</time>
      </trkpt>
      <trkpt lat="46.85066" lon="-0.16405">
        <ele>96.1</ele>
        <time>2016-05-19T13:00:37.826Z</time>
      </trkpt>
      <trkpt lat="46.85064" lon="-0.16402">
        <ele>96.1</ele>
        <time>2016-05-19T13:00:39.825Z</time>
      </trkpt>
      <trkpt lat="46.85063" lon="-0.16399">
        <ele>96.3</ele>
        <time>2016-05-19T13:00:41.909Z</time>
      </trkpt>
      <trkpt lat="46.85063" lon="-0.16398">
        <ele>96.1</ele>
        <time>2016-05-19T13:00:42.817Z</time>
      </trkpt>
      <trkpt lat="46.85062" lon="-0.16396">
        <ele>96.3</ele>
        <time>2016-05-19T13:00:44.823Z</time>
      </trkpt>
      <trkpt lat="46.85061" lon="-0.16392">
        <ele>96.2</ele>
        <time>2016-05-19T13:00:46.823Z</time>
      </trkpt>
      <trkpt lat="46.8506" lon="-0.16389">
        <ele>96.6</ele>
        <time>2016-05-19T13:00:48.823Z</time>
      </trkpt>
      <trkpt lat="46.85059" lon="-0.16386">
        <ele>96.5</ele>
        <time>2016-05-19T13:00:50.833Z</time>
      </trkpt>
      <trkpt lat="46.85057" lon="-0.16384">
        <ele>96.3</ele>
        <time>2016-05-19T13:00:52.837Z</time>
      </trkpt>
      <trkpt lat="46.85056" lon="-0.16381">
        <ele>96.2</ele>
        <time>2016-05-19T13:00:54.831Z</time>
      </trkpt>
      <trkpt lat="46.85055" lon="-0.16378">
        <ele>95.8</ele>
        <time>2016-05-19T13:00:56.821Z</time>
      </trkpt>
      <trkpt lat="46.85054" lon="-0.16375">
        <ele>96</ele>
        <time>2016-05-19T13:00:58.820Z</time>
      </trkpt>
      <trkpt lat="46.85053" lon="-0.16372">
        <ele>96.5</ele>
        <time>2016-05-19T13:01:00.831Z</time>
      </trkpt>
      <trkpt lat="46.85052" lon="-0.16369">
        <ele>96.8</ele>
        <time>2016-05-19T13:01:02.823Z</time>
      </trkpt>
      <trkpt lat="46.85051" lon="-0.16366">
        <ele>96.9</ele>
        <time>2016-05-19T13:01:04.828Z</time>
      </trkpt>
      <trkpt lat="46.8505" lon="-0.16363">
        <ele>97.3</ele>
        <time>2016-05-19T13:01:06.828Z</time>
      </trkpt>
      <trkpt lat="46.85049" lon="-0.1636">
        <ele>97.2</ele>
        <time>2016-05-19T13:01:08.821Z</time>
      </trkpt>
      <trkpt lat="46.85048" lon="-0.16357">
        <ele>97.3</ele>
        <time>2016-05-19T13:01:10.831Z</time>
      </trkpt>
      <trkpt lat="46.85047" lon="-0.16353">
        <ele>97.3</ele>
        <time>2016-05-19T13:01:12.829Z</time>
      </trkpt>
      <trkpt lat="46.85045" lon="-0.1635">
        <ele>97.5</ele>
        <time>2016-05-19T13:01:14.822Z</time>
      </trkpt>
      <trkpt lat="46.85044" lon="-0.16347">
        <ele>97.8</ele>
        <time>2016-05-19T13:01:16.821Z</time>
      </trkpt>
      <trkpt lat="46.85043" lon="-0.16345">
        <ele>97.9</ele>
        <time>2016-05-19T13:01:18.829Z</time>
      </trkpt>
      <trkpt lat="46.85042" lon="-0.16341">
        <ele>98.5</ele>
        <time>2016-05-19T13:01:20.828Z</time>
      </trkpt>
      <trkpt lat="46.85041" lon="-0.16338">
        <ele>98.5</ele>
        <time>2016-05-19T13:01:22.826Z</time>
      </trkpt>
      <trkpt lat="46.8504" lon="-0.16335">
        <ele>98.9</ele>
        <time>2016-05-19T13:01:24.826Z</time>
      </trkpt>
      <trkpt lat="46.85039" lon="-0.16332">
        <ele>98.4</ele>
        <time>2016-05-19T13:01:26.824Z</time>
      </trkpt>
      <trkpt lat="46.85038" lon="-0.1633">
        <ele>98.6</ele>
        <time>2016-05-19T13:01:28.816Z</time>
      </trkpt>
      <trkpt lat="46.85037" lon="-0.16327">
        <ele>98.7</ele>
        <time>2016-05-19T13:01:30.826Z</time>
      </trkpt>
      <trkpt lat="46.85037" lon="-0.16324">
        <ele>99</ele>
        <time>2016-05-19T13:01:32.831Z</time>
      </trkpt>
      <trkpt lat="46.85036" lon="-0.16321">
        <ele>99.4</ele>
        <time>2016-05-19T13:01:34.821Z</time>
      </trkpt>
      <trkpt lat="46.85036" lon="-0.1632">
        <ele>100.5</ele>
        <time>2016-05-19T13:01:36.819Z</time>
      </trkpt>
      <trkpt lat="46.85036" lon="-0.16317">
        <ele>100.8</ele>
        <time>2016-05-19T13:01:38.832Z</time>
      </trkpt>
      <trkpt lat="46.85037" lon="-0.16314">
        <ele>101.1</ele>
        <time>2016-05-19T13:01:40.824Z</time>
      </trkpt>
      <trkpt lat="46.85037" lon="-0.16312">
        <ele>101.5</ele>
        <time>2016-05-19T13:01:42.840Z</time>
      </trkpt>
      <trkpt lat="46.85038" lon="-0.16309">
        <ele>101.9</ele>
        <time>2016-05-19T13:01:44.823Z</time>
      </trkpt>
      <trkpt lat="46.8504" lon="-0.16307">
        <ele>102.8</ele>
        <time>2016-05-19T13:01:46.822Z</time>
      </trkpt>
      <trkpt lat="46.85042" lon="-0.16305">
        <ele>103.8</ele>
        <time>2016-05-19T13:01:48.832Z</time>
      </trkpt>
      <trkpt lat="46.85043" lon="-0.16303">
        <ele>104.2</ele>
        <time>2016-05-19T13:01:50.822Z</time>
      </trkpt>
      <trkpt lat="46.85045" lon="-0.16301">
        <ele>104.4</ele>
        <time>2016-05-19T13:01:52.821Z</time>
      </trkpt>
      <trkpt lat="46.85047" lon="-0.16299">
        <ele>104.9</ele>
        <time>2016-05-19T13:01:54.824Z</time>
      </trkpt>
      <trkpt lat="46.85049" lon="-0.16297">
        <ele>104.6</ele>
        <time>2016-05-19T13:01:56.823Z</time>
      </trkpt>
      <trkpt lat="46.85051" lon="-0.16295">
        <ele>104.9</ele>
        <time>2016-05-19T13:01:58.823Z</time>
      </trkpt>
      <trkpt lat="46.85053" lon="-0.16294">
        <ele>104.8</ele>
        <time>2016-05-19T13:02:00.834Z</time>
      </trkpt>
      <trkpt lat="46.85055" lon="-0.16292">
        <ele>105.9</ele>
        <time>2016-05-19T13:02:02.812Z</time>
      </trkpt>
      <trkpt lat="46.85056" lon="-0.16291">
        <ele>106</ele>
        <time>2016-05-19T13:02:03.814Z</time>
      </trkpt>
      <trkpt lat="46.85057" lon="-0.16289">
        <ele>105.8</ele>
        <time>2016-05-19T13:02:05.822Z</time>
      </trkpt>
      <trkpt lat="46.85059" lon="-0.16287">
        <ele>104.7</ele>
        <time>2016-05-19T13:02:07.823Z</time>
      </trkpt>
      <trkpt lat="46.85061" lon="-0.16285">
        <ele>104.2</ele>
        <time>2016-05-19T13:02:09.821Z</time>
      </trkpt>
      <trkpt lat="46.85062" lon="-0.16283">
        <ele>102.8</ele>
        <time>2016-05-19T13:02:11.823Z</time>
      </trkpt>
      <trkpt lat="46.85064" lon="-0.16281">
        <ele>102.5</ele>
        <time>2016-05-19T13:02:13.822Z</time>
      </trkpt>
      <trkpt lat="46.85066" lon="-0.16279">
        <ele>102.2</ele>
        <time>2016-05-19T13:02:15.819Z</time>
      </trkpt>
      <trkpt lat="46.85068" lon="-0.16277">
        <ele>101.8</ele>
        <time>2016-05-19T13:02:17.821Z</time>
      </trkpt>
      <trkpt lat="46.8507" lon="-0.16275">
        <ele>101.6</ele>
        <time>2016-05-19T13:02:19.822Z</time>
      </trkpt>
      <trkpt lat="46.85072" lon="-0.16273">
        <ele>101.2</ele>
        <time>2016-05-19T13:02:21.823Z</time>
      </trkpt>
      <trkpt lat="46.85074" lon="-0.16271">
        <ele>101.6</ele>
        <time>2016-05-19T13:02:23.823Z</time>
      </trkpt>
      <trkpt lat="46.85075" lon="-0.16268">
        <ele>101.8</ele>
        <time>2016-05-19T13:02:25.824Z</time>
      </trkpt>
      <trkpt lat="46.85077" lon="-0.16266">
        <ele>101.6</ele>
        <time>2016-05-19T13:02:27.831Z</time>
      </trkpt>
      <trkpt lat="46.85079" lon="-0.16264">
        <ele>101.2</ele>
        <time>2016-05-19T13:02:29.824Z</time>
      </trkpt>
      <trkpt lat="46.85081" lon="-0.16262">
        <ele>101.5</ele>
        <time>2016-05-19T13:02:31.829Z</time>
      </trkpt>
      <trkpt lat="46.85083" lon="-0.1626">
        <ele>101.3</ele>
        <time>2016-05-19T13:02:33.822Z</time>
      </trkpt>
      <trkpt lat="46.85084" lon="-0.16258">
        <ele>101</ele>
        <time>2016-05-19T13:02:35.821Z</time>
      </trkpt>
      <trkpt lat="46.85086" lon="-0.16255">
        <ele>101.8</ele>
        <time>2016-05-19T13:02:37.823Z</time>
      </trkpt>
      <trkpt lat="46.85088" lon="-0.16253">
        <ele>101.4</ele>
        <time>2016-05-19T13:02:39.823Z</time>
      </trkpt>
      <trkpt lat="46.8509" lon="-0.16251">
        <ele>102.5</ele>
        <time>2016-05-19T13:02:41.818Z</time>
      </trkpt>
      <trkpt lat="46.85092" lon="-0.16249">
        <ele>103.6</ele>
        <time>2016-05-19T13:02:43.826Z</time>
      </trkpt>
      <trkpt lat="46.85094" lon="-0.16247">
        <ele>104.2</ele>
        <time>2016-05-19T13:02:45.806Z</time>
      </trkpt>
      <trkpt lat="46.85095" lon="-0.16245">
        <ele>104.3</ele>
        <time>2016-05-19T13:02:46.810Z</time>
      </trkpt>
      <trkpt lat="46.85097" lon="-0.16243">
        <ele>104.7</ele>
        <time>2016-05-19T13:02:48.808Z</time>
      </trkpt>
      <trkpt lat="46.85098" lon="-0.16241">
        <ele>103.9</ele>
        <time>2016-05-19T13:02:50.823Z</time>
      </trkpt>
      <trkpt lat="46.85099" lon="-0.16239">
        <ele>103.1</ele>
        <time>2016-05-19T13:02:52.824Z</time>
      </trkpt>
      <trkpt lat="46.85101" lon="-0.16237">
        <ele>102.7</ele>
        <time>2016-05-19T13:02:54.846Z</time>
      </trkpt>
      <trkpt lat="46.85103" lon="-0.16235">
        <ele>103.4</ele>
        <time>2016-05-19T13:02:56.822Z</time>
      </trkpt>
      <trkpt lat="46.85105" lon="-0.16233">
        <ele>103.9</ele>
        <time>2016-05-19T13:02:58.806Z</time>
      </trkpt>
      <trkpt lat="46.85106" lon="-0.16232">
        <ele>104.2</ele>
        <time>2016-05-19T13:02:59.811Z</time>
      </trkpt>
      <trkpt lat="46.85107" lon="-0.16231">
        <ele>104.1</ele>
        <time>2016-05-19T13:03:00.812Z</time>
      </trkpt>
      <trkpt lat="46.85109" lon="-0.1623">
        <ele>103.7</ele>
        <time>2016-05-19T13:03:02.828Z</time>
      </trkpt>
      <trkpt lat="46.8511" lon="-0.16228">
        <ele>103.4</ele>
        <time>2016-05-19T13:03:04.823Z</time>
      </trkpt>
      <trkpt lat="46.85111" lon="-0.16226">
        <ele>103.2</ele>
        <time>2016-05-19T13:03:06.824Z</time>
      </trkpt>
      <trkpt lat="46.85113" lon="-0.16224">
        <ele>102.9</ele>
        <time>2016-05-19T13:03:08.878Z</time>
      </trkpt>
      <trkpt lat="46.85115" lon="-0.16223">
        <ele>102</ele>
        <time>2016-05-19T13:03:10.826Z</time>
      </trkpt>
      <trkpt lat="46.85117" lon="-0.16221">
        <ele>101.7</ele>
        <time>2016-05-19T13:03:12.824Z</time>
      </trkpt>
      <trkpt lat="46.85119" lon="-0.16219">
        <ele>101.9</ele>
        <time>2016-05-19T13:03:14.821Z</time>
      </trkpt>
      <trkpt lat="46.8512" lon="-0.16218">
        <ele>102.2</ele>
        <time>2016-05-19T13:03:16.820Z</time>
      </trkpt>
      <trkpt lat="46.85122" lon="-0.16216">
        <ele>102.4</ele>
        <time>2016-05-19T13:03:18.823Z</time>
      </trkpt>
      <trkpt lat="46.85124" lon="-0.16214">
        <ele>102.2</ele>
        <time>2016-05-19T13:03:20.823Z</time>
      </trkpt>
      <trkpt lat="46.85126" lon="-0.16212">
        <ele>101.2</ele>
        <time>2016-05-19T13:03:22.826Z</time>
      </trkpt>
      <trkpt lat="46.85127" lon="-0.1621">
        <ele>101.4</ele>
        <time>2016-05-19T13:03:24.832Z</time>
      </trkpt>
      <trkpt lat="46.85129" lon="-0.16208">
        <ele>101.5</ele>
        <time>2016-05-19T13:03:26.821Z</time>
      </trkpt>
      <trkpt lat="46.85131" lon="-0.16206">
        <ele>101.3</ele>
        <time>2016-05-19T13:03:28.822Z</time>
      </trkpt>
      <trkpt lat="46.85133" lon="-0.16204">
        <ele>100.5</ele>
        <time>2016-05-19T13:03:30.829Z</time>
      </trkpt>
      <trkpt lat="46.85135" lon="-0.16201">
        <ele>100.4</ele>
        <time>2016-05-19T13:03:32.823Z</time>
      </trkpt>
      <trkpt lat="46.85136" lon="-0.16199">
        <ele>100.7</ele>
        <time>2016-05-19T13:03:34.823Z</time>
      </trkpt>
      <trkpt lat="46.85138" lon="-0.16197">
        <ele>100.2</ele>
        <time>2016-05-19T13:03:36.827Z</time>
      </trkpt>
      <trkpt lat="46.8514" lon="-0.16195">
        <ele>100.6</ele>
        <time>2016-05-19T13:03:38.824Z</time>
      </trkpt>
      <trkpt lat="46.85142" lon="-0.16193">
        <ele>100.8</ele>
        <time>2016-05-19T13:03:40.823Z</time>
      </trkpt>
      <trkpt lat="46.85144" lon="-0.16191">
        <ele>100.7</ele>
        <time>2016-05-19T13:03:42.826Z</time>
      </trkpt>
      <trkpt lat="46.85146" lon="-0.16189">
        <ele>101.1</ele>
        <time>2016-05-19T13:03:44.825Z</time>
      </trkpt>
      <trkpt lat="46.85148" lon="-0.16187">
        <ele>101.2</ele>
        <time>2016-05-19T13:03:46.829Z</time>
      </trkpt>
      <trkpt lat="46.8515" lon="-0.16185">
        <ele>101.6</ele>
        <time>2016-05-19T13:03:48.834Z</time>
      </trkpt>
      <trkpt lat="46.85152" lon="-0.16184">
        <ele>101.9</ele>
        <time>2016-05-19T13:03:50.833Z</time>
      </trkpt>
      <trkpt lat="46.85153" lon="-0.16182">
        <ele>102</ele>
        <time>2016-05-19T13:03:52.824Z</time>
      </trkpt>
      <trkpt lat="46.85155" lon="-0.1618">
        <ele>101.8</ele>
        <time>2016-05-19T13:03:54.833Z</time>
      </trkpt>
      <trkpt lat="46.85157" lon="-0.16178">
        <ele>101.2</ele>
        <time>2016-05-19T13:03:56.823Z</time>
      </trkpt>
      <trkpt lat="46.85158" lon="-0.16176">
        <ele>100.6</ele>
        <time>2016-05-19T13:03:58.832Z</time>
      </trkpt>
      <trkpt lat="46.8516" lon="-0.16174">
        <ele>100.3</ele>
        <time>2016-05-19T13:04:00.822Z</time>
      </trkpt>
      <trkpt lat="46.85161" lon="-0.16171">
        <ele>100.6</ele>
        <time>2016-05-19T13:04:02.811Z</time>
      </trkpt>
      <trkpt lat="46.85162" lon="-0.1617">
        <ele>100.5</ele>
        <time>2016-05-19T13:04:03.821Z</time>
      </trkpt>
      <trkpt lat="46.85164" lon="-0.16168">
        <ele>100.3</ele>
        <time>2016-05-19T13:04:05.825Z</time>
      </trkpt>
      <trkpt lat="46.85165" lon="-0.16166">
        <ele>99.9</ele>
        <time>2016-05-19T13:04:07.822Z</time>
      </trkpt>
      <trkpt lat="46.85167" lon="-0.16164">
        <ele>99.8</ele>
        <time>2016-05-19T13:04:09.821Z</time>
      </trkpt>
      <trkpt lat="46.85169" lon="-0.16162">
        <ele>99.8</ele>
        <time>2016-05-19T13:04:11.824Z</time>
      </trkpt>
      <trkpt lat="46.85171" lon="-0.1616">
        <ele>99.7</ele>
        <time>2016-05-19T13:04:13.832Z</time>
      </trkpt>
      <trkpt lat="46.85173" lon="-0.16158">
        <ele>99.1</ele>
        <time>2016-05-19T13:04:15.823Z</time>
      </trkpt>
      <trkpt lat="46.85175" lon="-0.16156">
        <ele>98.3</ele>
        <time>2016-05-19T13:04:17.823Z</time>
      </trkpt>
      <trkpt lat="46.85177" lon="-0.16154">
        <ele>97.5</ele>
        <time>2016-05-19T13:04:19.805Z</time>
      </trkpt>
      <trkpt lat="46.85178" lon="-0.16153">
        <ele>97.2</ele>
        <time>2016-05-19T13:04:20.809Z</time>
      </trkpt>
      <trkpt lat="46.85178" lon="-0.16152">
        <ele>97.3</ele>
        <time>2016-05-19T13:04:21.817Z</time>
      </trkpt>
      <trkpt lat="46.85179" lon="-0.16151">
        <ele>97.6</ele>
        <time>2016-05-19T13:04:22.814Z</time>
      </trkpt>
      <trkpt lat="46.85181" lon="-0.1615">
        <ele>98.9</ele>
        <time>2016-05-19T13:04:24.830Z</time>
      </trkpt>
      <trkpt lat="46.85183" lon="-0.16148">
        <ele>100</ele>
        <time>2016-05-19T13:04:26.822Z</time>
      </trkpt>
      <trkpt lat="46.85184" lon="-0.16146">
        <ele>100.8</ele>
        <time>2016-05-19T13:04:28.820Z</time>
      </trkpt>
      <trkpt lat="46.85186" lon="-0.16144">
        <ele>100.7</ele>
        <time>2016-05-19T13:04:30.830Z</time>
      </trkpt>
      <trkpt lat="46.85188" lon="-0.16142">
        <ele>99.9</ele>
        <time>2016-05-19T13:04:32.824Z</time>
      </trkpt>
      <trkpt lat="46.85189" lon="-0.1614">
        <ele>100.7</ele>
        <time>2016-05-19T13:04:34.831Z</time>
      </trkpt>
      <trkpt lat="46.85191" lon="-0.16138">
        <ele>100.6</ele>
        <time>2016-05-19T13:04:36.838Z</time>
      </trkpt>
      <trkpt lat="46.85193" lon="-0.16136">
        <ele>101</ele>
        <time>2016-05-19T13:04:38.829Z</time>
      </trkpt>
      <trkpt lat="46.85194" lon="-0.16134">
        <ele>101</ele>
        <time>2016-05-19T13:04:40.824Z</time>
      </trkpt>
      <trkpt lat="46.85196" lon="-0.16132">
        <ele>99.8</ele>
        <time>2016-05-19T13:04:42.823Z</time>
      </trkpt>
      <trkpt lat="46.85197" lon="-0.1613">
        <ele>100</ele>
        <time>2016-05-19T13:04:44.831Z</time>
      </trkpt>
      <trkpt lat="46.85199" lon="-0.16128">
        <ele>99.5</ele>
        <time>2016-05-19T13:04:46.822Z</time>
      </trkpt>
      <trkpt lat="46.85201" lon="-0.16126">
        <ele>98.2</ele>
        <time>2016-05-19T13:04:48.807Z</time>
      </trkpt>
      <trkpt lat="46.85202" lon="-0.16124">
        <ele>98.4</ele>
        <time>2016-05-19T13:04:50.838Z</time>
      </trkpt>
      <trkpt lat="46.85204" lon="-0.16123">
        <ele>98.6</ele>
        <time>2016-05-19T13:04:52.824Z</time>
      </trkpt>
      <trkpt lat="46.85206" lon="-0.16121">
        <ele>98.5</ele>
        <time>2016-05-19T13:04:54.833Z</time>
      </trkpt>
      <trkpt lat="46.85207" lon="-0.16119">
        <ele>98.8</ele>
        <time>2016-05-19T13:04:56.828Z</time>
      </trkpt>
      <trkpt lat="46.85209" lon="-0.16117">
        <ele>99.1</ele>
        <time>2016-05-19T13:04:58.821Z</time>
      </trkpt>
      <trkpt lat="46.8521" lon="-0.16115">
        <ele>99.3</ele>
        <time>2016-05-19T13:05:00.828Z</time>
      </trkpt>
      <trkpt lat="46.85212" lon="-0.16113">
        <ele>99.2</ele>
        <time>2016-05-19T13:05:02.829Z</time>
      </trkpt>
      <trkpt lat="46.85214" lon="-0.16111">
        <ele>99.3</ele>
        <time>2016-05-19T13:05:04.825Z</time>
      </trkpt>
      <trkpt lat="46.85215" lon="-0.16109">
        <ele>99.1</ele>
        <time>2016-05-19T13:05:06.823Z</time>
      </trkpt>
      <trkpt lat="46.85217" lon="-0.16107">
        <ele>99</ele>
        <time>2016-05-19T13:05:08.823Z</time>
      </trkpt>
      <trkpt lat="46.85219" lon="-0.16104">
        <ele>99</ele>
        <time>2016-05-19T13:05:10.823Z</time>
      </trkpt>
      <trkpt lat="46.85221" lon="-0.16102">
        <ele>98.4</ele>
        <time>2016-05-19T13:05:12.823Z</time>
      </trkpt>
      <trkpt lat="46.85223" lon="-0.161">
        <ele>98.1</ele>
        <time>2016-05-19T13:05:14.822Z</time>
      </trkpt>
      <trkpt lat="46.85225" lon="-0.16098">
        <ele>98.4</ele>
        <time>2016-05-19T13:05:16.825Z</time>
      </trkpt>
      <trkpt lat="46.85226" lon="-0.16096">
        <ele>99.1</ele>
        <time>2016-05-19T13:05:18.831Z</time>
      </trkpt>
      <trkpt lat="46.85226" lon="-0.16094">
        <ele>98.6</ele>
        <time>2016-05-19T13:05:20.824Z</time>
      </trkpt>
      <trkpt lat="46.85228" lon="-0.16093">
        <ele>97.6</ele>
        <time>2016-05-19T13:05:22.821Z</time>
      </trkpt>
      <trkpt lat="46.8523" lon="-0.16092">
        <ele>97.8</ele>
        <time>2016-05-19T13:05:24.823Z</time>
      </trkpt>
      <trkpt lat="46.85231" lon="-0.16091">
        <ele>97.4</ele>
        <time>2016-05-19T13:05:26.820Z</time>
      </trkpt>
      <trkpt lat="46.85233" lon="-0.16089">
        <ele>97.3</ele>
        <time>2016-05-19T13:05:28.823Z</time>
      </trkpt>
      <trkpt lat="46.85235" lon="-0.16087">
        <ele>96.9</ele>
        <time>2016-05-19T13:05:30.837Z</time>
      </trkpt>
      <trkpt lat="46.85237" lon="-0.16085">
        <ele>97.3</ele>
        <time>2016-05-19T13:05:32.830Z</time>
      </trkpt>
      <trkpt lat="46.85239" lon="-0.16083">
        <ele>97.8</ele>
        <time>2016-05-19T13:05:34.820Z</time>
      </trkpt>
      <trkpt lat="46.85241" lon="-0.16081">
        <ele>99</ele>
        <time>2016-05-19T13:05:36.822Z</time>
      </trkpt>
      <trkpt lat="46.85243" lon="-0.16079">
        <ele>99.2</ele>
        <time>2016-05-19T13:05:38.812Z</time>
      </trkpt>
      <trkpt lat="46.85244" lon="-0.16078">
        <ele>99.2</ele>
        <time>2016-05-19T13:05:39.808Z</time>
      </trkpt>
      <trkpt lat="46.85245" lon="-0.16077">
        <ele>99.1</ele>
        <time>2016-05-19T13:05:40.812Z</time>
      </trkpt>
      <trkpt lat="46.85247" lon="-0.16075">
        <ele>99.4</ele>
        <time>2016-05-19T13:05:42.822Z</time>
      </trkpt>
      <trkpt lat="46.85249" lon="-0.16073">
        <ele>99.4</ele>
        <time>2016-05-19T13:05:44.834Z</time>
      </trkpt>
      <trkpt lat="46.85251" lon="-0.16071">
        <ele>99.6</ele>
        <time>2016-05-19T13:05:46.824Z</time>
      </trkpt>
      <trkpt lat="46.85253" lon="-0.16069">
        <ele>100.3</ele>
        <time>2016-05-19T13:05:48.824Z</time>
      </trkpt>
      <trkpt lat="46.85255" lon="-0.16067">
        <ele>99.7</ele>
        <time>2016-05-19T13:05:50.824Z</time>
      </trkpt>
      <trkpt lat="46.85256" lon="-0.16064">
        <ele>100.5</ele>
        <time>2016-05-19T13:05:52.820Z</time>
      </trkpt>
      <trkpt lat="46.85258" lon="-0.16061">
        <ele>100.6</ele>
        <time>2016-05-19T13:05:54.825Z</time>
      </trkpt>
      <trkpt lat="46.85259" lon="-0.16059">
        <ele>100.7</ele>
        <time>2016-05-19T13:05:56.824Z</time>
      </trkpt>
      <trkpt lat="46.85261" lon="-0.16057">
        <ele>101.1</ele>
        <time>2016-05-19T13:05:58.824Z</time>
      </trkpt>
      <trkpt lat="46.85263" lon="-0.16055">
        <ele>101.7</ele>
        <time>2016-05-19T13:06:00.828Z</time>
      </trkpt>
      <trkpt lat="46.85264" lon="-0.16053">
        <ele>102.6</ele>
        <time>2016-05-19T13:06:02.824Z</time>
      </trkpt>
      <trkpt lat="46.85265" lon="-0.16051">
        <ele>103</ele>
        <time>2016-05-19T13:06:04.825Z</time>
      </trkpt>
      <trkpt lat="46.85267" lon="-0.16049">
        <ele>103.8</ele>
        <time>2016-05-19T13:06:06.824Z</time>
      </trkpt>
      <trkpt lat="46.85269" lon="-0.16047">
        <ele>103.9</ele>
        <time>2016-05-19T13:06:08.823Z</time>
      </trkpt>
      <trkpt lat="46.85271" lon="-0.16045">
        <ele>104.3</ele>
        <time>2016-05-19T13:06:10.808Z</time>
      </trkpt>
      <trkpt lat="46.85272" lon="-0.16044">
        <ele>104.5</ele>
        <time>2016-05-19T13:06:11.814Z</time>
      </trkpt>
      <trkpt lat="46.85274" lon="-0.16042">
        <ele>103.4</ele>
        <time>2016-05-19T13:06:13.820Z</time>
      </trkpt>
      <trkpt lat="46.85276" lon="-0.1604">
        <ele>103.3</ele>
        <time>2016-05-19T13:06:15.823Z</time>
      </trkpt>
      <trkpt lat="46.85278" lon="-0.16038">
        <ele>102.2</ele>
        <time>2016-05-19T13:06:17.822Z</time>
      </trkpt>
      <trkpt lat="46.8528" lon="-0.16036">
        <ele>101.4</ele>
        <time>2016-05-19T13:06:19.821Z</time>
      </trkpt>
      <trkpt lat="46.85281" lon="-0.16033">
        <ele>100.8</ele>
        <time>2016-05-19T13:06:21.821Z</time>
      </trkpt>
      <trkpt lat="46.85283" lon="-0.16031">
        <ele>100.7</ele>
        <time>2016-05-19T13:06:23.822Z</time>
      </trkpt>
      <trkpt lat="46.85285" lon="-0.16029">
        <ele>101.1</ele>
        <time>2016-05-19T13:06:25.808Z</time>
      </trkpt>
      <trkpt lat="46.85286" lon="-0.16028">
        <ele>101.9</ele>
        <time>2016-05-19T13:06:26.811Z</time>
      </trkpt>
      <trkpt lat="46.85288" lon="-0.16026">
        <ele>101.9</ele>
        <time>2016-05-19T13:06:28.824Z</time>
      </trkpt>
      <trkpt lat="46.85289" lon="-0.16024">
        <ele>101</ele>
        <time>2016-05-19T13:06:30.811Z</time>
      </trkpt>
      <trkpt lat="46.8529" lon="-0.16023">
        <ele>101.2</ele>
        <time>2016-05-19T13:06:31.810Z</time>
      </trkpt>
      <trkpt lat="46.85291" lon="-0.16022">
        <ele>101.8</ele>
        <time>2016-05-19T13:06:32.812Z</time>
      </trkpt>
      <trkpt lat="46.85292" lon="-0.16021">
        <ele>101.6</ele>
        <time>2016-05-19T13:06:33.818Z</time>
      </trkpt>
      <trkpt lat="46.85293" lon="-0.1602">
        <ele>101.6</ele>
        <time>2016-05-19T13:06:34.824Z</time>
      </trkpt>
      <trkpt lat="46.85295" lon="-0.16017">
        <ele>102</ele>
        <time>2016-05-19T13:06:36.823Z</time>
      </trkpt>
      <trkpt lat="46.85297" lon="-0.16015">
        <ele>102.1</ele>
        <time>2016-05-19T13:06:38.823Z</time>
      </trkpt>
      <trkpt lat="46.85298" lon="-0.16013">
        <ele>102.6</ele>
        <time>2016-05-19T13:06:40.870Z</time>
      </trkpt>
      <trkpt lat="46.853" lon="-0.16011">
        <ele>102.8</ele>
        <time>2016-05-19T13:06:42.811Z</time>
      </trkpt>
      <trkpt lat="46.85302" lon="-0.16009">
        <ele>102.9</ele>
        <time>2016-05-19T13:06:44.826Z</time>
      </trkpt>
      <trkpt lat="46.85304" lon="-0.16007">
        <ele>103</ele>
        <time>2016-05-19T13:06:46.820Z</time>
      </trkpt>
      <trkpt lat="46.85306" lon="-0.16005">
        <ele>102.7</ele>
        <time>2016-05-19T13:06:48.831Z</time>
      </trkpt>
      <trkpt lat="46.85308" lon="-0.16003">
        <ele>102.1</ele>
        <time>2016-05-19T13:06:50.824Z</time>
      </trkpt>
      <trkpt lat="46.8531" lon="-0.16002">
        <ele>101.5</ele>
        <time>2016-05-19T13:06:52.824Z</time>
      </trkpt>
      <trkpt lat="46.85312" lon="-0.16">
        <ele>99.9</ele>
        <time>2016-05-19T13:06:54.841Z</time>
      </trkpt>
      <trkpt lat="46.85313" lon="-0.15998">
        <ele>99.3</ele>
        <time>2016-05-19T13:06:56.832Z</time>
      </trkpt>
      <trkpt lat="46.85314" lon="-0.15996">
        <ele>97.9</ele>
        <time>2016-05-19T13:06:58.827Z</time>
      </trkpt>
      <trkpt lat="46.85316" lon="-0.15994">
        <ele>97.5</ele>
        <time>2016-05-19T13:07:00.833Z</time>
      </trkpt>
      <trkpt lat="46.85317" lon="-0.15992">
        <ele>97.4</ele>
        <time>2016-05-19T13:07:02.822Z</time>
      </trkpt>
      <trkpt lat="46.85318" lon="-0.15989">
        <ele>96.2</ele>
        <time>2016-05-19T13:07:04.822Z</time>
      </trkpt>
      <trkpt lat="46.8532" lon="-0.15987">
        <ele>96.8</ele>
        <time>2016-05-19T13:07:06.824Z</time>
      </trkpt>
      <trkpt lat="46.8532" lon="-0.15984">
        <ele>98.6</ele>
        <time>2016-05-19T13:07:08.831Z</time>
      </trkpt>
      <trkpt lat="46.8532" lon="-0.15982">
        <ele>98.7</ele>
        <time>2016-05-19T13:07:10.825Z</time>
      </trkpt>
      <trkpt lat="46.8532" lon="-0.15979">
        <ele>97.7</ele>
        <time>2016-05-19T13:07:12.831Z</time>
      </trkpt>
      <trkpt lat="46.85319" lon="-0.15976">
        <ele>96.1</ele>
        <time>2016-05-19T13:07:14.827Z</time>
      </trkpt>
      <trkpt lat="46.85318" lon="-0.15973">
        <ele>95.7</ele>
        <time>2016-05-19T13:07:16.869Z</time>
      </trkpt>
      <trkpt lat="46.85317" lon="-0.1597">
        <ele>95.2</ele>
        <time>2016-05-19T13:07:18.827Z</time>
      </trkpt>
      <trkpt lat="46.85315" lon="-0.15967">
        <ele>94.6</ele>
        <time>2016-05-19T13:07:20.831Z</time>
      </trkpt>
      <trkpt lat="46.85313" lon="-0.15964">
        <ele>94.4</ele>
        <time>2016-05-19T13:07:22.823Z</time>
      </trkpt>
      <trkpt lat="46.85311" lon="-0.15962">
        <ele>94.6</ele>
        <time>2016-05-19T13:07:24.824Z</time>
      </trkpt>
      <trkpt lat="46.85309" lon="-0.15959">
        <ele>94.4</ele>
        <time>2016-05-19T13:07:26.826Z</time>
      </trkpt>
      <trkpt lat="46.85307" lon="-0.15957">
        <ele>94.4</ele>
        <time>2016-05-19T13:07:28.829Z</time>
      </trkpt>
      <trkpt lat="46.85305" lon="-0.15956">
        <ele>94.9</ele>
        <time>2016-05-19T13:07:30.824Z</time>
      </trkpt>
      <trkpt lat="46.85304" lon="-0.15956">
        <ele>94.6</ele>
        <time>2016-05-19T13:07:32.831Z</time>
      </trkpt>
      <trkpt lat="46.85302" lon="-0.15955">
        <ele>94.6</ele>
        <time>2016-05-19T13:07:34.823Z</time>
      </trkpt>
      <trkpt lat="46.85301" lon="-0.15953">
        <ele>94.9</ele>
        <time>2016-05-19T13:07:36.823Z</time>
      </trkpt>
      <trkpt lat="46.853" lon="-0.15951">
        <ele>95</ele>
        <time>2016-05-19T13:07:38.819Z</time>
      </trkpt>
      <trkpt lat="46.85299" lon="-0.15949">
        <ele>94.8</ele>
        <time>2016-05-19T13:07:40.825Z</time>
      </trkpt>
      <trkpt lat="46.85297" lon="-0.15947">
        <ele>94.7</ele>
        <time>2016-05-19T13:07:42.822Z</time>
      </trkpt>
      <trkpt lat="46.85295" lon="-0.15945">
        <ele>94</ele>
        <time>2016-05-19T13:07:44.823Z</time>
      </trkpt>
      <trkpt lat="46.85294" lon="-0.15943">
        <ele>94.1</ele>
        <time>2016-05-19T13:07:46.820Z</time>
      </trkpt>
      <trkpt lat="46.85292" lon="-0.15939">
        <ele>94.7</ele>
        <time>2016-05-19T13:07:48.825Z</time>
      </trkpt>
      <trkpt lat="46.85292" lon="-0.15936">
        <ele>94.8</ele>
        <time>2016-05-19T13:07:50.824Z</time>
      </trkpt>
      <trkpt lat="46.85291" lon="-0.15933">
        <ele>94.8</ele>
        <time>2016-05-19T13:07:52.829Z</time>
      </trkpt>
      <trkpt lat="46.85289" lon="-0.15931">
        <ele>94.8</ele>
        <time>2016-05-19T13:07:54.830Z</time>
      </trkpt>
      <trkpt lat="46.85288" lon="-0.15928">
        <ele>94.9</ele>
        <time>2016-05-19T13:07:56.828Z</time>
      </trkpt>
      <trkpt lat="46.85286" lon="-0.15925">
        <ele>94.9</ele>
        <time>2016-05-19T13:07:58.823Z</time>
      </trkpt>
      <trkpt lat="46.85285" lon="-0.15923">
        <ele>94.6</ele>
        <time>2016-05-19T13:08:00.835Z</time>
      </trkpt>
      <trkpt lat="46.85284" lon="-0.1592">
        <ele>94.6</ele>
        <time>2016-05-19T13:08:02.824Z</time>
      </trkpt>
      <trkpt lat="46.85283" lon="-0.15917">
        <ele>94.5</ele>
        <time>2016-05-19T13:08:04.824Z</time>
      </trkpt>
      <trkpt lat="46.85281" lon="-0.15914">
        <ele>94.4</ele>
        <time>2016-05-19T13:08:06.827Z</time>
      </trkpt>
      <trkpt lat="46.8528" lon="-0.15911">
        <ele>94.6</ele>
        <time>2016-05-19T13:08:08.823Z</time>
      </trkpt>
      <trkpt lat="46.85279" lon="-0.15908">
        <ele>94.3</ele>
        <time>2016-05-19T13:08:10.824Z</time>
      </trkpt>
      <trkpt lat="46.85277" lon="-0.15905">
        <ele>93.8</ele>
        <time>2016-05-19T13:08:12.828Z</time>
      </trkpt>
      <trkpt lat="46.85276" lon="-0.15902">
        <ele>93.9</ele>
        <time>2016-05-19T13:08:14.824Z</time>
      </trkpt>
      <trkpt lat="46.85276" lon="-0.15901">
        <ele>94.1</ele>
        <time>2016-05-19T13:08:15.834Z</time>
      </trkpt>
      <trkpt lat="46.85275" lon="-0.15898">
        <ele>95</ele>
        <time>2016-05-19T13:08:17.820Z</time>
      </trkpt>
      <trkpt lat="46.85274" lon="-0.15895">
        <ele>94.9</ele>
        <time>2016-05-19T13:08:19.822Z</time>
      </trkpt>
      <trkpt lat="46.85273" lon="-0.15891">
        <ele>94.8</ele>
        <time>2016-05-19T13:08:21.823Z</time>
      </trkpt>
      <trkpt lat="46.85272" lon="-0.15888">
        <ele>94.8</ele>
        <time>2016-05-19T13:08:23.823Z</time>
      </trkpt>
      <trkpt lat="46.8527" lon="-0.15884">
        <ele>94.9</ele>
        <time>2016-05-19T13:08:25.824Z</time>
      </trkpt>
      <trkpt lat="46.85269" lon="-0.15881">
        <ele>94.9</ele>
        <time>2016-05-19T13:08:27.822Z</time>
      </trkpt>
      <trkpt lat="46.85269" lon="-0.15877">
        <ele>95.6</ele>
        <time>2016-05-19T13:08:29.823Z</time>
      </trkpt>
      <trkpt lat="46.85268" lon="-0.15874">
        <ele>95.7</ele>
        <time>2016-05-19T13:08:31.825Z</time>
      </trkpt>
      <trkpt lat="46.85267" lon="-0.1587">
        <ele>95.5</ele>
        <time>2016-05-19T13:08:33.822Z</time>
      </trkpt>
      <trkpt lat="46.85267" lon="-0.15868">
        <ele>95.5</ele>
        <time>2016-05-19T13:08:35.854Z</time>
      </trkpt>
      <trkpt lat="46.85265" lon="-0.15866">
        <ele>95.1</ele>
        <time>2016-05-19T13:08:37.823Z</time>
      </trkpt>
      <trkpt lat="46.85264" lon="-0.15863">
        <ele>94.4</ele>
        <time>2016-05-19T13:08:39.827Z</time>
      </trkpt>
      <trkpt lat="46.85263" lon="-0.1586">
        <ele>94.5</ele>
        <time>2016-05-19T13:08:41.820Z</time>
      </trkpt>
      <trkpt lat="46.85262" lon="-0.15856">
        <ele>94.6</ele>
        <time>2016-05-19T13:08:43.823Z</time>
      </trkpt>
      <trkpt lat="46.85261" lon="-0.15853">
        <ele>94.2</ele>
        <time>2016-05-19T13:08:45.826Z</time>
      </trkpt>
      <trkpt lat="46.8526" lon="-0.1585">
        <ele>93.2</ele>
        <time>2016-05-19T13:08:47.824Z</time>
      </trkpt>
      <trkpt lat="46.85258" lon="-0.15846">
        <ele>92.4</ele>
        <time>2016-05-19T13:08:49.830Z</time>
      </trkpt>
      <trkpt lat="46.85257" lon="-0.15844">
        <ele>92</ele>
        <time>2016-05-19T13:08:51.823Z</time>
      </trkpt>
      <trkpt lat="46.85255" lon="-0.15841">
        <ele>91.6</ele>
        <time>2016-05-19T13:08:53.823Z</time>
      </trkpt>
      <trkpt lat="46.85254" lon="-0.15839">
        <ele>91.5</ele>
        <time>2016-05-19T13:08:55.830Z</time>
      </trkpt>
      <trkpt lat="46.85254" lon="-0.15836">
        <ele>92</ele>
        <time>2016-05-19T13:08:57.822Z</time>
      </trkpt>
      <trkpt lat="46.85252" lon="-0.15835">
        <ele>92.2</ele>
        <time>2016-05-19T13:08:59.828Z</time>
      </trkpt>
      <trkpt lat="46.85252" lon="-0.15833">
        <ele>93.1</ele>
        <time>2016-05-19T13:09:01.806Z</time>
      </trkpt>
      <trkpt lat="46.85251" lon="-0.15831">
        <ele>93.5</ele>
        <time>2016-05-19T13:09:02.810Z</time>
      </trkpt>
      <trkpt lat="46.85251" lon="-0.15829">
        <ele>94.6</ele>
        <time>2016-05-19T13:09:04.822Z</time>
      </trkpt>
      <trkpt lat="46.8525" lon="-0.15826">
        <ele>93.9</ele>
        <time>2016-05-19T13:09:06.829Z</time>
      </trkpt>
      <trkpt lat="46.85249" lon="-0.15824">
        <ele>93.8</ele>
        <time>2016-05-19T13:09:08.822Z</time>
      </trkpt>
      <trkpt lat="46.85248" lon="-0.15822">
        <ele>93.6</ele>
        <time>2016-05-19T13:09:10.832Z</time>
      </trkpt>
      <trkpt lat="46.85247" lon="-0.15821">
        <ele>93.5</ele>
        <time>2016-05-19T13:09:12.831Z</time>
      </trkpt>
      <trkpt lat="46.85246" lon="-0.15819">
        <ele>92.9</ele>
        <time>2016-05-19T13:09:14.825Z</time>
      </trkpt>
      <trkpt lat="46.85244" lon="-0.15816">
        <ele>92.4</ele>
        <time>2016-05-19T13:09:16.810Z</time>
      </trkpt>
      <trkpt lat="46.85244" lon="-0.15814">
        <ele>92.7</ele>
        <time>2016-05-19T13:09:17.811Z</time>
      </trkpt>
      <trkpt lat="46.85244" lon="-0.15813">
        <ele>93.1</ele>
        <time>2016-05-19T13:09:18.815Z</time>
      </trkpt>
      <trkpt lat="46.85243" lon="-0.15811">
        <ele>93.3</ele>
        <time>2016-05-19T13:09:19.814Z</time>
      </trkpt>
      <trkpt lat="46.85242" lon="-0.15809">
        <ele>93.1</ele>
        <time>2016-05-19T13:09:21.820Z</time>
      </trkpt>
      <trkpt lat="46.85241" lon="-0.15806">
        <ele>93.3</ele>
        <time>2016-05-19T13:09:23.822Z</time>
      </trkpt>
      <trkpt lat="46.8524" lon="-0.15803">
        <ele>95.1</ele>
        <time>2016-05-19T13:09:25.823Z</time>
      </trkpt>
      <trkpt lat="46.85239" lon="-0.158">
        <ele>96.3</ele>
        <time>2016-05-19T13:09:27.822Z</time>
      </trkpt>
      <trkpt lat="46.85238" lon="-0.15797">
        <ele>96.9</ele>
        <time>2016-05-19T13:09:29.825Z</time>
      </trkpt>
      <trkpt lat="46.85238" lon="-0.15794">
        <ele>97.4</ele>
        <time>2016-05-19T13:09:31.822Z</time>
      </trkpt>
      <trkpt lat="46.85236" lon="-0.15791">
        <ele>98</ele>
        <time>2016-05-19T13:09:33.823Z</time>
      </trkpt>
      <trkpt lat="46.85236" lon="-0.15788">
        <ele>98.3</ele>
        <time>2016-05-19T13:09:35.809Z</time>
      </trkpt>
      <trkpt lat="46.85235" lon="-0.15787">
        <ele>98.7</ele>
        <time>2016-05-19T13:09:36.816Z</time>
      </trkpt>
      <trkpt lat="46.85234" lon="-0.15785">
        <ele>99</ele>
        <time>2016-05-19T13:09:38.821Z</time>
      </trkpt>
      <trkpt lat="46.85233" lon="-0.15782">
        <ele>99.7</ele>
        <time>2016-05-19T13:09:40.812Z</time>
      </trkpt>
      <trkpt lat="46.85233" lon="-0.1578">
        <ele>99.3</ele>
        <time>2016-05-19T13:09:41.810Z</time>
      </trkpt>
      <trkpt lat="46.85232" lon="-0.15779">
        <ele>99.4</ele>
        <time>2016-05-19T13:09:42.814Z</time>
      </trkpt>
      <trkpt lat="46.85231" lon="-0.15776">
        <ele>99.8</ele>
        <time>2016-05-19T13:09:44.821Z</time>
      </trkpt>
      <trkpt lat="46.85231" lon="-0.15773">
        <ele>100</ele>
        <time>2016-05-19T13:09:46.821Z</time>
      </trkpt>
      <trkpt lat="46.8523" lon="-0.1577">
        <ele>100.2</ele>
        <time>2016-05-19T13:09:48.824Z</time>
      </trkpt>
      <trkpt lat="46.85228" lon="-0.15768">
        <ele>100.4</ele>
        <time>2016-05-19T13:09:50.823Z</time>
      </trkpt>
      <trkpt lat="46.85226" lon="-0.15766">
        <ele>100.1</ele>
        <time>2016-05-19T13:09:52.825Z</time>
      </trkpt>
      <trkpt lat="46.85226" lon="-0.15764">
        <ele>100.1</ele>
        <time>2016-05-19T13:09:54.824Z</time>
      </trkpt>
      <trkpt lat="46.85225" lon="-0.15761">
        <ele>99.9</ele>
        <time>2016-05-19T13:09:56.831Z</time>
      </trkpt>
      <trkpt lat="46.85224" lon="-0.15759">
        <ele>100.1</ele>
        <time>2016-05-19T13:09:58.820Z</time>
      </trkpt>
      <trkpt lat="46.85223" lon="-0.15756">
        <ele>100.6</ele>
        <time>2016-05-19T13:10:00.834Z</time>
      </trkpt>
      <trkpt lat="46.85222" lon="-0.15753">
        <ele>100.1</ele>
        <time>2016-05-19T13:10:02.825Z</time>
      </trkpt>
      <trkpt lat="46.85222" lon="-0.1575">
        <ele>99.5</ele>
        <time>2016-05-19T13:10:04.826Z</time>
      </trkpt>
      <trkpt lat="46.8522" lon="-0.15747">
        <ele>100</ele>
        <time>2016-05-19T13:10:06.822Z</time>
      </trkpt>
      <trkpt lat="46.8522" lon="-0.15744">
        <ele>99.6</ele>
        <time>2016-05-19T13:10:08.832Z</time>
      </trkpt>
      <trkpt lat="46.8522" lon="-0.15741">
        <ele>99.8</ele>
        <time>2016-05-19T13:10:10.816Z</time>
      </trkpt>
      <trkpt lat="46.8522" lon="-0.15739">
        <ele>100</ele>
        <time>2016-05-19T13:10:12.832Z</time>
      </trkpt>
      <trkpt lat="46.8522" lon="-0.15736">
        <ele>99.9</ele>
        <time>2016-05-19T13:10:14.821Z</time>
      </trkpt>
      <trkpt lat="46.85221" lon="-0.15733">
        <ele>100.5</ele>
        <time>2016-05-19T13:10:16.824Z</time>
      </trkpt>
      <trkpt lat="46.85222" lon="-0.1573">
        <ele>100.8</ele>
        <time>2016-05-19T13:10:18.823Z</time>
      </trkpt>
      <trkpt lat="46.85222" lon="-0.15728">
        <ele>100.9</ele>
        <time>2016-05-19T13:10:19.831Z</time>
      </trkpt>
      <trkpt lat="46.85223" lon="-0.15727">
        <ele>100.9</ele>
        <time>2016-05-19T13:10:21.823Z</time>
      </trkpt>
      <trkpt lat="46.85224" lon="-0.15724">
        <ele>101.1</ele>
        <time>2016-05-19T13:10:23.821Z</time>
      </trkpt>
      <trkpt lat="46.85225" lon="-0.15722">
        <ele>100.7</ele>
        <time>2016-05-19T13:10:25.826Z</time>
      </trkpt>
      <trkpt lat="46.85225" lon="-0.15722">
        <ele>99.5</ele>
        <time>2016-05-19T13:10:27.807Z</time>
      </trkpt>
      <trkpt lat="46.85225" lon="-0.15722">
        <ele>99.1</ele>
        <time>2016-05-19T13:10:28.810Z</time>
      </trkpt>
      <trkpt lat="46.85224" lon="-0.15722">
        <ele>98.6</ele>
        <time>2016-05-19T13:10:29.813Z</time>
      </trkpt>
      <trkpt lat="46.85224" lon="-0.15722">
        <ele>98.6</ele>
        <time>2016-05-19T13:10:30.817Z</time>
      </trkpt>
      <trkpt lat="46.85224" lon="-0.15722">
        <ele>98.6</ele>
        <time>2016-05-19T13:10:31.813Z</time>
      </trkpt>
      <trkpt lat="46.85224" lon="-0.15722">
        <ele>98.6</ele>
        <time>2016-05-19T13:10:33.830Z</time>
      </trkpt>
      <trkpt lat="46.85224" lon="-0.15722">
        <ele>98.6</ele>
        <time>2016-05-19T13:10:35.829Z</time>
      </trkpt>
      <trkpt lat="46.85224" lon="-0.15722">
        <ele>98.6</ele>
        <time>2016-05-19T13:10:36.836Z</time>
      </trkpt>
      <trkpt lat="46.85224" lon="-0.15722">
        <ele>98.6</ele>
        <time>2016-05-19T13:10:38.822Z</time>
      </trkpt>
      <trkpt lat="46.85224" lon="-0.15722">
        <ele>98.6</ele>
        <time>2016-05-19T13:10:39.821Z</time>
      </trkpt>
      <trkpt lat="46.85224" lon="-0.15722">
        <ele>98.6</ele>
        <time>2016-05-19T13:10:40.829Z</time>
      </trkpt>
      <trkpt lat="46.85224" lon="-0.15722">
        <ele>98.6</ele>
        <time>2016-05-19T13:10:42.823Z</time>
      </trkpt>
      <trkpt lat="46.85224" lon="-0.15722">
        <ele>98.6</ele>
        <time>2016-05-19T13:10:44.822Z</time>
      </trkpt>
      <trkpt lat="46.85224" lon="-0.15722">
        <ele>98.6</ele>
        <time>2016-05-19T13:10:45.833Z</time>
      </trkpt>
      <trkpt lat="46.85224" lon="-0.15722">
        <ele>98.6</ele>
        <time>2016-05-19T13:10:46.823Z</time>
      </trkpt>
      <trkpt lat="46.85224" lon="-0.15722">
        <ele>98.6</ele>
        <time>2016-05-19T13:10:47.836Z</time>
      </trkpt>
      <trkpt lat="46.85224" lon="-0.15722">
        <ele>98.6</ele>
        <time>2016-05-19T13:10:48.831Z</time>
      </trkpt>
      <trkpt lat="46.85224" lon="-0.15722">
        <ele>98.6</ele>
        <time>2016-05-19T13:10:50.822Z</time>
      </trkpt>
      <trkpt lat="46.85224" lon="-0.15722">
        <ele>98.6</ele>
        <time>2016-05-19T13:10:51.819Z</time>
      </trkpt>
      <trkpt lat="46.85224" lon="-0.15722">
        <ele>98.6</ele>
        <time>2016-05-19T13:10:52.832Z</time>
      </trkpt>
      <trkpt lat="46.85224" lon="-0.15722">
        <ele>98.6</ele>
        <time>2016-05-19T13:10:53.825Z</time>
      </trkpt>
      <trkpt lat="46.85224" lon="-0.15722">
        <ele>98.6</ele>
        <time>2016-05-19T13:10:54.825Z</time>
      </trkpt>
      <trkpt lat="46.85224" lon="-0.15722">
        <ele>98.6</ele>
        <time>2016-05-19T13:10:55.824Z</time>
      </trkpt>
      <trkpt lat="46.85224" lon="-0.15722">
        <ele>98.6</ele>
        <time>2016-05-19T13:10:57.820Z</time>
      </trkpt>
      <trkpt lat="46.85224" lon="-0.15722">
        <ele>98.6</ele>
        <time>2016-05-19T13:10:58.821Z</time>
      </trkpt>
      <trkpt lat="46.85224" lon="-0.15722">
        <ele>98.6</ele>
        <time>2016-05-19T13:10:59.839Z</time>
      </trkpt>
      <trkpt lat="46.85224" lon="-0.15722">
        <ele>98.6</ele>
        <time>2016-05-19T13:11:01.827Z</time>
      </trkpt>
      <trkpt lat="46.85224" lon="-0.15722">
        <ele>98.6</ele>
        <time>2016-05-19T13:11:02.826Z</time>
      </trkpt>
      <trkpt lat="46.85224" lon="-0.15722">
        <ele>98.6</ele>
        <time>2016-05-19T13:11:03.833Z</time>
      </trkpt>
      <trkpt lat="46.85224" lon="-0.15722">
        <ele>98.6</ele>
        <time>2016-05-19T13:11:05.826Z</time>
      </trkpt>
      <trkpt lat="46.85224" lon="-0.15722">
        <ele>98.6</ele>
        <time>2016-05-19T13:11:06.833Z</time>
      </trkpt>
      <trkpt lat="46.85224" lon="-0.15722">
        <ele>98.6</ele>
        <time>2016-05-19T13:11:08.827Z</time>
      </trkpt>
      <trkpt lat="46.85224" lon="-0.15722">
        <ele>98.6</ele>
        <time>2016-05-19T13:11:09.824Z</time>
      </trkpt>
      <trkpt lat="46.85224" lon="-0.15722">
        <ele>98.6</ele>
        <time>2016-05-19T13:11:11.825Z</time>
      </trkpt>
      <trkpt lat="46.85224" lon="-0.15722">
        <ele>98.6</ele>
        <time>2016-05-19T13:11:12.833Z</time>
      </trkpt>
      <trkpt lat="46.85224" lon="-0.15722">
        <ele>98.6</ele>
        <time>2016-05-19T13:11:14.824Z</time>
      </trkpt>
      <trkpt lat="46.85224" lon="-0.15722">
        <ele>98.6</ele>
        <time>2016-05-19T13:11:16.820Z</time>
      </trkpt>
      <trkpt lat="46.85224" lon="-0.15722">
        <ele>98.6</ele>
        <time>2016-05-19T13:11:17.822Z</time>
      </trkpt>
      <trkpt lat="46.85224" lon="-0.15722">
        <ele>98.6</ele>
        <time>2016-05-19T13:11:18.827Z</time>
      </trkpt>
      <trkpt lat="46.85224" lon="-0.15722">
        <ele>98.6</ele>
        <time>2016-05-19T13:11:19.838Z</time>
      </trkpt>
      <trkpt lat="46.85224" lon="-0.15722">
        <ele>98.6</ele>
        <time>2016-05-19T13:11:21.826Z</time>
      </trkpt>
      <trkpt lat="46.85224" lon="-0.15722">
        <ele>98.6</ele>
        <time>2016-05-19T13:11:23.902Z</time>
      </trkpt>
      <trkpt lat="46.85224" lon="-0.15722">
        <ele>98.6</ele>
        <time>2016-05-19T13:11:25.822Z</time>
      </trkpt>
      <trkpt lat="46.85224" lon="-0.15722">
        <ele>98.6</ele>
        <time>2016-05-19T13:11:26.832Z</time>
      </trkpt>
      <trkpt lat="46.85224" lon="-0.15722">
        <ele>98.6</ele>
        <time>2016-05-19T13:11:28.822Z</time>
      </trkpt>
      <trkpt lat="46.85224" lon="-0.15722">
        <ele>98.6</ele>
        <time>2016-05-19T13:11:30.827Z</time>
      </trkpt>
      <trkpt lat="46.85224" lon="-0.15722">
        <ele>98.6</ele>
        <time>2016-05-19T13:11:32.823Z</time>
      </trkpt>
      <trkpt lat="46.85224" lon="-0.15722">
        <ele>98.6</ele>
        <time>2016-05-19T13:11:33.823Z</time>
      </trkpt>
      <trkpt lat="46.85224" lon="-0.15722">
        <ele>98.6</ele>
        <time>2016-05-19T13:11:34.829Z</time>
      </trkpt>
      <trkpt lat="46.85224" lon="-0.15722">
        <ele>98.6</ele>
        <time>2016-05-19T13:11:36.829Z</time>
      </trkpt>
      <trkpt lat="46.85224" lon="-0.15722">
        <ele>98.6</ele>
        <time>2016-05-19T13:11:38.863Z</time>
      </trkpt>
      <trkpt lat="46.85224" lon="-0.15722">
        <ele>98.6</ele>
        <time>2016-05-19T13:11:39.824Z</time>
      </trkpt>
      <trkpt lat="46.85224" lon="-0.15722">
        <ele>98.6</ele>
        <time>2016-05-19T13:11:41.831Z</time>
      </trkpt>
      <trkpt lat="46.85224" lon="-0.15722">
        <ele>98.6</ele>
        <time>2016-05-19T13:11:42.824Z</time>
      </trkpt>
      <trkpt lat="46.85224" lon="-0.15722">
        <ele>98.6</ele>
        <time>2016-05-19T13:11:44.823Z</time>
      </trkpt>
      <trkpt lat="46.85224" lon="-0.15722">
        <ele>98.6</ele>
        <time>2016-05-19T13:11:46.820Z</time>
      </trkpt>
      <trkpt lat="46.85224" lon="-0.15722">
        <ele>98.6</ele>
        <time>2016-05-19T13:11:47.822Z</time>
      </trkpt>
      <trkpt lat="46.85224" lon="-0.15722">
        <ele>98.6</ele>
        <time>2016-05-19T13:11:48.830Z</time>
      </trkpt>
      <trkpt lat="46.85224" lon="-0.15722">
        <ele>98.6</ele>
        <time>2016-05-19T13:11:50.824Z</time>
      </trkpt>
      <trkpt lat="46.85224" lon="-0.15722">
        <ele>98.6</ele>
        <time>2016-05-19T13:11:51.836Z</time>
      </trkpt>
      <trkpt lat="46.85224" lon="-0.15722">
        <ele>98.6</ele>
        <time>2016-05-19T13:11:53.807Z</time>
      </trkpt>
      <trkpt lat="46.85224" lon="-0.15722">
        <ele>98.6</ele>
        <time>2016-05-19T13:11:54.823Z</time>
      </trkpt>
      <trkpt lat="46.85224" lon="-0.15722">
        <ele>98.6</ele>
        <time>2016-05-19T13:11:56.821Z</time>
      </trkpt>
      <trkpt lat="46.85224" lon="-0.15722">
        <ele>98.6</ele>
        <time>2016-05-19T13:11:57.821Z</time>
      </trkpt>
      <trkpt lat="46.85224" lon="-0.15722">
        <ele>98.6</ele>
        <time>2016-05-19T13:11:59.823Z</time>
      </trkpt>
      <trkpt lat="46.85224" lon="-0.15722">
        <ele>98.6</ele>
        <time>2016-05-19T13:12:00.827Z</time>
      </trkpt>
      <trkpt lat="46.85224" lon="-0.15722">
        <ele>98.6</ele>
        <time>2016-05-19T13:12:01.839Z</time>
      </trkpt>
      <trkpt lat="46.85224" lon="-0.15722">
        <ele>98.6</ele>
        <time>2016-05-19T13:12:03.826Z</time>
      </trkpt>
      <trkpt lat="46.85224" lon="-0.15722">
        <ele>98.6</ele>
        <time>2016-05-19T13:12:04.831Z</time>
      </trkpt>
      <trkpt lat="46.85224" lon="-0.15722">
        <ele>98.6</ele>
        <time>2016-05-19T13:12:06.828Z</time>
      </trkpt>
      <trkpt lat="46.85224" lon="-0.15722">
        <ele>98.6</ele>
        <time>2016-05-19T13:12:08.816Z</time>
      </trkpt>
      <trkpt lat="46.85224" lon="-0.15722">
        <ele>98.6</ele>
        <time>2016-05-19T13:12:09.808Z</time>
      </trkpt>
      <trkpt lat="46.85224" lon="-0.15722">
        <ele>98.6</ele>
        <time>2016-05-19T13:12:10.810Z</time>
      </trkpt>
      <trkpt lat="46.85224" lon="-0.15722">
        <ele>98.6</ele>
        <time>2016-05-19T13:12:12.823Z</time>
      </trkpt>
      <trkpt lat="46.85227" lon="-0.15717">
        <ele>106.5</ele>
        <time>2016-05-19T13:12:14.821Z</time>
      </trkpt>
      <trkpt lat="46.85227" lon="-0.15716">
        <ele>105.7</ele>
        <time>2016-05-19T13:12:16.822Z</time>
      </trkpt>
      <trkpt lat="46.85226" lon="-0.15716">
        <ele>104.8</ele>
        <time>2016-05-19T13:12:18.834Z</time>
      </trkpt>
      <trkpt lat="46.85226" lon="-0.15716">
        <ele>104.7</ele>
        <time>2016-05-19T13:12:20.824Z</time>
      </trkpt>
      <trkpt lat="46.85226" lon="-0.15716">
        <ele>104.7</ele>
        <time>2016-05-19T13:12:22.822Z</time>
      </trkpt>
      <trkpt lat="46.85226" lon="-0.15716">
        <ele>104.7</ele>
        <time>2016-05-19T13:12:24.826Z</time>
      </trkpt>
      <trkpt lat="46.85226" lon="-0.15716">
        <ele>104.7</ele>
        <time>2016-05-19T13:12:25.834Z</time>
      </trkpt>
      <trkpt lat="46.85226" lon="-0.15716">
        <ele>104.7</ele>
        <time>2016-05-19T13:12:27.828Z</time>
      </trkpt>
      <trkpt lat="46.85226" lon="-0.15716">
        <ele>104.7</ele>
        <time>2016-05-19T13:12:29.826Z</time>
      </trkpt>
      <trkpt lat="46.85226" lon="-0.15716">
        <ele>104.7</ele>
        <time>2016-05-19T13:12:30.822Z</time>
      </trkpt>
      <trkpt lat="46.85226" lon="-0.15716">
        <ele>104.7</ele>
        <time>2016-05-19T13:12:32.822Z</time>
      </trkpt>
      <trkpt lat="46.85226" lon="-0.15716">
        <ele>104.7</ele>
        <time>2016-05-19T13:12:33.855Z</time>
      </trkpt>
      <trkpt lat="46.85226" lon="-0.15716">
        <ele>104.7</ele>
        <time>2016-05-19T13:12:35.819Z</time>
      </trkpt>
      <trkpt lat="46.85226" lon="-0.15716">
        <ele>104.7</ele>
        <time>2016-05-19T13:12:36.824Z</time>
      </trkpt>
      <trkpt lat="46.85226" lon="-0.15716">
        <ele>104.7</ele>
        <time>2016-05-19T13:12:38.824Z</time>
      </trkpt>
      <trkpt lat="46.85226" lon="-0.15716">
        <ele>104.7</ele>
        <time>2016-05-19T13:12:39.833Z</time>
      </trkpt>
      <trkpt lat="46.85226" lon="-0.15716">
        <ele>104.7</ele>
        <time>2016-05-19T13:12:41.816Z</time>
      </trkpt>
      <trkpt lat="46.85226" lon="-0.15716">
        <ele>104.7</ele>
        <time>2016-05-19T13:12:42.831Z</time>
      </trkpt>
      <trkpt lat="46.85226" lon="-0.15716">
        <ele>104.7</ele>
        <time>2016-05-19T13:12:43.849Z</time>
      </trkpt>
      <trkpt lat="46.85226" lon="-0.15716">
        <ele>104.7</ele>
        <time>2016-05-19T13:12:45.861Z</time>
      </trkpt>
      <trkpt lat="46.85226" lon="-0.15716">
        <ele>104.7</ele>
        <time>2016-05-19T13:12:46.824Z</time>
      </trkpt>
      <trkpt lat="46.85226" lon="-0.15716">
        <ele>104.7</ele>
        <time>2016-05-19T13:12:47.827Z</time>
      </trkpt>
      <trkpt lat="46.85226" lon="-0.15716">
        <ele>104.7</ele>
        <time>2016-05-19T13:12:48.832Z</time>
      </trkpt>
      <trkpt lat="46.85226" lon="-0.15716">
        <ele>104.7</ele>
        <time>2016-05-19T13:12:50.827Z</time>
      </trkpt>
      <trkpt lat="46.85226" lon="-0.15716">
        <ele>104.7</ele>
        <time>2016-05-19T13:12:51.836Z</time>
      </trkpt>
      <trkpt lat="46.85226" lon="-0.15716">
        <ele>104.7</ele>
        <time>2016-05-19T13:12:53.823Z</time>
      </trkpt>
      <trkpt lat="46.85226" lon="-0.15716">
        <ele>104.7</ele>
        <time>2016-05-19T13:12:55.821Z</time>
      </trkpt>
      <trkpt lat="46.85226" lon="-0.15716">
        <ele>104.7</ele>
        <time>2016-05-19T13:12:56.832Z</time>
      </trkpt>
      <trkpt lat="46.85226" lon="-0.15716">
        <ele>104.7</ele>
        <time>2016-05-19T13:12:57.827Z</time>
      </trkpt>
      <trkpt lat="46.85226" lon="-0.15716">
        <ele>104.7</ele>
        <time>2016-05-19T13:12:59.832Z</time>
      </trkpt>
      <trkpt lat="46.85226" lon="-0.15716">
        <ele>104.7</ele>
        <time>2016-05-19T13:13:00.824Z</time>
      </trkpt>
      <trkpt lat="46.85226" lon="-0.15716">
        <ele>104.7</ele>
        <time>2016-05-19T13:13:02.825Z</time>
      </trkpt>
      <trkpt lat="46.85226" lon="-0.15716">
        <ele>104.7</ele>
        <time>2016-05-19T13:13:03.829Z</time>
      </trkpt>
      <trkpt lat="46.85226" lon="-0.15716">
        <ele>104.7</ele>
        <time>2016-05-19T13:13:05.822Z</time>
      </trkpt>
      <trkpt lat="46.85226" lon="-0.15716">
        <ele>104.7</ele>
        <time>2016-05-19T13:13:06.827Z</time>
      </trkpt>
      <trkpt lat="46.85226" lon="-0.15716">
        <ele>104.7</ele>
        <time>2016-05-19T13:13:08.821Z</time>
      </trkpt>
      <trkpt lat="46.85226" lon="-0.15716">
        <ele>104.7</ele>
        <time>2016-05-19T13:13:10.825Z</time>
      </trkpt>
      <trkpt lat="46.85226" lon="-0.15716">
        <ele>104.7</ele>
        <time>2016-05-19T13:13:11.824Z</time>
      </trkpt>
      <trkpt lat="46.85226" lon="-0.15716">
        <ele>104.7</ele>
        <time>2016-05-19T13:13:13.823Z</time>
      </trkpt>
      <trkpt lat="46.85226" lon="-0.15716">
        <ele>104.7</ele>
        <time>2016-05-19T13:13:15.824Z</time>
      </trkpt>
      <trkpt lat="46.85226" lon="-0.15716">
        <ele>104.7</ele>
        <time>2016-05-19T13:13:17.836Z</time>
      </trkpt>
      <trkpt lat="46.85226" lon="-0.15716">
        <ele>104.7</ele>
        <time>2016-05-19T13:13:19.827Z</time>
      </trkpt>
      <trkpt lat="46.85226" lon="-0.15716">
        <ele>104.7</ele>
        <time>2016-05-19T13:13:21.821Z</time>
      </trkpt>
      <trkpt lat="46.85226" lon="-0.15716">
        <ele>104.7</ele>
        <time>2016-05-19T13:13:22.827Z</time>
      </trkpt>
      <trkpt lat="46.85226" lon="-0.15716">
        <ele>104.7</ele>
        <time>2016-05-19T13:13:24.828Z</time>
      </trkpt>
      <trkpt lat="46.85226" lon="-0.15716">
        <ele>104.7</ele>
        <time>2016-05-19T13:13:25.831Z</time>
      </trkpt>
      <trkpt lat="46.85226" lon="-0.15716">
        <ele>104.7</ele>
        <time>2016-05-19T13:13:27.823Z</time>
      </trkpt>
      <trkpt lat="46.85226" lon="-0.15716">
        <ele>104.7</ele>
        <time>2016-05-19T13:13:29.822Z</time>
      </trkpt>
      <trkpt lat="46.85226" lon="-0.15716">
        <ele>104.7</ele>
        <time>2016-05-19T13:13:30.819Z</time>
      </trkpt>
      <trkpt lat="46.85226" lon="-0.15716">
        <ele>104.7</ele>
        <time>2016-05-19T13:13:31.829Z</time>
      </trkpt>
      <trkpt lat="46.85226" lon="-0.15716">
        <ele>104.7</ele>
        <time>2016-05-19T13:13:32.829Z</time>
      </trkpt>
      <trkpt lat="46.85226" lon="-0.15716">
        <ele>104.7</ele>
        <time>2016-05-19T13:13:34.822Z</time>
      </trkpt>
      <trkpt lat="46.85226" lon="-0.15716">
        <ele>104.7</ele>
        <time>2016-05-19T13:13:35.821Z</time>
      </trkpt>
      <trkpt lat="46.85226" lon="-0.15716">
        <ele>104.7</ele>
        <time>2016-05-19T13:13:36.830Z</time>
      </trkpt>
      <trkpt lat="46.85226" lon="-0.15716">
        <ele>104.7</ele>
        <time>2016-05-19T13:13:38.823Z</time>
      </trkpt>
      <trkpt lat="46.85226" lon="-0.15716">
        <ele>104.7</ele>
        <time>2016-05-19T13:13:39.834Z</time>
      </trkpt>
      <trkpt lat="46.85226" lon="-0.15716">
        <ele>104.7</ele>
        <time>2016-05-19T13:13:41.894Z</time>
      </trkpt>
      <trkpt lat="46.85226" lon="-0.15716">
        <ele>104.7</ele>
        <time>2016-05-19T13:13:42.831Z</time>
      </trkpt>
      <trkpt lat="46.85226" lon="-0.15716">
        <ele>104.7</ele>
        <time>2016-05-19T13:13:43.831Z</time>
      </trkpt>
      <trkpt lat="46.85226" lon="-0.15716">
        <ele>104.7</ele>
        <time>2016-05-19T13:13:45.819Z</time>
      </trkpt>
      <trkpt lat="46.85226" lon="-0.15716">
        <ele>104.7</ele>
        <time>2016-05-19T13:13:46.827Z</time>
      </trkpt>
      <trkpt lat="46.85226" lon="-0.15716">
        <ele>104.7</ele>
        <time>2016-05-19T13:13:48.829Z</time>
      </trkpt>
      <trkpt lat="46.85226" lon="-0.15716">
        <ele>104.7</ele>
        <time>2016-05-19T13:13:50.821Z</time>
      </trkpt>
      <trkpt lat="46.85226" lon="-0.15716">
        <ele>104.7</ele>
        <time>2016-05-19T13:13:51.823Z</time>
      </trkpt>
      <trkpt lat="46.85226" lon="-0.15716">
        <ele>104.7</ele>
        <time>2016-05-19T13:13:53.823Z</time>
      </trkpt>
      <trkpt lat="46.8523" lon="-0.15717">
        <ele>102.2</ele>
        <time>2016-05-19T13:13:54.832Z</time>
      </trkpt>
      <trkpt lat="46.85231" lon="-0.15716">
        <ele>103.2</ele>
        <time>2016-05-19T13:13:56.822Z</time>
      </trkpt>
      <trkpt lat="46.85233" lon="-0.15715">
        <ele>103.5</ele>
        <time>2016-05-19T13:13:58.817Z</time>
      </trkpt>
      <trkpt lat="46.85235" lon="-0.15714">
        <ele>104.3</ele>
        <time>2016-05-19T13:14:00.831Z</time>
      </trkpt>
      <trkpt lat="46.85237" lon="-0.15712">
        <ele>104.7</ele>
        <time>2016-05-19T13:14:02.824Z</time>
      </trkpt>
      <trkpt lat="46.85239" lon="-0.1571">
        <ele>105.2</ele>
        <time>2016-05-19T13:14:04.823Z</time>
      </trkpt>
      <trkpt lat="46.85241" lon="-0.15708">
        <ele>105</ele>
        <time>2016-05-19T13:14:06.823Z</time>
      </trkpt>
      <trkpt lat="46.85243" lon="-0.15707">
        <ele>105.5</ele>
        <time>2016-05-19T13:14:08.832Z</time>
      </trkpt>
      <trkpt lat="46.85245" lon="-0.15705">
        <ele>106</ele>
        <time>2016-05-19T13:14:10.820Z</time>
      </trkpt>
      <trkpt lat="46.85247" lon="-0.15704">
        <ele>106.9</ele>
        <time>2016-05-19T13:14:12.825Z</time>
      </trkpt>
      <trkpt lat="46.85248" lon="-0.15703">
        <ele>107</ele>
        <time>2016-05-19T13:14:14.827Z</time>
      </trkpt>
      <trkpt lat="46.8525" lon="-0.15702">
        <ele>106.1</ele>
        <time>2016-05-19T13:14:16.822Z</time>
      </trkpt>
      <trkpt lat="46.85252" lon="-0.15701">
        <ele>106</ele>
        <time>2016-05-19T13:14:18.826Z</time>
      </trkpt>
      <trkpt lat="46.85253" lon="-0.157">
        <ele>103.8</ele>
        <time>2016-05-19T13:14:20.829Z</time>
      </trkpt>
      <trkpt lat="46.85255" lon="-0.15699">
        <ele>102.3</ele>
        <time>2016-05-19T13:14:22.825Z</time>
      </trkpt>
      <trkpt lat="46.85257" lon="-0.15697">
        <ele>100.8</ele>
        <time>2016-05-19T13:14:24.839Z</time>
      </trkpt>
      <trkpt lat="46.85259" lon="-0.15696">
        <ele>99.8</ele>
        <time>2016-05-19T13:14:26.809Z</time>
      </trkpt>
      <trkpt lat="46.85261" lon="-0.15695">
        <ele>99.3</ele>
        <time>2016-05-19T13:14:28.818Z</time>
      </trkpt>
      <trkpt lat="46.85263" lon="-0.15694">
        <ele>97.4</ele>
        <time>2016-05-19T13:14:30.834Z</time>
      </trkpt>
      <trkpt lat="46.85267" lon="-0.15692">
        <ele>96.6</ele>
        <time>2016-05-19T13:14:32.806Z</time>
      </trkpt>
      <trkpt lat="46.85268" lon="-0.15692">
        <ele>96.4</ele>
        <time>2016-05-19T13:14:33.809Z</time>
      </trkpt>
      <trkpt lat="46.85271" lon="-0.15691">
        <ele>96.3</ele>
        <time>2016-05-19T13:14:35.829Z</time>
      </trkpt>
      <trkpt lat="46.85272" lon="-0.1569">
        <ele>95.9</ele>
        <time>2016-05-19T13:14:36.811Z</time>
      </trkpt>
      <trkpt lat="46.85273" lon="-0.15689">
        <ele>95.7</ele>
        <time>2016-05-19T13:14:37.815Z</time>
      </trkpt>
      <trkpt lat="46.85275" lon="-0.15687">
        <ele>94.8</ele>
        <time>2016-05-19T13:14:39.821Z</time>
      </trkpt>
      <trkpt lat="46.85278" lon="-0.15685">
        <ele>93.7</ele>
        <time>2016-05-19T13:14:41.823Z</time>
      </trkpt>
      <trkpt lat="46.8528" lon="-0.15684">
        <ele>93.6</ele>
        <time>2016-05-19T13:14:43.820Z</time>
      </trkpt>
      <trkpt lat="46.85281" lon="-0.15682">
        <ele>92.2</ele>
        <time>2016-05-19T13:14:45.810Z</time>
      </trkpt>
      <trkpt lat="46.85282" lon="-0.15681">
        <ele>92</ele>
        <time>2016-05-19T13:14:46.812Z</time>
      </trkpt>
      <trkpt lat="46.85284" lon="-0.1568">
        <ele>91.9</ele>
        <time>2016-05-19T13:14:48.823Z</time>
      </trkpt>
      <trkpt lat="46.85286" lon="-0.15679">
        <ele>91.8</ele>
        <time>2016-05-19T13:14:50.826Z</time>
      </trkpt>
      <trkpt lat="46.85288" lon="-0.15677">
        <ele>91.7</ele>
        <time>2016-05-19T13:14:52.823Z</time>
      </trkpt>
      <trkpt lat="46.8529" lon="-0.15675">
        <ele>91.2</ele>
        <time>2016-05-19T13:14:54.822Z</time>
      </trkpt>
      <trkpt lat="46.85292" lon="-0.15674">
        <ele>91.2</ele>
        <time>2016-05-19T13:14:56.827Z</time>
      </trkpt>
      <trkpt lat="46.85294" lon="-0.15673">
        <ele>91.9</ele>
        <time>2016-05-19T13:14:58.823Z</time>
      </trkpt>
      <trkpt lat="46.85296" lon="-0.15671">
        <ele>93.2</ele>
        <time>2016-05-19T13:15:00.826Z</time>
      </trkpt>
      <trkpt lat="46.85298" lon="-0.15669">
        <ele>93.5</ele>
        <time>2016-05-19T13:15:02.822Z</time>
      </trkpt>
      <trkpt lat="46.853" lon="-0.15668">
        <ele>94.6</ele>
        <time>2016-05-19T13:15:04.835Z</time>
      </trkpt>
      <trkpt lat="46.85303" lon="-0.15666">
        <ele>95.3</ele>
        <time>2016-05-19T13:15:06.822Z</time>
      </trkpt>
      <trkpt lat="46.85305" lon="-0.15664">
        <ele>96</ele>
        <time>2016-05-19T13:15:08.820Z</time>
      </trkpt>
      <trkpt lat="46.85308" lon="-0.15662">
        <ele>96</ele>
        <time>2016-05-19T13:15:10.824Z</time>
      </trkpt>
      <trkpt lat="46.8531" lon="-0.1566">
        <ele>95.9</ele>
        <time>2016-05-19T13:15:12.831Z</time>
      </trkpt>
      <trkpt lat="46.85312" lon="-0.15658">
        <ele>95.4</ele>
        <time>2016-05-19T13:15:14.829Z</time>
      </trkpt>
      <trkpt lat="46.85314" lon="-0.15656">
        <ele>94.9</ele>
        <time>2016-05-19T13:15:16.823Z</time>
      </trkpt>
      <trkpt lat="46.85316" lon="-0.15653">
        <ele>94.1</ele>
        <time>2016-05-19T13:15:18.821Z</time>
      </trkpt>
      <trkpt lat="46.85317" lon="-0.15651">
        <ele>93.9</ele>
        <time>2016-05-19T13:15:20.823Z</time>
      </trkpt>
      <trkpt lat="46.85319" lon="-0.15649">
        <ele>95.8</ele>
        <time>2016-05-19T13:15:22.823Z</time>
      </trkpt>
      <trkpt lat="46.8532" lon="-0.15648">
        <ele>97</ele>
        <time>2016-05-19T13:15:24.828Z</time>
      </trkpt>
      <trkpt lat="46.85322" lon="-0.15647">
        <ele>97.2</ele>
        <time>2016-05-19T13:15:26.806Z</time>
      </trkpt>
      <trkpt lat="46.85323" lon="-0.15646">
        <ele>97.3</ele>
        <time>2016-05-19T13:15:27.818Z</time>
      </trkpt>
      <trkpt lat="46.85325" lon="-0.15645">
        <ele>97.5</ele>
        <time>2016-05-19T13:15:28.809Z</time>
      </trkpt>
      <trkpt lat="46.85326" lon="-0.15644">
        <ele>97.2</ele>
        <time>2016-05-19T13:15:29.808Z</time>
      </trkpt>
      <trkpt lat="46.85327" lon="-0.15643">
        <ele>97.5</ele>
        <time>2016-05-19T13:15:30.823Z</time>
      </trkpt>
      <trkpt lat="46.85329" lon="-0.1564">
        <ele>98.8</ele>
        <time>2016-05-19T13:15:32.821Z</time>
      </trkpt>
      <trkpt lat="46.85331" lon="-0.15639">
        <ele>99.3</ele>
        <time>2016-05-19T13:15:34.821Z</time>
      </trkpt>
      <trkpt lat="46.85333" lon="-0.15638">
        <ele>99.8</ele>
        <time>2016-05-19T13:15:36.808Z</time>
      </trkpt>
      <trkpt lat="46.85335" lon="-0.15635">
        <ele>100.2</ele>
        <time>2016-05-19T13:15:38.819Z</time>
      </trkpt>
      <trkpt lat="46.85337" lon="-0.15633">
        <ele>100.8</ele>
        <time>2016-05-19T13:15:40.822Z</time>
      </trkpt>
      <trkpt lat="46.85339" lon="-0.15632">
        <ele>101.9</ele>
        <time>2016-05-19T13:15:42.821Z</time>
      </trkpt>
      <trkpt lat="46.85341" lon="-0.15631">
        <ele>101.7</ele>
        <time>2016-05-19T13:15:44.823Z</time>
      </trkpt>
      <trkpt lat="46.85343" lon="-0.15629">
        <ele>102</ele>
        <time>2016-05-19T13:15:46.821Z</time>
      </trkpt>
      <trkpt lat="46.85346" lon="-0.15628">
        <ele>101.9</ele>
        <time>2016-05-19T13:15:48.831Z</time>
      </trkpt>
      <trkpt lat="46.85347" lon="-0.15626">
        <ele>100.9</ele>
        <time>2016-05-19T13:15:50.829Z</time>
      </trkpt>
      <trkpt lat="46.85349" lon="-0.15624">
        <ele>99.8</ele>
        <time>2016-05-19T13:15:52.823Z</time>
      </trkpt>
      <trkpt lat="46.8535" lon="-0.15622">
        <ele>99.3</ele>
        <time>2016-05-19T13:15:54.831Z</time>
      </trkpt>
      <trkpt lat="46.85352" lon="-0.15619">
        <ele>99.6</ele>
        <time>2016-05-19T13:15:56.833Z</time>
      </trkpt>
      <trkpt lat="46.85355" lon="-0.15617">
        <ele>100.1</ele>
        <time>2016-05-19T13:15:58.808Z</time>
      </trkpt>
      <trkpt lat="46.85356" lon="-0.15616">
        <ele>100.1</ele>
        <time>2016-05-19T13:15:59.807Z</time>
      </trkpt>
      <trkpt lat="46.85357" lon="-0.15615">
        <ele>99.9</ele>
        <time>2016-05-19T13:16:00.810Z</time>
      </trkpt>
      <trkpt lat="46.85358" lon="-0.15614">
        <ele>100.7</ele>
        <time>2016-05-19T13:16:01.812Z</time>
      </trkpt>
      <trkpt lat="46.8536" lon="-0.15612">
        <ele>99.3</ele>
        <time>2016-05-19T13:16:03.824Z</time>
      </trkpt>
      <trkpt lat="46.85361" lon="-0.15611">
        <ele>99.4</ele>
        <time>2016-05-19T13:16:05.822Z</time>
      </trkpt>
      <trkpt lat="46.85363" lon="-0.1561">
        <ele>99.5</ele>
        <time>2016-05-19T13:16:07.819Z</time>
      </trkpt>
      <trkpt lat="46.85364" lon="-0.15609">
        <ele>99.7</ele>
        <time>2016-05-19T13:16:09.820Z</time>
      </trkpt>
      <trkpt lat="46.85365" lon="-0.15608">
        <ele>99.9</ele>
        <time>2016-05-19T13:16:11.821Z</time>
      </trkpt>
      <trkpt lat="46.85367" lon="-0.15605">
        <ele>99.7</ele>
        <time>2016-05-19T13:16:13.821Z</time>
      </trkpt>
      <trkpt lat="46.85368" lon="-0.15603">
        <ele>98.8</ele>
        <time>2016-05-19T13:16:15.821Z</time>
      </trkpt>
      <trkpt lat="46.85371" lon="-0.156">
        <ele>97.7</ele>
        <time>2016-05-19T13:16:17.822Z</time>
      </trkpt>
      <trkpt lat="46.85372" lon="-0.15597">
        <ele>97.1</ele>
        <time>2016-05-19T13:16:19.822Z</time>
      </trkpt>
      <trkpt lat="46.85375" lon="-0.15594">
        <ele>96.6</ele>
        <time>2016-05-19T13:16:21.820Z</time>
      </trkpt>
      <trkpt lat="46.85378" lon="-0.15592">
        <ele>97</ele>
        <time>2016-05-19T13:16:23.832Z</time>
      </trkpt>
      <trkpt lat="46.8538" lon="-0.1559">
        <ele>97.6</ele>
        <time>2016-05-19T13:16:26.400Z</time>
      </trkpt>
      <trkpt lat="46.85384" lon="-0.15588">
        <ele>97.7</ele>
        <time>2016-05-19T13:16:28.272Z</time>
      </trkpt>
      <trkpt lat="46.85385" lon="-0.15587">
        <ele>97.5</ele>
        <time>2016-05-19T13:16:29.276Z</time>
      </trkpt>
      <trkpt lat="46.85386" lon="-0.15587">
        <ele>97.4</ele>
        <time>2016-05-19T13:16:30.288Z</time>
      </trkpt>
      <trkpt lat="46.85389" lon="-0.15585">
        <ele>97</ele>
        <time>2016-05-19T13:16:31.921Z</time>
      </trkpt>
      <trkpt lat="46.85391" lon="-0.15584">
        <ele>96.3</ele>
        <time>2016-05-19T13:16:33.920Z</time>
      </trkpt>
      <trkpt lat="46.85393" lon="-0.15583">
        <ele>96.8</ele>
        <time>2016-05-19T13:16:35.922Z</time>
      </trkpt>
      <trkpt lat="46.85395" lon="-0.15581">
        <ele>97</ele>
        <time>2016-05-19T13:16:37.917Z</time>
      </trkpt>
      <trkpt lat="46.85398" lon="-0.15581">
        <ele>96.8</ele>
        <time>2016-05-19T13:16:39.925Z</time>
      </trkpt>
      <trkpt lat="46.854" lon="-0.1558">
        <ele>96.7</ele>
        <time>2016-05-19T13:16:41.923Z</time>
      </trkpt>
      <trkpt lat="46.85403" lon="-0.15579">
        <ele>97</ele>
        <time>2016-05-19T13:16:43.923Z</time>
      </trkpt>
      <trkpt lat="46.85404" lon="-0.15578">
        <ele>96.4</ele>
        <time>2016-05-19T13:16:45.923Z</time>
      </trkpt>
      <trkpt lat="46.85407" lon="-0.15577">
        <ele>96.2</ele>
        <time>2016-05-19T13:16:47.934Z</time>
      </trkpt>
      <trkpt lat="46.85407" lon="-0.15576">
        <ele>95.9</ele>
        <time>2016-05-19T13:16:48.915Z</time>
      </trkpt>
      <trkpt lat="46.85408" lon="-0.15575">
        <ele>95.4</ele>
        <time>2016-05-19T13:16:50.926Z</time>
      </trkpt>
      <trkpt lat="46.8541" lon="-0.15573">
        <ele>95.2</ele>
        <time>2016-05-19T13:16:52.919Z</time>
      </trkpt>
      <trkpt lat="46.85412" lon="-0.15571">
        <ele>97</ele>
        <time>2016-05-19T13:16:54.924Z</time>
      </trkpt>
      <trkpt lat="46.85415" lon="-0.15569">
        <ele>98</ele>
        <time>2016-05-19T13:16:56.924Z</time>
      </trkpt>
      <trkpt lat="46.85416" lon="-0.15567">
        <ele>97.7</ele>
        <time>2016-05-19T13:16:58.922Z</time>
      </trkpt>
      <trkpt lat="46.85416" lon="-0.15565">
        <ele>97.8</ele>
        <time>2016-05-19T13:17:00.924Z</time>
      </trkpt>
      <trkpt lat="46.85416" lon="-0.15561">
        <ele>97.7</ele>
        <time>2016-05-19T13:17:02.908Z</time>
      </trkpt>
      <trkpt lat="46.85416" lon="-0.15559">
        <ele>97.8</ele>
        <time>2016-05-19T13:17:03.911Z</time>
      </trkpt>
      <trkpt lat="46.85415" lon="-0.15557">
        <ele>97.5</ele>
        <time>2016-05-19T13:17:04.913Z</time>
      </trkpt>
      <trkpt lat="46.85415" lon="-0.15556">
        <ele>97.7</ele>
        <time>2016-05-19T13:17:05.913Z</time>
      </trkpt>
      <trkpt lat="46.85414" lon="-0.15553">
        <ele>96.8</ele>
        <time>2016-05-19T13:17:07.923Z</time>
      </trkpt>
      <trkpt lat="46.85412" lon="-0.15552">
        <ele>95.8</ele>
        <time>2016-05-19T13:17:09.929Z</time>
      </trkpt>
      <trkpt lat="46.8541" lon="-0.15551">
        <ele>96</ele>
        <time>2016-05-19T13:17:11.924Z</time>
      </trkpt>
      <trkpt lat="46.85408" lon="-0.15551">
        <ele>96.5</ele>
        <time>2016-05-19T13:17:13.921Z</time>
      </trkpt>
      <trkpt lat="46.85407" lon="-0.15551">
        <ele>97</ele>
        <time>2016-05-19T13:17:15.922Z</time>
      </trkpt>
      <trkpt lat="46.85405" lon="-0.1555">
        <ele>97.1</ele>
        <time>2016-05-19T13:17:17.923Z</time>
      </trkpt>
      <trkpt lat="46.85404" lon="-0.15548">
        <ele>98</ele>
        <time>2016-05-19T13:17:19.918Z</time>
      </trkpt>
      <trkpt lat="46.85402" lon="-0.15547">
        <ele>98.2</ele>
        <time>2016-05-19T13:17:21.907Z</time>
      </trkpt>
      <trkpt lat="46.85402" lon="-0.15546">
        <ele>98.8</ele>
        <time>2016-05-19T13:17:22.911Z</time>
      </trkpt>
      <trkpt lat="46.85401" lon="-0.15545">
        <ele>99.7</ele>
        <time>2016-05-19T13:17:23.910Z</time>
      </trkpt>
      <trkpt lat="46.854" lon="-0.15544">
        <ele>99.8</ele>
        <time>2016-05-19T13:17:24.913Z</time>
      </trkpt>
      <trkpt lat="46.85399" lon="-0.15542">
        <ele>100</ele>
        <time>2016-05-19T13:17:26.912Z</time>
      </trkpt>
      <trkpt lat="46.85397" lon="-0.15541">
        <ele>99.8</ele>
        <time>2016-05-19T13:17:27.911Z</time>
      </trkpt>
      <trkpt lat="46.85395" lon="-0.15539">
        <ele>99.3</ele>
        <time>2016-05-19T13:17:29.930Z</time>
      </trkpt>
      <trkpt lat="46.85394" lon="-0.15536">
        <ele>98.9</ele>
        <time>2016-05-19T13:17:31.926Z</time>
      </trkpt>
      <trkpt lat="46.85393" lon="-0.15533">
        <ele>99.3</ele>
        <time>2016-05-19T13:17:33.922Z</time>
      </trkpt>
      <trkpt lat="46.85392" lon="-0.15531">
        <ele>99.1</ele>
        <time>2016-05-19T13:17:35.923Z</time>
      </trkpt>
      <trkpt lat="46.8539" lon="-0.1553">
        <ele>99.1</ele>
        <time>2016-05-19T13:17:37.916Z</time>
      </trkpt>
      <trkpt lat="46.85389" lon="-0.15529">
        <ele>98.9</ele>
        <time>2016-05-19T13:17:38.923Z</time>
      </trkpt>
      <trkpt lat="46.85387" lon="-0.15527">
        <ele>99.5</ele>
        <time>2016-05-19T13:17:40.919Z</time>
      </trkpt>
      <trkpt lat="46.85386" lon="-0.15525">
        <ele>99.2</ele>
        <time>2016-05-19T13:17:42.923Z</time>
      </trkpt>
      <trkpt lat="46.85384" lon="-0.15521">
        <ele>98.9</ele>
        <time>2016-05-19T13:17:44.922Z</time>
      </trkpt>
      <trkpt lat="46.85383" lon="-0.15519">
        <ele>98.4</ele>
        <time>2016-05-19T13:17:46.919Z</time>
      </trkpt>
      <trkpt lat="46.85381" lon="-0.15517">
        <ele>98.5</ele>
        <time>2016-05-19T13:17:48.930Z</time>
      </trkpt>
      <trkpt lat="46.85379" lon="-0.15514">
        <ele>98.9</ele>
        <time>2016-05-19T13:17:50.910Z</time>
      </trkpt>
      <trkpt lat="46.85378" lon="-0.15513">
        <ele>98.9</ele>
        <time>2016-05-19T13:17:51.911Z</time>
      </trkpt>
      <trkpt lat="46.85376" lon="-0.1551">
        <ele>99.1</ele>
        <time>2016-05-19T13:17:53.924Z</time>
      </trkpt>
      <trkpt lat="46.85375" lon="-0.15507">
        <ele>98.7</ele>
        <time>2016-05-19T13:17:55.924Z</time>
      </trkpt>
      <trkpt lat="46.85373" lon="-0.15504">
        <ele>97.8</ele>
        <time>2016-05-19T13:17:57.944Z</time>
      </trkpt>
      <trkpt lat="46.85373" lon="-0.15503">
        <ele>97.4</ele>
        <time>2016-05-19T13:17:58.921Z</time>
      </trkpt>
      <trkpt lat="46.85372" lon="-0.15501">
        <ele>97.3</ele>
        <time>2016-05-19T13:17:59.908Z</time>
      </trkpt>
      <trkpt lat="46.85371" lon="-0.155">
        <ele>97</ele>
        <time>2016-05-19T13:18:00.914Z</time>
      </trkpt>
      <trkpt lat="46.8537" lon="-0.15496">
        <ele>95.9</ele>
        <time>2016-05-19T13:18:02.923Z</time>
      </trkpt>
      <trkpt lat="46.85368" lon="-0.15493">
        <ele>94.4</ele>
        <time>2016-05-19T13:18:04.919Z</time>
      </trkpt>
      <trkpt lat="46.85366" lon="-0.1549">
        <ele>93.9</ele>
        <time>2016-05-19T13:18:06.925Z</time>
      </trkpt>
      <trkpt lat="46.85365" lon="-0.15487">
        <ele>93.1</ele>
        <time>2016-05-19T13:18:08.925Z</time>
      </trkpt>
      <trkpt lat="46.85363" lon="-0.15483">
        <ele>92.5</ele>
        <time>2016-05-19T13:18:10.930Z</time>
      </trkpt>
      <trkpt lat="46.85361" lon="-0.15481">
        <ele>91.6</ele>
        <time>2016-05-19T13:18:12.928Z</time>
      </trkpt>
      <trkpt lat="46.85359" lon="-0.15478">
        <ele>91.4</ele>
        <time>2016-05-19T13:18:14.924Z</time>
      </trkpt>
      <trkpt lat="46.85358" lon="-0.15475">
        <ele>91</ele>
        <time>2016-05-19T13:18:16.928Z</time>
      </trkpt>
      <trkpt lat="46.85356" lon="-0.15472">
        <ele>91.3</ele>
        <time>2016-05-19T13:18:18.926Z</time>
      </trkpt>
      <trkpt lat="46.85355" lon="-0.15469">
        <ele>92.2</ele>
        <time>2016-05-19T13:18:20.919Z</time>
      </trkpt>
      <trkpt lat="46.85354" lon="-0.15468">
        <ele>92.3</ele>
        <time>2016-05-19T13:18:21.923Z</time>
      </trkpt>
      <trkpt lat="46.85352" lon="-0.15465">
        <ele>92.7</ele>
        <time>2016-05-19T13:18:23.924Z</time>
      </trkpt>
      <trkpt lat="46.85351" lon="-0.15462">
        <ele>93.3</ele>
        <time>2016-05-19T13:18:25.923Z</time>
      </trkpt>
      <trkpt lat="46.85349" lon="-0.15459">
        <ele>93.3</ele>
        <time>2016-05-19T13:18:27.923Z</time>
      </trkpt>
      <trkpt lat="46.85347" lon="-0.15457">
        <ele>92.8</ele>
        <time>2016-05-19T13:18:29.924Z</time>
      </trkpt>
      <trkpt lat="46.85345" lon="-0.15455">
        <ele>92.2</ele>
        <time>2016-05-19T13:18:31.924Z</time>
      </trkpt>
      <trkpt lat="46.85343" lon="-0.15453">
        <ele>91.6</ele>
        <time>2016-05-19T13:18:33.920Z</time>
      </trkpt>
      <trkpt lat="46.85341" lon="-0.15451">
        <ele>90.9</ele>
        <time>2016-05-19T13:18:35.923Z</time>
      </trkpt>
      <trkpt lat="46.85339" lon="-0.15449">
        <ele>90.4</ele>
        <time>2016-05-19T13:18:37.926Z</time>
      </trkpt>
      <trkpt lat="46.85336" lon="-0.15447">
        <ele>89.7</ele>
        <time>2016-05-19T13:18:39.922Z</time>
      </trkpt>
      <trkpt lat="46.85334" lon="-0.15446">
        <ele>89</ele>
        <time>2016-05-19T13:18:41.917Z</time>
      </trkpt>
      <trkpt lat="46.85331" lon="-0.15444">
        <ele>88.8</ele>
        <time>2016-05-19T13:18:43.924Z</time>
      </trkpt>
      <trkpt lat="46.85329" lon="-0.15442">
        <ele>88.2</ele>
        <time>2016-05-19T13:18:45.928Z</time>
      </trkpt>
      <trkpt lat="46.85328" lon="-0.15441">
        <ele>88.2</ele>
        <time>2016-05-19T13:18:47.931Z</time>
      </trkpt>
      <trkpt lat="46.85326" lon="-0.1544">
        <ele>88</ele>
        <time>2016-05-19T13:18:49.933Z</time>
      </trkpt>
      <trkpt lat="46.85323" lon="-0.1544">
        <ele>87.9</ele>
        <time>2016-05-19T13:18:51.923Z</time>
      </trkpt>
      <trkpt lat="46.85321" lon="-0.15439">
        <ele>87.8</ele>
        <time>2016-05-19T13:18:53.924Z</time>
      </trkpt>
      <trkpt lat="46.8532" lon="-0.15439">
        <ele>88.5</ele>
        <time>2016-05-19T13:18:55.943Z</time>
      </trkpt>
      <trkpt lat="46.85317" lon="-0.15439">
        <ele>88.5</ele>
        <time>2016-05-19T13:18:57.922Z</time>
      </trkpt>
      <trkpt lat="46.85315" lon="-0.15439">
        <ele>88.4</ele>
        <time>2016-05-19T13:18:59.923Z</time>
      </trkpt>
      <trkpt lat="46.85314" lon="-0.15439">
        <ele>89.3</ele>
        <time>2016-05-19T13:19:01.922Z</time>
      </trkpt>
      <trkpt lat="46.85312" lon="-0.15439">
        <ele>89.5</ele>
        <time>2016-05-19T13:19:03.923Z</time>
      </trkpt>
      <trkpt lat="46.85311" lon="-0.1544">
        <ele>88.9</ele>
        <time>2016-05-19T13:19:05.927Z</time>
      </trkpt>
      <trkpt lat="46.8531" lon="-0.15439">
        <ele>89.5</ele>
        <time>2016-05-19T13:19:07.923Z</time>
      </trkpt>
      <trkpt lat="46.85308" lon="-0.15439">
        <ele>89.8</ele>
        <time>2016-05-19T13:19:09.934Z</time>
      </trkpt>
      <trkpt lat="46.85306" lon="-0.1544">
        <ele>89.7</ele>
        <time>2016-05-19T13:19:11.923Z</time>
      </trkpt>
      <trkpt lat="46.85304" lon="-0.1544">
        <ele>90.4</ele>
        <time>2016-05-19T13:19:13.926Z</time>
      </trkpt>
      <trkpt lat="46.85302" lon="-0.15441">
        <ele>90.6</ele>
        <time>2016-05-19T13:19:15.922Z</time>
      </trkpt>
      <trkpt lat="46.85299" lon="-0.15441">
        <ele>92</ele>
        <time>2016-05-19T13:19:17.922Z</time>
      </trkpt>
      <trkpt lat="46.85297" lon="-0.15442">
        <ele>92.7</ele>
        <time>2016-05-19T13:19:19.924Z</time>
      </trkpt>
      <trkpt lat="46.85295" lon="-0.15443">
        <ele>92.9</ele>
        <time>2016-05-19T13:19:21.930Z</time>
      </trkpt>
      <trkpt lat="46.85293" lon="-0.15443">
        <ele>93.6</ele>
        <time>2016-05-19T13:19:23.924Z</time>
      </trkpt>
      <trkpt lat="46.8529" lon="-0.15444">
        <ele>94.2</ele>
        <time>2016-05-19T13:19:25.923Z</time>
      </trkpt>
      <trkpt lat="46.85288" lon="-0.15444">
        <ele>94.7</ele>
        <time>2016-05-19T13:19:27.923Z</time>
      </trkpt>
      <trkpt lat="46.85286" lon="-0.15445">
        <ele>94.7</ele>
        <time>2016-05-19T13:19:29.923Z</time>
      </trkpt>
      <trkpt lat="46.85284" lon="-0.15445">
        <ele>93.9</ele>
        <time>2016-05-19T13:19:31.926Z</time>
      </trkpt>
      <trkpt lat="46.85282" lon="-0.15445">
        <ele>94</ele>
        <time>2016-05-19T13:19:33.926Z</time>
      </trkpt>
      <trkpt lat="46.8528" lon="-0.15445">
        <ele>93.9</ele>
        <time>2016-05-19T13:19:35.927Z</time>
      </trkpt>
      <trkpt lat="46.85278" lon="-0.15445">
        <ele>93.2</ele>
        <time>2016-05-19T13:19:37.929Z</time>
      </trkpt>
      <trkpt lat="46.85276" lon="-0.15445">
        <ele>93.4</ele>
        <time>2016-05-19T13:19:39.927Z</time>
      </trkpt>
      <trkpt lat="46.85274" lon="-0.15445">
        <ele>93.3</ele>
        <time>2016-05-19T13:19:41.912Z</time>
      </trkpt>
      <trkpt lat="46.85273" lon="-0.15445">
        <ele>93.3</ele>
        <time>2016-05-19T13:19:42.927Z</time>
      </trkpt>
      <trkpt lat="46.85272" lon="-0.15444">
        <ele>93.2</ele>
        <time>2016-05-19T13:19:43.910Z</time>
      </trkpt>
      <trkpt lat="46.8527" lon="-0.15444">
        <ele>92.8</ele>
        <time>2016-05-19T13:19:45.924Z</time>
      </trkpt>
      <trkpt lat="46.85267" lon="-0.15444">
        <ele>92.3</ele>
        <time>2016-05-19T13:19:47.922Z</time>
      </trkpt>
      <trkpt lat="46.85265" lon="-0.15443">
        <ele>91.8</ele>
        <time>2016-05-19T13:19:49.929Z</time>
      </trkpt>
      <trkpt lat="46.85264" lon="-0.15442">
        <ele>91</ele>
        <time>2016-05-19T13:19:51.927Z</time>
      </trkpt>
      <trkpt lat="46.85262" lon="-0.1544">
        <ele>91.5</ele>
        <time>2016-05-19T13:19:53.926Z</time>
      </trkpt>
      <trkpt lat="46.8526" lon="-0.15437">
        <ele>91.4</ele>
        <time>2016-05-19T13:19:55.923Z</time>
      </trkpt>
      <trkpt lat="46.85259" lon="-0.15435">
        <ele>91.2</ele>
        <time>2016-05-19T13:19:57.907Z</time>
      </trkpt>
      <trkpt lat="46.85258" lon="-0.15435">
        <ele>90.7</ele>
        <time>2016-05-19T13:19:58.911Z</time>
      </trkpt>
      <trkpt lat="46.85256" lon="-0.15432">
        <ele>89.6</ele>
        <time>2016-05-19T13:20:00.926Z</time>
      </trkpt>
      <trkpt lat="46.85255" lon="-0.1543">
        <ele>88.9</ele>
        <time>2016-05-19T13:20:02.924Z</time>
      </trkpt>
      <trkpt lat="46.85254" lon="-0.15427">
        <ele>88.4</ele>
        <time>2016-05-19T13:20:04.930Z</time>
      </trkpt>
      <trkpt lat="46.85252" lon="-0.15425">
        <ele>87.7</ele>
        <time>2016-05-19T13:20:06.922Z</time>
      </trkpt>
      <trkpt lat="46.85251" lon="-0.15422">
        <ele>87.5</ele>
        <time>2016-05-19T13:20:08.926Z</time>
      </trkpt>
      <trkpt lat="46.8525" lon="-0.1542">
        <ele>87.4</ele>
        <time>2016-05-19T13:20:10.925Z</time>
      </trkpt>
      <trkpt lat="46.85249" lon="-0.15417">
        <ele>87.6</ele>
        <time>2016-05-19T13:20:12.931Z</time>
      </trkpt>
      <trkpt lat="46.85247" lon="-0.15415">
        <ele>87</ele>
        <time>2016-05-19T13:20:14.923Z</time>
      </trkpt>
      <trkpt lat="46.85246" lon="-0.15412">
        <ele>86.9</ele>
        <time>2016-05-19T13:20:16.928Z</time>
      </trkpt>
      <trkpt lat="46.85245" lon="-0.1541">
        <ele>86.1</ele>
        <time>2016-05-19T13:20:18.924Z</time>
      </trkpt>
      <trkpt lat="46.85244" lon="-0.15408">
        <ele>85.8</ele>
        <time>2016-05-19T13:20:20.928Z</time>
      </trkpt>
      <trkpt lat="46.85243" lon="-0.15405">
        <ele>85.1</ele>
        <time>2016-05-19T13:20:22.921Z</time>
      </trkpt>
      <trkpt lat="46.85241" lon="-0.15402">
        <ele>85</ele>
        <time>2016-05-19T13:20:24.927Z</time>
      </trkpt>
      <trkpt lat="46.8524" lon="-0.154">
        <ele>84.1</ele>
        <time>2016-05-19T13:20:26.924Z</time>
      </trkpt>
      <trkpt lat="46.85238" lon="-0.15397">
        <ele>83.4</ele>
        <time>2016-05-19T13:20:28.917Z</time>
      </trkpt>
      <trkpt lat="46.85236" lon="-0.15395">
        <ele>82.6</ele>
        <time>2016-05-19T13:20:30.923Z</time>
      </trkpt>
      <trkpt lat="46.85235" lon="-0.15392">
        <ele>82.2</ele>
        <time>2016-05-19T13:20:32.969Z</time>
      </trkpt>
      <trkpt lat="46.85233" lon="-0.1539">
        <ele>81.3</ele>
        <time>2016-05-19T13:20:34.925Z</time>
      </trkpt>
      <trkpt lat="46.85232" lon="-0.15387">
        <ele>80.9</ele>
        <time>2016-05-19T13:20:36.934Z</time>
      </trkpt>
      <trkpt lat="46.8523" lon="-0.15384">
        <ele>80.2</ele>
        <time>2016-05-19T13:20:38.914Z</time>
      </trkpt>
      <trkpt lat="46.85229" lon="-0.15381">
        <ele>80</ele>
        <time>2016-05-19T13:20:40.924Z</time>
      </trkpt>
      <trkpt lat="46.85228" lon="-0.15378">
        <ele>78.5</ele>
        <time>2016-05-19T13:20:42.923Z</time>
      </trkpt>
      <trkpt lat="46.85226" lon="-0.15375">
        <ele>77.9</ele>
        <time>2016-05-19T13:20:44.927Z</time>
      </trkpt>
      <trkpt lat="46.85224" lon="-0.15373">
        <ele>78</ele>
        <time>2016-05-19T13:20:46.921Z</time>
      </trkpt>
      <trkpt lat="46.85223" lon="-0.1537">
        <ele>78.3</ele>
        <time>2016-05-19T13:20:48.935Z</time>
      </trkpt>
      <trkpt lat="46.85222" lon="-0.15367">
        <ele>78.4</ele>
        <time>2016-05-19T13:20:50.921Z</time>
      </trkpt>
      <trkpt lat="46.8522" lon="-0.15365">
        <ele>78.2</ele>
        <time>2016-05-19T13:20:52.927Z</time>
      </trkpt>
      <trkpt lat="46.85219" lon="-0.15362">
        <ele>77.7</ele>
        <time>2016-05-19T13:20:54.932Z</time>
      </trkpt>
      <trkpt lat="46.85218" lon="-0.1536">
        <ele>77.2</ele>
        <time>2016-05-19T13:20:56.925Z</time>
      </trkpt>
      <trkpt lat="46.85215" lon="-0.15357">
        <ele>76</ele>
        <time>2016-05-19T13:20:58.923Z</time>
      </trkpt>
      <trkpt lat="46.85214" lon="-0.15355">
        <ele>75.7</ele>
        <time>2016-05-19T13:21:00.932Z</time>
      </trkpt>
      <trkpt lat="46.85213" lon="-0.15353">
        <ele>76.3</ele>
        <time>2016-05-19T13:21:02.928Z</time>
      </trkpt>
      <trkpt lat="46.85211" lon="-0.1535">
        <ele>75.4</ele>
        <time>2016-05-19T13:21:04.932Z</time>
      </trkpt>
      <trkpt lat="46.85209" lon="-0.15348">
        <ele>74.8</ele>
        <time>2016-05-19T13:21:06.929Z</time>
      </trkpt>
      <trkpt lat="46.85207" lon="-0.15345">
        <ele>74</ele>
        <time>2016-05-19T13:21:08.923Z</time>
      </trkpt>
      <trkpt lat="46.85205" lon="-0.15343">
        <ele>73.7</ele>
        <time>2016-05-19T13:21:10.923Z</time>
      </trkpt>
      <trkpt lat="46.85204" lon="-0.15341">
        <ele>74</ele>
        <time>2016-05-19T13:21:12.936Z</time>
      </trkpt>
      <trkpt lat="46.85202" lon="-0.1534">
        <ele>73.7</ele>
        <time>2016-05-19T13:21:14.924Z</time>
      </trkpt>
      <trkpt lat="46.852" lon="-0.15338">
        <ele>73.1</ele>
        <time>2016-05-19T13:21:16.920Z</time>
      </trkpt>
      <trkpt lat="46.85199" lon="-0.15336">
        <ele>73.2</ele>
        <time>2016-05-19T13:21:18.923Z</time>
      </trkpt>
      <trkpt lat="46.85197" lon="-0.15333">
        <ele>73</ele>
        <time>2016-05-19T13:21:20.930Z</time>
      </trkpt>
      <trkpt lat="46.85196" lon="-0.15331">
        <ele>72.4</ele>
        <time>2016-05-19T13:21:22.923Z</time>
      </trkpt>
      <trkpt lat="46.85194" lon="-0.15329">
        <ele>72.1</ele>
        <time>2016-05-19T13:21:24.929Z</time>
      </trkpt>
      <trkpt lat="46.85193" lon="-0.15327">
        <ele>72.1</ele>
        <time>2016-05-19T13:21:26.930Z</time>
      </trkpt>
      <trkpt lat="46.85192" lon="-0.15324">
        <ele>72</ele>
        <time>2016-05-19T13:21:28.933Z</time>
      </trkpt>
      <trkpt lat="46.8519" lon="-0.15322">
        <ele>71.8</ele>
        <time>2016-05-19T13:21:30.934Z</time>
      </trkpt>
      <trkpt lat="46.85188" lon="-0.1532">
        <ele>72</ele>
        <time>2016-05-19T13:21:32.932Z</time>
      </trkpt>
      <trkpt lat="46.85186" lon="-0.15318">
        <ele>71.5</ele>
        <time>2016-05-19T13:21:34.924Z</time>
      </trkpt>
      <trkpt lat="46.85185" lon="-0.15317">
        <ele>71</ele>
        <time>2016-05-19T13:21:36.925Z</time>
      </trkpt>
      <trkpt lat="46.85183" lon="-0.15315">
        <ele>71</ele>
        <time>2016-05-19T13:21:38.924Z</time>
      </trkpt>
      <trkpt lat="46.85182" lon="-0.15313">
        <ele>71.1</ele>
        <time>2016-05-19T13:21:40.924Z</time>
      </trkpt>
      <trkpt lat="46.8518" lon="-0.15311">
        <ele>71.3</ele>
        <time>2016-05-19T13:21:42.925Z</time>
      </trkpt>
      <trkpt lat="46.85178" lon="-0.15308">
        <ele>70.5</ele>
        <time>2016-05-19T13:21:44.909Z</time>
      </trkpt>
      <trkpt lat="46.85178" lon="-0.15307">
        <ele>70.1</ele>
        <time>2016-05-19T13:21:45.911Z</time>
      </trkpt>
      <trkpt lat="46.85175" lon="-0.15304">
        <ele>68.8</ele>
        <time>2016-05-19T13:21:47.924Z</time>
      </trkpt>
      <trkpt lat="46.85173" lon="-0.15302">
        <ele>68.4</ele>
        <time>2016-05-19T13:21:49.924Z</time>
      </trkpt>
      <trkpt lat="46.85171" lon="-0.15299">
        <ele>67</ele>
        <time>2016-05-19T13:21:51.921Z</time>
      </trkpt>
      <trkpt lat="46.85169" lon="-0.15297">
        <ele>65.5</ele>
        <time>2016-05-19T13:21:54.429Z</time>
      </trkpt>
      <trkpt lat="46.85167" lon="-0.15295">
        <ele>64.9</ele>
        <time>2016-05-19T13:21:56.429Z</time>
      </trkpt>
      <trkpt lat="46.85166" lon="-0.15293">
        <ele>65.6</ele>
        <time>2016-05-19T13:21:58.430Z</time>
      </trkpt>
      <trkpt lat="46.85164" lon="-0.15292">
        <ele>65.3</ele>
        <time>2016-05-19T13:22:00.427Z</time>
      </trkpt>
      <trkpt lat="46.85162" lon="-0.1529">
        <ele>65.2</ele>
        <time>2016-05-19T13:22:02.432Z</time>
      </trkpt>
      <trkpt lat="46.85161" lon="-0.15289">
        <ele>65.2</ele>
        <time>2016-05-19T13:22:04.440Z</time>
      </trkpt>
      <trkpt lat="46.85159" lon="-0.15287">
        <ele>65.1</ele>
        <time>2016-05-19T13:22:06.433Z</time>
      </trkpt>
      <trkpt lat="46.85157" lon="-0.15286">
        <ele>65.2</ele>
        <time>2016-05-19T13:22:08.433Z</time>
      </trkpt>
      <trkpt lat="46.85155" lon="-0.15284">
        <ele>64.7</ele>
        <time>2016-05-19T13:22:10.425Z</time>
      </trkpt>
      <trkpt lat="46.85153" lon="-0.15282">
        <ele>64.4</ele>
        <time>2016-05-19T13:22:12.431Z</time>
      </trkpt>
      <trkpt lat="46.85151" lon="-0.1528">
        <ele>63.4</ele>
        <time>2016-05-19T13:22:14.435Z</time>
      </trkpt>
      <trkpt lat="46.85149" lon="-0.15277">
        <ele>64.1</ele>
        <time>2016-05-19T13:22:16.442Z</time>
      </trkpt>
      <trkpt lat="46.85148" lon="-0.15275">
        <ele>64.5</ele>
        <time>2016-05-19T13:22:18.433Z</time>
      </trkpt>
      <trkpt lat="46.85147" lon="-0.15273">
        <ele>64.9</ele>
        <time>2016-05-19T13:22:20.436Z</time>
      </trkpt>
      <trkpt lat="46.85145" lon="-0.15271">
        <ele>64.8</ele>
        <time>2016-05-19T13:22:22.434Z</time>
      </trkpt>
      <trkpt lat="46.85143" lon="-0.15269">
        <ele>64.8</ele>
        <time>2016-05-19T13:22:24.431Z</time>
      </trkpt>
      <trkpt lat="46.85142" lon="-0.15267">
        <ele>65.6</ele>
        <time>2016-05-19T13:22:26.428Z</time>
      </trkpt>
      <trkpt lat="46.8514" lon="-0.15265">
        <ele>65.2</ele>
        <time>2016-05-19T13:22:28.419Z</time>
      </trkpt>
      <trkpt lat="46.85139" lon="-0.15264">
        <ele>65.5</ele>
        <time>2016-05-19T13:22:29.417Z</time>
      </trkpt>
      <trkpt lat="46.85138" lon="-0.15263">
        <ele>65.7</ele>
        <time>2016-05-19T13:22:30.419Z</time>
      </trkpt>
      <trkpt lat="46.85137" lon="-0.15262">
        <ele>65.8</ele>
        <time>2016-05-19T13:22:31.424Z</time>
      </trkpt>
      <trkpt lat="46.85135" lon="-0.1526">
        <ele>65.4</ele>
        <time>2016-05-19T13:22:33.433Z</time>
      </trkpt>
      <trkpt lat="46.85134" lon="-0.15257">
        <ele>65.3</ele>
        <time>2016-05-19T13:22:35.431Z</time>
      </trkpt>
      <trkpt lat="46.85132" lon="-0.15255">
        <ele>65</ele>
        <time>2016-05-19T13:22:37.434Z</time>
      </trkpt>
      <trkpt lat="46.85131" lon="-0.15253">
        <ele>65.1</ele>
        <time>2016-05-19T13:22:39.456Z</time>
      </trkpt>
      <trkpt lat="46.85129" lon="-0.15251">
        <ele>65.3</ele>
        <time>2016-05-19T13:22:41.419Z</time>
      </trkpt>
      <trkpt lat="46.85128" lon="-0.1525">
        <ele>64.8</ele>
        <time>2016-05-19T13:22:42.422Z</time>
      </trkpt>
      <trkpt lat="46.85127" lon="-0.15248">
        <ele>65.2</ele>
        <time>2016-05-19T13:22:44.429Z</time>
      </trkpt>
      <trkpt lat="46.85124" lon="-0.15246">
        <ele>65.4</ele>
        <time>2016-05-19T13:22:46.435Z</time>
      </trkpt>
      <trkpt lat="46.85122" lon="-0.15244">
        <ele>65.7</ele>
        <time>2016-05-19T13:22:48.431Z</time>
      </trkpt>
      <trkpt lat="46.8512" lon="-0.15242">
        <ele>65.3</ele>
        <time>2016-05-19T13:22:50.434Z</time>
      </trkpt>
      <trkpt lat="46.85119" lon="-0.1524">
        <ele>65.5</ele>
        <time>2016-05-19T13:22:52.433Z</time>
      </trkpt>
      <trkpt lat="46.85117" lon="-0.15238">
        <ele>65.9</ele>
        <time>2016-05-19T13:22:54.438Z</time>
      </trkpt>
      <trkpt lat="46.85116" lon="-0.15235">
        <ele>65.3</ele>
        <time>2016-05-19T13:22:56.434Z</time>
      </trkpt>
      <trkpt lat="46.85114" lon="-0.15233">
        <ele>64.6</ele>
        <time>2016-05-19T13:22:58.431Z</time>
      </trkpt>
      <trkpt lat="46.85112" lon="-0.15231">
        <ele>64.2</ele>
        <time>2016-05-19T13:23:00.431Z</time>
      </trkpt>
      <trkpt lat="46.8511" lon="-0.1523">
        <ele>63.5</ele>
        <time>2016-05-19T13:23:02.429Z</time>
      </trkpt>
      <trkpt lat="46.85108" lon="-0.15227">
        <ele>63</ele>
        <time>2016-05-19T13:23:04.441Z</time>
      </trkpt>
      <trkpt lat="46.85107" lon="-0.15225">
        <ele>63</ele>
        <time>2016-05-19T13:23:06.439Z</time>
      </trkpt>
      <trkpt lat="46.85106" lon="-0.15223">
        <ele>63</ele>
        <time>2016-05-19T13:23:08.434Z</time>
      </trkpt>
      <trkpt lat="46.85104" lon="-0.15221">
        <ele>62.2</ele>
        <time>2016-05-19T13:23:10.442Z</time>
      </trkpt>
      <trkpt lat="46.85102" lon="-0.15219">
        <ele>62.5</ele>
        <time>2016-05-19T13:23:12.441Z</time>
      </trkpt>
      <trkpt lat="46.85099" lon="-0.15217">
        <ele>61.3</ele>
        <time>2016-05-19T13:23:14.431Z</time>
      </trkpt>
      <trkpt lat="46.85098" lon="-0.15215">
        <ele>61.8</ele>
        <time>2016-05-19T13:23:16.436Z</time>
      </trkpt>
      <trkpt lat="46.85096" lon="-0.15213">
        <ele>62.4</ele>
        <time>2016-05-19T13:23:18.430Z</time>
      </trkpt>
      <trkpt lat="46.85095" lon="-0.15211">
        <ele>62.3</ele>
        <time>2016-05-19T13:23:20.435Z</time>
      </trkpt>
      <trkpt lat="46.85093" lon="-0.15209">
        <ele>62.9</ele>
        <time>2016-05-19T13:23:22.431Z</time>
      </trkpt>
      <trkpt lat="46.85092" lon="-0.15207">
        <ele>63</ele>
        <time>2016-05-19T13:23:24.430Z</time>
      </trkpt>
      <trkpt lat="46.8509" lon="-0.15205">
        <ele>62.9</ele>
        <time>2016-05-19T13:23:26.441Z</time>
      </trkpt>
      <trkpt lat="46.85088" lon="-0.15203">
        <ele>62.9</ele>
        <time>2016-05-19T13:23:28.424Z</time>
      </trkpt>
      <trkpt lat="46.85087" lon="-0.15202">
        <ele>63</ele>
        <time>2016-05-19T13:23:29.422Z</time>
      </trkpt>
      <trkpt lat="46.85086" lon="-0.15201">
        <ele>63</ele>
        <time>2016-05-19T13:23:30.420Z</time>
      </trkpt>
      <trkpt lat="46.85085" lon="-0.152">
        <ele>62.9</ele>
        <time>2016-05-19T13:23:31.424Z</time>
      </trkpt>
      <trkpt lat="46.85083" lon="-0.15198">
        <ele>63.2</ele>
        <time>2016-05-19T13:23:33.431Z</time>
      </trkpt>
      <trkpt lat="46.85082" lon="-0.15196">
        <ele>63.6</ele>
        <time>2016-05-19T13:23:35.432Z</time>
      </trkpt>
      <trkpt lat="46.8508" lon="-0.15193">
        <ele>64.3</ele>
        <time>2016-05-19T13:23:37.445Z</time>
      </trkpt>
      <trkpt lat="46.85079" lon="-0.15191">
        <ele>64.5</ele>
        <time>2016-05-19T13:23:39.440Z</time>
      </trkpt>
      <trkpt lat="46.85077" lon="-0.15189">
        <ele>64.7</ele>
        <time>2016-05-19T13:23:41.431Z</time>
      </trkpt>
      <trkpt lat="46.85075" lon="-0.15186">
        <ele>64.5</ele>
        <time>2016-05-19T13:23:43.441Z</time>
      </trkpt>
      <trkpt lat="46.85074" lon="-0.15184">
        <ele>64.6</ele>
        <time>2016-05-19T13:23:45.434Z</time>
      </trkpt>
      <trkpt lat="46.85071" lon="-0.15182">
        <ele>63.2</ele>
        <time>2016-05-19T13:23:47.434Z</time>
      </trkpt>
      <trkpt lat="46.85069" lon="-0.1518">
        <ele>62.5</ele>
        <time>2016-05-19T13:23:49.433Z</time>
      </trkpt>
      <trkpt lat="46.85067" lon="-0.15178">
        <ele>62.9</ele>
        <time>2016-05-19T13:23:51.421Z</time>
      </trkpt>
      <trkpt lat="46.85067" lon="-0.15177">
        <ele>63.1</ele>
        <time>2016-05-19T13:23:52.418Z</time>
      </trkpt>
      <trkpt lat="46.85066" lon="-0.15176">
        <ele>62.9</ele>
        <time>2016-05-19T13:23:53.427Z</time>
      </trkpt>
      <trkpt lat="46.85065" lon="-0.15175">
        <ele>62.8</ele>
        <time>2016-05-19T13:23:54.423Z</time>
      </trkpt>
      <trkpt lat="46.85064" lon="-0.15174">
        <ele>62.8</ele>
        <time>2016-05-19T13:23:55.422Z</time>
      </trkpt>
      <trkpt lat="46.85062" lon="-0.15172">
        <ele>62.9</ele>
        <time>2016-05-19T13:23:57.431Z</time>
      </trkpt>
      <trkpt lat="46.85061" lon="-0.1517">
        <ele>63.4</ele>
        <time>2016-05-19T13:23:59.433Z</time>
      </trkpt>
      <trkpt lat="46.8506" lon="-0.15168">
        <ele>64.2</ele>
        <time>2016-05-19T13:24:01.444Z</time>
      </trkpt>
      <trkpt lat="46.85058" lon="-0.15166">
        <ele>64</ele>
        <time>2016-05-19T13:24:03.433Z</time>
      </trkpt>
      <trkpt lat="46.85056" lon="-0.15164">
        <ele>63.6</ele>
        <time>2016-05-19T13:24:05.433Z</time>
      </trkpt>
      <trkpt lat="46.85055" lon="-0.15162">
        <ele>64</ele>
        <time>2016-05-19T13:24:07.441Z</time>
      </trkpt>
      <trkpt lat="46.85054" lon="-0.1516">
        <ele>65</ele>
        <time>2016-05-19T13:24:09.429Z</time>
      </trkpt>
      <trkpt lat="46.85053" lon="-0.15158">
        <ele>65.7</ele>
        <time>2016-05-19T13:24:11.430Z</time>
      </trkpt>
      <trkpt lat="46.85051" lon="-0.15156">
        <ele>66.1</ele>
        <time>2016-05-19T13:24:13.440Z</time>
      </trkpt>
      <trkpt lat="46.85049" lon="-0.15154">
        <ele>65.7</ele>
        <time>2016-05-19T13:24:15.433Z</time>
      </trkpt>
      <trkpt lat="46.85047" lon="-0.15151">
        <ele>65.6</ele>
        <time>2016-05-19T13:24:17.433Z</time>
      </trkpt>
      <trkpt lat="46.85045" lon="-0.15149">
        <ele>65.8</ele>
        <time>2016-05-19T13:24:19.475Z</time>
      </trkpt>
      <trkpt lat="46.85043" lon="-0.15147">
        <ele>65.9</ele>
        <time>2016-05-19T13:24:21.433Z</time>
      </trkpt>
      <trkpt lat="46.85041" lon="-0.15145">
        <ele>64.8</ele>
        <time>2016-05-19T13:24:23.443Z</time>
      </trkpt>
      <trkpt lat="46.8504" lon="-0.15143">
        <ele>64.3</ele>
        <time>2016-05-19T13:24:25.433Z</time>
      </trkpt>
      <trkpt lat="46.85038" lon="-0.15141">
        <ele>63.9</ele>
        <time>2016-05-19T13:24:27.434Z</time>
      </trkpt>
      <trkpt lat="46.85036" lon="-0.15139">
        <ele>63.5</ele>
        <time>2016-05-19T13:24:29.429Z</time>
      </trkpt>
      <trkpt lat="46.85034" lon="-0.15137">
        <ele>63</ele>
        <time>2016-05-19T13:24:31.436Z</time>
      </trkpt>
      <trkpt lat="46.85032" lon="-0.15135">
        <ele>62</ele>
        <time>2016-05-19T13:24:33.441Z</time>
      </trkpt>
      <trkpt lat="46.8503" lon="-0.15133">
        <ele>61.5</ele>
        <time>2016-05-19T13:24:35.432Z</time>
      </trkpt>
      <trkpt lat="46.85027" lon="-0.15131">
        <ele>61.2</ele>
        <time>2016-05-19T13:24:37.441Z</time>
      </trkpt>
      <trkpt lat="46.85025" lon="-0.15129">
        <ele>61.1</ele>
        <time>2016-05-19T13:24:39.443Z</time>
      </trkpt>
      <trkpt lat="46.85024" lon="-0.15127">
        <ele>62</ele>
        <time>2016-05-19T13:24:41.433Z</time>
      </trkpt>
      <trkpt lat="46.85022" lon="-0.15125">
        <ele>62.3</ele>
        <time>2016-05-19T13:24:43.433Z</time>
      </trkpt>
      <trkpt lat="46.8502" lon="-0.15122">
        <ele>61.9</ele>
        <time>2016-05-19T13:24:45.442Z</time>
      </trkpt>
      <trkpt lat="46.85019" lon="-0.1512">
        <ele>62.2</ele>
        <time>2016-05-19T13:24:47.433Z</time>
      </trkpt>
      <trkpt lat="46.85017" lon="-0.15118">
        <ele>61.9</ele>
        <time>2016-05-19T13:24:49.440Z</time>
      </trkpt>
      <trkpt lat="46.85016" lon="-0.15116">
        <ele>62.5</ele>
        <time>2016-05-19T13:24:51.432Z</time>
      </trkpt>
      <trkpt lat="46.85014" lon="-0.15114">
        <ele>62.5</ele>
        <time>2016-05-19T13:24:53.436Z</time>
      </trkpt>
      <trkpt lat="46.85012" lon="-0.15112">
        <ele>63.3</ele>
        <time>2016-05-19T13:24:55.432Z</time>
      </trkpt>
      <trkpt lat="46.85009" lon="-0.1511">
        <ele>63.4</ele>
        <time>2016-05-19T13:24:57.433Z</time>
      </trkpt>
      <trkpt lat="46.85008" lon="-0.15108">
        <ele>62.3</ele>
        <time>2016-05-19T13:24:59.432Z</time>
      </trkpt>
      <trkpt lat="46.85005" lon="-0.15107">
        <ele>61</ele>
        <time>2016-05-19T13:25:01.432Z</time>
      </trkpt>
      <trkpt lat="46.85003" lon="-0.15105">
        <ele>60.2</ele>
        <time>2016-05-19T13:25:03.431Z</time>
      </trkpt>
      <trkpt lat="46.85001" lon="-0.15103">
        <ele>59.4</ele>
        <time>2016-05-19T13:25:05.435Z</time>
      </trkpt>
      <trkpt lat="46.84999" lon="-0.15101">
        <ele>58.9</ele>
        <time>2016-05-19T13:25:07.432Z</time>
      </trkpt>
      <trkpt lat="46.84998" lon="-0.15099">
        <ele>58.9</ele>
        <time>2016-05-19T13:25:09.433Z</time>
      </trkpt>
      <trkpt lat="46.84996" lon="-0.15097">
        <ele>59.2</ele>
        <time>2016-05-19T13:25:11.436Z</time>
      </trkpt>
      <trkpt lat="46.84995" lon="-0.15095">
        <ele>59.2</ele>
        <time>2016-05-19T13:25:13.433Z</time>
      </trkpt>
      <trkpt lat="46.84994" lon="-0.15093">
        <ele>59.7</ele>
        <time>2016-05-19T13:25:15.433Z</time>
      </trkpt>
      <trkpt lat="46.84992" lon="-0.1509">
        <ele>59.6</ele>
        <time>2016-05-19T13:25:17.432Z</time>
      </trkpt>
      <trkpt lat="46.8499" lon="-0.15088">
        <ele>60</ele>
        <time>2016-05-19T13:25:19.440Z</time>
      </trkpt>
      <trkpt lat="46.84988" lon="-0.15086">
        <ele>59.5</ele>
        <time>2016-05-19T13:25:21.430Z</time>
      </trkpt>
      <trkpt lat="46.84987" lon="-0.15084">
        <ele>58.7</ele>
        <time>2016-05-19T13:25:23.435Z</time>
      </trkpt>
      <trkpt lat="46.84984" lon="-0.15082">
        <ele>57.7</ele>
        <time>2016-05-19T13:25:25.442Z</time>
      </trkpt>
      <trkpt lat="46.84982" lon="-0.1508">
        <ele>55.5</ele>
        <time>2016-05-19T13:25:27.430Z</time>
      </trkpt>
      <trkpt lat="46.8498" lon="-0.15078">
        <ele>54</ele>
        <time>2016-05-19T13:25:29.429Z</time>
      </trkpt>
      <trkpt lat="46.84979" lon="-0.15076">
        <ele>52.2</ele>
        <time>2016-05-19T13:25:31.487Z</time>
      </trkpt>
      <trkpt lat="46.84977" lon="-0.15073">
        <ele>51.9</ele>
        <time>2016-05-19T13:25:33.437Z</time>
      </trkpt>
      <trkpt lat="46.84975" lon="-0.15071">
        <ele>52.4</ele>
        <time>2016-05-19T13:25:35.430Z</time>
      </trkpt>
      <trkpt lat="46.84974" lon="-0.15069">
        <ele>52.1</ele>
        <time>2016-05-19T13:25:37.450Z</time>
      </trkpt>
      <trkpt lat="46.84973" lon="-0.15067">
        <ele>52.5</ele>
        <time>2016-05-19T13:25:39.431Z</time>
      </trkpt>
      <trkpt lat="46.84972" lon="-0.15065">
        <ele>53.9</ele>
        <time>2016-05-19T13:25:41.430Z</time>
      </trkpt>
      <trkpt lat="46.84971" lon="-0.15064">
        <ele>54.9</ele>
        <time>2016-05-19T13:25:43.435Z</time>
      </trkpt>
      <trkpt lat="46.84969" lon="-0.1506">
        <ele>56</ele>
        <time>2016-05-19T13:25:45.438Z</time>
      </trkpt>
      <trkpt lat="46.84968" lon="-0.15058">
        <ele>56.8</ele>
        <time>2016-05-19T13:25:47.431Z</time>
      </trkpt>
      <trkpt lat="46.84968" lon="-0.15055">
        <ele>58.3</ele>
        <time>2016-05-19T13:25:49.436Z</time>
      </trkpt>
      <trkpt lat="46.84968" lon="-0.15051">
        <ele>59.3</ele>
        <time>2016-05-19T13:25:51.444Z</time>
      </trkpt>
      <trkpt lat="46.84968" lon="-0.15049">
        <ele>60.2</ele>
        <time>2016-05-19T13:25:53.432Z</time>
      </trkpt>
      <trkpt lat="46.84968" lon="-0.15048">
        <ele>60.2</ele>
        <time>2016-05-19T13:25:54.434Z</time>
      </trkpt>
      <trkpt lat="46.84969" lon="-0.15045">
        <ele>61.3</ele>
        <time>2016-05-19T13:25:56.432Z</time>
      </trkpt>
      <trkpt lat="46.8497" lon="-0.15041">
        <ele>62.4</ele>
        <time>2016-05-19T13:25:58.444Z</time>
      </trkpt>
      <trkpt lat="46.84971" lon="-0.15038">
        <ele>63</ele>
        <time>2016-05-19T13:26:00.435Z</time>
      </trkpt>
      <trkpt lat="46.84972" lon="-0.15035">
        <ele>64.5</ele>
        <time>2016-05-19T13:26:02.431Z</time>
      </trkpt>
      <trkpt lat="46.84974" lon="-0.15032">
        <ele>65.5</ele>
        <time>2016-05-19T13:26:04.429Z</time>
      </trkpt>
      <trkpt lat="46.84975" lon="-0.15029">
        <ele>66.5</ele>
        <time>2016-05-19T13:26:06.439Z</time>
      </trkpt>
      <trkpt lat="46.84976" lon="-0.15026">
        <ele>66.6</ele>
        <time>2016-05-19T13:26:08.432Z</time>
      </trkpt>
      <trkpt lat="46.84977" lon="-0.15023">
        <ele>66.8</ele>
        <time>2016-05-19T13:26:10.431Z</time>
      </trkpt>
      <trkpt lat="46.84979" lon="-0.15021">
        <ele>67.1</ele>
        <time>2016-05-19T13:26:12.432Z</time>
      </trkpt>
      <trkpt lat="46.8498" lon="-0.15018">
        <ele>67.6</ele>
        <time>2016-05-19T13:26:14.416Z</time>
      </trkpt>
      <trkpt lat="46.8498" lon="-0.15017">
        <ele>68.2</ele>
        <time>2016-05-19T13:26:15.421Z</time>
      </trkpt>
      <trkpt lat="46.84981" lon="-0.15015">
        <ele>68.1</ele>
        <time>2016-05-19T13:26:16.419Z</time>
      </trkpt>
      <trkpt lat="46.84982" lon="-0.15014">
        <ele>68.2</ele>
        <time>2016-05-19T13:26:17.422Z</time>
      </trkpt>
      <trkpt lat="46.84982" lon="-0.15012">
        <ele>68.8</ele>
        <time>2016-05-19T13:26:19.418Z</time>
      </trkpt>
      <trkpt lat="46.84983" lon="-0.1501">
        <ele>68.3</ele>
        <time>2016-05-19T13:26:20.417Z</time>
      </trkpt>
      <trkpt lat="46.84983" lon="-0.15009">
        <ele>67.9</ele>
        <time>2016-05-19T13:26:21.423Z</time>
      </trkpt>
      <trkpt lat="46.84984" lon="-0.15007">
        <ele>68</ele>
        <time>2016-05-19T13:26:23.480Z</time>
      </trkpt>
      <trkpt lat="46.84985" lon="-0.15004">
        <ele>68.6</ele>
        <time>2016-05-19T13:26:25.433Z</time>
      </trkpt>
      <trkpt lat="46.84986" lon="-0.15002">
        <ele>68.5</ele>
        <time>2016-05-19T13:26:27.477Z</time>
      </trkpt>
      <trkpt lat="46.84987" lon="-0.14999">
        <ele>68.6</ele>
        <time>2016-05-19T13:26:29.429Z</time>
      </trkpt>
      <trkpt lat="46.84988" lon="-0.14995">
        <ele>67</ele>
        <time>2016-05-19T13:26:31.441Z</time>
      </trkpt>
      <trkpt lat="46.8499" lon="-0.14992">
        <ele>68.5</ele>
        <time>2016-05-19T13:26:33.430Z</time>
      </trkpt>
      <trkpt lat="46.8499" lon="-0.1499">
        <ele>69</ele>
        <time>2016-05-19T13:26:35.429Z</time>
      </trkpt>
      <trkpt lat="46.84991" lon="-0.14987">
        <ele>68.4</ele>
        <time>2016-05-19T13:26:37.434Z</time>
      </trkpt>
      <trkpt lat="46.84993" lon="-0.14985">
        <ele>69.7</ele>
        <time>2016-05-19T13:26:39.435Z</time>
      </trkpt>
      <trkpt lat="46.84995" lon="-0.14982">
        <ele>71.1</ele>
        <time>2016-05-19T13:26:41.436Z</time>
      </trkpt>
      <trkpt lat="46.84996" lon="-0.14979">
        <ele>71.5</ele>
        <time>2016-05-19T13:26:43.432Z</time>
      </trkpt>
      <trkpt lat="46.84998" lon="-0.14976">
        <ele>72.7</ele>
        <time>2016-05-19T13:26:45.434Z</time>
      </trkpt>
      <trkpt lat="46.85" lon="-0.14973">
        <ele>72.3</ele>
        <time>2016-05-19T13:26:47.432Z</time>
      </trkpt>
      <trkpt lat="46.85" lon="-0.1497">
        <ele>70.6</ele>
        <time>2016-05-19T13:26:49.434Z</time>
      </trkpt>
      <trkpt lat="46.85001" lon="-0.14967">
        <ele>69.1</ele>
        <time>2016-05-19T13:26:51.431Z</time>
      </trkpt>
      <trkpt lat="46.85002" lon="-0.14965">
        <ele>69.7</ele>
        <time>2016-05-19T13:26:53.430Z</time>
      </trkpt>
      <trkpt lat="46.85003" lon="-0.14961">
        <ele>69</ele>
        <time>2016-05-19T13:26:55.433Z</time>
      </trkpt>
      <trkpt lat="46.85005" lon="-0.14958">
        <ele>69.6</ele>
        <time>2016-05-19T13:26:57.437Z</time>
      </trkpt>
      <trkpt lat="46.85006" lon="-0.14956">
        <ele>69.8</ele>
        <time>2016-05-19T13:26:59.433Z</time>
      </trkpt>
      <trkpt lat="46.85008" lon="-0.14953">
        <ele>69.8</ele>
        <time>2016-05-19T13:27:01.447Z</time>
      </trkpt>
      <trkpt lat="46.85008" lon="-0.14951">
        <ele>69.9</ele>
        <time>2016-05-19T13:27:03.432Z</time>
      </trkpt>
      <trkpt lat="46.85009" lon="-0.14948">
        <ele>71.1</ele>
        <time>2016-05-19T13:27:05.433Z</time>
      </trkpt>
      <trkpt lat="46.8501" lon="-0.14945">
        <ele>72.1</ele>
        <time>2016-05-19T13:27:07.439Z</time>
      </trkpt>
      <trkpt lat="46.85011" lon="-0.14942">
        <ele>73</ele>
        <time>2016-05-19T13:27:09.437Z</time>
      </trkpt>
      <trkpt lat="46.85012" lon="-0.14939">
        <ele>73.6</ele>
        <time>2016-05-19T13:27:11.445Z</time>
      </trkpt>
      <trkpt lat="46.85014" lon="-0.14936">
        <ele>74</ele>
        <time>2016-05-19T13:27:13.439Z</time>
      </trkpt>
      <trkpt lat="46.85014" lon="-0.14933">
        <ele>71.4</ele>
        <time>2016-05-19T13:27:15.441Z</time>
      </trkpt>
      <trkpt lat="46.85015" lon="-0.1493">
        <ele>70.3</ele>
        <time>2016-05-19T13:27:17.443Z</time>
      </trkpt>
      <trkpt lat="46.85016" lon="-0.14928">
        <ele>68.9</ele>
        <time>2016-05-19T13:27:19.434Z</time>
      </trkpt>
      <trkpt lat="46.85016" lon="-0.14925">
        <ele>66.4</ele>
        <time>2016-05-19T13:27:21.433Z</time>
      </trkpt>
      <trkpt lat="46.85016" lon="-0.14923">
        <ele>64.5</ele>
        <time>2016-05-19T13:27:23.433Z</time>
      </trkpt>
      <trkpt lat="46.85017" lon="-0.14921">
        <ele>64.2</ele>
        <time>2016-05-19T13:27:25.438Z</time>
      </trkpt>
      <trkpt lat="46.85017" lon="-0.14919">
        <ele>63.5</ele>
        <time>2016-05-19T13:27:27.431Z</time>
      </trkpt>
      <trkpt lat="46.85018" lon="-0.14917">
        <ele>63</ele>
        <time>2016-05-19T13:27:29.432Z</time>
      </trkpt>
      <trkpt lat="46.85019" lon="-0.14914">
        <ele>64</ele>
        <time>2016-05-19T13:27:31.440Z</time>
      </trkpt>
      <trkpt lat="46.8502" lon="-0.14911">
        <ele>63.8</ele>
        <time>2016-05-19T13:27:33.434Z</time>
      </trkpt>
      <trkpt lat="46.85022" lon="-0.14909">
        <ele>64.3</ele>
        <time>2016-05-19T13:27:35.433Z</time>
      </trkpt>
      <trkpt lat="46.85024" lon="-0.14907">
        <ele>64.9</ele>
        <time>2016-05-19T13:27:37.437Z</time>
      </trkpt>
      <trkpt lat="46.85025" lon="-0.14906">
        <ele>64.6</ele>
        <time>2016-05-19T13:27:39.433Z</time>
      </trkpt>
      <trkpt lat="46.85025" lon="-0.14904">
        <ele>64.2</ele>
        <time>2016-05-19T13:27:41.437Z</time>
      </trkpt>
      <trkpt lat="46.85027" lon="-0.14902">
        <ele>64.1</ele>
        <time>2016-05-19T13:27:43.442Z</time>
      </trkpt>
      <trkpt lat="46.85028" lon="-0.149">
        <ele>63.5</ele>
        <time>2016-05-19T13:27:45.419Z</time>
      </trkpt>
      <trkpt lat="46.85029" lon="-0.14898">
        <ele>62.7</ele>
        <time>2016-05-19T13:27:47.417Z</time>
      </trkpt>
      <trkpt lat="46.8503" lon="-0.14896">
        <ele>62</ele>
        <time>2016-05-19T13:27:48.419Z</time>
      </trkpt>
      <trkpt lat="46.8503" lon="-0.14894">
        <ele>61.4</ele>
        <time>2016-05-19T13:27:49.424Z</time>
      </trkpt>
      <trkpt lat="46.85032" lon="-0.14891">
        <ele>59.4</ele>
        <time>2016-05-19T13:27:51.417Z</time>
      </trkpt>
      <trkpt lat="46.85032" lon="-0.14889">
        <ele>59.1</ele>
        <time>2016-05-19T13:27:52.420Z</time>
      </trkpt>
      <trkpt lat="46.85033" lon="-0.14888">
        <ele>58.4</ele>
        <time>2016-05-19T13:27:53.433Z</time>
      </trkpt>
      <trkpt lat="46.85034" lon="-0.14885">
        <ele>57.7</ele>
        <time>2016-05-19T13:27:55.418Z</time>
      </trkpt>
      <trkpt lat="46.85035" lon="-0.14884">
        <ele>57.8</ele>
        <time>2016-05-19T13:27:56.419Z</time>
      </trkpt>
      <trkpt lat="46.85036" lon="-0.14882">
        <ele>57.7</ele>
        <time>2016-05-19T13:27:57.421Z</time>
      </trkpt>
      <trkpt lat="46.85037" lon="-0.14881">
        <ele>57.3</ele>
        <time>2016-05-19T13:27:58.424Z</time>
      </trkpt>
      <trkpt lat="46.85038" lon="-0.1488">
        <ele>57.2</ele>
        <time>2016-05-19T13:27:59.419Z</time>
      </trkpt>
      <trkpt lat="46.85039" lon="-0.14878">
        <ele>56.8</ele>
        <time>2016-05-19T13:28:01.440Z</time>
      </trkpt>
      <trkpt lat="46.85041" lon="-0.14875">
        <ele>56.7</ele>
        <time>2016-05-19T13:28:03.434Z</time>
      </trkpt>
      <trkpt lat="46.85042" lon="-0.14872">
        <ele>55.7</ele>
        <time>2016-05-19T13:28:05.442Z</time>
      </trkpt>
      <trkpt lat="46.85044" lon="-0.14871">
        <ele>54.7</ele>
        <time>2016-05-19T13:28:07.436Z</time>
      </trkpt>
      <trkpt lat="46.85045" lon="-0.14868">
        <ele>54.4</ele>
        <time>2016-05-19T13:28:09.418Z</time>
      </trkpt>
      <trkpt lat="46.85046" lon="-0.14866">
        <ele>54.1</ele>
        <time>2016-05-19T13:28:11.437Z</time>
      </trkpt>
      <trkpt lat="46.85048" lon="-0.14863">
        <ele>53.8</ele>
        <time>2016-05-19T13:28:13.430Z</time>
      </trkpt>
      <trkpt lat="46.85049" lon="-0.1486">
        <ele>53.4</ele>
        <time>2016-05-19T13:28:15.439Z</time>
      </trkpt>
      <trkpt lat="46.85051" lon="-0.14856">
        <ele>53.2</ele>
        <time>2016-05-19T13:28:17.434Z</time>
      </trkpt>
      <trkpt lat="46.85053" lon="-0.14852">
        <ele>52.7</ele>
        <time>2016-05-19T13:28:19.441Z</time>
      </trkpt>
      <trkpt lat="46.85055" lon="-0.14849">
        <ele>53.7</ele>
        <time>2016-05-19T13:28:21.439Z</time>
      </trkpt>
      <trkpt lat="46.85057" lon="-0.14846">
        <ele>54.2</ele>
        <time>2016-05-19T13:28:23.432Z</time>
      </trkpt>
      <trkpt lat="46.85058" lon="-0.14843">
        <ele>54.3</ele>
        <time>2016-05-19T13:28:25.438Z</time>
      </trkpt>
      <trkpt lat="46.85059" lon="-0.14839">
        <ele>55.7</ele>
        <time>2016-05-19T13:28:27.432Z</time>
      </trkpt>
      <trkpt lat="46.85061" lon="-0.14837">
        <ele>55.5</ele>
        <time>2016-05-19T13:28:29.434Z</time>
      </trkpt>
      <trkpt lat="46.85063" lon="-0.14834">
        <ele>55.5</ele>
        <time>2016-05-19T13:28:31.441Z</time>
      </trkpt>
      <trkpt lat="46.85066" lon="-0.14831">
        <ele>56.5</ele>
        <time>2016-05-19T13:28:33.433Z</time>
      </trkpt>
      <trkpt lat="46.85069" lon="-0.14829">
        <ele>57.4</ele>
        <time>2016-05-19T13:28:35.429Z</time>
      </trkpt>
      <trkpt lat="46.8507" lon="-0.14826">
        <ele>57.1</ele>
        <time>2016-05-19T13:28:37.419Z</time>
      </trkpt>
      <trkpt lat="46.85072" lon="-0.14824">
        <ele>57</ele>
        <time>2016-05-19T13:28:38.421Z</time>
      </trkpt>
      <trkpt lat="46.85074" lon="-0.14822">
        <ele>58.3</ele>
        <time>2016-05-19T13:28:40.430Z</time>
      </trkpt>
      <trkpt lat="46.85077" lon="-0.1482">
        <ele>59.2</ele>
        <time>2016-05-19T13:28:42.439Z</time>
      </trkpt>
      <trkpt lat="46.85079" lon="-0.14817">
        <ele>60</ele>
        <time>2016-05-19T13:28:44.430Z</time>
      </trkpt>
      <trkpt lat="46.85081" lon="-0.14814">
        <ele>60.7</ele>
        <time>2016-05-19T13:28:46.432Z</time>
      </trkpt>
      <trkpt lat="46.85083" lon="-0.14811">
        <ele>61.4</ele>
        <time>2016-05-19T13:28:48.432Z</time>
      </trkpt>
      <trkpt lat="46.85085" lon="-0.14809">
        <ele>62.4</ele>
        <time>2016-05-19T13:28:50.436Z</time>
      </trkpt>
      <trkpt lat="46.85086" lon="-0.14806">
        <ele>63.3</ele>
        <time>2016-05-19T13:28:52.438Z</time>
      </trkpt>
      <trkpt lat="46.85088" lon="-0.14803">
        <ele>64.2</ele>
        <time>2016-05-19T13:28:54.433Z</time>
      </trkpt>
      <trkpt lat="46.8509" lon="-0.148">
        <ele>64.6</ele>
        <time>2016-05-19T13:28:56.443Z</time>
      </trkpt>
      <trkpt lat="46.85091" lon="-0.14797">
        <ele>65.2</ele>
        <time>2016-05-19T13:28:58.430Z</time>
      </trkpt>
      <trkpt lat="46.85092" lon="-0.14795">
        <ele>64.6</ele>
        <time>2016-05-19T13:29:00.430Z</time>
      </trkpt>
      <trkpt lat="46.85093" lon="-0.14792">
        <ele>64.8</ele>
        <time>2016-05-19T13:29:02.461Z</time>
      </trkpt>
      <trkpt lat="46.85095" lon="-0.14789">
        <ele>65.3</ele>
        <time>2016-05-19T13:29:04.433Z</time>
      </trkpt>
      <trkpt lat="46.85096" lon="-0.14787">
        <ele>66.5</ele>
        <time>2016-05-19T13:29:06.415Z</time>
      </trkpt>
      <trkpt lat="46.85097" lon="-0.14785">
        <ele>66.5</ele>
        <time>2016-05-19T13:29:07.420Z</time>
      </trkpt>
      <trkpt lat="46.85099" lon="-0.14783">
        <ele>67</ele>
        <time>2016-05-19T13:29:09.430Z</time>
      </trkpt>
      <trkpt lat="46.851" lon="-0.1478">
        <ele>66.1</ele>
        <time>2016-05-19T13:29:11.429Z</time>
      </trkpt>
      <trkpt lat="46.85101" lon="-0.14778">
        <ele>65.9</ele>
        <time>2016-05-19T13:29:13.435Z</time>
      </trkpt>
      <trkpt lat="46.85103" lon="-0.14775">
        <ele>65.5</ele>
        <time>2016-05-19T13:29:15.432Z</time>
      </trkpt>
      <trkpt lat="46.85104" lon="-0.14773">
        <ele>65.5</ele>
        <time>2016-05-19T13:29:17.437Z</time>
      </trkpt>
      <trkpt lat="46.85107" lon="-0.1477">
        <ele>65.7</ele>
        <time>2016-05-19T13:29:19.433Z</time>
      </trkpt>
      <trkpt lat="46.85109" lon="-0.14768">
        <ele>66.7</ele>
        <time>2016-05-19T13:29:21.438Z</time>
      </trkpt>
      <trkpt lat="46.8511" lon="-0.14766">
        <ele>66.9</ele>
        <time>2016-05-19T13:29:23.427Z</time>
      </trkpt>
      <trkpt lat="46.85112" lon="-0.14764">
        <ele>66.4</ele>
        <time>2016-05-19T13:29:25.421Z</time>
      </trkpt>
      <trkpt lat="46.85114" lon="-0.14761">
        <ele>67.1</ele>
        <time>2016-05-19T13:29:27.437Z</time>
      </trkpt>
      <trkpt lat="46.85115" lon="-0.14758">
        <ele>68.6</ele>
        <time>2016-05-19T13:29:29.436Z</time>
      </trkpt>
      <trkpt lat="46.85117" lon="-0.14756">
        <ele>68.2</ele>
        <time>2016-05-19T13:29:31.427Z</time>
      </trkpt>
      <trkpt lat="46.85119" lon="-0.14754">
        <ele>67.9</ele>
        <time>2016-05-19T13:29:33.437Z</time>
      </trkpt>
      <trkpt lat="46.85121" lon="-0.14752">
        <ele>67.8</ele>
        <time>2016-05-19T13:29:35.440Z</time>
      </trkpt>
      <trkpt lat="46.85122" lon="-0.14752">
        <ele>67.4</ele>
        <time>2016-05-19T13:29:36.419Z</time>
      </trkpt>
      <trkpt lat="46.85122" lon="-0.1475">
        <ele>67.1</ele>
        <time>2016-05-19T13:29:37.425Z</time>
      </trkpt>
      <trkpt lat="46.85124" lon="-0.14748">
        <ele>66.4</ele>
        <time>2016-05-19T13:29:39.433Z</time>
      </trkpt>
      <trkpt lat="46.85126" lon="-0.14746">
        <ele>66.5</ele>
        <time>2016-05-19T13:29:41.433Z</time>
      </trkpt>
      <trkpt lat="46.85128" lon="-0.14744">
        <ele>66.6</ele>
        <time>2016-05-19T13:29:43.435Z</time>
      </trkpt>
      <trkpt lat="46.8513" lon="-0.14742">
        <ele>66.4</ele>
        <time>2016-05-19T13:29:45.432Z</time>
      </trkpt>
      <trkpt lat="46.85132" lon="-0.14741">
        <ele>66.8</ele>
        <time>2016-05-19T13:29:47.430Z</time>
      </trkpt>
      <trkpt lat="46.85134" lon="-0.14739">
        <ele>66.6</ele>
        <time>2016-05-19T13:29:49.438Z</time>
      </trkpt>
      <trkpt lat="46.85136" lon="-0.14737">
        <ele>65.9</ele>
        <time>2016-05-19T13:29:51.542Z</time>
      </trkpt>
      <trkpt lat="46.85137" lon="-0.14735">
        <ele>64.9</ele>
        <time>2016-05-19T13:29:53.433Z</time>
      </trkpt>
      <trkpt lat="46.85139" lon="-0.14733">
        <ele>65.2</ele>
        <time>2016-05-19T13:29:55.433Z</time>
      </trkpt>
      <trkpt lat="46.8514" lon="-0.14731">
        <ele>65.7</ele>
        <time>2016-05-19T13:29:57.431Z</time>
      </trkpt>
      <trkpt lat="46.85142" lon="-0.14729">
        <ele>65.8</ele>
        <time>2016-05-19T13:29:59.427Z</time>
      </trkpt>
      <trkpt lat="46.85144" lon="-0.14727">
        <ele>65.9</ele>
        <time>2016-05-19T13:30:01.440Z</time>
      </trkpt>
      <trkpt lat="46.85146" lon="-0.14726">
        <ele>65.4</ele>
        <time>2016-05-19T13:30:03.428Z</time>
      </trkpt>
      <trkpt lat="46.85148" lon="-0.14724">
        <ele>65</ele>
        <time>2016-05-19T13:30:05.434Z</time>
      </trkpt>
      <trkpt lat="46.8515" lon="-0.14722">
        <ele>64.4</ele>
        <time>2016-05-19T13:30:07.422Z</time>
      </trkpt>
      <trkpt lat="46.85151" lon="-0.14721">
        <ele>64</ele>
        <time>2016-05-19T13:30:08.427Z</time>
      </trkpt>
      <trkpt lat="46.85153" lon="-0.1472">
        <ele>63.9</ele>
        <time>2016-05-19T13:30:10.433Z</time>
      </trkpt>
      <trkpt lat="46.85155" lon="-0.14718">
        <ele>64.2</ele>
        <time>2016-05-19T13:30:12.429Z</time>
      </trkpt>
      <trkpt lat="46.85157" lon="-0.14716">
        <ele>64.3</ele>
        <time>2016-05-19T13:30:14.431Z</time>
      </trkpt>
      <trkpt lat="46.85159" lon="-0.14714">
        <ele>64.1</ele>
        <time>2016-05-19T13:30:16.431Z</time>
      </trkpt>
      <trkpt lat="46.85161" lon="-0.14713">
        <ele>63.5</ele>
        <time>2016-05-19T13:30:18.432Z</time>
      </trkpt>
      <trkpt lat="46.85163" lon="-0.14711">
        <ele>63.6</ele>
        <time>2016-05-19T13:30:20.429Z</time>
      </trkpt>
      <trkpt lat="46.85165" lon="-0.14709">
        <ele>64.3</ele>
        <time>2016-05-19T13:30:22.433Z</time>
      </trkpt>
      <trkpt lat="46.85167" lon="-0.14707">
        <ele>64.7</ele>
        <time>2016-05-19T13:30:24.442Z</time>
      </trkpt>
      <trkpt lat="46.85169" lon="-0.14706">
        <ele>65</ele>
        <time>2016-05-19T13:30:26.426Z</time>
      </trkpt>
      <trkpt lat="46.85172" lon="-0.14704">
        <ele>65.8</ele>
        <time>2016-05-19T13:30:28.434Z</time>
      </trkpt>
      <trkpt lat="46.85173" lon="-0.14702">
        <ele>65.7</ele>
        <time>2016-05-19T13:30:30.443Z</time>
      </trkpt>
      <trkpt lat="46.85175" lon="-0.147">
        <ele>65.6</ele>
        <time>2016-05-19T13:30:32.439Z</time>
      </trkpt>
      <trkpt lat="46.85177" lon="-0.14698">
        <ele>65.4</ele>
        <time>2016-05-19T13:30:34.433Z</time>
      </trkpt>
      <trkpt lat="46.8518" lon="-0.14696">
        <ele>64.8</ele>
        <time>2016-05-19T13:30:36.425Z</time>
      </trkpt>
      <trkpt lat="46.85181" lon="-0.14694">
        <ele>65</ele>
        <time>2016-05-19T13:30:38.431Z</time>
      </trkpt>
      <trkpt lat="46.85183" lon="-0.14692">
        <ele>64.4</ele>
        <time>2016-05-19T13:30:40.431Z</time>
      </trkpt>
      <trkpt lat="46.85186" lon="-0.14691">
        <ele>65.5</ele>
        <time>2016-05-19T13:30:42.441Z</time>
      </trkpt>
      <trkpt lat="46.85187" lon="-0.14689">
        <ele>66.1</ele>
        <time>2016-05-19T13:30:44.417Z</time>
      </trkpt>
      <trkpt lat="46.85188" lon="-0.14688">
        <ele>65.9</ele>
        <time>2016-05-19T13:30:45.419Z</time>
      </trkpt>
      <trkpt lat="46.8519" lon="-0.14686">
        <ele>65.1</ele>
        <time>2016-05-19T13:30:47.433Z</time>
      </trkpt>
      <trkpt lat="46.85191" lon="-0.14684">
        <ele>64.6</ele>
        <time>2016-05-19T13:30:49.434Z</time>
      </trkpt>
      <trkpt lat="46.85194" lon="-0.14682">
        <ele>64.8</ele>
        <time>2016-05-19T13:30:51.430Z</time>
      </trkpt>
      <trkpt lat="46.85196" lon="-0.1468">
        <ele>65.3</ele>
        <time>2016-05-19T13:30:53.435Z</time>
      </trkpt>
      <trkpt lat="46.85199" lon="-0.14679">
        <ele>65.9</ele>
        <time>2016-05-19T13:30:55.434Z</time>
      </trkpt>
      <trkpt lat="46.85201" lon="-0.14677">
        <ele>66.4</ele>
        <time>2016-05-19T13:30:57.430Z</time>
      </trkpt>
      <trkpt lat="46.85203" lon="-0.14675">
        <ele>67.6</ele>
        <time>2016-05-19T13:30:59.439Z</time>
      </trkpt>
      <trkpt lat="46.85206" lon="-0.14673">
        <ele>68.6</ele>
        <time>2016-05-19T13:31:01.436Z</time>
      </trkpt>
      <trkpt lat="46.85207" lon="-0.14671">
        <ele>68.1</ele>
        <time>2016-05-19T13:31:03.433Z</time>
      </trkpt>
      <trkpt lat="46.85209" lon="-0.14669">
        <ele>68.6</ele>
        <time>2016-05-19T13:31:05.430Z</time>
      </trkpt>
      <trkpt lat="46.85211" lon="-0.14667">
        <ele>69.5</ele>
        <time>2016-05-19T13:31:07.418Z</time>
      </trkpt>
      <trkpt lat="46.85213" lon="-0.14665">
        <ele>69</ele>
        <time>2016-05-19T13:31:09.431Z</time>
      </trkpt>
      <trkpt lat="46.85215" lon="-0.14663">
        <ele>68.7</ele>
        <time>2016-05-19T13:31:11.430Z</time>
      </trkpt>
      <trkpt lat="46.85217" lon="-0.14661">
        <ele>67.1</ele>
        <time>2016-05-19T13:31:13.439Z</time>
      </trkpt>
      <trkpt lat="46.85218" lon="-0.1466">
        <ele>65.2</ele>
        <time>2016-05-19T13:31:15.433Z</time>
      </trkpt>
      <trkpt lat="46.85221" lon="-0.14658">
        <ele>64.6</ele>
        <time>2016-05-19T13:31:17.430Z</time>
      </trkpt>
      <trkpt lat="46.85222" lon="-0.14656">
        <ele>63.8</ele>
        <time>2016-05-19T13:31:19.437Z</time>
      </trkpt>
      <trkpt lat="46.85224" lon="-0.14654">
        <ele>63.5</ele>
        <time>2016-05-19T13:31:21.443Z</time>
      </trkpt>
      <trkpt lat="46.85226" lon="-0.14652">
        <ele>63</ele>
        <time>2016-05-19T13:31:23.431Z</time>
      </trkpt>
      <trkpt lat="46.85227" lon="-0.14652">
        <ele>62.7</ele>
        <time>2016-05-19T13:31:24.429Z</time>
      </trkpt>
      <trkpt lat="46.85229" lon="-0.14651">
        <ele>62.3</ele>
        <time>2016-05-19T13:31:26.416Z</time>
      </trkpt>
      <trkpt lat="46.8523" lon="-0.1465">
        <ele>62.9</ele>
        <time>2016-05-19T13:31:27.419Z</time>
      </trkpt>
      <trkpt lat="46.85231" lon="-0.1465">
        <ele>63</ele>
        <time>2016-05-19T13:31:28.418Z</time>
      </trkpt>
      <trkpt lat="46.85232" lon="-0.14649">
        <ele>62.7</ele>
        <time>2016-05-19T13:31:29.420Z</time>
      </trkpt>
      <trkpt lat="46.85235" lon="-0.14648">
        <ele>63.2</ele>
        <time>2016-05-19T13:31:31.419Z</time>
      </trkpt>
      <trkpt lat="46.85237" lon="-0.14648">
        <ele>63.5</ele>
        <time>2016-05-19T13:31:33.432Z</time>
      </trkpt>
      <trkpt lat="46.85239" lon="-0.14647">
        <ele>63.5</ele>
        <time>2016-05-19T13:31:35.432Z</time>
      </trkpt>
      <trkpt lat="46.85241" lon="-0.14646">
        <ele>63.4</ele>
        <time>2016-05-19T13:31:37.437Z</time>
      </trkpt>
      <trkpt lat="46.85243" lon="-0.14645">
        <ele>62.2</ele>
        <time>2016-05-19T13:31:39.442Z</time>
      </trkpt>
      <trkpt lat="46.85246" lon="-0.14644">
        <ele>62.3</ele>
        <time>2016-05-19T13:31:41.432Z</time>
      </trkpt>
      <trkpt lat="46.85249" lon="-0.14643">
        <ele>61.4</ele>
        <time>2016-05-19T13:31:43.444Z</time>
      </trkpt>
      <trkpt lat="46.85252" lon="-0.14643">
        <ele>61.9</ele>
        <time>2016-05-19T13:31:45.432Z</time>
      </trkpt>
      <trkpt lat="46.85254" lon="-0.14642">
        <ele>62.7</ele>
        <time>2016-05-19T13:31:47.434Z</time>
      </trkpt>
      <trkpt lat="46.85257" lon="-0.14641">
        <ele>63.3</ele>
        <time>2016-05-19T13:31:49.433Z</time>
      </trkpt>
      <trkpt lat="46.85259" lon="-0.1464">
        <ele>64</ele>
        <time>2016-05-19T13:31:51.416Z</time>
      </trkpt>
      <trkpt lat="46.8526" lon="-0.14639">
        <ele>64</ele>
        <time>2016-05-19T13:31:52.418Z</time>
      </trkpt>
      <trkpt lat="46.85262" lon="-0.14638">
        <ele>64.7</ele>
        <time>2016-05-19T13:31:53.424Z</time>
      </trkpt>
      <trkpt lat="46.85264" lon="-0.14637">
        <ele>64.9</ele>
        <time>2016-05-19T13:31:55.433Z</time>
      </trkpt>
      <trkpt lat="46.85266" lon="-0.14636">
        <ele>63.7</ele>
        <time>2016-05-19T13:31:57.430Z</time>
      </trkpt>
      <trkpt lat="46.85268" lon="-0.14635">
        <ele>63</ele>
        <time>2016-05-19T13:31:59.433Z</time>
      </trkpt>
      <trkpt lat="46.8527" lon="-0.14634">
        <ele>62.7</ele>
        <time>2016-05-19T13:32:01.436Z</time>
      </trkpt>
      <trkpt lat="46.85272" lon="-0.14633">
        <ele>62.7</ele>
        <time>2016-05-19T13:32:03.431Z</time>
      </trkpt>
      <trkpt lat="46.85274" lon="-0.14632">
        <ele>62.1</ele>
        <time>2016-05-19T13:32:05.434Z</time>
      </trkpt>
      <trkpt lat="46.85276" lon="-0.14632">
        <ele>63</ele>
        <time>2016-05-19T13:32:07.435Z</time>
      </trkpt>
      <trkpt lat="46.85278" lon="-0.14632">
        <ele>62.7</ele>
        <time>2016-05-19T13:32:09.438Z</time>
      </trkpt>
      <trkpt lat="46.85279" lon="-0.14632">
        <ele>63.6</ele>
        <time>2016-05-19T13:32:11.432Z</time>
      </trkpt>
      <trkpt lat="46.8528" lon="-0.14632">
        <ele>63.5</ele>
        <time>2016-05-19T13:32:13.444Z</time>
      </trkpt>
      <trkpt lat="46.8528" lon="-0.14632">
        <ele>63.8</ele>
        <time>2016-05-19T13:32:15.433Z</time>
      </trkpt>
      <trkpt lat="46.8528" lon="-0.14632">
        <ele>63.8</ele>
        <time>2016-05-19T13:32:17.432Z</time>
      </trkpt>
      <trkpt lat="46.8528" lon="-0.14632">
        <ele>63.8</ele>
        <time>2016-05-19T13:32:18.436Z</time>
      </trkpt>
      <trkpt lat="46.8528" lon="-0.14632">
        <ele>63.8</ele>
        <time>2016-05-19T13:32:19.433Z</time>
      </trkpt>
      <trkpt lat="46.8528" lon="-0.14632">
        <ele>63.8</ele>
        <time>2016-05-19T13:32:21.441Z</time>
      </trkpt>
      <trkpt lat="46.8528" lon="-0.14632">
        <ele>63.8</ele>
        <time>2016-05-19T13:32:22.433Z</time>
      </trkpt>
      <trkpt lat="46.8528" lon="-0.14632">
        <ele>63.8</ele>
        <time>2016-05-19T13:32:23.433Z</time>
      </trkpt>
      <trkpt lat="46.8528" lon="-0.14632">
        <ele>63.8</ele>
        <time>2016-05-19T13:32:24.434Z</time>
      </trkpt>
      <trkpt lat="46.8528" lon="-0.14632">
        <ele>63.8</ele>
        <time>2016-05-19T13:32:26.432Z</time>
      </trkpt>
      <trkpt lat="46.8528" lon="-0.14632">
        <ele>63.8</ele>
        <time>2016-05-19T13:32:27.432Z</time>
      </trkpt>
      <trkpt lat="46.8528" lon="-0.14632">
        <ele>63.8</ele>
        <time>2016-05-19T13:32:29.431Z</time>
      </trkpt>
      <trkpt lat="46.8528" lon="-0.14632">
        <ele>63.8</ele>
        <time>2016-05-19T13:32:31.439Z</time>
      </trkpt>
      <trkpt lat="46.8528" lon="-0.14632">
        <ele>63.8</ele>
        <time>2016-05-19T13:32:32.444Z</time>
      </trkpt>
      <trkpt lat="46.8528" lon="-0.14632">
        <ele>63.8</ele>
        <time>2016-05-19T13:32:34.428Z</time>
      </trkpt>
      <trkpt lat="46.8528" lon="-0.14632">
        <ele>63.8</ele>
        <time>2016-05-19T13:32:35.444Z</time>
      </trkpt>
      <trkpt lat="46.85281" lon="-0.14636">
        <ele>66.2</ele>
        <time>2016-05-19T13:32:37.438Z</time>
      </trkpt>
      <trkpt lat="46.85282" lon="-0.14639">
        <ele>66.1</ele>
        <time>2016-05-19T13:32:39.431Z</time>
      </trkpt>
      <trkpt lat="46.85283" lon="-0.14642">
        <ele>65.4</ele>
        <time>2016-05-19T13:32:41.433Z</time>
      </trkpt>
      <trkpt lat="46.85284" lon="-0.14644">
        <ele>65.2</ele>
        <time>2016-05-19T13:32:43.437Z</time>
      </trkpt>
      <trkpt lat="46.85286" lon="-0.14646">
        <ele>65.6</ele>
        <time>2016-05-19T13:32:45.438Z</time>
      </trkpt>
      <trkpt lat="46.85287" lon="-0.1465">
        <ele>66.2</ele>
        <time>2016-05-19T13:32:47.416Z</time>
      </trkpt>
      <trkpt lat="46.85288" lon="-0.14651">
        <ele>66.1</ele>
        <time>2016-05-19T13:32:48.417Z</time>
      </trkpt>
      <trkpt lat="46.85289" lon="-0.14653">
        <ele>66.2</ele>
        <time>2016-05-19T13:32:49.417Z</time>
      </trkpt>
      <trkpt lat="46.8529" lon="-0.14656">
        <ele>65.3</ele>
        <time>2016-05-19T13:32:51.436Z</time>
      </trkpt>
      <trkpt lat="46.85291" lon="-0.14659">
        <ele>66.9</ele>
        <time>2016-05-19T13:32:53.440Z</time>
      </trkpt>
      <trkpt lat="46.85292" lon="-0.14662">
        <ele>67.5</ele>
        <time>2016-05-19T13:32:55.436Z</time>
      </trkpt>
      <trkpt lat="46.85292" lon="-0.14663">
        <ele>68</ele>
        <time>2016-05-19T13:32:57.486Z</time>
      </trkpt>
      <trkpt lat="46.85293" lon="-0.14666">
        <ele>69</ele>
        <time>2016-05-19T13:32:59.431Z</time>
      </trkpt>
      <trkpt lat="46.85294" lon="-0.14668">
        <ele>69.4</ele>
        <time>2016-05-19T13:33:01.434Z</time>
      </trkpt>
      <trkpt lat="46.85294" lon="-0.1467">
        <ele>69.8</ele>
        <time>2016-05-19T13:33:03.437Z</time>
      </trkpt>
      <trkpt lat="46.85295" lon="-0.14671">
        <ele>70.2</ele>
        <time>2016-05-19T13:33:05.433Z</time>
      </trkpt>
      <trkpt lat="46.85295" lon="-0.14673">
        <ele>72</ele>
        <time>2016-05-19T13:33:07.435Z</time>
      </trkpt>
      <trkpt lat="46.85296" lon="-0.14675">
        <ele>72.9</ele>
        <time>2016-05-19T13:33:09.433Z</time>
      </trkpt>
      <trkpt lat="46.85296" lon="-0.14677">
        <ele>74.2</ele>
        <time>2016-05-19T13:33:11.433Z</time>
      </trkpt>
      <trkpt lat="46.85297" lon="-0.14679">
        <ele>74.6</ele>
        <time>2016-05-19T13:33:13.434Z</time>
      </trkpt>
      <trkpt lat="46.85298" lon="-0.14682">
        <ele>74</ele>
        <time>2016-05-19T13:33:15.433Z</time>
      </trkpt>
      <trkpt lat="46.85299" lon="-0.14684">
        <ele>74.3</ele>
        <time>2016-05-19T13:33:17.432Z</time>
      </trkpt>
      <trkpt lat="46.85299" lon="-0.14687">
        <ele>74.6</ele>
        <time>2016-05-19T13:33:19.434Z</time>
      </trkpt>
      <trkpt lat="46.853" lon="-0.14689">
        <ele>75.2</ele>
        <time>2016-05-19T13:33:21.430Z</time>
      </trkpt>
      <trkpt lat="46.85302" lon="-0.14692">
        <ele>75.2</ele>
        <time>2016-05-19T13:33:23.432Z</time>
      </trkpt>
      <trkpt lat="46.85302" lon="-0.14695">
        <ele>74.7</ele>
        <time>2016-05-19T13:33:25.433Z</time>
      </trkpt>
      <trkpt lat="46.85304" lon="-0.14698">
        <ele>74.6</ele>
        <time>2016-05-19T13:33:27.430Z</time>
      </trkpt>
      <trkpt lat="46.85305" lon="-0.14701">
        <ele>74.2</ele>
        <time>2016-05-19T13:33:29.417Z</time>
      </trkpt>
      <trkpt lat="46.85305" lon="-0.14703">
        <ele>73.8</ele>
        <time>2016-05-19T13:33:30.417Z</time>
      </trkpt>
      <trkpt lat="46.85305" lon="-0.14705">
        <ele>73.1</ele>
        <time>2016-05-19T13:33:31.419Z</time>
      </trkpt>
      <trkpt lat="46.85306" lon="-0.14707">
        <ele>72.5</ele>
        <time>2016-05-19T13:33:32.421Z</time>
      </trkpt>
      <trkpt lat="46.85307" lon="-0.14709">
        <ele>71.7</ele>
        <time>2016-05-19T13:33:33.432Z</time>
      </trkpt>
      <trkpt lat="46.85308" lon="-0.14713">
        <ele>70.9</ele>
        <time>2016-05-19T13:33:35.434Z</time>
      </trkpt>
      <trkpt lat="46.85309" lon="-0.14717">
        <ele>70.1</ele>
        <time>2016-05-19T13:33:37.452Z</time>
      </trkpt>
      <trkpt lat="46.8531" lon="-0.1472">
        <ele>69.5</ele>
        <time>2016-05-19T13:33:39.419Z</time>
      </trkpt>
      <trkpt lat="46.85311" lon="-0.14722">
        <ele>69.5</ele>
        <time>2016-05-19T13:33:40.418Z</time>
      </trkpt>
      <trkpt lat="46.85311" lon="-0.14724">
        <ele>69.5</ele>
        <time>2016-05-19T13:33:41.422Z</time>
      </trkpt>
      <trkpt lat="46.85311" lon="-0.14725">
        <ele>69.5</ele>
        <time>2016-05-19T13:33:42.418Z</time>
      </trkpt>
      <trkpt lat="46.85312" lon="-0.14727">
        <ele>69.3</ele>
        <time>2016-05-19T13:33:43.421Z</time>
      </trkpt>
      <trkpt lat="46.85312" lon="-0.14731">
        <ele>69.8</ele>
        <time>2016-05-19T13:33:45.433Z</time>
      </trkpt>
      <trkpt lat="46.85313" lon="-0.14734">
        <ele>71.1</ele>
        <time>2016-05-19T13:33:47.429Z</time>
      </trkpt>
      <trkpt lat="46.85314" lon="-0.14737">
        <ele>70.8</ele>
        <time>2016-05-19T13:33:49.435Z</time>
      </trkpt>
      <trkpt lat="46.85315" lon="-0.14741">
        <ele>70.5</ele>
        <time>2016-05-19T13:33:51.448Z</time>
      </trkpt>
      <trkpt lat="46.85316" lon="-0.14744">
        <ele>70.8</ele>
        <time>2016-05-19T13:33:53.431Z</time>
      </trkpt>
      <trkpt lat="46.85317" lon="-0.14747">
        <ele>71.2</ele>
        <time>2016-05-19T13:33:55.441Z</time>
      </trkpt>
      <trkpt lat="46.85317" lon="-0.1475">
        <ele>70.5</ele>
        <time>2016-05-19T13:33:57.438Z</time>
      </trkpt>
      <trkpt lat="46.85317" lon="-0.1475">
        <ele>69.2</ele>
        <time>2016-05-19T13:33:59.429Z</time>
      </trkpt>
      <trkpt lat="46.85318" lon="-0.1475">
        <ele>69</ele>
        <time>2016-05-19T13:34:00.436Z</time>
      </trkpt>
      <trkpt lat="46.85318" lon="-0.1475">
        <ele>69</ele>
        <time>2016-05-19T13:34:01.428Z</time>
      </trkpt>
      <trkpt lat="46.85318" lon="-0.1475">
        <ele>69</ele>
        <time>2016-05-19T13:34:03.442Z</time>
      </trkpt>
      <trkpt lat="46.85318" lon="-0.1475">
        <ele>69</ele>
        <time>2016-05-19T13:34:05.434Z</time>
      </trkpt>
      <trkpt lat="46.85319" lon="-0.14753">
        <ele>68.3</ele>
        <time>2016-05-19T13:34:07.476Z</time>
      </trkpt>
      <trkpt lat="46.8532" lon="-0.14755">
        <ele>68.4</ele>
        <time>2016-05-19T13:34:09.437Z</time>
      </trkpt>
      <trkpt lat="46.8532" lon="-0.14758">
        <ele>68.8</ele>
        <time>2016-05-19T13:34:11.431Z</time>
      </trkpt>
      <trkpt lat="46.85321" lon="-0.1476">
        <ele>69.5</ele>
        <time>2016-05-19T13:34:13.436Z</time>
      </trkpt>
      <trkpt lat="46.85322" lon="-0.14763">
        <ele>69.3</ele>
        <time>2016-05-19T13:34:15.443Z</time>
      </trkpt>
      <trkpt lat="46.85323" lon="-0.14766">
        <ele>69.5</ele>
        <time>2016-05-19T13:34:17.433Z</time>
      </trkpt>
      <trkpt lat="46.85323" lon="-0.14769">
        <ele>69.9</ele>
        <time>2016-05-19T13:34:19.440Z</time>
      </trkpt>
      <trkpt lat="46.85324" lon="-0.14772">
        <ele>70.3</ele>
        <time>2016-05-19T13:34:21.433Z</time>
      </trkpt>
      <trkpt lat="46.85325" lon="-0.14775">
        <ele>70.2</ele>
        <time>2016-05-19T13:34:23.442Z</time>
      </trkpt>
      <trkpt lat="46.85326" lon="-0.14778">
        <ele>70</ele>
        <time>2016-05-19T13:34:25.436Z</time>
      </trkpt>
      <trkpt lat="46.85327" lon="-0.14781">
        <ele>70.7</ele>
        <time>2016-05-19T13:34:27.431Z</time>
      </trkpt>
      <trkpt lat="46.85328" lon="-0.14784">
        <ele>71.3</ele>
        <time>2016-05-19T13:34:29.416Z</time>
      </trkpt>
      <trkpt lat="46.85328" lon="-0.14786">
        <ele>71.6</ele>
        <time>2016-05-19T13:34:30.427Z</time>
      </trkpt>
      <trkpt lat="46.85329" lon="-0.14788">
        <ele>72</ele>
        <time>2016-05-19T13:34:31.421Z</time>
      </trkpt>
      <trkpt lat="46.85329" lon="-0.14789">
        <ele>72.1</ele>
        <time>2016-05-19T13:34:32.419Z</time>
      </trkpt>
      <trkpt lat="46.8533" lon="-0.14793">
        <ele>72.6</ele>
        <time>2016-05-19T13:34:34.436Z</time>
      </trkpt>
      <trkpt lat="46.85331" lon="-0.14797">
        <ele>73.3</ele>
        <time>2016-05-19T13:34:36.431Z</time>
      </trkpt>
      <trkpt lat="46.85332" lon="-0.148">
        <ele>73.1</ele>
        <time>2016-05-19T13:34:38.430Z</time>
      </trkpt>
      <trkpt lat="46.85333" lon="-0.14803">
        <ele>73</ele>
        <time>2016-05-19T13:34:40.430Z</time>
      </trkpt>
      <trkpt lat="46.85334" lon="-0.14806">
        <ele>73.6</ele>
        <time>2016-05-19T13:34:42.414Z</time>
      </trkpt>
      <trkpt lat="46.85335" lon="-0.14807">
        <ele>73.7</ele>
        <time>2016-05-19T13:34:43.426Z</time>
      </trkpt>
      <trkpt lat="46.85335" lon="-0.14809">
        <ele>73.8</ele>
        <time>2016-05-19T13:34:44.426Z</time>
      </trkpt>
      <trkpt lat="46.85336" lon="-0.14812">
        <ele>74</ele>
        <time>2016-05-19T13:34:46.440Z</time>
      </trkpt>
      <trkpt lat="46.85337" lon="-0.14814">
        <ele>73.2</ele>
        <time>2016-05-19T13:34:48.433Z</time>
      </trkpt>
      <trkpt lat="46.85337" lon="-0.14815">
        <ele>72.8</ele>
        <time>2016-05-19T13:34:50.437Z</time>
      </trkpt>
      <trkpt lat="46.85338" lon="-0.14817">
        <ele>73.3</ele>
        <time>2016-05-19T13:34:52.427Z</time>
      </trkpt>
      <trkpt lat="46.85339" lon="-0.1482">
        <ele>73.4</ele>
        <time>2016-05-19T13:34:54.437Z</time>
      </trkpt>
      <trkpt lat="46.8534" lon="-0.14822">
        <ele>73.2</ele>
        <time>2016-05-19T13:34:56.435Z</time>
      </trkpt>
      <trkpt lat="46.85341" lon="-0.14825">
        <ele>73.4</ele>
        <time>2016-05-19T13:34:58.432Z</time>
      </trkpt>
      <trkpt lat="46.85342" lon="-0.14827">
        <ele>73.8</ele>
        <time>2016-05-19T13:35:00.432Z</time>
      </trkpt>
      <trkpt lat="46.85343" lon="-0.14831">
        <ele>73.9</ele>
        <time>2016-05-19T13:35:02.441Z</time>
      </trkpt>
      <trkpt lat="46.85344" lon="-0.14832">
        <ele>74</ele>
        <time>2016-05-19T13:35:04.433Z</time>
      </trkpt>
      <trkpt lat="46.85344" lon="-0.14835">
        <ele>74.6</ele>
        <time>2016-05-19T13:35:06.432Z</time>
      </trkpt>
      <trkpt lat="46.85346" lon="-0.14838">
        <ele>75.3</ele>
        <time>2016-05-19T13:35:08.436Z</time>
      </trkpt>
      <trkpt lat="46.85346" lon="-0.14841">
        <ele>75.6</ele>
        <time>2016-05-19T13:35:10.433Z</time>
      </trkpt>
      <trkpt lat="46.85347" lon="-0.14844">
        <ele>75.8</ele>
        <time>2016-05-19T13:35:12.433Z</time>
      </trkpt>
      <trkpt lat="46.85348" lon="-0.14847">
        <ele>76.1</ele>
        <time>2016-05-19T13:35:14.429Z</time>
      </trkpt>
      <trkpt lat="46.85349" lon="-0.1485">
        <ele>76.1</ele>
        <time>2016-05-19T13:35:16.434Z</time>
      </trkpt>
      <trkpt lat="46.8535" lon="-0.14853">
        <ele>75.7</ele>
        <time>2016-05-19T13:35:18.437Z</time>
      </trkpt>
      <trkpt lat="46.85351" lon="-0.14857">
        <ele>75.2</ele>
        <time>2016-05-19T13:35:20.436Z</time>
      </trkpt>
      <trkpt lat="46.85352" lon="-0.1486">
        <ele>75.4</ele>
        <time>2016-05-19T13:35:22.428Z</time>
      </trkpt>
      <trkpt lat="46.85353" lon="-0.14864">
        <ele>75.5</ele>
        <time>2016-05-19T13:35:24.441Z</time>
      </trkpt>
      <trkpt lat="46.85354" lon="-0.14867">
        <ele>75.7</ele>
        <time>2016-05-19T13:35:26.433Z</time>
      </trkpt>
      <trkpt lat="46.85355" lon="-0.1487">
        <ele>76</ele>
        <time>2016-05-19T13:35:28.433Z</time>
      </trkpt>
      <trkpt lat="46.85355" lon="-0.14874">
        <ele>75.4</ele>
        <time>2016-05-19T13:35:30.431Z</time>
      </trkpt>
      <trkpt lat="46.85356" lon="-0.14876">
        <ele>75.7</ele>
        <time>2016-05-19T13:35:32.441Z</time>
      </trkpt>
      <trkpt lat="46.85357" lon="-0.14879">
        <ele>76.2</ele>
        <time>2016-05-19T13:35:34.434Z</time>
      </trkpt>
      <trkpt lat="46.85358" lon="-0.14882">
        <ele>76.1</ele>
        <time>2016-05-19T13:35:36.453Z</time>
      </trkpt>
      <trkpt lat="46.85359" lon="-0.14885">
        <ele>76.3</ele>
        <time>2016-05-19T13:35:38.434Z</time>
      </trkpt>
      <trkpt lat="46.8536" lon="-0.14888">
        <ele>76.6</ele>
        <time>2016-05-19T13:35:40.435Z</time>
      </trkpt>
      <trkpt lat="46.85361" lon="-0.14891">
        <ele>76.4</ele>
        <time>2016-05-19T13:35:42.431Z</time>
      </trkpt>
      <trkpt lat="46.85362" lon="-0.14893">
        <ele>76.2</ele>
        <time>2016-05-19T13:35:44.463Z</time>
      </trkpt>
      <trkpt lat="46.85363" lon="-0.14896">
        <ele>75.9</ele>
        <time>2016-05-19T13:35:46.443Z</time>
      </trkpt>
      <trkpt lat="46.85364" lon="-0.14899">
        <ele>76.1</ele>
        <time>2016-05-19T13:35:48.442Z</time>
      </trkpt>
      <trkpt lat="46.85365" lon="-0.14902">
        <ele>76.1</ele>
        <time>2016-05-19T13:35:50.433Z</time>
      </trkpt>
      <trkpt lat="46.85365" lon="-0.14906">
        <ele>76.3</ele>
        <time>2016-05-19T13:35:52.416Z</time>
      </trkpt>
      <trkpt lat="46.85366" lon="-0.14908">
        <ele>76.2</ele>
        <time>2016-05-19T13:35:53.421Z</time>
      </trkpt>
      <trkpt lat="46.85367" lon="-0.14911">
        <ele>76.1</ele>
        <time>2016-05-19T13:35:55.433Z</time>
      </trkpt>
      <trkpt lat="46.85368" lon="-0.14914">
        <ele>76.6</ele>
        <time>2016-05-19T13:35:57.441Z</time>
      </trkpt>
      <trkpt lat="46.85369" lon="-0.14917">
        <ele>76.5</ele>
        <time>2016-05-19T13:35:59.417Z</time>
      </trkpt>
      <trkpt lat="46.8537" lon="-0.14918">
        <ele>76.7</ele>
        <time>2016-05-19T13:36:00.421Z</time>
      </trkpt>
      <trkpt lat="46.85371" lon="-0.14919">
        <ele>77</ele>
        <time>2016-05-19T13:36:01.421Z</time>
      </trkpt>
      <trkpt lat="46.85371" lon="-0.14921">
        <ele>77.8</ele>
        <time>2016-05-19T13:36:03.437Z</time>
      </trkpt>
      <trkpt lat="46.85372" lon="-0.14924">
        <ele>78.3</ele>
        <time>2016-05-19T13:36:05.433Z</time>
      </trkpt>
      <trkpt lat="46.85373" lon="-0.14927">
        <ele>78.9</ele>
        <time>2016-05-19T13:36:07.436Z</time>
      </trkpt>
      <trkpt lat="46.85374" lon="-0.14928">
        <ele>79</ele>
        <time>2016-05-19T13:36:08.432Z</time>
      </trkpt>
      <trkpt lat="46.85375" lon="-0.14931">
        <ele>79</ele>
        <time>2016-05-19T13:36:10.433Z</time>
      </trkpt>
      <trkpt lat="46.85376" lon="-0.14933">
        <ele>78.7</ele>
        <time>2016-05-19T13:36:12.434Z</time>
      </trkpt>
      <trkpt lat="46.85376" lon="-0.14936">
        <ele>78.8</ele>
        <time>2016-05-19T13:36:14.435Z</time>
      </trkpt>
      <trkpt lat="46.85377" lon="-0.14939">
        <ele>78.7</ele>
        <time>2016-05-19T13:36:16.419Z</time>
      </trkpt>
      <trkpt lat="46.85378" lon="-0.1494">
        <ele>78.1</ele>
        <time>2016-05-19T13:36:17.419Z</time>
      </trkpt>
      <trkpt lat="46.85378" lon="-0.1494">
        <ele>78</ele>
        <time>2016-05-19T13:36:18.425Z</time>
      </trkpt>
      <trkpt lat="46.85378" lon="-0.1494">
        <ele>77.8</ele>
        <time>2016-05-19T13:36:19.425Z</time>
      </trkpt>
      <trkpt lat="46.85378" lon="-0.1494">
        <ele>78</ele>
        <time>2016-05-19T13:36:20.426Z</time>
      </trkpt>
      <trkpt lat="46.85379" lon="-0.14942">
        <ele>79</ele>
        <time>2016-05-19T13:36:22.430Z</time>
      </trkpt>
      <trkpt lat="46.8538" lon="-0.14945">
        <ele>79.1</ele>
        <time>2016-05-19T13:36:24.433Z</time>
      </trkpt>
      <trkpt lat="46.85381" lon="-0.14949">
        <ele>78.8</ele>
        <time>2016-05-19T13:36:26.430Z</time>
      </trkpt>
      <trkpt lat="46.85382" lon="-0.14951">
        <ele>78.7</ele>
        <time>2016-05-19T13:36:28.431Z</time>
      </trkpt>
      <trkpt lat="46.85383" lon="-0.14954">
        <ele>78.6</ele>
        <time>2016-05-19T13:36:30.430Z</time>
      </trkpt>
      <trkpt lat="46.85384" lon="-0.14957">
        <ele>78.6</ele>
        <time>2016-05-19T13:36:32.437Z</time>
      </trkpt>
      <trkpt lat="46.85385" lon="-0.1496">
        <ele>79.1</ele>
        <time>2016-05-19T13:36:34.434Z</time>
      </trkpt>
      <trkpt lat="46.85386" lon="-0.14963">
        <ele>79.5</ele>
        <time>2016-05-19T13:36:36.416Z</time>
      </trkpt>
      <trkpt lat="46.85386" lon="-0.14964">
        <ele>79.6</ele>
        <time>2016-05-19T13:36:37.427Z</time>
      </trkpt>
      <trkpt lat="46.85387" lon="-0.14967">
        <ele>79.3</ele>
        <time>2016-05-19T13:36:39.440Z</time>
      </trkpt>
      <trkpt lat="46.85388" lon="-0.1497">
        <ele>79.7</ele>
        <time>2016-05-19T13:36:41.423Z</time>
      </trkpt>
      <trkpt lat="46.85389" lon="-0.14972">
        <ele>80.1</ele>
        <time>2016-05-19T13:36:43.433Z</time>
      </trkpt>
      <trkpt lat="46.8539" lon="-0.14975">
        <ele>80.2</ele>
        <time>2016-05-19T13:36:45.438Z</time>
      </trkpt>
      <trkpt lat="46.85391" lon="-0.14978">
        <ele>80</ele>
        <time>2016-05-19T13:36:47.432Z</time>
      </trkpt>
      <trkpt lat="46.85391" lon="-0.14981">
        <ele>80</ele>
        <time>2016-05-19T13:36:49.441Z</time>
      </trkpt>
      <trkpt lat="46.85392" lon="-0.14984">
        <ele>79.8</ele>
        <time>2016-05-19T13:36:51.444Z</time>
      </trkpt>
      <trkpt lat="46.85393" lon="-0.14987">
        <ele>80.1</ele>
        <time>2016-05-19T13:36:53.433Z</time>
      </trkpt>
      <trkpt lat="46.85394" lon="-0.1499">
        <ele>80.1</ele>
        <time>2016-05-19T13:36:55.441Z</time>
      </trkpt>
      <trkpt lat="46.85395" lon="-0.14993">
        <ele>80</ele>
        <time>2016-05-19T13:36:57.439Z</time>
      </trkpt>
      <trkpt lat="46.85395" lon="-0.14996">
        <ele>79.8</ele>
        <time>2016-05-19T13:36:59.431Z</time>
      </trkpt>
      <trkpt lat="46.85396" lon="-0.14998">
        <ele>80.2</ele>
        <time>2016-05-19T13:37:01.437Z</time>
      </trkpt>
      <trkpt lat="46.85397" lon="-0.15001">
        <ele>80.8</ele>
        <time>2016-05-19T13:37:03.431Z</time>
      </trkpt>
      <trkpt lat="46.85398" lon="-0.15003">
        <ele>80.8</ele>
        <time>2016-05-19T13:37:05.432Z</time>
      </trkpt>
      <trkpt lat="46.85399" lon="-0.15006">
        <ele>80.8</ele>
        <time>2016-05-19T13:37:07.433Z</time>
      </trkpt>
      <trkpt lat="46.854" lon="-0.15009">
        <ele>80.6</ele>
        <time>2016-05-19T13:37:09.433Z</time>
      </trkpt>
      <trkpt lat="46.854" lon="-0.15011">
        <ele>80.7</ele>
        <time>2016-05-19T13:37:11.432Z</time>
      </trkpt>
      <trkpt lat="46.85401" lon="-0.15014">
        <ele>80.6</ele>
        <time>2016-05-19T13:37:13.435Z</time>
      </trkpt>
      <trkpt lat="46.85402" lon="-0.15017">
        <ele>80.8</ele>
        <time>2016-05-19T13:37:15.441Z</time>
      </trkpt>
      <trkpt lat="46.85403" lon="-0.15019">
        <ele>81</ele>
        <time>2016-05-19T13:37:17.433Z</time>
      </trkpt>
      <trkpt lat="46.85403" lon="-0.15021">
        <ele>80.2</ele>
        <time>2016-05-19T13:37:19.432Z</time>
      </trkpt>
      <trkpt lat="46.85404" lon="-0.15023">
        <ele>80.2</ele>
        <time>2016-05-19T13:37:21.436Z</time>
      </trkpt>
      <trkpt lat="46.85405" lon="-0.15025">
        <ele>80.3</ele>
        <time>2016-05-19T13:37:23.433Z</time>
      </trkpt>
      <trkpt lat="46.85406" lon="-0.15028">
        <ele>80.3</ele>
        <time>2016-05-19T13:37:25.441Z</time>
      </trkpt>
      <trkpt lat="46.85407" lon="-0.1503">
        <ele>80.5</ele>
        <time>2016-05-19T13:37:27.437Z</time>
      </trkpt>
      <trkpt lat="46.85407" lon="-0.15033">
        <ele>80.3</ele>
        <time>2016-05-19T13:37:29.440Z</time>
      </trkpt>
      <trkpt lat="46.85408" lon="-0.15035">
        <ele>80.8</ele>
        <time>2016-05-19T13:37:31.441Z</time>
      </trkpt>
      <trkpt lat="46.85409" lon="-0.15038">
        <ele>81.2</ele>
        <time>2016-05-19T13:37:33.437Z</time>
      </trkpt>
      <trkpt lat="46.8541" lon="-0.1504">
        <ele>81.1</ele>
        <time>2016-05-19T13:37:35.440Z</time>
      </trkpt>
      <trkpt lat="46.8541" lon="-0.15042">
        <ele>81.8</ele>
        <time>2016-05-19T13:37:37.451Z</time>
      </trkpt>
      <trkpt lat="46.85411" lon="-0.15045">
        <ele>82.1</ele>
        <time>2016-05-19T13:37:39.438Z</time>
      </trkpt>
      <trkpt lat="46.85412" lon="-0.15047">
        <ele>82.6</ele>
        <time>2016-05-19T13:37:41.427Z</time>
      </trkpt>
      <trkpt lat="46.85413" lon="-0.15049">
        <ele>83.3</ele>
        <time>2016-05-19T13:37:43.426Z</time>
      </trkpt>
      <trkpt lat="46.85414" lon="-0.15052">
        <ele>83.9</ele>
        <time>2016-05-19T13:37:45.417Z</time>
      </trkpt>
      <trkpt lat="46.85415" lon="-0.15053">
        <ele>84.2</ele>
        <time>2016-05-19T13:37:46.419Z</time>
      </trkpt>
      <trkpt lat="46.85415" lon="-0.15055">
        <ele>84.7</ele>
        <time>2016-05-19T13:37:48.431Z</time>
      </trkpt>
      <trkpt lat="46.85416" lon="-0.15058">
        <ele>85.1</ele>
        <time>2016-05-19T13:37:50.429Z</time>
      </trkpt>
      <trkpt lat="46.85416" lon="-0.1506">
        <ele>85.3</ele>
        <time>2016-05-19T13:37:51.420Z</time>
      </trkpt>
      <trkpt lat="46.85417" lon="-0.15061">
        <ele>85.1</ele>
        <time>2016-05-19T13:37:52.425Z</time>
      </trkpt>
      <trkpt lat="46.85418" lon="-0.15064">
        <ele>85.6</ele>
        <time>2016-05-19T13:37:54.436Z</time>
      </trkpt>
      <trkpt lat="46.85419" lon="-0.15066">
        <ele>85</ele>
        <time>2016-05-19T13:37:56.433Z</time>
      </trkpt>
      <trkpt lat="46.8542" lon="-0.15069">
        <ele>84.9</ele>
        <time>2016-05-19T13:37:58.441Z</time>
      </trkpt>
      <trkpt lat="46.8542" lon="-0.15071">
        <ele>85.4</ele>
        <time>2016-05-19T13:38:00.417Z</time>
      </trkpt>
      <trkpt lat="46.85421" lon="-0.15072">
        <ele>85.5</ele>
        <time>2016-05-19T13:38:01.423Z</time>
      </trkpt>
      <trkpt lat="46.85422" lon="-0.15075">
        <ele>85.4</ele>
        <time>2016-05-19T13:38:03.433Z</time>
      </trkpt>
      <trkpt lat="46.85422" lon="-0.15078">
        <ele>85.6</ele>
        <time>2016-05-19T13:38:05.432Z</time>
      </trkpt>
      <trkpt lat="46.85423" lon="-0.15081">
        <ele>85.5</ele>
        <time>2016-05-19T13:38:07.439Z</time>
      </trkpt>
      <trkpt lat="46.85424" lon="-0.15084">
        <ele>85.7</ele>
        <time>2016-05-19T13:38:09.438Z</time>
      </trkpt>
      <trkpt lat="46.85424" lon="-0.15084">
        <ele>85.8</ele>
        <time>2016-05-19T13:38:10.433Z</time>
      </trkpt>
      <trkpt lat="46.85425" lon="-0.15084">
        <ele>85.5</ele>
        <time>2016-05-19T13:38:12.432Z</time>
      </trkpt>
      <trkpt lat="46.85426" lon="-0.15086">
        <ele>85.5</ele>
        <time>2016-05-19T13:38:14.433Z</time>
      </trkpt>
      <trkpt lat="46.85427" lon="-0.15089">
        <ele>85.4</ele>
        <time>2016-05-19T13:38:16.435Z</time>
      </trkpt>
      <trkpt lat="46.85428" lon="-0.15092">
        <ele>85.1</ele>
        <time>2016-05-19T13:38:18.439Z</time>
      </trkpt>
      <trkpt lat="46.85429" lon="-0.15095">
        <ele>84.7</ele>
        <time>2016-05-19T13:38:20.423Z</time>
      </trkpt>
      <trkpt lat="46.8543" lon="-0.15098">
        <ele>85.2</ele>
        <time>2016-05-19T13:38:22.432Z</time>
      </trkpt>
      <trkpt lat="46.85431" lon="-0.15101">
        <ele>85.2</ele>
        <time>2016-05-19T13:38:24.468Z</time>
      </trkpt>
      <trkpt lat="46.85431" lon="-0.15103">
        <ele>85.4</ele>
        <time>2016-05-19T13:38:26.431Z</time>
      </trkpt>
      <trkpt lat="46.85432" lon="-0.15106">
        <ele>85.6</ele>
        <time>2016-05-19T13:38:28.433Z</time>
      </trkpt>
      <trkpt lat="46.85433" lon="-0.15109">
        <ele>86</ele>
        <time>2016-05-19T13:38:30.431Z</time>
      </trkpt>
      <trkpt lat="46.85434" lon="-0.15112">
        <ele>86.4</ele>
        <time>2016-05-19T13:38:32.433Z</time>
      </trkpt>
      <trkpt lat="46.85434" lon="-0.15115">
        <ele>86.4</ele>
        <time>2016-05-19T13:38:34.433Z</time>
      </trkpt>
      <trkpt lat="46.85435" lon="-0.15116">
        <ele>85.9</ele>
        <time>2016-05-19T13:38:36.433Z</time>
      </trkpt>
      <trkpt lat="46.85436" lon="-0.15118">
        <ele>86.1</ele>
        <time>2016-05-19T13:38:38.433Z</time>
      </trkpt>
      <trkpt lat="46.85437" lon="-0.15121">
        <ele>86</ele>
        <time>2016-05-19T13:38:40.431Z</time>
      </trkpt>
      <trkpt lat="46.85437" lon="-0.15124">
        <ele>85.8</ele>
        <time>2016-05-19T13:38:42.431Z</time>
      </trkpt>
      <trkpt lat="46.85439" lon="-0.15127">
        <ele>85.6</ele>
        <time>2016-05-19T13:38:44.425Z</time>
      </trkpt>
      <trkpt lat="46.85439" lon="-0.1513">
        <ele>85.9</ele>
        <time>2016-05-19T13:38:46.432Z</time>
      </trkpt>
      <trkpt lat="46.8544" lon="-0.15133">
        <ele>86.7</ele>
        <time>2016-05-19T13:38:48.431Z</time>
      </trkpt>
      <trkpt lat="46.8544" lon="-0.15135">
        <ele>86.8</ele>
        <time>2016-05-19T13:38:50.430Z</time>
      </trkpt>
      <trkpt lat="46.85441" lon="-0.15138">
        <ele>87.6</ele>
        <time>2016-05-19T13:38:52.430Z</time>
      </trkpt>
      <trkpt lat="46.85442" lon="-0.1514">
        <ele>87.8</ele>
        <time>2016-05-19T13:38:54.433Z</time>
      </trkpt>
      <trkpt lat="46.85444" lon="-0.15143">
        <ele>87.9</ele>
        <time>2016-05-19T13:38:56.437Z</time>
      </trkpt>
      <trkpt lat="46.85444" lon="-0.15146">
        <ele>88.9</ele>
        <time>2016-05-19T13:38:58.435Z</time>
      </trkpt>
      <trkpt lat="46.85445" lon="-0.15148">
        <ele>89.1</ele>
        <time>2016-05-19T13:39:00.433Z</time>
      </trkpt>
      <trkpt lat="46.85446" lon="-0.1515">
        <ele>88.9</ele>
        <time>2016-05-19T13:39:02.434Z</time>
      </trkpt>
      <trkpt lat="46.85447" lon="-0.15153">
        <ele>89.3</ele>
        <time>2016-05-19T13:39:04.433Z</time>
      </trkpt>
      <trkpt lat="46.85448" lon="-0.15155">
        <ele>89</ele>
        <time>2016-05-19T13:39:06.433Z</time>
      </trkpt>
      <trkpt lat="46.85449" lon="-0.15157">
        <ele>90</ele>
        <time>2016-05-19T13:39:08.445Z</time>
      </trkpt>
      <trkpt lat="46.8545" lon="-0.1516">
        <ele>90.6</ele>
        <time>2016-05-19T13:39:10.435Z</time>
      </trkpt>
      <trkpt lat="46.8545" lon="-0.15162">
        <ele>90.6</ele>
        <time>2016-05-19T13:39:12.430Z</time>
      </trkpt>
      <trkpt lat="46.85451" lon="-0.15165">
        <ele>91.2</ele>
        <time>2016-05-19T13:39:14.433Z</time>
      </trkpt>
      <trkpt lat="46.85452" lon="-0.15168">
        <ele>91.8</ele>
        <time>2016-05-19T13:39:16.433Z</time>
      </trkpt>
      <trkpt lat="46.85453" lon="-0.15171">
        <ele>91.9</ele>
        <time>2016-05-19T13:39:18.439Z</time>
      </trkpt>
      <trkpt lat="46.85453" lon="-0.15173">
        <ele>91.5</ele>
        <time>2016-05-19T13:39:20.441Z</time>
      </trkpt>
      <trkpt lat="46.85453" lon="-0.15174">
        <ele>92.1</ele>
        <time>2016-05-19T13:39:22.432Z</time>
      </trkpt>
      <trkpt lat="46.85454" lon="-0.15176">
        <ele>92.3</ele>
        <time>2016-05-19T13:39:24.438Z</time>
      </trkpt>
      <trkpt lat="46.85455" lon="-0.15178">
        <ele>92.6</ele>
        <time>2016-05-19T13:39:26.428Z</time>
      </trkpt>
      <trkpt lat="46.85456" lon="-0.15181">
        <ele>92</ele>
        <time>2016-05-19T13:39:28.442Z</time>
      </trkpt>
      <trkpt lat="46.85457" lon="-0.15184">
        <ele>92</ele>
        <time>2016-05-19T13:39:30.434Z</time>
      </trkpt>
      <trkpt lat="46.85458" lon="-0.15187">
        <ele>92.4</ele>
        <time>2016-05-19T13:39:32.432Z</time>
      </trkpt>
      <trkpt lat="46.85459" lon="-0.1519">
        <ele>92.3</ele>
        <time>2016-05-19T13:39:34.432Z</time>
      </trkpt>
      <trkpt lat="46.8546" lon="-0.15193">
        <ele>92.6</ele>
        <time>2016-05-19T13:39:36.441Z</time>
      </trkpt>
      <trkpt lat="46.8546" lon="-0.15195">
        <ele>92.7</ele>
        <time>2016-05-19T13:39:38.441Z</time>
      </trkpt>
      <trkpt lat="46.85461" lon="-0.15197">
        <ele>93</ele>
        <time>2016-05-19T13:39:40.432Z</time>
      </trkpt>
      <trkpt lat="46.85462" lon="-0.15199">
        <ele>93</ele>
        <time>2016-05-19T13:39:42.430Z</time>
      </trkpt>
      <trkpt lat="46.85462" lon="-0.15201">
        <ele>92.9</ele>
        <time>2016-05-19T13:39:44.436Z</time>
      </trkpt>
      <trkpt lat="46.85463" lon="-0.15203">
        <ele>93.2</ele>
        <time>2016-05-19T13:39:46.430Z</time>
      </trkpt>
      <trkpt lat="46.85463" lon="-0.15205">
        <ele>93.4</ele>
        <time>2016-05-19T13:39:48.431Z</time>
      </trkpt>
      <trkpt lat="46.85465" lon="-0.15207">
        <ele>94</ele>
        <time>2016-05-19T13:39:50.434Z</time>
      </trkpt>
      <trkpt lat="46.85465" lon="-0.1521">
        <ele>93.9</ele>
        <time>2016-05-19T13:39:52.430Z</time>
      </trkpt>
      <trkpt lat="46.85466" lon="-0.15212">
        <ele>94</ele>
        <time>2016-05-19T13:39:54.437Z</time>
      </trkpt>
      <trkpt lat="46.85467" lon="-0.15214">
        <ele>94.2</ele>
        <time>2016-05-19T13:39:56.434Z</time>
      </trkpt>
      <trkpt lat="46.85468" lon="-0.15215">
        <ele>94.1</ele>
        <time>2016-05-19T13:39:58.436Z</time>
      </trkpt>
      <trkpt lat="46.8547" lon="-0.15216">
        <ele>94.1</ele>
        <time>2016-05-19T13:40:00.436Z</time>
      </trkpt>
      <trkpt lat="46.85471" lon="-0.15215">
        <ele>94</ele>
        <time>2016-05-19T13:40:02.435Z</time>
      </trkpt>
      <trkpt lat="46.85473" lon="-0.15214">
        <ele>93.6</ele>
        <time>2016-05-19T13:40:04.431Z</time>
      </trkpt>
      <trkpt lat="46.85474" lon="-0.15213">
        <ele>93.9</ele>
        <time>2016-05-19T13:40:06.433Z</time>
      </trkpt>
      <trkpt lat="46.85476" lon="-0.15211">
        <ele>94</ele>
        <time>2016-05-19T13:40:08.434Z</time>
      </trkpt>
      <trkpt lat="46.85477" lon="-0.1521">
        <ele>94</ele>
        <time>2016-05-19T13:40:10.437Z</time>
      </trkpt>
      <trkpt lat="46.85479" lon="-0.15209">
        <ele>93.9</ele>
        <time>2016-05-19T13:40:12.430Z</time>
      </trkpt>
      <trkpt lat="46.85481" lon="-0.15207">
        <ele>94</ele>
        <time>2016-05-19T13:40:14.441Z</time>
      </trkpt>
      <trkpt lat="46.85482" lon="-0.15205">
        <ele>94.1</ele>
        <time>2016-05-19T13:40:16.433Z</time>
      </trkpt>
      <trkpt lat="46.85483" lon="-0.15205">
        <ele>94.3</ele>
        <time>2016-05-19T13:40:17.439Z</time>
      </trkpt>
      <trkpt lat="46.85484" lon="-0.15203">
        <ele>94.4</ele>
        <time>2016-05-19T13:40:19.432Z</time>
      </trkpt>
      <trkpt lat="46.85486" lon="-0.15201">
        <ele>94.5</ele>
        <time>2016-05-19T13:40:21.438Z</time>
      </trkpt>
      <trkpt lat="46.85487" lon="-0.152">
        <ele>94.6</ele>
        <time>2016-05-19T13:40:23.442Z</time>
      </trkpt>
      <trkpt lat="46.85489" lon="-0.15198">
        <ele>93.4</ele>
        <time>2016-05-19T13:40:25.446Z</time>
      </trkpt>
      <trkpt lat="46.8549" lon="-0.15196">
        <ele>93.7</ele>
        <time>2016-05-19T13:40:27.431Z</time>
      </trkpt>
      <trkpt lat="46.85492" lon="-0.15195">
        <ele>94.1</ele>
        <time>2016-05-19T13:40:29.434Z</time>
      </trkpt>
      <trkpt lat="46.85494" lon="-0.15193">
        <ele>94.3</ele>
        <time>2016-05-19T13:40:31.433Z</time>
      </trkpt>
      <trkpt lat="46.85496" lon="-0.15191">
        <ele>93.7</ele>
        <time>2016-05-19T13:40:33.431Z</time>
      </trkpt>
      <trkpt lat="46.85497" lon="-0.15189">
        <ele>93.6</ele>
        <time>2016-05-19T13:40:35.429Z</time>
      </trkpt>
      <trkpt lat="46.85499" lon="-0.15187">
        <ele>92.7</ele>
        <time>2016-05-19T13:40:37.440Z</time>
      </trkpt>
      <trkpt lat="46.855" lon="-0.15185">
        <ele>92.2</ele>
        <time>2016-05-19T13:40:39.439Z</time>
      </trkpt>
      <trkpt lat="46.85502" lon="-0.15184">
        <ele>91.8</ele>
        <time>2016-05-19T13:40:41.437Z</time>
      </trkpt>
      <trkpt lat="46.85504" lon="-0.15182">
        <ele>91</ele>
        <time>2016-05-19T13:40:43.430Z</time>
      </trkpt>
      <trkpt lat="46.85506" lon="-0.1518">
        <ele>91</ele>
        <time>2016-05-19T13:40:45.434Z</time>
      </trkpt>
      <trkpt lat="46.85508" lon="-0.15178">
        <ele>90.7</ele>
        <time>2016-05-19T13:40:47.435Z</time>
      </trkpt>
      <trkpt lat="46.85509" lon="-0.15176">
        <ele>89.8</ele>
        <time>2016-05-19T13:40:49.419Z</time>
      </trkpt>
      <trkpt lat="46.8551" lon="-0.15174">
        <ele>89.5</ele>
        <time>2016-05-19T13:40:50.419Z</time>
      </trkpt>
      <trkpt lat="46.8551" lon="-0.15173">
        <ele>89.3</ele>
        <time>2016-05-19T13:40:51.424Z</time>
      </trkpt>
      <trkpt lat="46.85512" lon="-0.15171">
        <ele>88.9</ele>
        <time>2016-05-19T13:40:53.431Z</time>
      </trkpt>
      <trkpt lat="46.85514" lon="-0.15169">
        <ele>88.4</ele>
        <time>2016-05-19T13:40:55.432Z</time>
      </trkpt>
      <trkpt lat="46.85516" lon="-0.15167">
        <ele>88.2</ele>
        <time>2016-05-19T13:40:57.431Z</time>
      </trkpt>
      <trkpt lat="46.85519" lon="-0.15165">
        <ele>88.9</ele>
        <time>2016-05-19T13:40:59.432Z</time>
      </trkpt>
      <trkpt lat="46.85521" lon="-0.15163">
        <ele>90.9</ele>
        <time>2016-05-19T13:41:01.432Z</time>
      </trkpt>
      <trkpt lat="46.85522" lon="-0.15161">
        <ele>90.1</ele>
        <time>2016-05-19T13:41:03.433Z</time>
      </trkpt>
      <trkpt lat="46.85524" lon="-0.15159">
        <ele>89.2</ele>
        <time>2016-05-19T13:41:05.437Z</time>
      </trkpt>
      <trkpt lat="46.85526" lon="-0.15158">
        <ele>88.3</ele>
        <time>2016-05-19T13:41:07.435Z</time>
      </trkpt>
      <trkpt lat="46.85527" lon="-0.15156">
        <ele>88.3</ele>
        <time>2016-05-19T13:41:09.435Z</time>
      </trkpt>
      <trkpt lat="46.8553" lon="-0.15154">
        <ele>87.8</ele>
        <time>2016-05-19T13:41:11.429Z</time>
      </trkpt>
      <trkpt lat="46.85532" lon="-0.15151">
        <ele>88.3</ele>
        <time>2016-05-19T13:41:13.439Z</time>
      </trkpt>
      <trkpt lat="46.85533" lon="-0.15149">
        <ele>88.1</ele>
        <time>2016-05-19T13:41:15.433Z</time>
      </trkpt>
      <trkpt lat="46.85536" lon="-0.15148">
        <ele>88.3</ele>
        <time>2016-05-19T13:41:17.434Z</time>
      </trkpt>
      <trkpt lat="46.85538" lon="-0.15145">
        <ele>88.1</ele>
        <time>2016-05-19T13:41:19.437Z</time>
      </trkpt>
      <trkpt lat="46.85539" lon="-0.15144">
        <ele>87.9</ele>
        <time>2016-05-19T13:41:21.434Z</time>
      </trkpt>
      <trkpt lat="46.85541" lon="-0.15142">
        <ele>87.9</ele>
        <time>2016-05-19T13:41:23.436Z</time>
      </trkpt>
      <trkpt lat="46.85543" lon="-0.1514">
        <ele>87.9</ele>
        <time>2016-05-19T13:41:25.438Z</time>
      </trkpt>
      <trkpt lat="46.85545" lon="-0.15138">
        <ele>89</ele>
        <time>2016-05-19T13:41:27.432Z</time>
      </trkpt>
      <trkpt lat="46.85547" lon="-0.15136">
        <ele>89.9</ele>
        <time>2016-05-19T13:41:29.444Z</time>
      </trkpt>
      <trkpt lat="46.85548" lon="-0.15134">
        <ele>90.4</ele>
        <time>2016-05-19T13:41:31.432Z</time>
      </trkpt>
      <trkpt lat="46.8555" lon="-0.15132">
        <ele>89.7</ele>
        <time>2016-05-19T13:41:33.433Z</time>
      </trkpt>
      <trkpt lat="46.85552" lon="-0.1513">
        <ele>89.8</ele>
        <time>2016-05-19T13:41:35.434Z</time>
      </trkpt>
      <trkpt lat="46.85553" lon="-0.15127">
        <ele>89</ele>
        <time>2016-05-19T13:41:37.451Z</time>
      </trkpt>
      <trkpt lat="46.85556" lon="-0.15125">
        <ele>89.5</ele>
        <time>2016-05-19T13:41:39.434Z</time>
      </trkpt>
      <trkpt lat="46.85557" lon="-0.15123">
        <ele>88.5</ele>
        <time>2016-05-19T13:41:41.418Z</time>
      </trkpt>
      <trkpt lat="46.85558" lon="-0.15122">
        <ele>88.3</ele>
        <time>2016-05-19T13:41:42.418Z</time>
      </trkpt>
      <trkpt lat="46.85558" lon="-0.1512">
        <ele>88.1</ele>
        <time>2016-05-19T13:41:43.420Z</time>
      </trkpt>
      <trkpt lat="46.8556" lon="-0.15118">
        <ele>87.9</ele>
        <time>2016-05-19T13:41:45.433Z</time>
      </trkpt>
      <trkpt lat="46.85563" lon="-0.15116">
        <ele>88.3</ele>
        <time>2016-05-19T13:41:47.430Z</time>
      </trkpt>
      <trkpt lat="46.85565" lon="-0.15114">
        <ele>89.5</ele>
        <time>2016-05-19T13:41:49.445Z</time>
      </trkpt>
      <trkpt lat="46.85567" lon="-0.15113">
        <ele>89.8</ele>
        <time>2016-05-19T13:41:51.438Z</time>
      </trkpt>
      <trkpt lat="46.85569" lon="-0.15111">
        <ele>89.3</ele>
        <time>2016-05-19T13:41:53.437Z</time>
      </trkpt>
      <trkpt lat="46.85571" lon="-0.15108">
        <ele>88.8</ele>
        <time>2016-05-19T13:41:55.435Z</time>
      </trkpt>
      <trkpt lat="46.85572" lon="-0.15106">
        <ele>89</ele>
        <time>2016-05-19T13:41:57.433Z</time>
      </trkpt>
      <trkpt lat="46.85574" lon="-0.15104">
        <ele>89.2</ele>
        <time>2016-05-19T13:41:59.436Z</time>
      </trkpt>
      <trkpt lat="46.85576" lon="-0.15102">
        <ele>89.6</ele>
        <time>2016-05-19T13:42:01.433Z</time>
      </trkpt>
      <trkpt lat="46.85578" lon="-0.151">
        <ele>89.5</ele>
        <time>2016-05-19T13:42:03.420Z</time>
      </trkpt>
      <trkpt lat="46.85579" lon="-0.15099">
        <ele>89.2</ele>
        <time>2016-05-19T13:42:04.422Z</time>
      </trkpt>
      <trkpt lat="46.85579" lon="-0.15098">
        <ele>89.2</ele>
        <time>2016-05-19T13:42:05.430Z</time>
      </trkpt>
      <trkpt lat="46.8558" lon="-0.15098">
        <ele>89</ele>
        <time>2016-05-19T13:42:06.425Z</time>
      </trkpt>
      <trkpt lat="46.85581" lon="-0.15097">
        <ele>88.9</ele>
        <time>2016-05-19T13:42:07.420Z</time>
      </trkpt>
      <trkpt lat="46.85583" lon="-0.15095">
        <ele>87.9</ele>
        <time>2016-05-19T13:42:09.434Z</time>
      </trkpt>
      <trkpt lat="46.85584" lon="-0.15093">
        <ele>87.5</ele>
        <time>2016-05-19T13:42:11.435Z</time>
      </trkpt>
      <trkpt lat="46.85585" lon="-0.1509">
        <ele>88</ele>
        <time>2016-05-19T13:42:13.441Z</time>
      </trkpt>
      <trkpt lat="46.85587" lon="-0.15087">
        <ele>89</ele>
        <time>2016-05-19T13:42:15.431Z</time>
      </trkpt>
      <trkpt lat="46.85589" lon="-0.15085">
        <ele>89.2</ele>
        <time>2016-05-19T13:42:17.434Z</time>
      </trkpt>
      <trkpt lat="46.85591" lon="-0.15084">
        <ele>88.8</ele>
        <time>2016-05-19T13:42:19.421Z</time>
      </trkpt>
      <trkpt lat="46.85592" lon="-0.15083">
        <ele>88.3</ele>
        <time>2016-05-19T13:42:20.432Z</time>
      </trkpt>
      <trkpt lat="46.85593" lon="-0.15081">
        <ele>88.4</ele>
        <time>2016-05-19T13:42:22.433Z</time>
      </trkpt>
      <trkpt lat="46.85596" lon="-0.15079">
        <ele>88.4</ele>
        <time>2016-05-19T13:42:24.443Z</time>
      </trkpt>
      <trkpt lat="46.85597" lon="-0.15077">
        <ele>87.8</ele>
        <time>2016-05-19T13:42:26.431Z</time>
      </trkpt>
      <trkpt lat="46.856" lon="-0.15076">
        <ele>87.9</ele>
        <time>2016-05-19T13:42:28.451Z</time>
      </trkpt>
      <trkpt lat="46.85602" lon="-0.15074">
        <ele>87.4</ele>
        <time>2016-05-19T13:42:30.431Z</time>
      </trkpt>
      <trkpt lat="46.85603" lon="-0.15071">
        <ele>87.8</ele>
        <time>2016-05-19T13:42:32.440Z</time>
      </trkpt>
      <trkpt lat="46.85605" lon="-0.1507">
        <ele>86.5</ele>
        <time>2016-05-19T13:42:34.431Z</time>
      </trkpt>
      <trkpt lat="46.85607" lon="-0.15068">
        <ele>86.4</ele>
        <time>2016-05-19T13:42:36.433Z</time>
      </trkpt>
      <trkpt lat="46.85609" lon="-0.15066">
        <ele>87.4</ele>
        <time>2016-05-19T13:42:38.432Z</time>
      </trkpt>
      <trkpt lat="46.85611" lon="-0.15065">
        <ele>88.2</ele>
        <time>2016-05-19T13:42:40.427Z</time>
      </trkpt>
      <trkpt lat="46.85613" lon="-0.15064">
        <ele>89</ele>
        <time>2016-05-19T13:42:42.431Z</time>
      </trkpt>
      <trkpt lat="46.85615" lon="-0.15062">
        <ele>88.5</ele>
        <time>2016-05-19T13:42:44.429Z</time>
      </trkpt>
      <trkpt lat="46.85617" lon="-0.1506">
        <ele>89</ele>
        <time>2016-05-19T13:42:46.431Z</time>
      </trkpt>
      <trkpt lat="46.85619" lon="-0.15058">
        <ele>89.7</ele>
        <time>2016-05-19T13:42:48.433Z</time>
      </trkpt>
      <trkpt lat="46.85622" lon="-0.15056">
        <ele>90.3</ele>
        <time>2016-05-19T13:42:50.434Z</time>
      </trkpt>
      <trkpt lat="46.85624" lon="-0.15055">
        <ele>92.3</ele>
        <time>2016-05-19T13:42:52.436Z</time>
      </trkpt>
      <trkpt lat="46.85627" lon="-0.15055">
        <ele>94.2</ele>
        <time>2016-05-19T13:42:54.429Z</time>
      </trkpt>
      <trkpt lat="46.85629" lon="-0.15054">
        <ele>96.6</ele>
        <time>2016-05-19T13:42:56.431Z</time>
      </trkpt>
      <trkpt lat="46.85631" lon="-0.15053">
        <ele>96.8</ele>
        <time>2016-05-19T13:42:58.433Z</time>
      </trkpt>
      <trkpt lat="46.85632" lon="-0.15052">
        <ele>96.9</ele>
        <time>2016-05-19T13:43:00.430Z</time>
      </trkpt>
      <trkpt lat="46.85634" lon="-0.15052">
        <ele>98</ele>
        <time>2016-05-19T13:43:02.436Z</time>
      </trkpt>
      <trkpt lat="46.85636" lon="-0.15051">
        <ele>98.2</ele>
        <time>2016-05-19T13:43:04.434Z</time>
      </trkpt>
      <trkpt lat="46.85638" lon="-0.1505">
        <ele>98.6</ele>
        <time>2016-05-19T13:43:06.434Z</time>
      </trkpt>
      <trkpt lat="46.8564" lon="-0.15051">
        <ele>96.4</ele>
        <time>2016-05-19T13:43:08.433Z</time>
      </trkpt>
      <trkpt lat="46.8564" lon="-0.15052">
        <ele>95.7</ele>
        <time>2016-05-19T13:43:10.435Z</time>
      </trkpt>
      <trkpt lat="46.8564" lon="-0.15051">
        <ele>96</ele>
        <time>2016-05-19T13:43:12.430Z</time>
      </trkpt>
      <trkpt lat="46.8564" lon="-0.15051">
        <ele>96</ele>
        <time>2016-05-19T13:43:14.444Z</time>
      </trkpt>
      <trkpt lat="46.8564" lon="-0.15051">
        <ele>96</ele>
        <time>2016-05-19T13:43:16.433Z</time>
      </trkpt>
      <trkpt lat="46.8564" lon="-0.15051">
        <ele>96</ele>
        <time>2016-05-19T13:43:17.447Z</time>
      </trkpt>
      <trkpt lat="46.8564" lon="-0.15051">
        <ele>96</ele>
        <time>2016-05-19T13:43:19.435Z</time>
      </trkpt>
      <trkpt lat="46.85641" lon="-0.1505">
        <ele>95.8</ele>
        <time>2016-05-19T13:43:20.433Z</time>
      </trkpt>
      <trkpt lat="46.85642" lon="-0.15048">
        <ele>95.7</ele>
        <time>2016-05-19T13:43:22.433Z</time>
      </trkpt>
      <trkpt lat="46.85643" lon="-0.15047">
        <ele>94.4</ele>
        <time>2016-05-19T13:43:24.433Z</time>
      </trkpt>
      <trkpt lat="46.85645" lon="-0.15047">
        <ele>94.5</ele>
        <time>2016-05-19T13:43:26.440Z</time>
      </trkpt>
      <trkpt lat="46.85646" lon="-0.15046">
        <ele>93.7</ele>
        <time>2016-05-19T13:43:28.437Z</time>
      </trkpt>
      <trkpt lat="46.85648" lon="-0.15045">
        <ele>94</ele>
        <time>2016-05-19T13:43:30.416Z</time>
      </trkpt>
      <trkpt lat="46.8565" lon="-0.15044">
        <ele>93.6</ele>
        <time>2016-05-19T13:43:31.427Z</time>
      </trkpt>
      <trkpt lat="46.85651" lon="-0.15043">
        <ele>93.6</ele>
        <time>2016-05-19T13:43:33.430Z</time>
      </trkpt>
      <trkpt lat="46.85653" lon="-0.15042">
        <ele>94</ele>
        <time>2016-05-19T13:43:35.426Z</time>
      </trkpt>
      <trkpt lat="46.85656" lon="-0.15041">
        <ele>94.9</ele>
        <time>2016-05-19T13:43:37.442Z</time>
      </trkpt>
      <trkpt lat="46.85658" lon="-0.15039">
        <ele>95.5</ele>
        <time>2016-05-19T13:43:39.438Z</time>
      </trkpt>
      <trkpt lat="46.85661" lon="-0.15039">
        <ele>97.2</ele>
        <time>2016-05-19T13:43:41.433Z</time>
      </trkpt>
      <trkpt lat="46.85664" lon="-0.15038">
        <ele>96.6</ele>
        <time>2016-05-19T13:43:43.436Z</time>
      </trkpt>
      <trkpt lat="46.85666" lon="-0.15036">
        <ele>97.6</ele>
        <time>2016-05-19T13:43:45.433Z</time>
      </trkpt>
      <trkpt lat="46.85668" lon="-0.15035">
        <ele>98.5</ele>
        <time>2016-05-19T13:43:47.437Z</time>
      </trkpt>
      <trkpt lat="46.85669" lon="-0.15033">
        <ele>99.2</ele>
        <time>2016-05-19T13:43:49.434Z</time>
      </trkpt>
      <trkpt lat="46.85671" lon="-0.15032">
        <ele>99.2</ele>
        <time>2016-05-19T13:43:51.437Z</time>
      </trkpt>
      <trkpt lat="46.85673" lon="-0.15031">
        <ele>99.2</ele>
        <time>2016-05-19T13:43:53.436Z</time>
      </trkpt>
      <trkpt lat="46.85675" lon="-0.15029">
        <ele>99.6</ele>
        <time>2016-05-19T13:43:55.430Z</time>
      </trkpt>
      <trkpt lat="46.85677" lon="-0.15028">
        <ele>99.5</ele>
        <time>2016-05-19T13:43:57.436Z</time>
      </trkpt>
      <trkpt lat="46.85679" lon="-0.15027">
        <ele>99</ele>
        <time>2016-05-19T13:43:59.418Z</time>
      </trkpt>
      <trkpt lat="46.85681" lon="-0.15026">
        <ele>98.3</ele>
        <time>2016-05-19T13:44:00.420Z</time>
      </trkpt>
      <trkpt lat="46.85682" lon="-0.15026">
        <ele>97.8</ele>
        <time>2016-05-19T13:44:01.423Z</time>
      </trkpt>
      <trkpt lat="46.85683" lon="-0.15025">
        <ele>97.6</ele>
        <time>2016-05-19T13:44:02.424Z</time>
      </trkpt>
      <trkpt lat="46.85684" lon="-0.15023">
        <ele>96.9</ele>
        <time>2016-05-19T13:44:04.434Z</time>
      </trkpt>
      <trkpt lat="46.85687" lon="-0.15022">
        <ele>95.7</ele>
        <time>2016-05-19T13:44:06.442Z</time>
      </trkpt>
      <trkpt lat="46.85688" lon="-0.15021">
        <ele>94.4</ele>
        <time>2016-05-19T13:44:08.417Z</time>
      </trkpt>
      <trkpt lat="46.8569" lon="-0.1502">
        <ele>94.2</ele>
        <time>2016-05-19T13:44:09.418Z</time>
      </trkpt>
      <trkpt lat="46.85691" lon="-0.15019">
        <ele>93.9</ele>
        <time>2016-05-19T13:44:10.417Z</time>
      </trkpt>
      <trkpt lat="46.85692" lon="-0.15019">
        <ele>93.4</ele>
        <time>2016-05-19T13:44:11.422Z</time>
      </trkpt>
      <trkpt lat="46.85693" lon="-0.15018">
        <ele>93</ele>
        <time>2016-05-19T13:44:12.419Z</time>
      </trkpt>
      <trkpt lat="46.85695" lon="-0.15018">
        <ele>92.5</ele>
        <time>2016-05-19T13:44:13.421Z</time>
      </trkpt>
      <trkpt lat="46.85696" lon="-0.15017">
        <ele>93.1</ele>
        <time>2016-05-19T13:44:14.422Z</time>
      </trkpt>
      <trkpt lat="46.85699" lon="-0.15016">
        <ele>92.5</ele>
        <time>2016-05-19T13:44:16.431Z</time>
      </trkpt>
      <trkpt lat="46.85701" lon="-0.15015">
        <ele>92.1</ele>
        <time>2016-05-19T13:44:18.423Z</time>
      </trkpt>
      <trkpt lat="46.85702" lon="-0.15014">
        <ele>92.3</ele>
        <time>2016-05-19T13:44:19.423Z</time>
      </trkpt>
      <trkpt lat="46.85704" lon="-0.15012">
        <ele>92.1</ele>
        <time>2016-05-19T13:44:21.431Z</time>
      </trkpt>
      <trkpt lat="46.85706" lon="-0.15011">
        <ele>91.5</ele>
        <time>2016-05-19T13:44:23.433Z</time>
      </trkpt>
      <trkpt lat="46.85708" lon="-0.15009">
        <ele>89.6</ele>
        <time>2016-05-19T13:44:25.433Z</time>
      </trkpt>
      <trkpt lat="46.85709" lon="-0.15007">
        <ele>88.6</ele>
        <time>2016-05-19T13:44:27.434Z</time>
      </trkpt>
      <trkpt lat="46.85711" lon="-0.15005">
        <ele>87.9</ele>
        <time>2016-05-19T13:44:29.436Z</time>
      </trkpt>
      <trkpt lat="46.85713" lon="-0.15003">
        <ele>88</ele>
        <time>2016-05-19T13:44:31.436Z</time>
      </trkpt>
      <trkpt lat="46.85716" lon="-0.15003">
        <ele>89</ele>
        <time>2016-05-19T13:44:33.435Z</time>
      </trkpt>
      <trkpt lat="46.85718" lon="-0.15001">
        <ele>89.1</ele>
        <time>2016-05-19T13:44:35.416Z</time>
      </trkpt>
      <trkpt lat="46.85719" lon="-0.15001">
        <ele>89.2</ele>
        <time>2016-05-19T13:44:36.419Z</time>
      </trkpt>
      <trkpt lat="46.8572" lon="-0.15">
        <ele>89</ele>
        <time>2016-05-19T13:44:37.426Z</time>
      </trkpt>
      <trkpt lat="46.85722" lon="-0.15">
        <ele>89.4</ele>
        <time>2016-05-19T13:44:39.434Z</time>
      </trkpt>
      <trkpt lat="46.85724" lon="-0.14998">
        <ele>88.7</ele>
        <time>2016-05-19T13:44:41.418Z</time>
      </trkpt>
      <trkpt lat="46.85725" lon="-0.14998">
        <ele>88.6</ele>
        <time>2016-05-19T13:44:42.417Z</time>
      </trkpt>
      <trkpt lat="46.85726" lon="-0.14997">
        <ele>88.5</ele>
        <time>2016-05-19T13:44:43.429Z</time>
      </trkpt>
      <trkpt lat="46.85728" lon="-0.14995">
        <ele>88.2</ele>
        <time>2016-05-19T13:44:45.448Z</time>
      </trkpt>
      <trkpt lat="46.85729" lon="-0.14994">
        <ele>88.2</ele>
        <time>2016-05-19T13:44:47.433Z</time>
      </trkpt>
      <trkpt lat="46.85732" lon="-0.14993">
        <ele>88.2</ele>
        <time>2016-05-19T13:44:49.437Z</time>
      </trkpt>
      <trkpt lat="46.85733" lon="-0.14992">
        <ele>87.8</ele>
        <time>2016-05-19T13:44:51.442Z</time>
      </trkpt>
      <trkpt lat="46.85734" lon="-0.1499">
        <ele>87.7</ele>
        <time>2016-05-19T13:44:53.419Z</time>
      </trkpt>
      <trkpt lat="46.85735" lon="-0.14989">
        <ele>87.9</ele>
        <time>2016-05-19T13:44:54.424Z</time>
      </trkpt>
      <trkpt lat="46.85737" lon="-0.14989">
        <ele>88.7</ele>
        <time>2016-05-19T13:44:55.424Z</time>
      </trkpt>
      <trkpt lat="46.85739" lon="-0.14988">
        <ele>89.5</ele>
        <time>2016-05-19T13:44:57.439Z</time>
      </trkpt>
      <trkpt lat="46.85741" lon="-0.14987">
        <ele>90.9</ele>
        <time>2016-05-19T13:44:59.430Z</time>
      </trkpt>
      <trkpt lat="46.85744" lon="-0.14986">
        <ele>91.2</ele>
        <time>2016-05-19T13:45:01.437Z</time>
      </trkpt>
      <trkpt lat="46.85746" lon="-0.14984">
        <ele>91.4</ele>
        <time>2016-05-19T13:45:03.434Z</time>
      </trkpt>
      <trkpt lat="46.85748" lon="-0.14982">
        <ele>91.1</ele>
        <time>2016-05-19T13:45:05.433Z</time>
      </trkpt>
      <trkpt lat="46.8575" lon="-0.14982">
        <ele>91.2</ele>
        <time>2016-05-19T13:45:07.433Z</time>
      </trkpt>
      <trkpt lat="46.85753" lon="-0.14981">
        <ele>91.5</ele>
        <time>2016-05-19T13:45:09.434Z</time>
      </trkpt>
      <trkpt lat="46.85755" lon="-0.1498">
        <ele>91.7</ele>
        <time>2016-05-19T13:45:11.436Z</time>
      </trkpt>
      <trkpt lat="46.85757" lon="-0.14979">
        <ele>91.4</ele>
        <time>2016-05-19T13:45:13.437Z</time>
      </trkpt>
      <trkpt lat="46.8576" lon="-0.14979">
        <ele>91.1</ele>
        <time>2016-05-19T13:45:15.434Z</time>
      </trkpt>
      <trkpt lat="46.85762" lon="-0.14978">
        <ele>91.1</ele>
        <time>2016-05-19T13:45:17.434Z</time>
      </trkpt>
      <trkpt lat="46.85764" lon="-0.14977">
        <ele>91.4</ele>
        <time>2016-05-19T13:45:19.435Z</time>
      </trkpt>
      <trkpt lat="46.85766" lon="-0.14975">
        <ele>92.2</ele>
        <time>2016-05-19T13:45:21.439Z</time>
      </trkpt>
      <trkpt lat="46.85769" lon="-0.14975">
        <ele>93</ele>
        <time>2016-05-19T13:45:23.433Z</time>
      </trkpt>
      <trkpt lat="46.85771" lon="-0.14974">
        <ele>93.6</ele>
        <time>2016-05-19T13:45:25.433Z</time>
      </trkpt>
      <trkpt lat="46.85773" lon="-0.14974">
        <ele>93</ele>
        <time>2016-05-19T13:45:27.437Z</time>
      </trkpt>
      <trkpt lat="46.85774" lon="-0.14974">
        <ele>92.7</ele>
        <time>2016-05-19T13:45:29.444Z</time>
      </trkpt>
      <trkpt lat="46.85777" lon="-0.14973">
        <ele>92.2</ele>
        <time>2016-05-19T13:45:31.429Z</time>
      </trkpt>
      <trkpt lat="46.85779" lon="-0.14973">
        <ele>92</ele>
        <time>2016-05-19T13:45:33.439Z</time>
      </trkpt>
      <trkpt lat="46.85782" lon="-0.14972">
        <ele>92.6</ele>
        <time>2016-05-19T13:45:35.434Z</time>
      </trkpt>
      <trkpt lat="46.85784" lon="-0.14971">
        <ele>93</ele>
        <time>2016-05-19T13:45:37.436Z</time>
      </trkpt>
      <trkpt lat="46.85786" lon="-0.1497">
        <ele>93.2</ele>
        <time>2016-05-19T13:45:39.433Z</time>
      </trkpt>
      <trkpt lat="46.85789" lon="-0.14968">
        <ele>93.2</ele>
        <time>2016-05-19T13:45:41.433Z</time>
      </trkpt>
      <trkpt lat="46.85791" lon="-0.14967">
        <ele>93.1</ele>
        <time>2016-05-19T13:45:43.433Z</time>
      </trkpt>
      <trkpt lat="46.85794" lon="-0.14965">
        <ele>92.9</ele>
        <time>2016-05-19T13:45:45.473Z</time>
      </trkpt>
      <trkpt lat="46.85796" lon="-0.14964">
        <ele>93</ele>
        <time>2016-05-19T13:45:47.439Z</time>
      </trkpt>
      <trkpt lat="46.85799" lon="-0.14963">
        <ele>93.5</ele>
        <time>2016-05-19T13:45:49.442Z</time>
      </trkpt>
      <trkpt lat="46.85801" lon="-0.14963">
        <ele>94</ele>
        <time>2016-05-19T13:45:51.434Z</time>
      </trkpt>
      <trkpt lat="46.85804" lon="-0.14962">
        <ele>94.9</ele>
        <time>2016-05-19T13:45:53.433Z</time>
      </trkpt>
      <trkpt lat="46.85807" lon="-0.14961">
        <ele>94.8</ele>
        <time>2016-05-19T13:45:55.440Z</time>
      </trkpt>
      <trkpt lat="46.85809" lon="-0.1496">
        <ele>94.6</ele>
        <time>2016-05-19T13:45:57.434Z</time>
      </trkpt>
      <trkpt lat="46.85812" lon="-0.14959">
        <ele>94.6</ele>
        <time>2016-05-19T13:45:59.431Z</time>
      </trkpt>
      <trkpt lat="46.85814" lon="-0.14958">
        <ele>94.3</ele>
        <time>2016-05-19T13:46:01.434Z</time>
      </trkpt>
      <trkpt lat="46.85817" lon="-0.14956">
        <ele>94.1</ele>
        <time>2016-05-19T13:46:03.433Z</time>
      </trkpt>
      <trkpt lat="46.85819" lon="-0.14955">
        <ele>94.1</ele>
        <time>2016-05-19T13:46:05.418Z</time>
      </trkpt>
      <trkpt lat="46.8582" lon="-0.14955">
        <ele>94</ele>
        <time>2016-05-19T13:46:06.419Z</time>
      </trkpt>
      <trkpt lat="46.85822" lon="-0.14954">
        <ele>94</ele>
        <time>2016-05-19T13:46:07.427Z</time>
      </trkpt>
      <trkpt lat="46.85823" lon="-0.14954">
        <ele>93.8</ele>
        <time>2016-05-19T13:46:08.424Z</time>
      </trkpt>
      <trkpt lat="46.85825" lon="-0.14953">
        <ele>94.1</ele>
        <time>2016-05-19T13:46:10.434Z</time>
      </trkpt>
      <trkpt lat="46.85827" lon="-0.14951">
        <ele>93.9</ele>
        <time>2016-05-19T13:46:12.418Z</time>
      </trkpt>
      <trkpt lat="46.85827" lon="-0.14951">
        <ele>93.7</ele>
        <time>2016-05-19T13:46:13.432Z</time>
      </trkpt>
      <trkpt lat="46.85828" lon="-0.1495">
        <ele>94.3</ele>
        <time>2016-05-19T13:46:14.431Z</time>
      </trkpt>
      <trkpt lat="46.8583" lon="-0.14949">
        <ele>95.3</ele>
        <time>2016-05-19T13:46:16.419Z</time>
      </trkpt>
      <trkpt lat="46.85831" lon="-0.14949">
        <ele>94.5</ele>
        <time>2016-05-19T13:46:17.420Z</time>
      </trkpt>
      <trkpt lat="46.8583" lon="-0.14947">
        <ele>95.5</ele>
        <time>2016-05-19T13:46:19.433Z</time>
      </trkpt>
      <trkpt lat="46.85831" lon="-0.14946">
        <ele>96.2</ele>
        <time>2016-05-19T13:46:21.432Z</time>
      </trkpt>
      <trkpt lat="46.85831" lon="-0.14946">
        <ele>96</ele>
        <time>2016-05-19T13:46:23.434Z</time>
      </trkpt>
      <trkpt lat="46.85832" lon="-0.14944">
        <ele>96.3</ele>
        <time>2016-05-19T13:46:25.438Z</time>
      </trkpt>
      <trkpt lat="46.85832" lon="-0.14944">
        <ele>95.7</ele>
        <time>2016-05-19T13:46:27.429Z</time>
      </trkpt>
      <trkpt lat="46.85833" lon="-0.14945">
        <ele>95.1</ele>
        <time>2016-05-19T13:46:29.434Z</time>
      </trkpt>
      <trkpt lat="46.85834" lon="-0.14946">
        <ele>94.8</ele>
        <time>2016-05-19T13:46:31.434Z</time>
      </trkpt>
      <trkpt lat="46.85835" lon="-0.14948">
        <ele>94.9</ele>
        <time>2016-05-19T13:46:33.431Z</time>
      </trkpt>
      <trkpt lat="46.85835" lon="-0.14948">
        <ele>94</ele>
        <time>2016-05-19T13:46:35.417Z</time>
      </trkpt>
      <trkpt lat="46.85835" lon="-0.14949">
        <ele>94.2</ele>
        <time>2016-05-19T13:46:36.418Z</time>
      </trkpt>
      <trkpt lat="46.85835" lon="-0.14949">
        <ele>93.7</ele>
        <time>2016-05-19T13:46:37.426Z</time>
      </trkpt>
      <trkpt lat="46.85835" lon="-0.14949">
        <ele>93.7</ele>
        <time>2016-05-19T13:46:39.432Z</time>
      </trkpt>
      <trkpt lat="46.85834" lon="-0.14948">
        <ele>93</ele>
        <time>2016-05-19T13:46:41.436Z</time>
      </trkpt>
      <trkpt lat="46.85833" lon="-0.14945">
        <ele>92.2</ele>
        <time>2016-05-19T13:46:43.437Z</time>
      </trkpt>
      <trkpt lat="46.85833" lon="-0.14942">
        <ele>92.1</ele>
        <time>2016-05-19T13:46:45.437Z</time>
      </trkpt>
      <trkpt lat="46.85832" lon="-0.14939">
        <ele>91.7</ele>
        <time>2016-05-19T13:46:47.433Z</time>
      </trkpt>
      <trkpt lat="46.85832" lon="-0.14936">
        <ele>91.2</ele>
        <time>2016-05-19T13:46:49.436Z</time>
      </trkpt>
      <trkpt lat="46.85831" lon="-0.14933">
        <ele>91</ele>
        <time>2016-05-19T13:46:51.432Z</time>
      </trkpt>
      <trkpt lat="46.8583" lon="-0.1493">
        <ele>90.7</ele>
        <time>2016-05-19T13:46:53.433Z</time>
      </trkpt>
      <trkpt lat="46.8583" lon="-0.14927">
        <ele>90.1</ele>
        <time>2016-05-19T13:46:55.441Z</time>
      </trkpt>
      <trkpt lat="46.8583" lon="-0.14923">
        <ele>89.6</ele>
        <time>2016-05-19T13:46:57.431Z</time>
      </trkpt>
      <trkpt lat="46.85829" lon="-0.1492">
        <ele>89</ele>
        <time>2016-05-19T13:46:59.432Z</time>
      </trkpt>
      <trkpt lat="46.85829" lon="-0.14917">
        <ele>88.2</ele>
        <time>2016-05-19T13:47:01.441Z</time>
      </trkpt>
      <trkpt lat="46.85829" lon="-0.14914">
        <ele>87.1</ele>
        <time>2016-05-19T13:47:03.439Z</time>
      </trkpt>
      <trkpt lat="46.85828" lon="-0.14911">
        <ele>86.4</ele>
        <time>2016-05-19T13:47:05.437Z</time>
      </trkpt>
      <trkpt lat="46.85828" lon="-0.14907">
        <ele>85.3</ele>
        <time>2016-05-19T13:47:07.434Z</time>
      </trkpt>
      <trkpt lat="46.85828" lon="-0.14905">
        <ele>84.9</ele>
        <time>2016-05-19T13:47:09.434Z</time>
      </trkpt>
      <trkpt lat="46.85827" lon="-0.14902">
        <ele>84</ele>
        <time>2016-05-19T13:47:11.431Z</time>
      </trkpt>
      <trkpt lat="46.85827" lon="-0.14898">
        <ele>83.7</ele>
        <time>2016-05-19T13:47:13.439Z</time>
      </trkpt>
      <trkpt lat="46.85826" lon="-0.14895">
        <ele>83.3</ele>
        <time>2016-05-19T13:47:15.438Z</time>
      </trkpt>
      <trkpt lat="46.85826" lon="-0.14892">
        <ele>82.6</ele>
        <time>2016-05-19T13:47:17.429Z</time>
      </trkpt>
      <trkpt lat="46.85825" lon="-0.14888">
        <ele>82</ele>
        <time>2016-05-19T13:47:19.417Z</time>
      </trkpt>
      <trkpt lat="46.85825" lon="-0.14887">
        <ele>82.1</ele>
        <time>2016-05-19T13:47:20.422Z</time>
      </trkpt>
      <trkpt lat="46.85825" lon="-0.14885">
        <ele>81.6</ele>
        <time>2016-05-19T13:47:21.420Z</time>
      </trkpt>
      <trkpt lat="46.85824" lon="-0.14883">
        <ele>81.2</ele>
        <time>2016-05-19T13:47:22.426Z</time>
      </trkpt>
      <trkpt lat="46.85823" lon="-0.1488">
        <ele>80.6</ele>
        <time>2016-05-19T13:47:24.434Z</time>
      </trkpt>
      <trkpt lat="46.85823" lon="-0.14876">
        <ele>81.2</ele>
        <time>2016-05-19T13:47:26.443Z</time>
      </trkpt>
      <trkpt lat="46.85823" lon="-0.14873">
        <ele>81.2</ele>
        <time>2016-05-19T13:47:28.433Z</time>
      </trkpt>
      <trkpt lat="46.85823" lon="-0.1487">
        <ele>80.5</ele>
        <time>2016-05-19T13:47:30.450Z</time>
      </trkpt>
      <trkpt lat="46.85823" lon="-0.14867">
        <ele>79.9</ele>
        <time>2016-05-19T13:47:32.434Z</time>
      </trkpt>
      <trkpt lat="46.85822" lon="-0.14864">
        <ele>78.9</ele>
        <time>2016-05-19T13:47:34.427Z</time>
      </trkpt>
      <trkpt lat="46.85821" lon="-0.14861">
        <ele>79</ele>
        <time>2016-05-19T13:47:36.423Z</time>
      </trkpt>
      <trkpt lat="46.85821" lon="-0.14859">
        <ele>79</ele>
        <time>2016-05-19T13:47:37.422Z</time>
      </trkpt>
      <trkpt lat="46.8582" lon="-0.14857">
        <ele>78.7</ele>
        <time>2016-05-19T13:47:38.430Z</time>
      </trkpt>
      <trkpt lat="46.8582" lon="-0.14854">
        <ele>78.9</ele>
        <time>2016-05-19T13:47:40.443Z</time>
      </trkpt>
      <trkpt lat="46.8582" lon="-0.14851">
        <ele>78.9</ele>
        <time>2016-05-19T13:47:42.432Z</time>
      </trkpt>
      <trkpt lat="46.85819" lon="-0.14847">
        <ele>78.2</ele>
        <time>2016-05-19T13:47:44.434Z</time>
      </trkpt>
      <trkpt lat="46.85817" lon="-0.14844">
        <ele>78.5</ele>
        <time>2016-05-19T13:47:46.416Z</time>
      </trkpt>
      <trkpt lat="46.85817" lon="-0.14842">
        <ele>78.4</ele>
        <time>2016-05-19T13:47:47.419Z</time>
      </trkpt>
      <trkpt lat="46.85817" lon="-0.14841">
        <ele>78.3</ele>
        <time>2016-05-19T13:47:48.419Z</time>
      </trkpt>
      <trkpt lat="46.85816" lon="-0.14839">
        <ele>78.3</ele>
        <time>2016-05-19T13:47:49.421Z</time>
      </trkpt>
      <trkpt lat="46.85816" lon="-0.14838">
        <ele>78.4</ele>
        <time>2016-05-19T13:47:50.419Z</time>
      </trkpt>
      <trkpt lat="46.85815" lon="-0.14836">
        <ele>77.9</ele>
        <time>2016-05-19T13:47:51.432Z</time>
      </trkpt>
      <trkpt lat="46.85815" lon="-0.14832">
        <ele>77.2</ele>
        <time>2016-05-19T13:47:53.433Z</time>
      </trkpt>
      <trkpt lat="46.85815" lon="-0.14829">
        <ele>77</ele>
        <time>2016-05-19T13:47:55.437Z</time>
      </trkpt>
      <trkpt lat="46.85814" lon="-0.14825">
        <ele>76.8</ele>
        <time>2016-05-19T13:47:57.429Z</time>
      </trkpt>
      <trkpt lat="46.85813" lon="-0.14822">
        <ele>77.5</ele>
        <time>2016-05-19T13:47:59.433Z</time>
      </trkpt>
      <trkpt lat="46.85813" lon="-0.14818">
        <ele>77.8</ele>
        <time>2016-05-19T13:48:01.442Z</time>
      </trkpt>
      <trkpt lat="46.85812" lon="-0.14814">
        <ele>77.4</ele>
        <time>2016-05-19T13:48:03.433Z</time>
      </trkpt>
      <trkpt lat="46.85812" lon="-0.1481">
        <ele>77.7</ele>
        <time>2016-05-19T13:48:05.438Z</time>
      </trkpt>
      <trkpt lat="46.85811" lon="-0.14806">
        <ele>77.2</ele>
        <time>2016-05-19T13:48:07.439Z</time>
      </trkpt>
      <trkpt lat="46.8581" lon="-0.14802">
        <ele>77.3</ele>
        <time>2016-05-19T13:48:09.432Z</time>
      </trkpt>
      <trkpt lat="46.85809" lon="-0.148">
        <ele>77.3</ele>
        <time>2016-05-19T13:48:10.436Z</time>
      </trkpt>
      <trkpt lat="46.85807" lon="-0.14797">
        <ele>77.5</ele>
        <time>2016-05-19T13:48:12.431Z</time>
      </trkpt>
      <trkpt lat="46.85806" lon="-0.14794">
        <ele>77.1</ele>
        <time>2016-05-19T13:48:14.439Z</time>
      </trkpt>
      <trkpt lat="46.85805" lon="-0.1479">
        <ele>77.6</ele>
        <time>2016-05-19T13:48:16.417Z</time>
      </trkpt>
      <trkpt lat="46.85804" lon="-0.14789">
        <ele>77.2</ele>
        <time>2016-05-19T13:48:17.420Z</time>
      </trkpt>
      <trkpt lat="46.85804" lon="-0.14785">
        <ele>77.2</ele>
        <time>2016-05-19T13:48:19.434Z</time>
      </trkpt>
      <trkpt lat="46.85804" lon="-0.14782">
        <ele>77.2</ele>
        <time>2016-05-19T13:48:21.436Z</time>
      </trkpt>
      <trkpt lat="46.85803" lon="-0.14779">
        <ele>77.1</ele>
        <time>2016-05-19T13:48:23.437Z</time>
      </trkpt>
      <trkpt lat="46.85803" lon="-0.14775">
        <ele>76.9</ele>
        <time>2016-05-19T13:48:25.438Z</time>
      </trkpt>
      <trkpt lat="46.85803" lon="-0.14771">
        <ele>76.7</ele>
        <time>2016-05-19T13:48:27.432Z</time>
      </trkpt>
      <trkpt lat="46.85803" lon="-0.14767">
        <ele>76.5</ele>
        <time>2016-05-19T13:48:29.441Z</time>
      </trkpt>
      <trkpt lat="46.85803" lon="-0.14763">
        <ele>76.4</ele>
        <time>2016-05-19T13:48:31.435Z</time>
      </trkpt>
      <trkpt lat="46.85802" lon="-0.14759">
        <ele>76.8</ele>
        <time>2016-05-19T13:48:33.433Z</time>
      </trkpt>
      <trkpt lat="46.85803" lon="-0.14755">
        <ele>76.5</ele>
        <time>2016-05-19T13:48:35.434Z</time>
      </trkpt>
      <trkpt lat="46.85803" lon="-0.14751">
        <ele>76.3</ele>
        <time>2016-05-19T13:48:37.422Z</time>
      </trkpt>
      <trkpt lat="46.85803" lon="-0.14749">
        <ele>75.8</ele>
        <time>2016-05-19T13:48:39.438Z</time>
      </trkpt>
      <trkpt lat="46.85804" lon="-0.14747">
        <ele>75.7</ele>
        <time>2016-05-19T13:48:41.432Z</time>
      </trkpt>
      <trkpt lat="46.85804" lon="-0.14744">
        <ele>76</ele>
        <time>2016-05-19T13:48:43.515Z</time>
      </trkpt>
      <trkpt lat="46.85805" lon="-0.14741">
        <ele>75.4</ele>
        <time>2016-05-19T13:48:45.431Z</time>
      </trkpt>
      <trkpt lat="46.85806" lon="-0.14738">
        <ele>74.5</ele>
        <time>2016-05-19T13:48:47.434Z</time>
      </trkpt>
      <trkpt lat="46.85807" lon="-0.14736">
        <ele>73.6</ele>
        <time>2016-05-19T13:48:49.421Z</time>
      </trkpt>
      <trkpt lat="46.85808" lon="-0.14734">
        <ele>72.6</ele>
        <time>2016-05-19T13:48:51.437Z</time>
      </trkpt>
      <trkpt lat="46.85809" lon="-0.14731">
        <ele>72.6</ele>
        <time>2016-05-19T13:48:53.430Z</time>
      </trkpt>
      <trkpt lat="46.8581" lon="-0.14728">
        <ele>72.3</ele>
        <time>2016-05-19T13:48:55.436Z</time>
      </trkpt>
      <trkpt lat="46.85811" lon="-0.14725">
        <ele>72.8</ele>
        <time>2016-05-19T13:48:57.433Z</time>
      </trkpt>
      <trkpt lat="46.85811" lon="-0.14722">
        <ele>71.6</ele>
        <time>2016-05-19T13:48:59.440Z</time>
      </trkpt>
      <trkpt lat="46.85812" lon="-0.14719">
        <ele>70.9</ele>
        <time>2016-05-19T13:49:01.434Z</time>
      </trkpt>
      <trkpt lat="46.85813" lon="-0.14716">
        <ele>70.9</ele>
        <time>2016-05-19T13:49:03.445Z</time>
      </trkpt>
      <trkpt lat="46.85814" lon="-0.14712">
        <ele>71.1</ele>
        <time>2016-05-19T13:49:05.467Z</time>
      </trkpt>
      <trkpt lat="46.85815" lon="-0.14709">
        <ele>70.5</ele>
        <time>2016-05-19T13:49:07.419Z</time>
      </trkpt>
      <trkpt lat="46.85816" lon="-0.14708">
        <ele>70.7</ele>
        <time>2016-05-19T13:49:08.423Z</time>
      </trkpt>
      <trkpt lat="46.85817" lon="-0.14705">
        <ele>70.3</ele>
        <time>2016-05-19T13:49:10.433Z</time>
      </trkpt>
      <trkpt lat="46.85818" lon="-0.14701">
        <ele>70.6</ele>
        <time>2016-05-19T13:49:12.441Z</time>
      </trkpt>
      <trkpt lat="46.85819" lon="-0.14697">
        <ele>70.3</ele>
        <time>2016-05-19T13:49:14.433Z</time>
      </trkpt>
      <trkpt lat="46.85819" lon="-0.14694">
        <ele>69.9</ele>
        <time>2016-05-19T13:49:16.435Z</time>
      </trkpt>
      <trkpt lat="46.8582" lon="-0.1469">
        <ele>70</ele>
        <time>2016-05-19T13:49:18.436Z</time>
      </trkpt>
      <trkpt lat="46.8582" lon="-0.14686">
        <ele>69.8</ele>
        <time>2016-05-19T13:49:20.431Z</time>
      </trkpt>
      <trkpt lat="46.85821" lon="-0.14682">
        <ele>69.7</ele>
        <time>2016-05-19T13:49:22.437Z</time>
      </trkpt>
      <trkpt lat="46.85821" lon="-0.14678">
        <ele>69.7</ele>
        <time>2016-05-19T13:49:24.436Z</time>
      </trkpt>
      <trkpt lat="46.85822" lon="-0.14674">
        <ele>69.4</ele>
        <time>2016-05-19T13:49:26.421Z</time>
      </trkpt>
      <trkpt lat="46.85822" lon="-0.14672">
        <ele>69.5</ele>
        <time>2016-05-19T13:49:27.421Z</time>
      </trkpt>
      <trkpt lat="46.85823" lon="-0.14668">
        <ele>69.5</ele>
        <time>2016-05-19T13:49:29.433Z</time>
      </trkpt>
      <trkpt lat="46.85824" lon="-0.14663">
        <ele>68.7</ele>
        <time>2016-05-19T13:49:31.433Z</time>
      </trkpt>
      <trkpt lat="46.85824" lon="-0.14659">
        <ele>68</ele>
        <time>2016-05-19T13:49:33.435Z</time>
      </trkpt>
      <trkpt lat="46.85825" lon="-0.14655">
        <ele>67.4</ele>
        <time>2016-05-19T13:49:35.440Z</time>
      </trkpt>
      <trkpt lat="46.85825" lon="-0.14652">
        <ele>67.1</ele>
        <time>2016-05-19T13:49:37.436Z</time>
      </trkpt>
      <trkpt lat="46.85826" lon="-0.14648">
        <ele>67.5</ele>
        <time>2016-05-19T13:49:39.433Z</time>
      </trkpt>
      <trkpt lat="46.85826" lon="-0.14644">
        <ele>67.6</ele>
        <time>2016-05-19T13:49:41.432Z</time>
      </trkpt>
      <trkpt lat="46.85827" lon="-0.1464">
        <ele>67.8</ele>
        <time>2016-05-19T13:49:43.425Z</time>
      </trkpt>
      <trkpt lat="46.85827" lon="-0.14636">
        <ele>68.2</ele>
        <time>2016-05-19T13:49:45.434Z</time>
      </trkpt>
      <trkpt lat="46.85827" lon="-0.14632">
        <ele>67.3</ele>
        <time>2016-05-19T13:49:47.435Z</time>
      </trkpt>
      <trkpt lat="46.85828" lon="-0.14628">
        <ele>65.9</ele>
        <time>2016-05-19T13:49:49.420Z</time>
      </trkpt>
      <trkpt lat="46.85828" lon="-0.14626">
        <ele>65.7</ele>
        <time>2016-05-19T13:49:50.422Z</time>
      </trkpt>
      <trkpt lat="46.85828" lon="-0.14625">
        <ele>65.2</ele>
        <time>2016-05-19T13:49:51.424Z</time>
      </trkpt>
      <trkpt lat="46.85829" lon="-0.14622">
        <ele>66.6</ele>
        <time>2016-05-19T13:49:53.434Z</time>
      </trkpt>
      <trkpt lat="46.8583" lon="-0.14618">
        <ele>67.2</ele>
        <time>2016-05-19T13:49:55.440Z</time>
      </trkpt>
      <trkpt lat="46.8583" lon="-0.14615">
        <ele>68.5</ele>
        <time>2016-05-19T13:49:57.418Z</time>
      </trkpt>
      <trkpt lat="46.85829" lon="-0.14613">
        <ele>68.8</ele>
        <time>2016-05-19T13:49:58.419Z</time>
      </trkpt>
      <trkpt lat="46.8583" lon="-0.14611">
        <ele>69.6</ele>
        <time>2016-05-19T13:49:59.422Z</time>
      </trkpt>
      <trkpt lat="46.8583" lon="-0.14608">
        <ele>69.1</ele>
        <time>2016-05-19T13:50:01.440Z</time>
      </trkpt>
      <trkpt lat="46.8583" lon="-0.14604">
        <ele>69.8</ele>
        <time>2016-05-19T13:50:03.432Z</time>
      </trkpt>
      <trkpt lat="46.8583" lon="-0.14601">
        <ele>70.1</ele>
        <time>2016-05-19T13:50:05.433Z</time>
      </trkpt>
      <trkpt lat="46.8583" lon="-0.14597">
        <ele>70</ele>
        <time>2016-05-19T13:50:07.435Z</time>
      </trkpt>
      <trkpt lat="46.8583" lon="-0.14593">
        <ele>69.9</ele>
        <time>2016-05-19T13:50:09.449Z</time>
      </trkpt>
      <trkpt lat="46.8583" lon="-0.1459">
        <ele>70.1</ele>
        <time>2016-05-19T13:50:11.420Z</time>
      </trkpt>
      <trkpt lat="46.85829" lon="-0.14586">
        <ele>70.7</ele>
        <time>2016-05-19T13:50:13.438Z</time>
      </trkpt>
      <trkpt lat="46.85829" lon="-0.14583">
        <ele>71</ele>
        <time>2016-05-19T13:50:15.431Z</time>
      </trkpt>
      <trkpt lat="46.85828" lon="-0.14579">
        <ele>71</ele>
        <time>2016-05-19T13:50:17.432Z</time>
      </trkpt>
      <trkpt lat="46.85828" lon="-0.14575">
        <ele>70.9</ele>
        <time>2016-05-19T13:50:19.432Z</time>
      </trkpt>
      <trkpt lat="46.85828" lon="-0.14571">
        <ele>70.8</ele>
        <time>2016-05-19T13:50:21.439Z</time>
      </trkpt>
      <trkpt lat="46.85828" lon="-0.14568">
        <ele>70.8</ele>
        <time>2016-05-19T13:50:23.429Z</time>
      </trkpt>
      <trkpt lat="46.85828" lon="-0.14565">
        <ele>70</ele>
        <time>2016-05-19T13:50:25.440Z</time>
      </trkpt>
      <trkpt lat="46.85826" lon="-0.14564">
        <ele>69.3</ele>
        <time>2016-05-19T13:50:27.418Z</time>
      </trkpt>
      <trkpt lat="46.85826" lon="-0.14563">
        <ele>69.1</ele>
        <time>2016-05-19T13:50:28.418Z</time>
      </trkpt>
      <trkpt lat="46.85825" lon="-0.14563">
        <ele>69.1</ele>
        <time>2016-05-19T13:50:29.423Z</time>
      </trkpt>
      <trkpt lat="46.85825" lon="-0.14562">
        <ele>68.8</ele>
        <time>2016-05-19T13:50:31.435Z</time>
      </trkpt>
      <trkpt lat="46.85825" lon="-0.14561">
        <ele>68.1</ele>
        <time>2016-05-19T13:50:33.433Z</time>
      </trkpt>
      <trkpt lat="46.85825" lon="-0.14561">
        <ele>68.1</ele>
        <time>2016-05-19T13:50:35.441Z</time>
      </trkpt>
      <trkpt lat="46.85825" lon="-0.14561">
        <ele>68.1</ele>
        <time>2016-05-19T13:50:36.446Z</time>
      </trkpt>
      <trkpt lat="46.85825" lon="-0.14561">
        <ele>68.1</ele>
        <time>2016-05-19T13:50:38.432Z</time>
      </trkpt>
      <trkpt lat="46.85825" lon="-0.14561">
        <ele>68.1</ele>
        <time>2016-05-19T13:50:39.442Z</time>
      </trkpt>
      <trkpt lat="46.85825" lon="-0.14561">
        <ele>68.1</ele>
        <time>2016-05-19T13:50:41.436Z</time>
      </trkpt>
      <trkpt lat="46.85825" lon="-0.14561">
        <ele>68.1</ele>
        <time>2016-05-19T13:50:42.431Z</time>
      </trkpt>
      <trkpt lat="46.85825" lon="-0.14561">
        <ele>68.1</ele>
        <time>2016-05-19T13:50:43.437Z</time>
      </trkpt>
      <trkpt lat="46.85825" lon="-0.14561">
        <ele>68.1</ele>
        <time>2016-05-19T13:50:45.436Z</time>
      </trkpt>
      <trkpt lat="46.85825" lon="-0.14561">
        <ele>68.1</ele>
        <time>2016-05-19T13:50:47.436Z</time>
      </trkpt>
      <trkpt lat="46.85825" lon="-0.14561">
        <ele>68.1</ele>
        <time>2016-05-19T13:50:49.421Z</time>
      </trkpt>
      <trkpt lat="46.85825" lon="-0.14561">
        <ele>68.1</ele>
        <time>2016-05-19T13:50:50.434Z</time>
      </trkpt>
      <trkpt lat="46.85825" lon="-0.14561">
        <ele>68.1</ele>
        <time>2016-05-19T13:50:52.431Z</time>
      </trkpt>
      <trkpt lat="46.85825" lon="-0.14561">
        <ele>68.1</ele>
        <time>2016-05-19T13:50:53.434Z</time>
      </trkpt>
      <trkpt lat="46.85822" lon="-0.14563">
        <ele>65.2</ele>
        <time>2016-05-19T13:50:55.437Z</time>
      </trkpt>
      <trkpt lat="46.85822" lon="-0.14563">
        <ele>65</ele>
        <time>2016-05-19T13:50:57.433Z</time>
      </trkpt>
      <trkpt lat="46.85822" lon="-0.14563">
        <ele>65</ele>
        <time>2016-05-19T13:50:59.431Z</time>
      </trkpt>
      <trkpt lat="46.85822" lon="-0.14563">
        <ele>65</ele>
        <time>2016-05-19T13:51:01.431Z</time>
      </trkpt>
      <trkpt lat="46.85822" lon="-0.14563">
        <ele>65</ele>
        <time>2016-05-19T13:51:02.437Z</time>
      </trkpt>
      <trkpt lat="46.85823" lon="-0.14559">
        <ele>64.6</ele>
        <time>2016-05-19T13:51:03.470Z</time>
      </trkpt>
      <trkpt lat="46.85823" lon="-0.14557">
        <ele>64.3</ele>
        <time>2016-05-19T13:51:05.436Z</time>
      </trkpt>
      <trkpt lat="46.85823" lon="-0.14554">
        <ele>64.6</ele>
        <time>2016-05-19T13:51:07.434Z</time>
      </trkpt>
      <trkpt lat="46.85823" lon="-0.14551">
        <ele>64.6</ele>
        <time>2016-05-19T13:51:09.437Z</time>
      </trkpt>
      <trkpt lat="46.85823" lon="-0.14548">
        <ele>64.6</ele>
        <time>2016-05-19T13:51:11.432Z</time>
      </trkpt>
      <trkpt lat="46.85823" lon="-0.14545">
        <ele>64.5</ele>
        <time>2016-05-19T13:51:13.439Z</time>
      </trkpt>
      <trkpt lat="46.85824" lon="-0.14542">
        <ele>64.5</ele>
        <time>2016-05-19T13:51:15.433Z</time>
      </trkpt>
      <trkpt lat="46.85825" lon="-0.14539">
        <ele>64.5</ele>
        <time>2016-05-19T13:51:17.430Z</time>
      </trkpt>
      <trkpt lat="46.85825" lon="-0.14536">
        <ele>64.6</ele>
        <time>2016-05-19T13:51:19.439Z</time>
      </trkpt>
      <trkpt lat="46.85826" lon="-0.14533">
        <ele>64.8</ele>
        <time>2016-05-19T13:51:21.433Z</time>
      </trkpt>
      <trkpt lat="46.85827" lon="-0.14531">
        <ele>65.4</ele>
        <time>2016-05-19T13:51:23.430Z</time>
      </trkpt>
      <trkpt lat="46.85829" lon="-0.14527">
        <ele>65.7</ele>
        <time>2016-05-19T13:51:25.439Z</time>
      </trkpt>
      <trkpt lat="46.8583" lon="-0.14524">
        <ele>66</ele>
        <time>2016-05-19T13:51:27.427Z</time>
      </trkpt>
      <trkpt lat="46.85832" lon="-0.14521">
        <ele>66.4</ele>
        <time>2016-05-19T13:51:29.444Z</time>
      </trkpt>
      <trkpt lat="46.85833" lon="-0.14518">
        <ele>66.7</ele>
        <time>2016-05-19T13:51:31.439Z</time>
      </trkpt>
      <trkpt lat="46.85835" lon="-0.14516">
        <ele>66.6</ele>
        <time>2016-05-19T13:51:33.446Z</time>
      </trkpt>
      <trkpt lat="46.85836" lon="-0.14514">
        <ele>66.7</ele>
        <time>2016-05-19T13:51:35.434Z</time>
      </trkpt>
      <trkpt lat="46.85836" lon="-0.14512">
        <ele>66.6</ele>
        <time>2016-05-19T13:51:37.436Z</time>
      </trkpt>
      <trkpt lat="46.85838" lon="-0.14509">
        <ele>67</ele>
        <time>2016-05-19T13:51:39.436Z</time>
      </trkpt>
      <trkpt lat="46.8584" lon="-0.14507">
        <ele>67</ele>
        <time>2016-05-19T13:51:41.417Z</time>
      </trkpt>
      <trkpt lat="46.85841" lon="-0.14506">
        <ele>67.1</ele>
        <time>2016-05-19T13:51:42.417Z</time>
      </trkpt>
      <trkpt lat="46.85842" lon="-0.14506">
        <ele>67.2</ele>
        <time>2016-05-19T13:51:43.427Z</time>
      </trkpt>
      <trkpt lat="46.85843" lon="-0.14504">
        <ele>68</ele>
        <time>2016-05-19T13:51:45.417Z</time>
      </trkpt>
      <trkpt lat="46.85844" lon="-0.14503">
        <ele>68.1</ele>
        <time>2016-05-19T13:51:46.418Z</time>
      </trkpt>
      <trkpt lat="46.85844" lon="-0.14502">
        <ele>68.5</ele>
        <time>2016-05-19T13:51:47.422Z</time>
      </trkpt>
      <trkpt lat="46.85844" lon="-0.14502">
        <ele>68.4</ele>
        <time>2016-05-19T13:51:48.420Z</time>
      </trkpt>
      <trkpt lat="46.85845" lon="-0.14502">
        <ele>68.3</ele>
        <time>2016-05-19T13:51:49.425Z</time>
      </trkpt>
      <trkpt lat="46.85846" lon="-0.14501">
        <ele>68</ele>
        <time>2016-05-19T13:51:50.426Z</time>
      </trkpt>
      <trkpt lat="46.85848" lon="-0.145">
        <ele>67.7</ele>
        <time>2016-05-19T13:51:52.435Z</time>
      </trkpt>
      <trkpt lat="46.85849" lon="-0.14499">
        <ele>67.5</ele>
        <time>2016-05-19T13:51:54.428Z</time>
      </trkpt>
      <trkpt lat="46.85852" lon="-0.14497">
        <ele>67.9</ele>
        <time>2016-05-19T13:51:56.436Z</time>
      </trkpt>
      <trkpt lat="46.85854" lon="-0.14496">
        <ele>68.2</ele>
        <time>2016-05-19T13:51:58.435Z</time>
      </trkpt>
      <trkpt lat="46.85855" lon="-0.14493">
        <ele>68.3</ele>
        <time>2016-05-19T13:52:00.434Z</time>
      </trkpt>
      <trkpt lat="46.85856" lon="-0.14491">
        <ele>68.5</ele>
        <time>2016-05-19T13:52:02.434Z</time>
      </trkpt>
      <trkpt lat="46.85856" lon="-0.14488">
        <ele>68.7</ele>
        <time>2016-05-19T13:52:04.418Z</time>
      </trkpt>
      <trkpt lat="46.85856" lon="-0.14487">
        <ele>68.6</ele>
        <time>2016-05-19T13:52:05.418Z</time>
      </trkpt>
      <trkpt lat="46.85856" lon="-0.14484">
        <ele>68.3</ele>
        <time>2016-05-19T13:52:07.432Z</time>
      </trkpt>
      <trkpt lat="46.85855" lon="-0.14481">
        <ele>68.6</ele>
        <time>2016-05-19T13:52:09.449Z</time>
      </trkpt>
      <trkpt lat="46.85855" lon="-0.14478">
        <ele>68.6</ele>
        <time>2016-05-19T13:52:11.419Z</time>
      </trkpt>
      <trkpt lat="46.85854" lon="-0.14477">
        <ele>68.2</ele>
        <time>2016-05-19T13:52:12.432Z</time>
      </trkpt>
      <trkpt lat="46.85854" lon="-0.14475">
        <ele>68.2</ele>
        <time>2016-05-19T13:52:13.469Z</time>
      </trkpt>
      <trkpt lat="46.85854" lon="-0.14472">
        <ele>68.2</ele>
        <time>2016-05-19T13:52:15.435Z</time>
      </trkpt>
      <trkpt lat="46.85854" lon="-0.1447">
        <ele>68.4</ele>
        <time>2016-05-19T13:52:17.435Z</time>
      </trkpt>
      <trkpt lat="46.85854" lon="-0.14468">
        <ele>68.2</ele>
        <time>2016-05-19T13:52:19.442Z</time>
      </trkpt>
      <trkpt lat="46.85854" lon="-0.14465">
        <ele>68.3</ele>
        <time>2016-05-19T13:52:21.433Z</time>
      </trkpt>
      <trkpt lat="46.85854" lon="-0.14463">
        <ele>68.5</ele>
        <time>2016-05-19T13:52:23.432Z</time>
      </trkpt>
      <trkpt lat="46.85853" lon="-0.14461">
        <ele>68.6</ele>
        <time>2016-05-19T13:52:25.436Z</time>
      </trkpt>
      <trkpt lat="46.85854" lon="-0.14458">
        <ele>68.7</ele>
        <time>2016-05-19T13:52:27.431Z</time>
      </trkpt>
      <trkpt lat="46.85854" lon="-0.14456">
        <ele>68.9</ele>
        <time>2016-05-19T13:52:29.417Z</time>
      </trkpt>
      <trkpt lat="46.85854" lon="-0.14454">
        <ele>69</ele>
        <time>2016-05-19T13:52:30.421Z</time>
      </trkpt>
      <trkpt lat="46.85854" lon="-0.14453">
        <ele>69.1</ele>
        <time>2016-05-19T13:52:31.424Z</time>
      </trkpt>
      <trkpt lat="46.85854" lon="-0.1445">
        <ele>69.4</ele>
        <time>2016-05-19T13:52:33.434Z</time>
      </trkpt>
      <trkpt lat="46.85854" lon="-0.14448">
        <ele>69.5</ele>
        <time>2016-05-19T13:52:35.441Z</time>
      </trkpt>
      <trkpt lat="46.85854" lon="-0.14446">
        <ele>69.2</ele>
        <time>2016-05-19T13:52:37.433Z</time>
      </trkpt>
      <trkpt lat="46.85854" lon="-0.14444">
        <ele>69.2</ele>
        <time>2016-05-19T13:52:39.425Z</time>
      </trkpt>
      <trkpt lat="46.85854" lon="-0.14444">
        <ele>68.4</ele>
        <time>2016-05-19T13:52:41.436Z</time>
      </trkpt>
      <trkpt lat="46.85854" lon="-0.14443">
        <ele>68.3</ele>
        <time>2016-05-19T13:52:43.434Z</time>
      </trkpt>
      <trkpt lat="46.85854" lon="-0.14443">
        <ele>68.3</ele>
        <time>2016-05-19T13:52:45.433Z</time>
      </trkpt>
      <trkpt lat="46.8585" lon="-0.14438">
        <ele>65.7</ele>
        <time>2016-05-19T13:52:47.441Z</time>
      </trkpt>
      <trkpt lat="46.85851" lon="-0.14435">
        <ele>66.5</ele>
        <time>2016-05-19T13:52:49.440Z</time>
      </trkpt>
      <trkpt lat="46.8585" lon="-0.14432">
        <ele>67.6</ele>
        <time>2016-05-19T13:52:51.433Z</time>
      </trkpt>
      <trkpt lat="46.8585" lon="-0.14429">
        <ele>67.3</ele>
        <time>2016-05-19T13:52:53.434Z</time>
      </trkpt>
      <trkpt lat="46.8585" lon="-0.14426">
        <ele>67.4</ele>
        <time>2016-05-19T13:52:55.436Z</time>
      </trkpt>
      <trkpt lat="46.8585" lon="-0.14423">
        <ele>67.7</ele>
        <time>2016-05-19T13:52:57.440Z</time>
      </trkpt>
      <trkpt lat="46.85851" lon="-0.14419">
        <ele>68.3</ele>
        <time>2016-05-19T13:52:59.441Z</time>
      </trkpt>
      <trkpt lat="46.85852" lon="-0.14417">
        <ele>68</ele>
        <time>2016-05-19T13:53:01.441Z</time>
      </trkpt>
      <trkpt lat="46.85852" lon="-0.14415">
        <ele>69.7</ele>
        <time>2016-05-19T13:53:03.447Z</time>
      </trkpt>
      <trkpt lat="46.85853" lon="-0.14413">
        <ele>70.5</ele>
        <time>2016-05-19T13:53:05.437Z</time>
      </trkpt>
      <trkpt lat="46.85853" lon="-0.14412">
        <ele>71.1</ele>
        <time>2016-05-19T13:53:07.435Z</time>
      </trkpt>
      <trkpt lat="46.85852" lon="-0.14411">
        <ele>71.4</ele>
        <time>2016-05-19T13:53:09.434Z</time>
      </trkpt>
      <trkpt lat="46.85852" lon="-0.14411">
        <ele>71.4</ele>
        <time>2016-05-19T13:53:11.436Z</time>
      </trkpt>
      <trkpt lat="46.85852" lon="-0.14411">
        <ele>71.4</ele>
        <time>2016-05-19T13:53:12.452Z</time>
      </trkpt>
      <trkpt lat="46.85852" lon="-0.14408">
        <ele>73.6</ele>
        <time>2016-05-19T13:53:13.449Z</time>
      </trkpt>
      <trkpt lat="46.85852" lon="-0.14406">
        <ele>73.9</ele>
        <time>2016-05-19T13:53:15.432Z</time>
      </trkpt>
      <trkpt lat="46.85853" lon="-0.14404">
        <ele>74.4</ele>
        <time>2016-05-19T13:53:17.442Z</time>
      </trkpt>
      <trkpt lat="46.85852" lon="-0.14401">
        <ele>72.9</ele>
        <time>2016-05-19T13:53:19.437Z</time>
      </trkpt>
      <trkpt lat="46.85852" lon="-0.14397">
        <ele>72.1</ele>
        <time>2016-05-19T13:53:21.434Z</time>
      </trkpt>
      <trkpt lat="46.85851" lon="-0.14395">
        <ele>70.8</ele>
        <time>2016-05-19T13:53:23.435Z</time>
      </trkpt>
      <trkpt lat="46.85851" lon="-0.14392">
        <ele>70</ele>
        <time>2016-05-19T13:53:25.448Z</time>
      </trkpt>
      <trkpt lat="46.85851" lon="-0.14389">
        <ele>68.9</ele>
        <time>2016-05-19T13:53:27.432Z</time>
      </trkpt>
      <trkpt lat="46.85851" lon="-0.14386">
        <ele>68.8</ele>
        <time>2016-05-19T13:53:29.435Z</time>
      </trkpt>
      <trkpt lat="46.85851" lon="-0.14383">
        <ele>68.4</ele>
        <time>2016-05-19T13:53:31.431Z</time>
      </trkpt>
      <trkpt lat="46.85851" lon="-0.1438">
        <ele>68.1</ele>
        <time>2016-05-19T13:53:33.434Z</time>
      </trkpt>
      <trkpt lat="46.8585" lon="-0.14377">
        <ele>68.3</ele>
        <time>2016-05-19T13:53:35.435Z</time>
      </trkpt>
      <trkpt lat="46.8585" lon="-0.14374">
        <ele>68.6</ele>
        <time>2016-05-19T13:53:37.440Z</time>
      </trkpt>
      <trkpt lat="46.8585" lon="-0.1437">
        <ele>69.4</ele>
        <time>2016-05-19T13:53:39.442Z</time>
      </trkpt>
      <trkpt lat="46.8585" lon="-0.14367">
        <ele>70</ele>
        <time>2016-05-19T13:53:41.440Z</time>
      </trkpt>
      <trkpt lat="46.8585" lon="-0.14364">
        <ele>70.9</ele>
        <time>2016-05-19T13:53:43.432Z</time>
      </trkpt>
      <trkpt lat="46.85851" lon="-0.14361">
        <ele>71.4</ele>
        <time>2016-05-19T13:53:45.432Z</time>
      </trkpt>
      <trkpt lat="46.85851" lon="-0.14359">
        <ele>72</ele>
        <time>2016-05-19T13:53:47.434Z</time>
      </trkpt>
      <trkpt lat="46.85851" lon="-0.14358">
        <ele>72.1</ele>
        <time>2016-05-19T13:53:49.444Z</time>
      </trkpt>
      <trkpt lat="46.85851" lon="-0.14358">
        <ele>72.6</ele>
        <time>2016-05-19T13:53:51.419Z</time>
      </trkpt>
      <trkpt lat="46.85851" lon="-0.14358">
        <ele>72.6</ele>
        <time>2016-05-19T13:53:52.421Z</time>
      </trkpt>
      <trkpt lat="46.85851" lon="-0.14358">
        <ele>72.6</ele>
        <time>2016-05-19T13:53:54.418Z</time>
      </trkpt>
      <trkpt lat="46.85851" lon="-0.14356">
        <ele>73.1</ele>
        <time>2016-05-19T13:53:55.433Z</time>
      </trkpt>
      <trkpt lat="46.85851" lon="-0.14355">
        <ele>72.3</ele>
        <time>2016-05-19T13:53:57.431Z</time>
      </trkpt>
      <trkpt lat="46.85852" lon="-0.14355">
        <ele>72.9</ele>
        <time>2016-05-19T13:53:59.440Z</time>
      </trkpt>
      <trkpt lat="46.85852" lon="-0.14355">
        <ele>72.9</ele>
        <time>2016-05-19T13:54:01.438Z</time>
      </trkpt>
      <trkpt lat="46.85852" lon="-0.14355">
        <ele>72.9</ele>
        <time>2016-05-19T13:54:03.431Z</time>
      </trkpt>
      <trkpt lat="46.85852" lon="-0.14355">
        <ele>72.9</ele>
        <time>2016-05-19T13:54:04.442Z</time>
      </trkpt>
      <trkpt lat="46.85851" lon="-0.14352">
        <ele>73.5</ele>
        <time>2016-05-19T13:54:05.434Z</time>
      </trkpt>
      <trkpt lat="46.85851" lon="-0.1435">
        <ele>73.9</ele>
        <time>2016-05-19T13:54:07.441Z</time>
      </trkpt>
      <trkpt lat="46.85851" lon="-0.14349">
        <ele>73.5</ele>
        <time>2016-05-19T13:54:09.443Z</time>
      </trkpt>
      <trkpt lat="46.85851" lon="-0.14348">
        <ele>71.9</ele>
        <time>2016-05-19T13:54:11.436Z</time>
      </trkpt>
      <trkpt lat="46.85851" lon="-0.14348">
        <ele>71.2</ele>
        <time>2016-05-19T13:54:13.433Z</time>
      </trkpt>
      <trkpt lat="46.85851" lon="-0.14348">
        <ele>71.2</ele>
        <time>2016-05-19T13:54:15.433Z</time>
      </trkpt>
      <trkpt lat="46.8585" lon="-0.14345">
        <ele>70</ele>
        <time>2016-05-19T13:54:16.432Z</time>
      </trkpt>
      <trkpt lat="46.85849" lon="-0.14342">
        <ele>69.1</ele>
        <time>2016-05-19T13:54:18.436Z</time>
      </trkpt>
      <trkpt lat="46.85848" lon="-0.14339">
        <ele>67.6</ele>
        <time>2016-05-19T13:54:20.417Z</time>
      </trkpt>
      <trkpt lat="46.85847" lon="-0.14338">
        <ele>66.8</ele>
        <time>2016-05-19T13:54:21.417Z</time>
      </trkpt>
      <trkpt lat="46.85847" lon="-0.14337">
        <ele>66.7</ele>
        <time>2016-05-19T13:54:22.418Z</time>
      </trkpt>
      <trkpt lat="46.85846" lon="-0.14335">
        <ele>66.4</ele>
        <time>2016-05-19T13:54:24.417Z</time>
      </trkpt>
      <trkpt lat="46.85845" lon="-0.14334">
        <ele>66.1</ele>
        <time>2016-05-19T13:54:25.425Z</time>
      </trkpt>
      <trkpt lat="46.85843" lon="-0.14333">
        <ele>64.6</ele>
        <time>2016-05-19T13:54:27.432Z</time>
      </trkpt>
      <trkpt lat="46.85841" lon="-0.14332">
        <ele>63.6</ele>
        <time>2016-05-19T13:54:29.444Z</time>
      </trkpt>
      <trkpt lat="46.8584" lon="-0.14331">
        <ele>63.5</ele>
        <time>2016-05-19T13:54:31.419Z</time>
      </trkpt>
      <trkpt lat="46.85839" lon="-0.14331">
        <ele>63.3</ele>
        <time>2016-05-19T13:54:32.435Z</time>
      </trkpt>
      <trkpt lat="46.85838" lon="-0.14331">
        <ele>62.4</ele>
        <time>2016-05-19T13:54:34.420Z</time>
      </trkpt>
      <trkpt lat="46.85838" lon="-0.14331">
        <ele>62.3</ele>
        <time>2016-05-19T13:54:36.431Z</time>
      </trkpt>
      <trkpt lat="46.85837" lon="-0.1433">
        <ele>62.2</ele>
        <time>2016-05-19T13:54:37.441Z</time>
      </trkpt>
      <trkpt lat="46.85836" lon="-0.14331">
        <ele>61.3</ele>
        <time>2016-05-19T13:54:39.433Z</time>
      </trkpt>
      <trkpt lat="46.85835" lon="-0.14331">
        <ele>60.7</ele>
        <time>2016-05-19T13:54:41.417Z</time>
      </trkpt>
      <trkpt lat="46.85835" lon="-0.14332">
        <ele>61.1</ele>
        <time>2016-05-19T13:54:42.418Z</time>
      </trkpt>
      <trkpt lat="46.85835" lon="-0.14333">
        <ele>61.4</ele>
        <time>2016-05-19T13:54:43.433Z</time>
      </trkpt>
      <trkpt lat="46.85834" lon="-0.14333">
        <ele>61.4</ele>
        <time>2016-05-19T13:54:45.416Z</time>
      </trkpt>
      <trkpt lat="46.85833" lon="-0.14333">
        <ele>61.4</ele>
        <time>2016-05-19T13:54:46.436Z</time>
      </trkpt>
      <trkpt lat="46.85832" lon="-0.14335">
        <ele>61.5</ele>
        <time>2016-05-19T13:54:48.416Z</time>
      </trkpt>
      <trkpt lat="46.85831" lon="-0.14334">
        <ele>61.4</ele>
        <time>2016-05-19T13:54:49.420Z</time>
      </trkpt>
      <trkpt lat="46.8583" lon="-0.14334">
        <ele>60.9</ele>
        <time>2016-05-19T13:54:51.470Z</time>
      </trkpt>
      <trkpt lat="46.85829" lon="-0.14334">
        <ele>60.1</ele>
        <time>2016-05-19T13:54:52.419Z</time>
      </trkpt>
      <trkpt lat="46.85828" lon="-0.14335">
        <ele>60.1</ele>
        <time>2016-05-19T13:54:53.419Z</time>
      </trkpt>
      <trkpt lat="46.85826" lon="-0.14337">
        <ele>61.4</ele>
        <time>2016-05-19T13:54:55.433Z</time>
      </trkpt>
      <trkpt lat="46.85825" lon="-0.14337">
        <ele>62.2</ele>
        <time>2016-05-19T13:54:56.456Z</time>
      </trkpt>
      <trkpt lat="46.85833" lon="-0.14331">
        <ele>62.2</ele>
        <time>2016-05-19T13:55:00.441Z</time>
      </trkpt>
      <trkpt lat="46.85825" lon="-0.14327">
        <ele>62.2</ele>
        <time>2016-05-19T13:55:04.435Z</time>
      </trkpt>
    </trkseg>
  </trk>
</gpx>